<?xml version="1.0" encoding="UTF-8" standalone="no" ?>
<gpx xmlns="http://www.topografix.com/GPX/1/1" xmlns:xsi="http://www.w3.org/2001/XMLSchema-instance" xsi:schemaLocation="http://www.topografix.com/GPX/1/1 http://www.topografix.com/GPX/1/1/gpx.xsd" version="1.1" creator="VisuGPX - https://www.visugpx.com">
  <metadata>
    <name>Table des 4 Seigneurs, Sourroque by L'ORSALHER VTT</name>
    <desc><![CDATA[Sortie VTT de Jean-Jacques & Kristian le 02 juin 2022. Il ont testé une nouvelle trace.]]></desc>
  </metadata>
  <wpt lat="42.93561" lon="1.13896">
    <ele>1238.8</ele>
    <name><![CDATA[Table des 4 Seigneurs]]></name>
    <desc><![CDATA[Photo avec Jean-Jacques & Kristian, Bois de Sourroque]]></desc>
    <type><![CDATA[person]]></type>
  </wpt>
  <trk>
    <name><![CDATA[Table des 4 Seigneurs "Sourroque"]]></name>
    <desc><![CDATA[Sortie VTT de Jean-Jacques & Kristian le 02 juin 2022]]></desc>
    <extensions>
      <line xmlns="http://www.topografix.com/GPX/gpx_style/0/2">
        <color>ff0000</color>
        <width>4</width>
          <extensions>
            <sens>1</sens>
          </extensions>
      </line>
    </extensions>
    <trkseg>
      <trkpt lat="42.98384" lon="1.13807">
        <ele>411.4</ele>
        <time>2022-06-02T05:03:03.000Z</time>
      </trkpt>
      <trkpt lat="42.98384" lon="1.13808">
        <ele>410.9</ele>
        <time>2022-06-02T05:03:06.000Z</time>
      </trkpt>
      <trkpt lat="42.98385" lon="1.1381">
        <ele>410.2</ele>
        <time>2022-06-02T05:03:14.000Z</time>
      </trkpt>
      <trkpt lat="42.98386" lon="1.1381">
        <ele>410</ele>
        <time>2022-06-02T05:03:29.000Z</time>
      </trkpt>
      <trkpt lat="42.98395" lon="1.13805">
        <ele>409.9</ele>
        <time>2022-06-02T05:03:41.000Z</time>
      </trkpt>
      <trkpt lat="42.98394" lon="1.13791">
        <ele>409.6</ele>
        <time>2022-06-02T05:03:45.000Z</time>
      </trkpt>
      <trkpt lat="42.98394" lon="1.13778">
        <ele>409.7</ele>
        <time>2022-06-02T05:03:48.000Z</time>
      </trkpt>
      <trkpt lat="42.98392" lon="1.13762">
        <ele>409.5</ele>
        <time>2022-06-02T05:03:52.000Z</time>
      </trkpt>
      <trkpt lat="42.9839" lon="1.13748">
        <ele>409.6</ele>
        <time>2022-06-02T05:03:55.000Z</time>
      </trkpt>
      <trkpt lat="42.98386" lon="1.13733">
        <ele>410</ele>
        <time>2022-06-02T05:03:58.000Z</time>
      </trkpt>
      <trkpt lat="42.9838" lon="1.1372">
        <ele>410.1</ele>
        <time>2022-06-02T05:04:01.000Z</time>
      </trkpt>
      <trkpt lat="42.98375" lon="1.13709">
        <ele>409.8</ele>
        <time>2022-06-02T05:04:04.000Z</time>
      </trkpt>
      <trkpt lat="42.98371" lon="1.13696">
        <ele>410.1</ele>
        <time>2022-06-02T05:04:07.000Z</time>
      </trkpt>
      <trkpt lat="42.98366" lon="1.13684">
        <ele>410.4</ele>
        <time>2022-06-02T05:04:10.000Z</time>
      </trkpt>
      <trkpt lat="42.98361" lon="1.13672">
        <ele>411.2</ele>
        <time>2022-06-02T05:04:13.000Z</time>
      </trkpt>
      <trkpt lat="42.98356" lon="1.13659">
        <ele>411.2</ele>
        <time>2022-06-02T05:04:16.000Z</time>
      </trkpt>
      <trkpt lat="42.98351" lon="1.13646">
        <ele>411.6</ele>
        <time>2022-06-02T05:04:19.000Z</time>
      </trkpt>
      <trkpt lat="42.98345" lon="1.13634">
        <ele>411.9</ele>
        <time>2022-06-02T05:04:22.000Z</time>
      </trkpt>
      <trkpt lat="42.9834" lon="1.13622">
        <ele>412.5</ele>
        <time>2022-06-02T05:04:25.000Z</time>
      </trkpt>
      <trkpt lat="42.98336" lon="1.13609">
        <ele>412.8</ele>
        <time>2022-06-02T05:04:28.000Z</time>
      </trkpt>
      <trkpt lat="42.98331" lon="1.13596">
        <ele>413</ele>
        <time>2022-06-02T05:04:31.000Z</time>
      </trkpt>
      <trkpt lat="42.98328" lon="1.13582">
        <ele>413.6</ele>
        <time>2022-06-02T05:04:34.000Z</time>
      </trkpt>
      <trkpt lat="42.98324" lon="1.13568">
        <ele>413.8</ele>
        <time>2022-06-02T05:04:37.000Z</time>
      </trkpt>
      <trkpt lat="42.9832" lon="1.13557">
        <ele>414.2</ele>
        <time>2022-06-02T05:04:40.000Z</time>
      </trkpt>
      <trkpt lat="42.98314" lon="1.13546">
        <ele>414.3</ele>
        <time>2022-06-02T05:04:43.000Z</time>
      </trkpt>
      <trkpt lat="42.98309" lon="1.13534">
        <ele>414.5</ele>
        <time>2022-06-02T05:04:47.000Z</time>
      </trkpt>
      <trkpt lat="42.98302" lon="1.13525">
        <ele>415</ele>
        <time>2022-06-02T05:04:52.000Z</time>
      </trkpt>
      <trkpt lat="42.98299" lon="1.13513">
        <ele>415.1</ele>
        <time>2022-06-02T05:04:55.000Z</time>
      </trkpt>
      <trkpt lat="42.98292" lon="1.135">
        <ele>415.1</ele>
        <time>2022-06-02T05:04:58.000Z</time>
      </trkpt>
      <trkpt lat="42.98282" lon="1.13489">
        <ele>415.2</ele>
        <time>2022-06-02T05:05:01.000Z</time>
      </trkpt>
      <trkpt lat="42.98273" lon="1.13478">
        <ele>415.3</ele>
        <time>2022-06-02T05:05:04.000Z</time>
      </trkpt>
      <trkpt lat="42.98262" lon="1.13468">
        <ele>415.5</ele>
        <time>2022-06-02T05:05:07.000Z</time>
      </trkpt>
      <trkpt lat="42.98253" lon="1.13456">
        <ele>416</ele>
        <time>2022-06-02T05:05:10.000Z</time>
      </trkpt>
      <trkpt lat="42.98244" lon="1.13445">
        <ele>416.4</ele>
        <time>2022-06-02T05:05:13.000Z</time>
      </trkpt>
      <trkpt lat="42.98235" lon="1.13433">
        <ele>416.6</ele>
        <time>2022-06-02T05:05:16.000Z</time>
      </trkpt>
      <trkpt lat="42.98228" lon="1.13421">
        <ele>416.8</ele>
        <time>2022-06-02T05:05:19.000Z</time>
      </trkpt>
      <trkpt lat="42.9822" lon="1.1341">
        <ele>417.1</ele>
        <time>2022-06-02T05:05:22.000Z</time>
      </trkpt>
      <trkpt lat="42.98213" lon="1.134">
        <ele>417.2</ele>
        <time>2022-06-02T05:05:25.000Z</time>
      </trkpt>
      <trkpt lat="42.98205" lon="1.1339">
        <ele>417.7</ele>
        <time>2022-06-02T05:05:28.000Z</time>
      </trkpt>
      <trkpt lat="42.98196" lon="1.13383">
        <ele>417.8</ele>
        <time>2022-06-02T05:05:31.000Z</time>
      </trkpt>
      <trkpt lat="42.98186" lon="1.13375">
        <ele>418.1</ele>
        <time>2022-06-02T05:05:34.000Z</time>
      </trkpt>
      <trkpt lat="42.98176" lon="1.13368">
        <ele>418.5</ele>
        <time>2022-06-02T05:05:37.000Z</time>
      </trkpt>
      <trkpt lat="42.98166" lon="1.13361">
        <ele>418.4</ele>
        <time>2022-06-02T05:05:40.000Z</time>
      </trkpt>
      <trkpt lat="42.98156" lon="1.13355">
        <ele>418.7</ele>
        <time>2022-06-02T05:05:43.000Z</time>
      </trkpt>
      <trkpt lat="42.98145" lon="1.13348">
        <ele>418.8</ele>
        <time>2022-06-02T05:05:46.000Z</time>
      </trkpt>
      <trkpt lat="42.98136" lon="1.13342">
        <ele>418.7</ele>
        <time>2022-06-02T05:05:49.000Z</time>
      </trkpt>
      <trkpt lat="42.98127" lon="1.13335">
        <ele>418.9</ele>
        <time>2022-06-02T05:05:52.000Z</time>
      </trkpt>
      <trkpt lat="42.98118" lon="1.13329">
        <ele>419</ele>
        <time>2022-06-02T05:05:55.000Z</time>
      </trkpt>
      <trkpt lat="42.98108" lon="1.13324">
        <ele>419.7</ele>
        <time>2022-06-02T05:05:59.000Z</time>
      </trkpt>
      <trkpt lat="42.98098" lon="1.13317">
        <ele>420.1</ele>
        <time>2022-06-02T05:06:03.000Z</time>
      </trkpt>
      <trkpt lat="42.9809" lon="1.1331">
        <ele>420.1</ele>
        <time>2022-06-02T05:06:06.000Z</time>
      </trkpt>
      <trkpt lat="42.9808" lon="1.13305">
        <ele>420.4</ele>
        <time>2022-06-02T05:06:09.000Z</time>
      </trkpt>
      <trkpt lat="42.98071" lon="1.13302">
        <ele>420.4</ele>
        <time>2022-06-02T05:06:12.000Z</time>
      </trkpt>
      <trkpt lat="42.98064" lon="1.13312">
        <ele>421.1</ele>
        <time>2022-06-02T05:06:16.000Z</time>
      </trkpt>
      <trkpt lat="42.98062" lon="1.13325">
        <ele>421.3</ele>
        <time>2022-06-02T05:06:20.000Z</time>
      </trkpt>
      <trkpt lat="42.98061" lon="1.13339">
        <ele>421.8</ele>
        <time>2022-06-02T05:06:24.000Z</time>
      </trkpt>
      <trkpt lat="42.98059" lon="1.13351">
        <ele>423.2</ele>
        <time>2022-06-02T05:06:28.000Z</time>
      </trkpt>
      <trkpt lat="42.98055" lon="1.13363">
        <ele>424.1</ele>
        <time>2022-06-02T05:06:33.000Z</time>
      </trkpt>
      <trkpt lat="42.98049" lon="1.13374">
        <ele>425.4</ele>
        <time>2022-06-02T05:06:38.000Z</time>
      </trkpt>
      <trkpt lat="42.98041" lon="1.13384">
        <ele>426.1</ele>
        <time>2022-06-02T05:06:43.000Z</time>
      </trkpt>
      <trkpt lat="42.98035" lon="1.13394">
        <ele>427.3</ele>
        <time>2022-06-02T05:06:48.000Z</time>
      </trkpt>
      <trkpt lat="42.98026" lon="1.13404">
        <ele>428.2</ele>
        <time>2022-06-02T05:06:53.000Z</time>
      </trkpt>
      <trkpt lat="42.98016" lon="1.134">
        <ele>429.5</ele>
        <time>2022-06-02T05:06:59.000Z</time>
      </trkpt>
      <trkpt lat="42.98009" lon="1.13393">
        <ele>430.3</ele>
        <time>2022-06-02T05:07:04.000Z</time>
      </trkpt>
      <trkpt lat="42.97999" lon="1.13387">
        <ele>430.6</ele>
        <time>2022-06-02T05:07:09.000Z</time>
      </trkpt>
      <trkpt lat="42.97989" lon="1.13387">
        <ele>432.7</ele>
        <time>2022-06-02T05:07:14.000Z</time>
      </trkpt>
      <trkpt lat="42.97978" lon="1.13385">
        <ele>434.2</ele>
        <time>2022-06-02T05:07:20.000Z</time>
      </trkpt>
      <trkpt lat="42.97969" lon="1.13384">
        <ele>435.1</ele>
        <time>2022-06-02T05:07:25.000Z</time>
      </trkpt>
      <trkpt lat="42.97959" lon="1.1338">
        <ele>437.1</ele>
        <time>2022-06-02T05:07:30.000Z</time>
      </trkpt>
      <trkpt lat="42.9795" lon="1.13377">
        <ele>439.4</ele>
        <time>2022-06-02T05:07:35.000Z</time>
      </trkpt>
      <trkpt lat="42.97941" lon="1.13374">
        <ele>440.9</ele>
        <time>2022-06-02T05:07:40.000Z</time>
      </trkpt>
      <trkpt lat="42.97932" lon="1.13375">
        <ele>441.4</ele>
        <time>2022-06-02T05:07:45.000Z</time>
      </trkpt>
      <trkpt lat="42.97923" lon="1.13373">
        <ele>442.9</ele>
        <time>2022-06-02T05:07:50.000Z</time>
      </trkpt>
      <trkpt lat="42.97912" lon="1.1337">
        <ele>444.4</ele>
        <time>2022-06-02T05:07:56.000Z</time>
      </trkpt>
      <trkpt lat="42.97902" lon="1.13367">
        <ele>445.3</ele>
        <time>2022-06-02T05:08:01.000Z</time>
      </trkpt>
      <trkpt lat="42.97892" lon="1.13366">
        <ele>446.7</ele>
        <time>2022-06-02T05:08:06.000Z</time>
      </trkpt>
      <trkpt lat="42.97883" lon="1.13368">
        <ele>447.8</ele>
        <time>2022-06-02T05:08:11.000Z</time>
      </trkpt>
      <trkpt lat="42.97873" lon="1.13369">
        <ele>449.6</ele>
        <time>2022-06-02T05:08:16.000Z</time>
      </trkpt>
      <trkpt lat="42.97864" lon="1.13371">
        <ele>451</ele>
        <time>2022-06-02T05:08:21.000Z</time>
      </trkpt>
      <trkpt lat="42.97855" lon="1.13374">
        <ele>453</ele>
        <time>2022-06-02T05:08:26.000Z</time>
      </trkpt>
      <trkpt lat="42.97844" lon="1.13375">
        <ele>453.8</ele>
        <time>2022-06-02T05:08:31.000Z</time>
      </trkpt>
      <trkpt lat="42.97835" lon="1.13379">
        <ele>455</ele>
        <time>2022-06-02T05:08:35.000Z</time>
      </trkpt>
      <trkpt lat="42.97827" lon="1.13389">
        <ele>456.1</ele>
        <time>2022-06-02T05:08:40.000Z</time>
      </trkpt>
      <trkpt lat="42.97822" lon="1.13403">
        <ele>457.3</ele>
        <time>2022-06-02T05:08:45.000Z</time>
      </trkpt>
      <trkpt lat="42.97818" lon="1.13414">
        <ele>458</ele>
        <time>2022-06-02T05:08:49.000Z</time>
      </trkpt>
      <trkpt lat="42.97812" lon="1.13426">
        <ele>459.2</ele>
        <time>2022-06-02T05:08:53.000Z</time>
      </trkpt>
      <trkpt lat="42.97804" lon="1.13435">
        <ele>459.3</ele>
        <time>2022-06-02T05:08:57.000Z</time>
      </trkpt>
      <trkpt lat="42.97795" lon="1.1344">
        <ele>460.3</ele>
        <time>2022-06-02T05:09:01.000Z</time>
      </trkpt>
      <trkpt lat="42.97786" lon="1.13443">
        <ele>461.5</ele>
        <time>2022-06-02T05:09:05.000Z</time>
      </trkpt>
      <trkpt lat="42.97776" lon="1.13447">
        <ele>462</ele>
        <time>2022-06-02T05:09:09.000Z</time>
      </trkpt>
      <trkpt lat="42.97767" lon="1.1345">
        <ele>462.5</ele>
        <time>2022-06-02T05:09:13.000Z</time>
      </trkpt>
      <trkpt lat="42.97758" lon="1.13454">
        <ele>464</ele>
        <time>2022-06-02T05:09:17.000Z</time>
      </trkpt>
      <trkpt lat="42.9775" lon="1.1346">
        <ele>464.4</ele>
        <time>2022-06-02T05:09:21.000Z</time>
      </trkpt>
      <trkpt lat="42.97742" lon="1.13469">
        <ele>465.6</ele>
        <time>2022-06-02T05:09:25.000Z</time>
      </trkpt>
      <trkpt lat="42.97735" lon="1.13479">
        <ele>466.2</ele>
        <time>2022-06-02T05:09:29.000Z</time>
      </trkpt>
      <trkpt lat="42.97729" lon="1.13492">
        <ele>467.1</ele>
        <time>2022-06-02T05:09:33.000Z</time>
      </trkpt>
      <trkpt lat="42.97729" lon="1.13505">
        <ele>466.9</ele>
        <time>2022-06-02T05:09:36.000Z</time>
      </trkpt>
      <trkpt lat="42.9773" lon="1.13518">
        <ele>467.1</ele>
        <time>2022-06-02T05:09:39.000Z</time>
      </trkpt>
      <trkpt lat="42.97729" lon="1.13531">
        <ele>467.1</ele>
        <time>2022-06-02T05:09:43.000Z</time>
      </trkpt>
      <trkpt lat="42.97718" lon="1.13535">
        <ele>467.9</ele>
        <time>2022-06-02T05:09:47.000Z</time>
      </trkpt>
      <trkpt lat="42.97708" lon="1.13536">
        <ele>468.5</ele>
        <time>2022-06-02T05:09:50.000Z</time>
      </trkpt>
      <trkpt lat="42.97698" lon="1.13541">
        <ele>468.6</ele>
        <time>2022-06-02T05:09:53.000Z</time>
      </trkpt>
      <trkpt lat="42.97688" lon="1.13552">
        <ele>467.8</ele>
        <time>2022-06-02T05:09:56.000Z</time>
      </trkpt>
      <trkpt lat="42.9768" lon="1.13559">
        <ele>468.3</ele>
        <time>2022-06-02T05:09:58.000Z</time>
      </trkpt>
      <trkpt lat="42.97671" lon="1.13562">
        <ele>468.5</ele>
        <time>2022-06-02T05:10:00.000Z</time>
      </trkpt>
      <trkpt lat="42.97658" lon="1.13563">
        <ele>469.1</ele>
        <time>2022-06-02T05:10:03.000Z</time>
      </trkpt>
      <trkpt lat="42.97647" lon="1.13564">
        <ele>469.2</ele>
        <time>2022-06-02T05:10:06.000Z</time>
      </trkpt>
      <trkpt lat="42.97636" lon="1.13566">
        <ele>469.3</ele>
        <time>2022-06-02T05:10:09.000Z</time>
      </trkpt>
      <trkpt lat="42.97626" lon="1.13569">
        <ele>468.9</ele>
        <time>2022-06-02T05:10:12.000Z</time>
      </trkpt>
      <trkpt lat="42.97617" lon="1.13573">
        <ele>466</ele>
        <time>2022-06-02T05:10:15.000Z</time>
      </trkpt>
      <trkpt lat="42.97607" lon="1.13573">
        <ele>467.7</ele>
        <time>2022-06-02T05:10:18.000Z</time>
      </trkpt>
      <trkpt lat="42.97598" lon="1.13572">
        <ele>468.3</ele>
        <time>2022-06-02T05:10:21.000Z</time>
      </trkpt>
      <trkpt lat="42.97589" lon="1.13569">
        <ele>469.6</ele>
        <time>2022-06-02T05:10:24.000Z</time>
      </trkpt>
      <trkpt lat="42.9758" lon="1.13568">
        <ele>469.9</ele>
        <time>2022-06-02T05:10:27.000Z</time>
      </trkpt>
      <trkpt lat="42.97571" lon="1.13567">
        <ele>470.2</ele>
        <time>2022-06-02T05:10:30.000Z</time>
      </trkpt>
      <trkpt lat="42.97561" lon="1.1357">
        <ele>470.7</ele>
        <time>2022-06-02T05:10:33.000Z</time>
      </trkpt>
      <trkpt lat="42.97549" lon="1.13572">
        <ele>470.6</ele>
        <time>2022-06-02T05:10:36.000Z</time>
      </trkpt>
      <trkpt lat="42.97537" lon="1.13574">
        <ele>471</ele>
        <time>2022-06-02T05:10:39.000Z</time>
      </trkpt>
      <trkpt lat="42.97528" lon="1.13575">
        <ele>471.2</ele>
        <time>2022-06-02T05:10:41.000Z</time>
      </trkpt>
      <trkpt lat="42.97518" lon="1.13576">
        <ele>471.4</ele>
        <time>2022-06-02T05:10:43.000Z</time>
      </trkpt>
      <trkpt lat="42.97507" lon="1.13577">
        <ele>471.5</ele>
        <time>2022-06-02T05:10:45.000Z</time>
      </trkpt>
      <trkpt lat="42.97494" lon="1.13578">
        <ele>471</ele>
        <time>2022-06-02T05:10:48.000Z</time>
      </trkpt>
      <trkpt lat="42.97484" lon="1.13579">
        <ele>471.3</ele>
        <time>2022-06-02T05:10:51.000Z</time>
      </trkpt>
      <trkpt lat="42.97475" lon="1.13578">
        <ele>471.5</ele>
        <time>2022-06-02T05:10:54.000Z</time>
      </trkpt>
      <trkpt lat="42.97466" lon="1.13577">
        <ele>472</ele>
        <time>2022-06-02T05:10:57.000Z</time>
      </trkpt>
      <trkpt lat="42.97454" lon="1.13575">
        <ele>472.8</ele>
        <time>2022-06-02T05:11:01.000Z</time>
      </trkpt>
      <trkpt lat="42.97444" lon="1.13577">
        <ele>472.6</ele>
        <time>2022-06-02T05:11:05.000Z</time>
      </trkpt>
      <trkpt lat="42.97434" lon="1.1358">
        <ele>473</ele>
        <time>2022-06-02T05:11:09.000Z</time>
      </trkpt>
      <trkpt lat="42.97424" lon="1.13585">
        <ele>474.1</ele>
        <time>2022-06-02T05:11:13.000Z</time>
      </trkpt>
      <trkpt lat="42.97415" lon="1.13591">
        <ele>474.9</ele>
        <time>2022-06-02T05:11:17.000Z</time>
      </trkpt>
      <trkpt lat="42.97407" lon="1.13596">
        <ele>474.9</ele>
        <time>2022-06-02T05:11:21.000Z</time>
      </trkpt>
      <trkpt lat="42.97396" lon="1.13602">
        <ele>475.4</ele>
        <time>2022-06-02T05:11:26.000Z</time>
      </trkpt>
      <trkpt lat="42.97387" lon="1.13603">
        <ele>476.2</ele>
        <time>2022-06-02T05:11:30.000Z</time>
      </trkpt>
      <trkpt lat="42.97376" lon="1.136">
        <ele>477.5</ele>
        <time>2022-06-02T05:11:35.000Z</time>
      </trkpt>
      <trkpt lat="42.97366" lon="1.13595">
        <ele>477.7</ele>
        <time>2022-06-02T05:11:40.000Z</time>
      </trkpt>
      <trkpt lat="42.97357" lon="1.13591">
        <ele>477.8</ele>
        <time>2022-06-02T05:11:44.000Z</time>
      </trkpt>
      <trkpt lat="42.97348" lon="1.13588">
        <ele>478.3</ele>
        <time>2022-06-02T05:11:48.000Z</time>
      </trkpt>
      <trkpt lat="42.97339" lon="1.13584">
        <ele>479</ele>
        <time>2022-06-02T05:11:52.000Z</time>
      </trkpt>
      <trkpt lat="42.9733" lon="1.1358">
        <ele>479.1</ele>
        <time>2022-06-02T05:11:57.000Z</time>
      </trkpt>
      <trkpt lat="42.9732" lon="1.1358">
        <ele>479.7</ele>
        <time>2022-06-02T05:12:02.000Z</time>
      </trkpt>
      <trkpt lat="42.97312" lon="1.13589">
        <ele>480.7</ele>
        <time>2022-06-02T05:12:08.000Z</time>
      </trkpt>
      <trkpt lat="42.97304" lon="1.13599">
        <ele>481.2</ele>
        <time>2022-06-02T05:12:13.000Z</time>
      </trkpt>
      <trkpt lat="42.97294" lon="1.13605">
        <ele>482.1</ele>
        <time>2022-06-02T05:12:18.000Z</time>
      </trkpt>
      <trkpt lat="42.97284" lon="1.13604">
        <ele>483.3</ele>
        <time>2022-06-02T05:12:23.000Z</time>
      </trkpt>
      <trkpt lat="42.97274" lon="1.13605">
        <ele>483.7</ele>
        <time>2022-06-02T05:12:28.000Z</time>
      </trkpt>
      <trkpt lat="42.97264" lon="1.13607">
        <ele>485.2</ele>
        <time>2022-06-02T05:12:33.000Z</time>
      </trkpt>
      <trkpt lat="42.97254" lon="1.13609">
        <ele>485.9</ele>
        <time>2022-06-02T05:12:38.000Z</time>
      </trkpt>
      <trkpt lat="42.97244" lon="1.13612">
        <ele>487.4</ele>
        <time>2022-06-02T05:12:43.000Z</time>
      </trkpt>
      <trkpt lat="42.97234" lon="1.13615">
        <ele>488.2</ele>
        <time>2022-06-02T05:12:48.000Z</time>
      </trkpt>
      <trkpt lat="42.97224" lon="1.13615">
        <ele>489</ele>
        <time>2022-06-02T05:12:53.000Z</time>
      </trkpt>
      <trkpt lat="42.97213" lon="1.13613">
        <ele>490.5</ele>
        <time>2022-06-02T05:12:58.000Z</time>
      </trkpt>
      <trkpt lat="42.97204" lon="1.13612">
        <ele>491.3</ele>
        <time>2022-06-02T05:13:03.000Z</time>
      </trkpt>
      <trkpt lat="42.97194" lon="1.1361">
        <ele>492.3</ele>
        <time>2022-06-02T05:13:08.000Z</time>
      </trkpt>
      <trkpt lat="42.97184" lon="1.1361">
        <ele>493.8</ele>
        <time>2022-06-02T05:13:13.000Z</time>
      </trkpt>
      <trkpt lat="42.97174" lon="1.1361">
        <ele>494.7</ele>
        <time>2022-06-02T05:13:18.000Z</time>
      </trkpt>
      <trkpt lat="42.97164" lon="1.1361">
        <ele>496.1</ele>
        <time>2022-06-02T05:13:23.000Z</time>
      </trkpt>
      <trkpt lat="42.97155" lon="1.13607">
        <ele>497.7</ele>
        <time>2022-06-02T05:13:28.000Z</time>
      </trkpt>
      <trkpt lat="42.97145" lon="1.13602">
        <ele>499</ele>
        <time>2022-06-02T05:13:33.000Z</time>
      </trkpt>
      <trkpt lat="42.97136" lon="1.13598">
        <ele>499.3</ele>
        <time>2022-06-02T05:13:38.000Z</time>
      </trkpt>
      <trkpt lat="42.97127" lon="1.13594">
        <ele>500.1</ele>
        <time>2022-06-02T05:13:43.000Z</time>
      </trkpt>
      <trkpt lat="42.97118" lon="1.13591">
        <ele>501.4</ele>
        <time>2022-06-02T05:13:48.000Z</time>
      </trkpt>
      <trkpt lat="42.97108" lon="1.13588">
        <ele>501.6</ele>
        <time>2022-06-02T05:13:53.000Z</time>
      </trkpt>
      <trkpt lat="42.971" lon="1.13583">
        <ele>502.4</ele>
        <time>2022-06-02T05:13:58.000Z</time>
      </trkpt>
      <trkpt lat="42.97091" lon="1.13575">
        <ele>503.7</ele>
        <time>2022-06-02T05:14:04.000Z</time>
      </trkpt>
      <trkpt lat="42.97081" lon="1.13572">
        <ele>504.5</ele>
        <time>2022-06-02T05:14:09.000Z</time>
      </trkpt>
      <trkpt lat="42.97071" lon="1.13574">
        <ele>505.5</ele>
        <time>2022-06-02T05:14:14.000Z</time>
      </trkpt>
      <trkpt lat="42.97062" lon="1.13579">
        <ele>507.3</ele>
        <time>2022-06-02T05:14:19.000Z</time>
      </trkpt>
      <trkpt lat="42.97053" lon="1.13585">
        <ele>508.7</ele>
        <time>2022-06-02T05:14:24.000Z</time>
      </trkpt>
      <trkpt lat="42.97045" lon="1.13593">
        <ele>509.6</ele>
        <time>2022-06-02T05:14:29.000Z</time>
      </trkpt>
      <trkpt lat="42.97039" lon="1.13603">
        <ele>511.1</ele>
        <time>2022-06-02T05:14:34.000Z</time>
      </trkpt>
      <trkpt lat="42.97034" lon="1.13615">
        <ele>512.9</ele>
        <time>2022-06-02T05:14:39.000Z</time>
      </trkpt>
      <trkpt lat="42.97028" lon="1.13625">
        <ele>513.5</ele>
        <time>2022-06-02T05:14:44.000Z</time>
      </trkpt>
      <trkpt lat="42.97021" lon="1.13636">
        <ele>514.6</ele>
        <time>2022-06-02T05:14:49.000Z</time>
      </trkpt>
      <trkpt lat="42.97017" lon="1.13649">
        <ele>516.3</ele>
        <time>2022-06-02T05:14:54.000Z</time>
      </trkpt>
      <trkpt lat="42.97019" lon="1.13663">
        <ele>516.5</ele>
        <time>2022-06-02T05:14:59.000Z</time>
      </trkpt>
      <trkpt lat="42.97023" lon="1.13677">
        <ele>519</ele>
        <time>2022-06-02T05:15:04.000Z</time>
      </trkpt>
      <trkpt lat="42.97027" lon="1.13692">
        <ele>519.7</ele>
        <time>2022-06-02T05:15:09.000Z</time>
      </trkpt>
      <trkpt lat="42.97028" lon="1.13707">
        <ele>521.1</ele>
        <time>2022-06-02T05:15:14.000Z</time>
      </trkpt>
      <trkpt lat="42.97027" lon="1.13722">
        <ele>523</ele>
        <time>2022-06-02T05:15:19.000Z</time>
      </trkpt>
      <trkpt lat="42.97026" lon="1.13736">
        <ele>524.9</ele>
        <time>2022-06-02T05:15:24.000Z</time>
      </trkpt>
      <trkpt lat="42.97021" lon="1.1375">
        <ele>526</ele>
        <time>2022-06-02T05:15:29.000Z</time>
      </trkpt>
      <trkpt lat="42.97013" lon="1.1376">
        <ele>528.1</ele>
        <time>2022-06-02T05:15:34.000Z</time>
      </trkpt>
      <trkpt lat="42.97006" lon="1.1377">
        <ele>529.1</ele>
        <time>2022-06-02T05:15:38.000Z</time>
      </trkpt>
      <trkpt lat="42.96997" lon="1.13778">
        <ele>530</ele>
        <time>2022-06-02T05:15:43.000Z</time>
      </trkpt>
      <trkpt lat="42.96988" lon="1.13785">
        <ele>531</ele>
        <time>2022-06-02T05:15:48.000Z</time>
      </trkpt>
      <trkpt lat="42.96979" lon="1.13795">
        <ele>532.5</ele>
        <time>2022-06-02T05:15:53.000Z</time>
      </trkpt>
      <trkpt lat="42.96974" lon="1.13809">
        <ele>533.8</ele>
        <time>2022-06-02T05:15:58.000Z</time>
      </trkpt>
      <trkpt lat="42.96971" lon="1.1382">
        <ele>534.1</ele>
        <time>2022-06-02T05:16:02.000Z</time>
      </trkpt>
      <trkpt lat="42.96968" lon="1.13832">
        <ele>535.3</ele>
        <time>2022-06-02T05:16:06.000Z</time>
      </trkpt>
      <trkpt lat="42.96965" lon="1.13847">
        <ele>536.2</ele>
        <time>2022-06-02T05:16:11.000Z</time>
      </trkpt>
      <trkpt lat="42.96963" lon="1.13859">
        <ele>536.4</ele>
        <time>2022-06-02T05:16:15.000Z</time>
      </trkpt>
      <trkpt lat="42.9696" lon="1.13871">
        <ele>537.5</ele>
        <time>2022-06-02T05:16:19.000Z</time>
      </trkpt>
      <trkpt lat="42.96957" lon="1.13883">
        <ele>539.1</ele>
        <time>2022-06-02T05:16:23.000Z</time>
      </trkpt>
      <trkpt lat="42.96955" lon="1.13896">
        <ele>539.7</ele>
        <time>2022-06-02T05:16:27.000Z</time>
      </trkpt>
      <trkpt lat="42.96952" lon="1.13908">
        <ele>539.9</ele>
        <time>2022-06-02T05:16:31.000Z</time>
      </trkpt>
      <trkpt lat="42.9695" lon="1.1392">
        <ele>541.4</ele>
        <time>2022-06-02T05:16:35.000Z</time>
      </trkpt>
      <trkpt lat="42.96948" lon="1.13932">
        <ele>541.5</ele>
        <time>2022-06-02T05:16:39.000Z</time>
      </trkpt>
      <trkpt lat="42.96947" lon="1.13944">
        <ele>542</ele>
        <time>2022-06-02T05:16:43.000Z</time>
      </trkpt>
      <trkpt lat="42.96944" lon="1.13959">
        <ele>542.8</ele>
        <time>2022-06-02T05:16:48.000Z</time>
      </trkpt>
      <trkpt lat="42.96941" lon="1.13973">
        <ele>544</ele>
        <time>2022-06-02T05:16:53.000Z</time>
      </trkpt>
      <trkpt lat="42.96937" lon="1.13987">
        <ele>544.5</ele>
        <time>2022-06-02T05:16:58.000Z</time>
      </trkpt>
      <trkpt lat="42.96933" lon="1.14001">
        <ele>545</ele>
        <time>2022-06-02T05:17:03.000Z</time>
      </trkpt>
      <trkpt lat="42.96928" lon="1.14015">
        <ele>546</ele>
        <time>2022-06-02T05:17:08.000Z</time>
      </trkpt>
      <trkpt lat="42.96924" lon="1.14026">
        <ele>546.3</ele>
        <time>2022-06-02T05:17:12.000Z</time>
      </trkpt>
      <trkpt lat="42.96919" lon="1.1404">
        <ele>547.3</ele>
        <time>2022-06-02T05:17:17.000Z</time>
      </trkpt>
      <trkpt lat="42.96915" lon="1.14051">
        <ele>548.3</ele>
        <time>2022-06-02T05:17:21.000Z</time>
      </trkpt>
      <trkpt lat="42.96914" lon="1.14063">
        <ele>549</ele>
        <time>2022-06-02T05:17:25.000Z</time>
      </trkpt>
      <trkpt lat="42.96913" lon="1.14076">
        <ele>549.3</ele>
        <time>2022-06-02T05:17:29.000Z</time>
      </trkpt>
      <trkpt lat="42.9691" lon="1.1409">
        <ele>549.8</ele>
        <time>2022-06-02T05:17:34.000Z</time>
      </trkpt>
      <trkpt lat="42.96902" lon="1.14099">
        <ele>550.9</ele>
        <time>2022-06-02T05:17:39.000Z</time>
      </trkpt>
      <trkpt lat="42.96893" lon="1.14098">
        <ele>553.3</ele>
        <time>2022-06-02T05:17:44.000Z</time>
      </trkpt>
      <trkpt lat="42.96883" lon="1.14097">
        <ele>553.7</ele>
        <time>2022-06-02T05:17:49.000Z</time>
      </trkpt>
      <trkpt lat="42.96873" lon="1.14095">
        <ele>555.4</ele>
        <time>2022-06-02T05:17:54.000Z</time>
      </trkpt>
      <trkpt lat="42.96863" lon="1.14091">
        <ele>555.8</ele>
        <time>2022-06-02T05:17:59.000Z</time>
      </trkpt>
      <trkpt lat="42.96855" lon="1.14085">
        <ele>557.2</ele>
        <time>2022-06-02T05:18:04.000Z</time>
      </trkpt>
      <trkpt lat="42.96846" lon="1.14079">
        <ele>558</ele>
        <time>2022-06-02T05:18:09.000Z</time>
      </trkpt>
      <trkpt lat="42.96837" lon="1.14073">
        <ele>559.3</ele>
        <time>2022-06-02T05:18:14.000Z</time>
      </trkpt>
      <trkpt lat="42.96827" lon="1.14069">
        <ele>560.4</ele>
        <time>2022-06-02T05:18:19.000Z</time>
      </trkpt>
      <trkpt lat="42.96817" lon="1.14067">
        <ele>562.5</ele>
        <time>2022-06-02T05:18:24.000Z</time>
      </trkpt>
      <trkpt lat="42.96808" lon="1.14072">
        <ele>562.7</ele>
        <time>2022-06-02T05:18:29.000Z</time>
      </trkpt>
      <trkpt lat="42.96799" lon="1.14078">
        <ele>563.5</ele>
        <time>2022-06-02T05:18:34.000Z</time>
      </trkpt>
      <trkpt lat="42.96788" lon="1.14079">
        <ele>565.7</ele>
        <time>2022-06-02T05:18:39.000Z</time>
      </trkpt>
      <trkpt lat="42.96779" lon="1.14075">
        <ele>565.7</ele>
        <time>2022-06-02T05:18:44.000Z</time>
      </trkpt>
      <trkpt lat="42.96769" lon="1.14071">
        <ele>567.2</ele>
        <time>2022-06-02T05:18:49.000Z</time>
      </trkpt>
      <trkpt lat="42.9676" lon="1.14068">
        <ele>568.8</ele>
        <time>2022-06-02T05:18:54.000Z</time>
      </trkpt>
      <trkpt lat="42.96751" lon="1.14065">
        <ele>569.7</ele>
        <time>2022-06-02T05:18:59.000Z</time>
      </trkpt>
      <trkpt lat="42.96741" lon="1.14061">
        <ele>571.4</ele>
        <time>2022-06-02T05:19:05.000Z</time>
      </trkpt>
      <trkpt lat="42.96731" lon="1.14056">
        <ele>573.4</ele>
        <time>2022-06-02T05:19:12.000Z</time>
      </trkpt>
      <trkpt lat="42.96721" lon="1.14053">
        <ele>574.2</ele>
        <time>2022-06-02T05:19:19.000Z</time>
      </trkpt>
      <trkpt lat="42.96712" lon="1.14053">
        <ele>575.7</ele>
        <time>2022-06-02T05:19:25.000Z</time>
      </trkpt>
      <trkpt lat="42.96703" lon="1.14057">
        <ele>576.8</ele>
        <time>2022-06-02T05:19:34.000Z</time>
      </trkpt>
      <trkpt lat="42.96694" lon="1.14058">
        <ele>578.8</ele>
        <time>2022-06-02T05:19:40.000Z</time>
      </trkpt>
      <trkpt lat="42.96685" lon="1.14062">
        <ele>580.4</ele>
        <time>2022-06-02T05:19:47.000Z</time>
      </trkpt>
      <trkpt lat="42.96676" lon="1.14068">
        <ele>582.4</ele>
        <time>2022-06-02T05:19:53.000Z</time>
      </trkpt>
      <trkpt lat="42.96666" lon="1.14071">
        <ele>583.8</ele>
        <time>2022-06-02T05:19:59.000Z</time>
      </trkpt>
      <trkpt lat="42.96657" lon="1.14067">
        <ele>584.9</ele>
        <time>2022-06-02T05:20:04.000Z</time>
      </trkpt>
      <trkpt lat="42.96648" lon="1.14065">
        <ele>586.1</ele>
        <time>2022-06-02T05:20:08.000Z</time>
      </trkpt>
      <trkpt lat="42.96637" lon="1.1406">
        <ele>588.1</ele>
        <time>2022-06-02T05:20:13.000Z</time>
      </trkpt>
      <trkpt lat="42.96629" lon="1.14055">
        <ele>589.2</ele>
        <time>2022-06-02T05:20:18.000Z</time>
      </trkpt>
      <trkpt lat="42.96619" lon="1.14051">
        <ele>591.9</ele>
        <time>2022-06-02T05:20:24.000Z</time>
      </trkpt>
      <trkpt lat="42.9661" lon="1.14048">
        <ele>593.3</ele>
        <time>2022-06-02T05:20:28.000Z</time>
      </trkpt>
      <trkpt lat="42.96604" lon="1.14046">
        <ele>595.2</ele>
        <time>2022-06-02T05:20:35.000Z</time>
      </trkpt>
      <trkpt lat="42.96603" lon="1.14046">
        <ele>597.9</ele>
        <time>2022-06-02T05:20:45.000Z</time>
      </trkpt>
      <trkpt lat="42.96603" lon="1.14047">
        <ele>606.4</ele>
        <time>2022-06-02T05:21:08.000Z</time>
      </trkpt>
      <trkpt lat="42.96603" lon="1.14046">
        <ele>602.3</ele>
        <time>2022-06-02T05:21:17.000Z</time>
      </trkpt>
      <trkpt lat="42.96604" lon="1.14046">
        <ele>600.8</ele>
        <time>2022-06-02T05:21:25.000Z</time>
      </trkpt>
      <trkpt lat="42.96604" lon="1.14047">
        <ele>600</ele>
        <time>2022-06-02T05:21:29.000Z</time>
      </trkpt>
      <trkpt lat="42.96613" lon="1.14049">
        <ele>600.6</ele>
        <time>2022-06-02T05:21:35.000Z</time>
      </trkpt>
      <trkpt lat="42.96622" lon="1.14052">
        <ele>600.7</ele>
        <time>2022-06-02T05:21:39.000Z</time>
      </trkpt>
      <trkpt lat="42.96633" lon="1.1406">
        <ele>600.2</ele>
        <time>2022-06-02T05:21:43.000Z</time>
      </trkpt>
      <trkpt lat="42.96642" lon="1.14065">
        <ele>599.4</ele>
        <time>2022-06-02T05:21:46.000Z</time>
      </trkpt>
      <trkpt lat="42.96652" lon="1.14069">
        <ele>598.9</ele>
        <time>2022-06-02T05:21:49.000Z</time>
      </trkpt>
      <trkpt lat="42.96662" lon="1.14073">
        <ele>598.7</ele>
        <time>2022-06-02T05:21:52.000Z</time>
      </trkpt>
      <trkpt lat="42.96674" lon="1.14069">
        <ele>597.8</ele>
        <time>2022-06-02T05:21:56.000Z</time>
      </trkpt>
      <trkpt lat="42.96684" lon="1.14064">
        <ele>597.1</ele>
        <time>2022-06-02T05:21:59.000Z</time>
      </trkpt>
      <trkpt lat="42.96695" lon="1.14064">
        <ele>596.3</ele>
        <time>2022-06-02T05:22:02.000Z</time>
      </trkpt>
      <trkpt lat="42.96704" lon="1.14063">
        <ele>595.7</ele>
        <time>2022-06-02T05:22:05.000Z</time>
      </trkpt>
      <trkpt lat="42.96708" lon="1.14058">
        <ele>594.5</ele>
        <time>2022-06-02T05:22:11.000Z</time>
      </trkpt>
      <trkpt lat="42.96709" lon="1.14057">
        <ele>594.1</ele>
        <time>2022-06-02T05:22:13.000Z</time>
      </trkpt>
      <trkpt lat="42.9671" lon="1.14057">
        <ele>591.9</ele>
        <time>2022-06-02T05:22:26.000Z</time>
      </trkpt>
      <trkpt lat="42.9671" lon="1.14058">
        <ele>578.2</ele>
        <time>2022-06-02T05:24:24.000Z</time>
      </trkpt>
      <trkpt lat="42.96709" lon="1.14058">
        <ele>586.8</ele>
        <time>2022-06-02T05:37:40.000Z</time>
      </trkpt>
      <trkpt lat="42.9671" lon="1.14057">
        <ele>591.1</ele>
        <time>2022-06-02T05:40:22.000Z</time>
      </trkpt>
      <trkpt lat="42.9671" lon="1.14058">
        <ele>597.8</ele>
        <time>2022-06-02T05:49:21.000Z</time>
      </trkpt>
      <trkpt lat="42.9671" lon="1.14057">
        <ele>596.8</ele>
        <time>2022-06-02T05:57:43.000Z</time>
      </trkpt>
      <trkpt lat="42.96711" lon="1.14057">
        <ele>598.5</ele>
        <time>2022-06-02T05:57:47.000Z</time>
      </trkpt>
      <trkpt lat="42.96711" lon="1.14058">
        <ele>599.9</ele>
        <time>2022-06-02T05:59:18.000Z</time>
      </trkpt>
      <trkpt lat="42.96711" lon="1.1406">
        <ele>600.1</ele>
        <time>2022-06-02T05:59:23.000Z</time>
      </trkpt>
      <trkpt lat="42.96702" lon="1.14062">
        <ele>601.1</ele>
        <time>2022-06-02T05:59:36.000Z</time>
      </trkpt>
      <trkpt lat="42.96692" lon="1.14061">
        <ele>601.7</ele>
        <time>2022-06-02T05:59:41.000Z</time>
      </trkpt>
      <trkpt lat="42.96682" lon="1.14065">
        <ele>602.9</ele>
        <time>2022-06-02T05:59:47.000Z</time>
      </trkpt>
      <trkpt lat="42.96674" lon="1.14069">
        <ele>605.2</ele>
        <time>2022-06-02T05:59:53.000Z</time>
      </trkpt>
      <trkpt lat="42.96665" lon="1.1407">
        <ele>607.4</ele>
        <time>2022-06-02T06:00:00.000Z</time>
      </trkpt>
      <trkpt lat="42.96656" lon="1.14068">
        <ele>609.4</ele>
        <time>2022-06-02T06:00:05.000Z</time>
      </trkpt>
      <trkpt lat="42.96646" lon="1.14064">
        <ele>612.1</ele>
        <time>2022-06-02T06:00:12.000Z</time>
      </trkpt>
      <trkpt lat="42.96636" lon="1.14059">
        <ele>614.1</ele>
        <time>2022-06-02T06:00:17.000Z</time>
      </trkpt>
      <trkpt lat="42.96628" lon="1.14054">
        <ele>616.1</ele>
        <time>2022-06-02T06:00:21.000Z</time>
      </trkpt>
      <trkpt lat="42.96618" lon="1.1405">
        <ele>618.3</ele>
        <time>2022-06-02T06:00:26.000Z</time>
      </trkpt>
      <trkpt lat="42.96608" lon="1.14048">
        <ele>621.3</ele>
        <time>2022-06-02T06:00:32.000Z</time>
      </trkpt>
      <trkpt lat="42.96599" lon="1.14046">
        <ele>624.2</ele>
        <time>2022-06-02T06:00:38.000Z</time>
      </trkpt>
      <trkpt lat="42.9659" lon="1.14043">
        <ele>626.8</ele>
        <time>2022-06-02T06:00:44.000Z</time>
      </trkpt>
      <trkpt lat="42.9658" lon="1.14042">
        <ele>629.1</ele>
        <time>2022-06-02T06:00:51.000Z</time>
      </trkpt>
      <trkpt lat="42.96572" lon="1.14037">
        <ele>631.3</ele>
        <time>2022-06-02T06:00:57.000Z</time>
      </trkpt>
      <trkpt lat="42.96563" lon="1.14031">
        <ele>633</ele>
        <time>2022-06-02T06:01:02.000Z</time>
      </trkpt>
      <trkpt lat="42.96557" lon="1.14021">
        <ele>636</ele>
        <time>2022-06-02T06:01:09.000Z</time>
      </trkpt>
      <trkpt lat="42.96559" lon="1.14019">
        <ele>638.2</ele>
        <time>2022-06-02T06:01:14.000Z</time>
      </trkpt>
      <trkpt lat="42.96559" lon="1.14018">
        <ele>638.3</ele>
        <time>2022-06-02T06:01:15.000Z</time>
      </trkpt>
      <trkpt lat="42.96563" lon="1.14012">
        <ele>641.3</ele>
        <time>2022-06-02T06:01:25.000Z</time>
      </trkpt>
      <trkpt lat="42.9657" lon="1.14003">
        <ele>643.2</ele>
        <time>2022-06-02T06:01:36.000Z</time>
      </trkpt>
      <trkpt lat="42.96575" lon="1.13992">
        <ele>644.6</ele>
        <time>2022-06-02T06:01:43.000Z</time>
      </trkpt>
      <trkpt lat="42.96582" lon="1.13982">
        <ele>646.6</ele>
        <time>2022-06-02T06:01:49.000Z</time>
      </trkpt>
      <trkpt lat="42.96589" lon="1.13972">
        <ele>647.9</ele>
        <time>2022-06-02T06:01:55.000Z</time>
      </trkpt>
      <trkpt lat="42.96597" lon="1.13964">
        <ele>649.5</ele>
        <time>2022-06-02T06:02:01.000Z</time>
      </trkpt>
      <trkpt lat="42.96602" lon="1.13953">
        <ele>651.4</ele>
        <time>2022-06-02T06:02:07.000Z</time>
      </trkpt>
      <trkpt lat="42.96595" lon="1.13946">
        <ele>654.3</ele>
        <time>2022-06-02T06:02:17.000Z</time>
      </trkpt>
      <trkpt lat="42.96586" lon="1.13951">
        <ele>655.5</ele>
        <time>2022-06-02T06:02:21.000Z</time>
      </trkpt>
      <trkpt lat="42.96574" lon="1.13951">
        <ele>656.4</ele>
        <time>2022-06-02T06:02:25.000Z</time>
      </trkpt>
      <trkpt lat="42.96565" lon="1.13949">
        <ele>657.7</ele>
        <time>2022-06-02T06:02:28.000Z</time>
      </trkpt>
      <trkpt lat="42.96556" lon="1.13948">
        <ele>658.1</ele>
        <time>2022-06-02T06:02:31.000Z</time>
      </trkpt>
      <trkpt lat="42.96545" lon="1.13949">
        <ele>658.9</ele>
        <time>2022-06-02T06:02:35.000Z</time>
      </trkpt>
      <trkpt lat="42.96534" lon="1.1395">
        <ele>659.8</ele>
        <time>2022-06-02T06:02:40.000Z</time>
      </trkpt>
      <trkpt lat="42.96525" lon="1.13948">
        <ele>660.5</ele>
        <time>2022-06-02T06:02:45.000Z</time>
      </trkpt>
      <trkpt lat="42.96515" lon="1.13941">
        <ele>661.3</ele>
        <time>2022-06-02T06:02:50.000Z</time>
      </trkpt>
      <trkpt lat="42.96508" lon="1.13929">
        <ele>661.8</ele>
        <time>2022-06-02T06:02:55.000Z</time>
      </trkpt>
      <trkpt lat="42.96504" lon="1.13916">
        <ele>662.1</ele>
        <time>2022-06-02T06:03:00.000Z</time>
      </trkpt>
      <trkpt lat="42.96497" lon="1.13904">
        <ele>662.9</ele>
        <time>2022-06-02T06:03:05.000Z</time>
      </trkpt>
      <trkpt lat="42.9649" lon="1.13893">
        <ele>663.9</ele>
        <time>2022-06-02T06:03:10.000Z</time>
      </trkpt>
      <trkpt lat="42.96481" lon="1.13885">
        <ele>664.3</ele>
        <time>2022-06-02T06:03:15.000Z</time>
      </trkpt>
      <trkpt lat="42.96471" lon="1.1388">
        <ele>665</ele>
        <time>2022-06-02T06:03:20.000Z</time>
      </trkpt>
      <trkpt lat="42.96461" lon="1.13877">
        <ele>665.6</ele>
        <time>2022-06-02T06:03:25.000Z</time>
      </trkpt>
      <trkpt lat="42.96451" lon="1.13878">
        <ele>665.9</ele>
        <time>2022-06-02T06:03:30.000Z</time>
      </trkpt>
      <trkpt lat="42.96458" lon="1.13871">
        <ele>667.1</ele>
        <time>2022-06-02T06:03:42.000Z</time>
      </trkpt>
      <trkpt lat="42.96468" lon="1.13869">
        <ele>667.2</ele>
        <time>2022-06-02T06:03:47.000Z</time>
      </trkpt>
      <trkpt lat="42.96477" lon="1.13865">
        <ele>668.1</ele>
        <time>2022-06-02T06:03:52.000Z</time>
      </trkpt>
      <trkpt lat="42.96487" lon="1.1386">
        <ele>668.5</ele>
        <time>2022-06-02T06:03:57.000Z</time>
      </trkpt>
      <trkpt lat="42.96497" lon="1.13857">
        <ele>669.5</ele>
        <time>2022-06-02T06:04:02.000Z</time>
      </trkpt>
      <trkpt lat="42.96506" lon="1.13862">
        <ele>670.5</ele>
        <time>2022-06-02T06:04:07.000Z</time>
      </trkpt>
      <trkpt lat="42.96514" lon="1.13868">
        <ele>671.2</ele>
        <time>2022-06-02T06:04:11.000Z</time>
      </trkpt>
      <trkpt lat="42.96523" lon="1.13874">
        <ele>672.2</ele>
        <time>2022-06-02T06:04:15.000Z</time>
      </trkpt>
      <trkpt lat="42.96534" lon="1.13874">
        <ele>673.4</ele>
        <time>2022-06-02T06:04:20.000Z</time>
      </trkpt>
      <trkpt lat="42.96543" lon="1.13871">
        <ele>674.6</ele>
        <time>2022-06-02T06:04:24.000Z</time>
      </trkpt>
      <trkpt lat="42.96552" lon="1.13864">
        <ele>675.7</ele>
        <time>2022-06-02T06:04:29.000Z</time>
      </trkpt>
      <trkpt lat="42.96558" lon="1.13852">
        <ele>677</ele>
        <time>2022-06-02T06:04:34.000Z</time>
      </trkpt>
      <trkpt lat="42.96563" lon="1.13839">
        <ele>677.6</ele>
        <time>2022-06-02T06:04:39.000Z</time>
      </trkpt>
      <trkpt lat="42.96566" lon="1.13828">
        <ele>677.9</ele>
        <time>2022-06-02T06:04:43.000Z</time>
      </trkpt>
      <trkpt lat="42.9657" lon="1.13816">
        <ele>678.2</ele>
        <time>2022-06-02T06:04:47.000Z</time>
      </trkpt>
      <trkpt lat="42.96573" lon="1.13801">
        <ele>678.3</ele>
        <time>2022-06-02T06:04:52.000Z</time>
      </trkpt>
      <trkpt lat="42.96575" lon="1.13789">
        <ele>678.5</ele>
        <time>2022-06-02T06:04:56.000Z</time>
      </trkpt>
      <trkpt lat="42.96576" lon="1.13777">
        <ele>678.5</ele>
        <time>2022-06-02T06:05:00.000Z</time>
      </trkpt>
      <trkpt lat="42.96575" lon="1.13763">
        <ele>679.1</ele>
        <time>2022-06-02T06:05:05.000Z</time>
      </trkpt>
      <trkpt lat="42.96566" lon="1.13757">
        <ele>680.2</ele>
        <time>2022-06-02T06:05:11.000Z</time>
      </trkpt>
      <trkpt lat="42.96557" lon="1.13756">
        <ele>680.6</ele>
        <time>2022-06-02T06:05:16.000Z</time>
      </trkpt>
      <trkpt lat="42.96549" lon="1.13747">
        <ele>682.1</ele>
        <time>2022-06-02T06:05:22.000Z</time>
      </trkpt>
      <trkpt lat="42.96541" lon="1.13738">
        <ele>683.6</ele>
        <time>2022-06-02T06:05:28.000Z</time>
      </trkpt>
      <trkpt lat="42.96533" lon="1.1373">
        <ele>684.9</ele>
        <time>2022-06-02T06:05:34.000Z</time>
      </trkpt>
      <trkpt lat="42.96524" lon="1.13722">
        <ele>685.5</ele>
        <time>2022-06-02T06:05:40.000Z</time>
      </trkpt>
      <trkpt lat="42.96516" lon="1.13716">
        <ele>687</ele>
        <time>2022-06-02T06:05:45.000Z</time>
      </trkpt>
      <trkpt lat="42.96507" lon="1.1371">
        <ele>687.8</ele>
        <time>2022-06-02T06:05:50.000Z</time>
      </trkpt>
      <trkpt lat="42.96498" lon="1.13706">
        <ele>688.4</ele>
        <time>2022-06-02T06:05:55.000Z</time>
      </trkpt>
      <trkpt lat="42.96489" lon="1.13703">
        <ele>689.1</ele>
        <time>2022-06-02T06:06:00.000Z</time>
      </trkpt>
      <trkpt lat="42.9648" lon="1.13701">
        <ele>689.9</ele>
        <time>2022-06-02T06:06:05.000Z</time>
      </trkpt>
      <trkpt lat="42.9647" lon="1.13702">
        <ele>691</ele>
        <time>2022-06-02T06:06:10.000Z</time>
      </trkpt>
      <trkpt lat="42.9646" lon="1.13706">
        <ele>692.2</ele>
        <time>2022-06-02T06:06:15.000Z</time>
      </trkpt>
      <trkpt lat="42.96451" lon="1.13714">
        <ele>693.3</ele>
        <time>2022-06-02T06:06:21.000Z</time>
      </trkpt>
      <trkpt lat="42.96443" lon="1.13724">
        <ele>694.5</ele>
        <time>2022-06-02T06:06:26.000Z</time>
      </trkpt>
      <trkpt lat="42.96438" lon="1.13734">
        <ele>695.6</ele>
        <time>2022-06-02T06:06:31.000Z</time>
      </trkpt>
      <trkpt lat="42.96432" lon="1.13744">
        <ele>696.7</ele>
        <time>2022-06-02T06:06:36.000Z</time>
      </trkpt>
      <trkpt lat="42.96426" lon="1.13754">
        <ele>697.6</ele>
        <time>2022-06-02T06:06:41.000Z</time>
      </trkpt>
      <trkpt lat="42.96419" lon="1.13764">
        <ele>698.4</ele>
        <time>2022-06-02T06:06:46.000Z</time>
      </trkpt>
      <trkpt lat="42.96411" lon="1.13771">
        <ele>699.2</ele>
        <time>2022-06-02T06:06:51.000Z</time>
      </trkpt>
      <trkpt lat="42.96401" lon="1.13776">
        <ele>699.9</ele>
        <time>2022-06-02T06:06:56.000Z</time>
      </trkpt>
      <trkpt lat="42.96393" lon="1.13781">
        <ele>700.6</ele>
        <time>2022-06-02T06:07:00.000Z</time>
      </trkpt>
      <trkpt lat="42.96385" lon="1.13789">
        <ele>701.5</ele>
        <time>2022-06-02T06:07:05.000Z</time>
      </trkpt>
      <trkpt lat="42.9638" lon="1.138">
        <ele>702.5</ele>
        <time>2022-06-02T06:07:10.000Z</time>
      </trkpt>
      <trkpt lat="42.96372" lon="1.1381">
        <ele>702.9</ele>
        <time>2022-06-02T06:07:14.000Z</time>
      </trkpt>
      <trkpt lat="42.96365" lon="1.13819">
        <ele>703.9</ele>
        <time>2022-06-02T06:07:18.000Z</time>
      </trkpt>
      <trkpt lat="42.96356" lon="1.13828">
        <ele>704.7</ele>
        <time>2022-06-02T06:07:23.000Z</time>
      </trkpt>
      <trkpt lat="42.96348" lon="1.13837">
        <ele>705.9</ele>
        <time>2022-06-02T06:07:28.000Z</time>
      </trkpt>
      <trkpt lat="42.9634" lon="1.13843">
        <ele>706.5</ele>
        <time>2022-06-02T06:07:32.000Z</time>
      </trkpt>
      <trkpt lat="42.96329" lon="1.13846">
        <ele>707.7</ele>
        <time>2022-06-02T06:07:37.000Z</time>
      </trkpt>
      <trkpt lat="42.96319" lon="1.13845">
        <ele>708.3</ele>
        <time>2022-06-02T06:07:42.000Z</time>
      </trkpt>
      <trkpt lat="42.9631" lon="1.13835">
        <ele>709.3</ele>
        <time>2022-06-02T06:07:47.000Z</time>
      </trkpt>
      <trkpt lat="42.96302" lon="1.13828">
        <ele>709.8</ele>
        <time>2022-06-02T06:07:51.000Z</time>
      </trkpt>
      <trkpt lat="42.96294" lon="1.13821">
        <ele>710.8</ele>
        <time>2022-06-02T06:07:55.000Z</time>
      </trkpt>
      <trkpt lat="42.96286" lon="1.13815">
        <ele>711.4</ele>
        <time>2022-06-02T06:07:59.000Z</time>
      </trkpt>
      <trkpt lat="42.96277" lon="1.13809">
        <ele>711.8</ele>
        <time>2022-06-02T06:08:03.000Z</time>
      </trkpt>
      <trkpt lat="42.96267" lon="1.13809">
        <ele>713.1</ele>
        <time>2022-06-02T06:08:08.000Z</time>
      </trkpt>
      <trkpt lat="42.96258" lon="1.13816">
        <ele>714.1</ele>
        <time>2022-06-02T06:08:14.000Z</time>
      </trkpt>
      <trkpt lat="42.96249" lon="1.13824">
        <ele>715.4</ele>
        <time>2022-06-02T06:08:19.000Z</time>
      </trkpt>
      <trkpt lat="42.96243" lon="1.13833">
        <ele>716.1</ele>
        <time>2022-06-02T06:08:23.000Z</time>
      </trkpt>
      <trkpt lat="42.96233" lon="1.1384">
        <ele>717.8</ele>
        <time>2022-06-02T06:08:28.000Z</time>
      </trkpt>
      <trkpt lat="42.96223" lon="1.13845">
        <ele>718.8</ele>
        <time>2022-06-02T06:08:33.000Z</time>
      </trkpt>
      <trkpt lat="42.96223" lon="1.13847">
        <ele>719.8</ele>
        <time>2022-06-02T06:08:38.000Z</time>
      </trkpt>
      <trkpt lat="42.96222" lon="1.13847">
        <ele>720.5</ele>
        <time>2022-06-02T06:08:44.000Z</time>
      </trkpt>
      <trkpt lat="42.96221" lon="1.13847">
        <ele>722.5</ele>
        <time>2022-06-02T06:09:03.000Z</time>
      </trkpt>
      <trkpt lat="42.9622" lon="1.13847">
        <ele>721.8</ele>
        <time>2022-06-02T06:09:06.000Z</time>
      </trkpt>
      <trkpt lat="42.9622" lon="1.13848">
        <ele>721.4</ele>
        <time>2022-06-02T06:09:19.000Z</time>
      </trkpt>
      <trkpt lat="42.9621" lon="1.13854">
        <ele>721</ele>
        <time>2022-06-02T06:09:27.000Z</time>
      </trkpt>
      <trkpt lat="42.962" lon="1.13857">
        <ele>721.4</ele>
        <time>2022-06-02T06:09:32.000Z</time>
      </trkpt>
      <trkpt lat="42.96191" lon="1.13857">
        <ele>721.5</ele>
        <time>2022-06-02T06:09:37.000Z</time>
      </trkpt>
      <trkpt lat="42.96183" lon="1.13849">
        <ele>722.3</ele>
        <time>2022-06-02T06:09:42.000Z</time>
      </trkpt>
      <trkpt lat="42.96176" lon="1.13839">
        <ele>723.1</ele>
        <time>2022-06-02T06:09:47.000Z</time>
      </trkpt>
      <trkpt lat="42.96169" lon="1.13828">
        <ele>724.4</ele>
        <time>2022-06-02T06:09:52.000Z</time>
      </trkpt>
      <trkpt lat="42.96163" lon="1.13817">
        <ele>724.7</ele>
        <time>2022-06-02T06:09:57.000Z</time>
      </trkpt>
      <trkpt lat="42.96157" lon="1.13807">
        <ele>725.8</ele>
        <time>2022-06-02T06:10:03.000Z</time>
      </trkpt>
      <trkpt lat="42.96157" lon="1.13806">
        <ele>727.3</ele>
        <time>2022-06-02T06:10:55.000Z</time>
      </trkpt>
      <trkpt lat="42.96156" lon="1.13806">
        <ele>722.6</ele>
        <time>2022-06-02T06:12:12.000Z</time>
      </trkpt>
      <trkpt lat="42.96155" lon="1.13805">
        <ele>720.2</ele>
        <time>2022-06-02T06:14:38.000Z</time>
      </trkpt>
      <trkpt lat="42.96152" lon="1.13793">
        <ele>720.3</ele>
        <time>2022-06-02T06:14:43.000Z</time>
      </trkpt>
      <trkpt lat="42.96148" lon="1.1378">
        <ele>720.6</ele>
        <time>2022-06-02T06:14:48.000Z</time>
      </trkpt>
      <trkpt lat="42.96143" lon="1.13766">
        <ele>721.2</ele>
        <time>2022-06-02T06:14:53.000Z</time>
      </trkpt>
      <trkpt lat="42.96136" lon="1.13757">
        <ele>721.5</ele>
        <time>2022-06-02T06:14:57.000Z</time>
      </trkpt>
      <trkpt lat="42.96129" lon="1.13747">
        <ele>722.1</ele>
        <time>2022-06-02T06:15:01.000Z</time>
      </trkpt>
      <trkpt lat="42.96122" lon="1.13736">
        <ele>722</ele>
        <time>2022-06-02T06:15:05.000Z</time>
      </trkpt>
      <trkpt lat="42.96118" lon="1.13724">
        <ele>722.6</ele>
        <time>2022-06-02T06:15:09.000Z</time>
      </trkpt>
      <trkpt lat="42.96116" lon="1.13712">
        <ele>722.9</ele>
        <time>2022-06-02T06:15:13.000Z</time>
      </trkpt>
      <trkpt lat="42.96112" lon="1.13699">
        <ele>722.9</ele>
        <time>2022-06-02T06:15:17.000Z</time>
      </trkpt>
      <trkpt lat="42.96108" lon="1.13685">
        <ele>723.5</ele>
        <time>2022-06-02T06:15:21.000Z</time>
      </trkpt>
      <trkpt lat="42.96104" lon="1.13673">
        <ele>724.5</ele>
        <time>2022-06-02T06:15:25.000Z</time>
      </trkpt>
      <trkpt lat="42.96097" lon="1.13662">
        <ele>725.5</ele>
        <time>2022-06-02T06:15:29.000Z</time>
      </trkpt>
      <trkpt lat="42.96091" lon="1.13651">
        <ele>726.2</ele>
        <time>2022-06-02T06:15:33.000Z</time>
      </trkpt>
      <trkpt lat="42.96087" lon="1.13639">
        <ele>727.3</ele>
        <time>2022-06-02T06:15:37.000Z</time>
      </trkpt>
      <trkpt lat="42.96084" lon="1.13627">
        <ele>728.6</ele>
        <time>2022-06-02T06:15:41.000Z</time>
      </trkpt>
      <trkpt lat="42.96079" lon="1.13615">
        <ele>728.6</ele>
        <time>2022-06-02T06:15:45.000Z</time>
      </trkpt>
      <trkpt lat="42.96072" lon="1.13605">
        <ele>729.2</ele>
        <time>2022-06-02T06:15:49.000Z</time>
      </trkpt>
      <trkpt lat="42.96066" lon="1.13592">
        <ele>729.9</ele>
        <time>2022-06-02T06:15:53.000Z</time>
      </trkpt>
      <trkpt lat="42.96059" lon="1.13578">
        <ele>730</ele>
        <time>2022-06-02T06:15:57.000Z</time>
      </trkpt>
      <trkpt lat="42.96056" lon="1.13567">
        <ele>730.8</ele>
        <time>2022-06-02T06:16:00.000Z</time>
      </trkpt>
      <trkpt lat="42.96051" lon="1.13555">
        <ele>731.5</ele>
        <time>2022-06-02T06:16:04.000Z</time>
      </trkpt>
      <trkpt lat="42.96047" lon="1.13542">
        <ele>731.9</ele>
        <time>2022-06-02T06:16:08.000Z</time>
      </trkpt>
      <trkpt lat="42.96046" lon="1.13529">
        <ele>732.6</ele>
        <time>2022-06-02T06:16:12.000Z</time>
      </trkpt>
      <trkpt lat="42.96044" lon="1.13516">
        <ele>733.3</ele>
        <time>2022-06-02T06:16:16.000Z</time>
      </trkpt>
      <trkpt lat="42.96044" lon="1.13503">
        <ele>733.9</ele>
        <time>2022-06-02T06:16:20.000Z</time>
      </trkpt>
      <trkpt lat="42.96044" lon="1.13488">
        <ele>735.3</ele>
        <time>2022-06-02T06:16:25.000Z</time>
      </trkpt>
      <trkpt lat="42.96043" lon="1.13475">
        <ele>735.7</ele>
        <time>2022-06-02T06:16:29.000Z</time>
      </trkpt>
      <trkpt lat="42.96037" lon="1.13462">
        <ele>736.5</ele>
        <time>2022-06-02T06:16:34.000Z</time>
      </trkpt>
      <trkpt lat="42.96033" lon="1.13449">
        <ele>737.1</ele>
        <time>2022-06-02T06:16:38.000Z</time>
      </trkpt>
      <trkpt lat="42.96032" lon="1.13433">
        <ele>737.6</ele>
        <time>2022-06-02T06:16:42.000Z</time>
      </trkpt>
      <trkpt lat="42.96032" lon="1.13418">
        <ele>737.9</ele>
        <time>2022-06-02T06:16:46.000Z</time>
      </trkpt>
      <trkpt lat="42.96034" lon="1.13406">
        <ele>738.2</ele>
        <time>2022-06-02T06:16:50.000Z</time>
      </trkpt>
      <trkpt lat="42.96035" lon="1.13392">
        <ele>738.7</ele>
        <time>2022-06-02T06:16:54.000Z</time>
      </trkpt>
      <trkpt lat="42.96037" lon="1.13378">
        <ele>739</ele>
        <time>2022-06-02T06:16:58.000Z</time>
      </trkpt>
      <trkpt lat="42.96039" lon="1.13365">
        <ele>739.5</ele>
        <time>2022-06-02T06:17:02.000Z</time>
      </trkpt>
      <trkpt lat="42.96041" lon="1.13351">
        <ele>739.6</ele>
        <time>2022-06-02T06:17:06.000Z</time>
      </trkpt>
      <trkpt lat="42.96039" lon="1.13334">
        <ele>739.5</ele>
        <time>2022-06-02T06:17:09.000Z</time>
      </trkpt>
      <trkpt lat="42.96036" lon="1.13319">
        <ele>739.5</ele>
        <time>2022-06-02T06:17:11.000Z</time>
      </trkpt>
      <trkpt lat="42.96031" lon="1.13304">
        <ele>738.7</ele>
        <time>2022-06-02T06:17:13.000Z</time>
      </trkpt>
      <trkpt lat="42.96027" lon="1.13291">
        <ele>738.8</ele>
        <time>2022-06-02T06:17:15.000Z</time>
      </trkpt>
      <trkpt lat="42.96016" lon="1.13285">
        <ele>739.1</ele>
        <time>2022-06-02T06:17:18.000Z</time>
      </trkpt>
      <trkpt lat="42.96006" lon="1.1329">
        <ele>738.9</ele>
        <time>2022-06-02T06:17:20.000Z</time>
      </trkpt>
      <trkpt lat="42.95995" lon="1.13294">
        <ele>738.7</ele>
        <time>2022-06-02T06:17:22.000Z</time>
      </trkpt>
      <trkpt lat="42.95982" lon="1.13299">
        <ele>738.7</ele>
        <time>2022-06-02T06:17:24.000Z</time>
      </trkpt>
      <trkpt lat="42.95968" lon="1.13304">
        <ele>738.5</ele>
        <time>2022-06-02T06:17:26.000Z</time>
      </trkpt>
      <trkpt lat="42.95955" lon="1.1331">
        <ele>737.8</ele>
        <time>2022-06-02T06:17:28.000Z</time>
      </trkpt>
      <trkpt lat="42.95941" lon="1.13311">
        <ele>737.5</ele>
        <time>2022-06-02T06:17:30.000Z</time>
      </trkpt>
      <trkpt lat="42.95931" lon="1.13306">
        <ele>737</ele>
        <time>2022-06-02T06:17:32.000Z</time>
      </trkpt>
      <trkpt lat="42.95922" lon="1.13318">
        <ele>736.2</ele>
        <time>2022-06-02T06:17:35.000Z</time>
      </trkpt>
      <trkpt lat="42.95923" lon="1.13336">
        <ele>735.6</ele>
        <time>2022-06-02T06:17:37.000Z</time>
      </trkpt>
      <trkpt lat="42.95924" lon="1.13358">
        <ele>734.7</ele>
        <time>2022-06-02T06:17:39.000Z</time>
      </trkpt>
      <trkpt lat="42.95922" lon="1.1338">
        <ele>733.9</ele>
        <time>2022-06-02T06:17:41.000Z</time>
      </trkpt>
      <trkpt lat="42.9592" lon="1.13404">
        <ele>733.4</ele>
        <time>2022-06-02T06:17:43.000Z</time>
      </trkpt>
      <trkpt lat="42.9592" lon="1.13416">
        <ele>733.3</ele>
        <time>2022-06-02T06:17:44.000Z</time>
      </trkpt>
      <trkpt lat="42.95919" lon="1.13429">
        <ele>732.7</ele>
        <time>2022-06-02T06:17:45.000Z</time>
      </trkpt>
      <trkpt lat="42.95918" lon="1.13442">
        <ele>732.4</ele>
        <time>2022-06-02T06:17:46.000Z</time>
      </trkpt>
      <trkpt lat="42.95918" lon="1.13455">
        <ele>732.1</ele>
        <time>2022-06-02T06:17:47.000Z</time>
      </trkpt>
      <trkpt lat="42.95917" lon="1.13469">
        <ele>731.5</ele>
        <time>2022-06-02T06:17:48.000Z</time>
      </trkpt>
      <trkpt lat="42.95916" lon="1.13482">
        <ele>731.1</ele>
        <time>2022-06-02T06:17:49.000Z</time>
      </trkpt>
      <trkpt lat="42.95915" lon="1.13495">
        <ele>730.8</ele>
        <time>2022-06-02T06:17:50.000Z</time>
      </trkpt>
      <trkpt lat="42.95915" lon="1.13509">
        <ele>730.4</ele>
        <time>2022-06-02T06:17:51.000Z</time>
      </trkpt>
      <trkpt lat="42.95914" lon="1.13522">
        <ele>730</ele>
        <time>2022-06-02T06:17:52.000Z</time>
      </trkpt>
      <trkpt lat="42.95913" lon="1.13535">
        <ele>729.3</ele>
        <time>2022-06-02T06:17:53.000Z</time>
      </trkpt>
      <trkpt lat="42.95912" lon="1.13558">
        <ele>728.5</ele>
        <time>2022-06-02T06:17:55.000Z</time>
      </trkpt>
      <trkpt lat="42.9591" lon="1.13576">
        <ele>727.7</ele>
        <time>2022-06-02T06:17:57.000Z</time>
      </trkpt>
      <trkpt lat="42.95909" lon="1.13595">
        <ele>726.7</ele>
        <time>2022-06-02T06:17:59.000Z</time>
      </trkpt>
      <trkpt lat="42.95909" lon="1.13614">
        <ele>725.5</ele>
        <time>2022-06-02T06:18:01.000Z</time>
      </trkpt>
      <trkpt lat="42.95907" lon="1.13631">
        <ele>724.5</ele>
        <time>2022-06-02T06:18:03.000Z</time>
      </trkpt>
      <trkpt lat="42.959" lon="1.13647">
        <ele>723.6</ele>
        <time>2022-06-02T06:18:05.000Z</time>
      </trkpt>
      <trkpt lat="42.95894" lon="1.13661">
        <ele>723.1</ele>
        <time>2022-06-02T06:18:07.000Z</time>
      </trkpt>
      <trkpt lat="42.95889" lon="1.13674">
        <ele>722.3</ele>
        <time>2022-06-02T06:18:09.000Z</time>
      </trkpt>
      <trkpt lat="42.95884" lon="1.13689">
        <ele>721.7</ele>
        <time>2022-06-02T06:18:12.000Z</time>
      </trkpt>
      <trkpt lat="42.9588" lon="1.13703">
        <ele>721</ele>
        <time>2022-06-02T06:18:15.000Z</time>
      </trkpt>
      <trkpt lat="42.95878" lon="1.13716">
        <ele>720</ele>
        <time>2022-06-02T06:18:18.000Z</time>
      </trkpt>
      <trkpt lat="42.95875" lon="1.1373">
        <ele>719.4</ele>
        <time>2022-06-02T06:18:22.000Z</time>
      </trkpt>
      <trkpt lat="42.95874" lon="1.13745">
        <ele>718.4</ele>
        <time>2022-06-02T06:18:26.000Z</time>
      </trkpt>
      <trkpt lat="42.95875" lon="1.13758">
        <ele>718</ele>
        <time>2022-06-02T06:18:30.000Z</time>
      </trkpt>
      <trkpt lat="42.95876" lon="1.13773">
        <ele>717.3</ele>
        <time>2022-06-02T06:18:34.000Z</time>
      </trkpt>
      <trkpt lat="42.95874" lon="1.13786">
        <ele>716.1</ele>
        <time>2022-06-02T06:18:38.000Z</time>
      </trkpt>
      <trkpt lat="42.95865" lon="1.13794">
        <ele>715.3</ele>
        <time>2022-06-02T06:18:43.000Z</time>
      </trkpt>
      <trkpt lat="42.95856" lon="1.138">
        <ele>714.3</ele>
        <time>2022-06-02T06:18:48.000Z</time>
      </trkpt>
      <trkpt lat="42.95846" lon="1.13803">
        <ele>713.1</ele>
        <time>2022-06-02T06:18:54.000Z</time>
      </trkpt>
      <trkpt lat="42.95837" lon="1.13802">
        <ele>712.2</ele>
        <time>2022-06-02T06:19:02.000Z</time>
      </trkpt>
      <trkpt lat="42.95827" lon="1.138">
        <ele>710.9</ele>
        <time>2022-06-02T06:19:09.000Z</time>
      </trkpt>
      <trkpt lat="42.95821" lon="1.13798">
        <ele>710.1</ele>
        <time>2022-06-02T06:19:15.000Z</time>
      </trkpt>
      <trkpt lat="42.9582" lon="1.13798">
        <ele>709.5</ele>
        <time>2022-06-02T06:19:18.000Z</time>
      </trkpt>
      <trkpt lat="42.95819" lon="1.13799">
        <ele>709</ele>
        <time>2022-06-02T06:19:24.000Z</time>
      </trkpt>
      <trkpt lat="42.95819" lon="1.13798">
        <ele>708.4</ele>
        <time>2022-06-02T06:19:27.000Z</time>
      </trkpt>
      <trkpt lat="42.9582" lon="1.13796">
        <ele>707.7</ele>
        <time>2022-06-02T06:19:32.000Z</time>
      </trkpt>
      <trkpt lat="42.9582" lon="1.13797">
        <ele>707.3</ele>
        <time>2022-06-02T06:19:42.000Z</time>
      </trkpt>
      <trkpt lat="42.95809" lon="1.13803">
        <ele>703.9</ele>
        <time>2022-06-02T06:20:02.000Z</time>
      </trkpt>
      <trkpt lat="42.958" lon="1.13803">
        <ele>704.2</ele>
        <time>2022-06-02T06:20:07.000Z</time>
      </trkpt>
      <trkpt lat="42.9579" lon="1.13802">
        <ele>705</ele>
        <time>2022-06-02T06:20:12.000Z</time>
      </trkpt>
      <trkpt lat="42.9578" lon="1.13804">
        <ele>705.6</ele>
        <time>2022-06-02T06:20:16.000Z</time>
      </trkpt>
      <trkpt lat="42.95768" lon="1.13805">
        <ele>706.9</ele>
        <time>2022-06-02T06:20:21.000Z</time>
      </trkpt>
      <trkpt lat="42.95758" lon="1.13807">
        <ele>708.8</ele>
        <time>2022-06-02T06:20:26.000Z</time>
      </trkpt>
      <trkpt lat="42.95748" lon="1.13807">
        <ele>710.8</ele>
        <time>2022-06-02T06:20:31.000Z</time>
      </trkpt>
      <trkpt lat="42.95737" lon="1.13807">
        <ele>712.8</ele>
        <time>2022-06-02T06:20:36.000Z</time>
      </trkpt>
      <trkpt lat="42.95727" lon="1.13806">
        <ele>714.6</ele>
        <time>2022-06-02T06:20:40.000Z</time>
      </trkpt>
      <trkpt lat="42.95718" lon="1.13806">
        <ele>717.4</ele>
        <time>2022-06-02T06:20:45.000Z</time>
      </trkpt>
      <trkpt lat="42.95709" lon="1.13809">
        <ele>720.1</ele>
        <time>2022-06-02T06:20:50.000Z</time>
      </trkpt>
      <trkpt lat="42.957" lon="1.13812">
        <ele>722</ele>
        <time>2022-06-02T06:20:55.000Z</time>
      </trkpt>
      <trkpt lat="42.9569" lon="1.13813">
        <ele>724</ele>
        <time>2022-06-02T06:21:00.000Z</time>
      </trkpt>
      <trkpt lat="42.9568" lon="1.13814">
        <ele>725.5</ele>
        <time>2022-06-02T06:21:04.000Z</time>
      </trkpt>
      <trkpt lat="42.95669" lon="1.13818">
        <ele>727.5</ele>
        <time>2022-06-02T06:21:09.000Z</time>
      </trkpt>
      <trkpt lat="42.95659" lon="1.1382">
        <ele>729.4</ele>
        <time>2022-06-02T06:21:13.000Z</time>
      </trkpt>
      <trkpt lat="42.9565" lon="1.13821">
        <ele>731.2</ele>
        <time>2022-06-02T06:21:18.000Z</time>
      </trkpt>
      <trkpt lat="42.9564" lon="1.13823">
        <ele>732.5</ele>
        <time>2022-06-02T06:21:22.000Z</time>
      </trkpt>
      <trkpt lat="42.9563" lon="1.13822">
        <ele>733.9</ele>
        <time>2022-06-02T06:21:26.000Z</time>
      </trkpt>
      <trkpt lat="42.95621" lon="1.13816">
        <ele>736</ele>
        <time>2022-06-02T06:21:31.000Z</time>
      </trkpt>
      <trkpt lat="42.9561" lon="1.13813">
        <ele>737.4</ele>
        <time>2022-06-02T06:21:36.000Z</time>
      </trkpt>
      <trkpt lat="42.95601" lon="1.13811">
        <ele>738.8</ele>
        <time>2022-06-02T06:21:41.000Z</time>
      </trkpt>
      <trkpt lat="42.95591" lon="1.13813">
        <ele>740</ele>
        <time>2022-06-02T06:21:46.000Z</time>
      </trkpt>
      <trkpt lat="42.95583" lon="1.13821">
        <ele>741.3</ele>
        <time>2022-06-02T06:21:51.000Z</time>
      </trkpt>
      <trkpt lat="42.95574" lon="1.1383">
        <ele>742.1</ele>
        <time>2022-06-02T06:21:56.000Z</time>
      </trkpt>
      <trkpt lat="42.95565" lon="1.13839">
        <ele>742.7</ele>
        <time>2022-06-02T06:22:00.000Z</time>
      </trkpt>
      <trkpt lat="42.95557" lon="1.13846">
        <ele>743.2</ele>
        <time>2022-06-02T06:22:03.000Z</time>
      </trkpt>
      <trkpt lat="42.95549" lon="1.13854">
        <ele>743.2</ele>
        <time>2022-06-02T06:22:06.000Z</time>
      </trkpt>
      <trkpt lat="42.9554" lon="1.13864">
        <ele>743.8</ele>
        <time>2022-06-02T06:22:10.000Z</time>
      </trkpt>
      <trkpt lat="42.95532" lon="1.13872">
        <ele>744.1</ele>
        <time>2022-06-02T06:22:13.000Z</time>
      </trkpt>
      <trkpt lat="42.95523" lon="1.1388">
        <ele>744</ele>
        <time>2022-06-02T06:22:16.000Z</time>
      </trkpt>
      <trkpt lat="42.95514" lon="1.13888">
        <ele>744.4</ele>
        <time>2022-06-02T06:22:19.000Z</time>
      </trkpt>
      <trkpt lat="42.95505" lon="1.13897">
        <ele>745</ele>
        <time>2022-06-02T06:22:23.000Z</time>
      </trkpt>
      <trkpt lat="42.95496" lon="1.13904">
        <ele>745</ele>
        <time>2022-06-02T06:22:26.000Z</time>
      </trkpt>
      <trkpt lat="42.95487" lon="1.13912">
        <ele>745</ele>
        <time>2022-06-02T06:22:29.000Z</time>
      </trkpt>
      <trkpt lat="42.9548" lon="1.13919">
        <ele>746</ele>
        <time>2022-06-02T06:22:32.000Z</time>
      </trkpt>
      <trkpt lat="42.95471" lon="1.13928">
        <ele>747.1</ele>
        <time>2022-06-02T06:22:36.000Z</time>
      </trkpt>
      <trkpt lat="42.95462" lon="1.13936">
        <ele>748</ele>
        <time>2022-06-02T06:22:40.000Z</time>
      </trkpt>
      <trkpt lat="42.95453" lon="1.13943">
        <ele>748.4</ele>
        <time>2022-06-02T06:22:44.000Z</time>
      </trkpt>
      <trkpt lat="42.95446" lon="1.13951">
        <ele>748.7</ele>
        <time>2022-06-02T06:22:47.000Z</time>
      </trkpt>
      <trkpt lat="42.95438" lon="1.1396">
        <ele>749</ele>
        <time>2022-06-02T06:22:51.000Z</time>
      </trkpt>
      <trkpt lat="42.95432" lon="1.13969">
        <ele>749.2</ele>
        <time>2022-06-02T06:22:54.000Z</time>
      </trkpt>
      <trkpt lat="42.95424" lon="1.13977">
        <ele>749.3</ele>
        <time>2022-06-02T06:22:58.000Z</time>
      </trkpt>
      <trkpt lat="42.95417" lon="1.13986">
        <ele>749.4</ele>
        <time>2022-06-02T06:23:01.000Z</time>
      </trkpt>
      <trkpt lat="42.95408" lon="1.13998">
        <ele>749.1</ele>
        <time>2022-06-02T06:23:04.000Z</time>
      </trkpt>
      <trkpt lat="42.95399" lon="1.14011">
        <ele>748.9</ele>
        <time>2022-06-02T06:23:07.000Z</time>
      </trkpt>
      <trkpt lat="42.9539" lon="1.14021">
        <ele>749</ele>
        <time>2022-06-02T06:23:10.000Z</time>
      </trkpt>
      <trkpt lat="42.9538" lon="1.14032">
        <ele>747.9</ele>
        <time>2022-06-02T06:23:13.000Z</time>
      </trkpt>
      <trkpt lat="42.95373" lon="1.14041">
        <ele>747.5</ele>
        <time>2022-06-02T06:23:15.000Z</time>
      </trkpt>
      <trkpt lat="42.95369" lon="1.14053">
        <ele>748.1</ele>
        <time>2022-06-02T06:23:17.000Z</time>
      </trkpt>
      <trkpt lat="42.95372" lon="1.14066">
        <ele>747.7</ele>
        <time>2022-06-02T06:23:19.000Z</time>
      </trkpt>
      <trkpt lat="42.95377" lon="1.14082">
        <ele>747.5</ele>
        <time>2022-06-02T06:23:21.000Z</time>
      </trkpt>
      <trkpt lat="42.95382" lon="1.14094">
        <ele>746.5</ele>
        <time>2022-06-02T06:23:23.000Z</time>
      </trkpt>
      <trkpt lat="42.95386" lon="1.1411">
        <ele>746.4</ele>
        <time>2022-06-02T06:23:26.000Z</time>
      </trkpt>
      <trkpt lat="42.95388" lon="1.14125">
        <ele>745.7</ele>
        <time>2022-06-02T06:23:29.000Z</time>
      </trkpt>
      <trkpt lat="42.95391" lon="1.14138">
        <ele>745.5</ele>
        <time>2022-06-02T06:23:32.000Z</time>
      </trkpt>
      <trkpt lat="42.95394" lon="1.14153">
        <ele>745.9</ele>
        <time>2022-06-02T06:23:36.000Z</time>
      </trkpt>
      <trkpt lat="42.95396" lon="1.14165">
        <ele>745.9</ele>
        <time>2022-06-02T06:23:39.000Z</time>
      </trkpt>
      <trkpt lat="42.95395" lon="1.1418">
        <ele>745.8</ele>
        <time>2022-06-02T06:23:43.000Z</time>
      </trkpt>
      <trkpt lat="42.95392" lon="1.14193">
        <ele>745.7</ele>
        <time>2022-06-02T06:23:46.000Z</time>
      </trkpt>
      <trkpt lat="42.95386" lon="1.14203">
        <ele>745.6</ele>
        <time>2022-06-02T06:23:49.000Z</time>
      </trkpt>
      <trkpt lat="42.95379" lon="1.14214">
        <ele>745.7</ele>
        <time>2022-06-02T06:23:52.000Z</time>
      </trkpt>
      <trkpt lat="42.95372" lon="1.14225">
        <ele>745.4</ele>
        <time>2022-06-02T06:23:55.000Z</time>
      </trkpt>
      <trkpt lat="42.95368" lon="1.14236">
        <ele>745.3</ele>
        <time>2022-06-02T06:23:58.000Z</time>
      </trkpt>
      <trkpt lat="42.95361" lon="1.14248">
        <ele>745.4</ele>
        <time>2022-06-02T06:24:01.000Z</time>
      </trkpt>
      <trkpt lat="42.95357" lon="1.14262">
        <ele>744.6</ele>
        <time>2022-06-02T06:24:04.000Z</time>
      </trkpt>
      <trkpt lat="42.95351" lon="1.14276">
        <ele>744</ele>
        <time>2022-06-02T06:24:08.000Z</time>
      </trkpt>
      <trkpt lat="42.95343" lon="1.14287">
        <ele>743.1</ele>
        <time>2022-06-02T06:24:11.000Z</time>
      </trkpt>
      <trkpt lat="42.95337" lon="1.14297">
        <ele>743</ele>
        <time>2022-06-02T06:24:13.000Z</time>
      </trkpt>
      <trkpt lat="42.95327" lon="1.14303">
        <ele>742.3</ele>
        <time>2022-06-02T06:24:16.000Z</time>
      </trkpt>
      <trkpt lat="42.95315" lon="1.14301">
        <ele>741.5</ele>
        <time>2022-06-02T06:24:20.000Z</time>
      </trkpt>
      <trkpt lat="42.95304" lon="1.14299">
        <ele>741.4</ele>
        <time>2022-06-02T06:24:23.000Z</time>
      </trkpt>
      <trkpt lat="42.95295" lon="1.14299">
        <ele>741</ele>
        <time>2022-06-02T06:24:26.000Z</time>
      </trkpt>
      <trkpt lat="42.95283" lon="1.14302">
        <ele>740.5</ele>
        <time>2022-06-02T06:24:30.000Z</time>
      </trkpt>
      <trkpt lat="42.95274" lon="1.14308">
        <ele>740.3</ele>
        <time>2022-06-02T06:24:33.000Z</time>
      </trkpt>
      <trkpt lat="42.95265" lon="1.14318">
        <ele>740.6</ele>
        <time>2022-06-02T06:24:37.000Z</time>
      </trkpt>
      <trkpt lat="42.95258" lon="1.14326">
        <ele>740.9</ele>
        <time>2022-06-02T06:24:40.000Z</time>
      </trkpt>
      <trkpt lat="42.9525" lon="1.14337">
        <ele>741.1</ele>
        <time>2022-06-02T06:24:44.000Z</time>
      </trkpt>
      <trkpt lat="42.95243" lon="1.14347">
        <ele>741.6</ele>
        <time>2022-06-02T06:24:48.000Z</time>
      </trkpt>
      <trkpt lat="42.95237" lon="1.14358">
        <ele>742</ele>
        <time>2022-06-02T06:24:52.000Z</time>
      </trkpt>
      <trkpt lat="42.95231" lon="1.14368">
        <ele>742.4</ele>
        <time>2022-06-02T06:24:56.000Z</time>
      </trkpt>
      <trkpt lat="42.95224" lon="1.14381">
        <ele>742.8</ele>
        <time>2022-06-02T06:25:01.000Z</time>
      </trkpt>
      <trkpt lat="42.95218" lon="1.14392">
        <ele>743.2</ele>
        <time>2022-06-02T06:25:05.000Z</time>
      </trkpt>
      <trkpt lat="42.9521" lon="1.14399">
        <ele>742.8</ele>
        <time>2022-06-02T06:25:10.000Z</time>
      </trkpt>
      <trkpt lat="42.95212" lon="1.14386">
        <ele>743</ele>
        <time>2022-06-02T06:25:15.000Z</time>
      </trkpt>
      <trkpt lat="42.95216" lon="1.14373">
        <ele>743.3</ele>
        <time>2022-06-02T06:25:19.000Z</time>
      </trkpt>
      <trkpt lat="42.95219" lon="1.14361">
        <ele>744.2</ele>
        <time>2022-06-02T06:25:23.000Z</time>
      </trkpt>
      <trkpt lat="42.95219" lon="1.14347">
        <ele>744.3</ele>
        <time>2022-06-02T06:25:27.000Z</time>
      </trkpt>
      <trkpt lat="42.9522" lon="1.14334">
        <ele>744.9</ele>
        <time>2022-06-02T06:25:31.000Z</time>
      </trkpt>
      <trkpt lat="42.9522" lon="1.14321">
        <ele>745.2</ele>
        <time>2022-06-02T06:25:35.000Z</time>
      </trkpt>
      <trkpt lat="42.95219" lon="1.14307">
        <ele>746.3</ele>
        <time>2022-06-02T06:25:39.000Z</time>
      </trkpt>
      <trkpt lat="42.95222" lon="1.14295">
        <ele>747.1</ele>
        <time>2022-06-02T06:25:43.000Z</time>
      </trkpt>
      <trkpt lat="42.95227" lon="1.14283">
        <ele>748.1</ele>
        <time>2022-06-02T06:25:48.000Z</time>
      </trkpt>
      <trkpt lat="42.95236" lon="1.14276">
        <ele>749.2</ele>
        <time>2022-06-02T06:25:53.000Z</time>
      </trkpt>
      <trkpt lat="42.95245" lon="1.14273">
        <ele>750.4</ele>
        <time>2022-06-02T06:25:58.000Z</time>
      </trkpt>
      <trkpt lat="42.95254" lon="1.14269">
        <ele>751</ele>
        <time>2022-06-02T06:26:02.000Z</time>
      </trkpt>
      <trkpt lat="42.95264" lon="1.14264">
        <ele>751.5</ele>
        <time>2022-06-02T06:26:06.000Z</time>
      </trkpt>
      <trkpt lat="42.95261" lon="1.14252">
        <ele>752.6</ele>
        <time>2022-06-02T06:26:12.000Z</time>
      </trkpt>
      <trkpt lat="42.9525" lon="1.14256">
        <ele>752.9</ele>
        <time>2022-06-02T06:26:17.000Z</time>
      </trkpt>
      <trkpt lat="42.95239" lon="1.14258">
        <ele>753.5</ele>
        <time>2022-06-02T06:26:22.000Z</time>
      </trkpt>
      <trkpt lat="42.9523" lon="1.14255">
        <ele>753.7</ele>
        <time>2022-06-02T06:26:26.000Z</time>
      </trkpt>
      <trkpt lat="42.95221" lon="1.1425">
        <ele>754.9</ele>
        <time>2022-06-02T06:26:30.000Z</time>
      </trkpt>
      <trkpt lat="42.95211" lon="1.14246">
        <ele>755.5</ele>
        <time>2022-06-02T06:26:34.000Z</time>
      </trkpt>
      <trkpt lat="42.95201" lon="1.14246">
        <ele>756.3</ele>
        <time>2022-06-02T06:26:38.000Z</time>
      </trkpt>
      <trkpt lat="42.95192" lon="1.1425">
        <ele>757.1</ele>
        <time>2022-06-02T06:26:42.000Z</time>
      </trkpt>
      <trkpt lat="42.95183" lon="1.14252">
        <ele>758.5</ele>
        <time>2022-06-02T06:26:46.000Z</time>
      </trkpt>
      <trkpt lat="42.95172" lon="1.14252">
        <ele>759.5</ele>
        <time>2022-06-02T06:26:51.000Z</time>
      </trkpt>
      <trkpt lat="42.9516" lon="1.14253">
        <ele>760.6</ele>
        <time>2022-06-02T06:26:55.000Z</time>
      </trkpt>
      <trkpt lat="42.9515" lon="1.14259">
        <ele>761.8</ele>
        <time>2022-06-02T06:26:59.000Z</time>
      </trkpt>
      <trkpt lat="42.95142" lon="1.14267">
        <ele>762.7</ele>
        <time>2022-06-02T06:27:03.000Z</time>
      </trkpt>
      <trkpt lat="42.95134" lon="1.14277">
        <ele>763.3</ele>
        <time>2022-06-02T06:27:07.000Z</time>
      </trkpt>
      <trkpt lat="42.95124" lon="1.14285">
        <ele>764.6</ele>
        <time>2022-06-02T06:27:11.000Z</time>
      </trkpt>
      <trkpt lat="42.95114" lon="1.1429">
        <ele>765.7</ele>
        <time>2022-06-02T06:27:15.000Z</time>
      </trkpt>
      <trkpt lat="42.95104" lon="1.14291">
        <ele>766.9</ele>
        <time>2022-06-02T06:27:19.000Z</time>
      </trkpt>
      <trkpt lat="42.95093" lon="1.14293">
        <ele>767.9</ele>
        <time>2022-06-02T06:27:23.000Z</time>
      </trkpt>
      <trkpt lat="42.95084" lon="1.14295">
        <ele>768.6</ele>
        <time>2022-06-02T06:27:26.000Z</time>
      </trkpt>
      <trkpt lat="42.95074" lon="1.14298">
        <ele>769.5</ele>
        <time>2022-06-02T06:27:29.000Z</time>
      </trkpt>
      <trkpt lat="42.95063" lon="1.14301">
        <ele>770.2</ele>
        <time>2022-06-02T06:27:32.000Z</time>
      </trkpt>
      <trkpt lat="42.95053" lon="1.14305">
        <ele>770.5</ele>
        <time>2022-06-02T06:27:35.000Z</time>
      </trkpt>
      <trkpt lat="42.95042" lon="1.14308">
        <ele>771.4</ele>
        <time>2022-06-02T06:27:38.000Z</time>
      </trkpt>
      <trkpt lat="42.95033" lon="1.14309">
        <ele>771.8</ele>
        <time>2022-06-02T06:27:40.000Z</time>
      </trkpt>
      <trkpt lat="42.95024" lon="1.14313">
        <ele>772.3</ele>
        <time>2022-06-02T06:27:42.000Z</time>
      </trkpt>
      <trkpt lat="42.95014" lon="1.14315">
        <ele>772.7</ele>
        <time>2022-06-02T06:27:44.000Z</time>
      </trkpt>
      <trkpt lat="42.95004" lon="1.14315">
        <ele>772.9</ele>
        <time>2022-06-02T06:27:46.000Z</time>
      </trkpt>
      <trkpt lat="42.94992" lon="1.14315">
        <ele>773.3</ele>
        <time>2022-06-02T06:27:49.000Z</time>
      </trkpt>
      <trkpt lat="42.9498" lon="1.14315">
        <ele>773.5</ele>
        <time>2022-06-02T06:27:52.000Z</time>
      </trkpt>
      <trkpt lat="42.9497" lon="1.14315">
        <ele>773.9</ele>
        <time>2022-06-02T06:27:55.000Z</time>
      </trkpt>
      <trkpt lat="42.94959" lon="1.14313">
        <ele>774.5</ele>
        <time>2022-06-02T06:27:59.000Z</time>
      </trkpt>
      <trkpt lat="42.94947" lon="1.14314">
        <ele>774.8</ele>
        <time>2022-06-02T06:28:03.000Z</time>
      </trkpt>
      <trkpt lat="42.94937" lon="1.14316">
        <ele>775.2</ele>
        <time>2022-06-02T06:28:07.000Z</time>
      </trkpt>
      <trkpt lat="42.94927" lon="1.14316">
        <ele>775.6</ele>
        <time>2022-06-02T06:28:10.000Z</time>
      </trkpt>
      <trkpt lat="42.94917" lon="1.14317">
        <ele>776.3</ele>
        <time>2022-06-02T06:28:14.000Z</time>
      </trkpt>
      <trkpt lat="42.94906" lon="1.14316">
        <ele>776.8</ele>
        <time>2022-06-02T06:28:18.000Z</time>
      </trkpt>
      <trkpt lat="42.94896" lon="1.14317">
        <ele>777.4</ele>
        <time>2022-06-02T06:28:22.000Z</time>
      </trkpt>
      <trkpt lat="42.94886" lon="1.14317">
        <ele>778.4</ele>
        <time>2022-06-02T06:28:26.000Z</time>
      </trkpt>
      <trkpt lat="42.94877" lon="1.14316">
        <ele>779.2</ele>
        <time>2022-06-02T06:28:30.000Z</time>
      </trkpt>
      <trkpt lat="42.94868" lon="1.14316">
        <ele>780.1</ele>
        <time>2022-06-02T06:28:34.000Z</time>
      </trkpt>
      <trkpt lat="42.94859" lon="1.14315">
        <ele>781</ele>
        <time>2022-06-02T06:28:38.000Z</time>
      </trkpt>
      <trkpt lat="42.94849" lon="1.14312">
        <ele>781.2</ele>
        <time>2022-06-02T06:28:42.000Z</time>
      </trkpt>
      <trkpt lat="42.9484" lon="1.14308">
        <ele>782.3</ele>
        <time>2022-06-02T06:28:46.000Z</time>
      </trkpt>
      <trkpt lat="42.94831" lon="1.14303">
        <ele>783.3</ele>
        <time>2022-06-02T06:28:50.000Z</time>
      </trkpt>
      <trkpt lat="42.94822" lon="1.14299">
        <ele>784.2</ele>
        <time>2022-06-02T06:28:54.000Z</time>
      </trkpt>
      <trkpt lat="42.94813" lon="1.14294">
        <ele>784.9</ele>
        <time>2022-06-02T06:28:58.000Z</time>
      </trkpt>
      <trkpt lat="42.94805" lon="1.14288">
        <ele>785.8</ele>
        <time>2022-06-02T06:29:02.000Z</time>
      </trkpt>
      <trkpt lat="42.94796" lon="1.14282">
        <ele>786.3</ele>
        <time>2022-06-02T06:29:06.000Z</time>
      </trkpt>
      <trkpt lat="42.94787" lon="1.14276">
        <ele>787.2</ele>
        <time>2022-06-02T06:29:10.000Z</time>
      </trkpt>
      <trkpt lat="42.94778" lon="1.14272">
        <ele>787.3</ele>
        <time>2022-06-02T06:29:14.000Z</time>
      </trkpt>
      <trkpt lat="42.94769" lon="1.14267">
        <ele>788.1</ele>
        <time>2022-06-02T06:29:18.000Z</time>
      </trkpt>
      <trkpt lat="42.9476" lon="1.14263">
        <ele>788.3</ele>
        <time>2022-06-02T06:29:22.000Z</time>
      </trkpt>
      <trkpt lat="42.9475" lon="1.14261">
        <ele>789.2</ele>
        <time>2022-06-02T06:29:26.000Z</time>
      </trkpt>
      <trkpt lat="42.9474" lon="1.14261">
        <ele>789.8</ele>
        <time>2022-06-02T06:29:30.000Z</time>
      </trkpt>
      <trkpt lat="42.9473" lon="1.14263">
        <ele>790.5</ele>
        <time>2022-06-02T06:29:34.000Z</time>
      </trkpt>
      <trkpt lat="42.94719" lon="1.14269">
        <ele>791</ele>
        <time>2022-06-02T06:29:38.000Z</time>
      </trkpt>
      <trkpt lat="42.94711" lon="1.14275">
        <ele>791.9</ele>
        <time>2022-06-02T06:29:42.000Z</time>
      </trkpt>
      <trkpt lat="42.94701" lon="1.1428">
        <ele>792.4</ele>
        <time>2022-06-02T06:29:47.000Z</time>
      </trkpt>
      <trkpt lat="42.94692" lon="1.14283">
        <ele>793.5</ele>
        <time>2022-06-02T06:29:51.000Z</time>
      </trkpt>
      <trkpt lat="42.94682" lon="1.14283">
        <ele>794.3</ele>
        <time>2022-06-02T06:29:55.000Z</time>
      </trkpt>
      <trkpt lat="42.94671" lon="1.14286">
        <ele>794.4</ele>
        <time>2022-06-02T06:29:59.000Z</time>
      </trkpt>
      <trkpt lat="42.9466" lon="1.14287">
        <ele>794.9</ele>
        <time>2022-06-02T06:30:03.000Z</time>
      </trkpt>
      <trkpt lat="42.94649" lon="1.14286">
        <ele>795.3</ele>
        <time>2022-06-02T06:30:07.000Z</time>
      </trkpt>
      <trkpt lat="42.94639" lon="1.14286">
        <ele>795.5</ele>
        <time>2022-06-02T06:30:10.000Z</time>
      </trkpt>
      <trkpt lat="42.94628" lon="1.14288">
        <ele>795.7</ele>
        <time>2022-06-02T06:30:14.000Z</time>
      </trkpt>
      <trkpt lat="42.94617" lon="1.14291">
        <ele>796</ele>
        <time>2022-06-02T06:30:18.000Z</time>
      </trkpt>
      <trkpt lat="42.94607" lon="1.14296">
        <ele>796.5</ele>
        <time>2022-06-02T06:30:22.000Z</time>
      </trkpt>
      <trkpt lat="42.94598" lon="1.14302">
        <ele>796.4</ele>
        <time>2022-06-02T06:30:26.000Z</time>
      </trkpt>
      <trkpt lat="42.94588" lon="1.14309">
        <ele>796.4</ele>
        <time>2022-06-02T06:30:30.000Z</time>
      </trkpt>
      <trkpt lat="42.94578" lon="1.14317">
        <ele>796.7</ele>
        <time>2022-06-02T06:30:34.000Z</time>
      </trkpt>
      <trkpt lat="42.94569" lon="1.14325">
        <ele>796.8</ele>
        <time>2022-06-02T06:30:38.000Z</time>
      </trkpt>
      <trkpt lat="42.94559" lon="1.14331">
        <ele>797</ele>
        <time>2022-06-02T06:30:42.000Z</time>
      </trkpt>
      <trkpt lat="42.9455" lon="1.14338">
        <ele>797.2</ele>
        <time>2022-06-02T06:30:46.000Z</time>
      </trkpt>
      <trkpt lat="42.94541" lon="1.14345">
        <ele>797.7</ele>
        <time>2022-06-02T06:30:50.000Z</time>
      </trkpt>
      <trkpt lat="42.94533" lon="1.14351">
        <ele>797.7</ele>
        <time>2022-06-02T06:30:54.000Z</time>
      </trkpt>
      <trkpt lat="42.94522" lon="1.14357">
        <ele>798.2</ele>
        <time>2022-06-02T06:30:58.000Z</time>
      </trkpt>
      <trkpt lat="42.94511" lon="1.14364">
        <ele>798.4</ele>
        <time>2022-06-02T06:31:02.000Z</time>
      </trkpt>
      <trkpt lat="42.94502" lon="1.14368">
        <ele>798.8</ele>
        <time>2022-06-02T06:31:05.000Z</time>
      </trkpt>
      <trkpt lat="42.94493" lon="1.14371">
        <ele>799.2</ele>
        <time>2022-06-02T06:31:08.000Z</time>
      </trkpt>
      <trkpt lat="42.94485" lon="1.14375">
        <ele>799.2</ele>
        <time>2022-06-02T06:31:11.000Z</time>
      </trkpt>
      <trkpt lat="42.94475" lon="1.1438">
        <ele>799.3</ele>
        <time>2022-06-02T06:31:14.000Z</time>
      </trkpt>
      <trkpt lat="42.94464" lon="1.14383">
        <ele>799.6</ele>
        <time>2022-06-02T06:31:18.000Z</time>
      </trkpt>
      <trkpt lat="42.94453" lon="1.14386">
        <ele>799.8</ele>
        <time>2022-06-02T06:31:22.000Z</time>
      </trkpt>
      <trkpt lat="42.94442" lon="1.14388">
        <ele>800.1</ele>
        <time>2022-06-02T06:31:26.000Z</time>
      </trkpt>
      <trkpt lat="42.94432" lon="1.14393">
        <ele>799.6</ele>
        <time>2022-06-02T06:31:29.000Z</time>
      </trkpt>
      <trkpt lat="42.94422" lon="1.14398">
        <ele>800.4</ele>
        <time>2022-06-02T06:31:33.000Z</time>
      </trkpt>
      <trkpt lat="42.94413" lon="1.14403">
        <ele>800.3</ele>
        <time>2022-06-02T06:31:36.000Z</time>
      </trkpt>
      <trkpt lat="42.94404" lon="1.14409">
        <ele>800.3</ele>
        <time>2022-06-02T06:31:40.000Z</time>
      </trkpt>
      <trkpt lat="42.94392" lon="1.14413">
        <ele>800.6</ele>
        <time>2022-06-02T06:31:44.000Z</time>
      </trkpt>
      <trkpt lat="42.9438" lon="1.14412">
        <ele>801.1</ele>
        <time>2022-06-02T06:31:48.000Z</time>
      </trkpt>
      <trkpt lat="42.94372" lon="1.14405">
        <ele>801.4</ele>
        <time>2022-06-02T06:31:51.000Z</time>
      </trkpt>
      <trkpt lat="42.94366" lon="1.14395">
        <ele>802.1</ele>
        <time>2022-06-02T06:31:54.000Z</time>
      </trkpt>
      <trkpt lat="42.94363" lon="1.14383">
        <ele>802.3</ele>
        <time>2022-06-02T06:31:58.000Z</time>
      </trkpt>
      <trkpt lat="42.94355" lon="1.14373">
        <ele>803.1</ele>
        <time>2022-06-02T06:32:03.000Z</time>
      </trkpt>
      <trkpt lat="42.94347" lon="1.14366">
        <ele>803.1</ele>
        <time>2022-06-02T06:32:06.000Z</time>
      </trkpt>
      <trkpt lat="42.94336" lon="1.14364">
        <ele>803.5</ele>
        <time>2022-06-02T06:32:10.000Z</time>
      </trkpt>
      <trkpt lat="42.94325" lon="1.14364">
        <ele>803.7</ele>
        <time>2022-06-02T06:32:14.000Z</time>
      </trkpt>
      <trkpt lat="42.94315" lon="1.14366">
        <ele>804</ele>
        <time>2022-06-02T06:32:18.000Z</time>
      </trkpt>
      <trkpt lat="42.94304" lon="1.14371">
        <ele>804.2</ele>
        <time>2022-06-02T06:32:22.000Z</time>
      </trkpt>
      <trkpt lat="42.94295" lon="1.14375">
        <ele>804.3</ele>
        <time>2022-06-02T06:32:26.000Z</time>
      </trkpt>
      <trkpt lat="42.94285" lon="1.14382">
        <ele>805</ele>
        <time>2022-06-02T06:32:30.000Z</time>
      </trkpt>
      <trkpt lat="42.94277" lon="1.14389">
        <ele>805.4</ele>
        <time>2022-06-02T06:32:34.000Z</time>
      </trkpt>
      <trkpt lat="42.94268" lon="1.14396">
        <ele>806</ele>
        <time>2022-06-02T06:32:38.000Z</time>
      </trkpt>
      <trkpt lat="42.9426" lon="1.14402">
        <ele>806.8</ele>
        <time>2022-06-02T06:32:42.000Z</time>
      </trkpt>
      <trkpt lat="42.94252" lon="1.14409">
        <ele>808</ele>
        <time>2022-06-02T06:32:48.000Z</time>
      </trkpt>
      <trkpt lat="42.94244" lon="1.14418">
        <ele>809.2</ele>
        <time>2022-06-02T06:32:54.000Z</time>
      </trkpt>
      <trkpt lat="42.94236" lon="1.14428">
        <ele>809.7</ele>
        <time>2022-06-02T06:32:59.000Z</time>
      </trkpt>
      <trkpt lat="42.94229" lon="1.14436">
        <ele>810.2</ele>
        <time>2022-06-02T06:33:03.000Z</time>
      </trkpt>
      <trkpt lat="42.94221" lon="1.14442">
        <ele>810.5</ele>
        <time>2022-06-02T06:33:07.000Z</time>
      </trkpt>
      <trkpt lat="42.94212" lon="1.14448">
        <ele>811.3</ele>
        <time>2022-06-02T06:33:11.000Z</time>
      </trkpt>
      <trkpt lat="42.94202" lon="1.1445">
        <ele>811.6</ele>
        <time>2022-06-02T06:33:15.000Z</time>
      </trkpt>
      <trkpt lat="42.94193" lon="1.14452">
        <ele>812.3</ele>
        <time>2022-06-02T06:33:19.000Z</time>
      </trkpt>
      <trkpt lat="42.94183" lon="1.14453">
        <ele>812.8</ele>
        <time>2022-06-02T06:33:23.000Z</time>
      </trkpt>
      <trkpt lat="42.94174" lon="1.14454">
        <ele>813.2</ele>
        <time>2022-06-02T06:33:27.000Z</time>
      </trkpt>
      <trkpt lat="42.94164" lon="1.14457">
        <ele>813.7</ele>
        <time>2022-06-02T06:33:31.000Z</time>
      </trkpt>
      <trkpt lat="42.94154" lon="1.14462">
        <ele>814.3</ele>
        <time>2022-06-02T06:33:35.000Z</time>
      </trkpt>
      <trkpt lat="42.94145" lon="1.14469">
        <ele>815.4</ele>
        <time>2022-06-02T06:33:39.000Z</time>
      </trkpt>
      <trkpt lat="42.94137" lon="1.14477">
        <ele>816.5</ele>
        <time>2022-06-02T06:33:43.000Z</time>
      </trkpt>
      <trkpt lat="42.9413" lon="1.14484">
        <ele>816.7</ele>
        <time>2022-06-02T06:33:47.000Z</time>
      </trkpt>
      <trkpt lat="42.9412" lon="1.14491">
        <ele>817.9</ele>
        <time>2022-06-02T06:33:51.000Z</time>
      </trkpt>
      <trkpt lat="42.94111" lon="1.145">
        <ele>818.7</ele>
        <time>2022-06-02T06:33:55.000Z</time>
      </trkpt>
      <trkpt lat="42.94103" lon="1.1451">
        <ele>819.5</ele>
        <time>2022-06-02T06:34:00.000Z</time>
      </trkpt>
      <trkpt lat="42.94095" lon="1.14518">
        <ele>820.2</ele>
        <time>2022-06-02T06:34:04.000Z</time>
      </trkpt>
      <trkpt lat="42.94089" lon="1.14528">
        <ele>821</ele>
        <time>2022-06-02T06:34:09.000Z</time>
      </trkpt>
      <trkpt lat="42.94085" lon="1.14538">
        <ele>822.5</ele>
        <time>2022-06-02T06:34:15.000Z</time>
      </trkpt>
      <trkpt lat="42.94081" lon="1.1455">
        <ele>822.7</ele>
        <time>2022-06-02T06:34:18.000Z</time>
      </trkpt>
      <trkpt lat="42.94078" lon="1.14564">
        <ele>823.1</ele>
        <time>2022-06-02T06:34:22.000Z</time>
      </trkpt>
      <trkpt lat="42.94073" lon="1.14575">
        <ele>823.8</ele>
        <time>2022-06-02T06:34:27.000Z</time>
      </trkpt>
      <trkpt lat="42.94067" lon="1.14586">
        <ele>824.5</ele>
        <time>2022-06-02T06:34:34.000Z</time>
      </trkpt>
      <trkpt lat="42.94063" lon="1.146">
        <ele>824.9</ele>
        <time>2022-06-02T06:34:40.000Z</time>
      </trkpt>
      <trkpt lat="42.94056" lon="1.14609">
        <ele>825.4</ele>
        <time>2022-06-02T06:34:44.000Z</time>
      </trkpt>
      <trkpt lat="42.94049" lon="1.1462">
        <ele>825.3</ele>
        <time>2022-06-02T06:34:48.000Z</time>
      </trkpt>
      <trkpt lat="42.94055" lon="1.14632">
        <ele>825.9</ele>
        <time>2022-06-02T06:34:56.000Z</time>
      </trkpt>
      <trkpt lat="42.94055" lon="1.14644">
        <ele>826.6</ele>
        <time>2022-06-02T06:35:02.000Z</time>
      </trkpt>
      <trkpt lat="42.94046" lon="1.1465">
        <ele>827.9</ele>
        <time>2022-06-02T06:35:12.000Z</time>
      </trkpt>
      <trkpt lat="42.94038" lon="1.14657">
        <ele>828.3</ele>
        <time>2022-06-02T06:35:17.000Z</time>
      </trkpt>
      <trkpt lat="42.94031" lon="1.14667">
        <ele>827.3</ele>
        <time>2022-06-02T06:35:22.000Z</time>
      </trkpt>
      <trkpt lat="42.94024" lon="1.14678">
        <ele>828</ele>
        <time>2022-06-02T06:35:27.000Z</time>
      </trkpt>
      <trkpt lat="42.94016" lon="1.14684">
        <ele>828.8</ele>
        <time>2022-06-02T06:35:32.000Z</time>
      </trkpt>
      <trkpt lat="42.94008" lon="1.14689">
        <ele>829.4</ele>
        <time>2022-06-02T06:35:37.000Z</time>
      </trkpt>
      <trkpt lat="42.93999" lon="1.14694">
        <ele>830.3</ele>
        <time>2022-06-02T06:35:42.000Z</time>
      </trkpt>
      <trkpt lat="42.9399" lon="1.147">
        <ele>831</ele>
        <time>2022-06-02T06:35:47.000Z</time>
      </trkpt>
      <trkpt lat="42.93983" lon="1.14708">
        <ele>832.2</ele>
        <time>2022-06-02T06:35:52.000Z</time>
      </trkpt>
      <trkpt lat="42.93974" lon="1.14714">
        <ele>833.3</ele>
        <time>2022-06-02T06:35:58.000Z</time>
      </trkpt>
      <trkpt lat="42.93965" lon="1.14717">
        <ele>835.1</ele>
        <time>2022-06-02T06:36:03.000Z</time>
      </trkpt>
      <trkpt lat="42.93957" lon="1.14723">
        <ele>836.1</ele>
        <time>2022-06-02T06:36:08.000Z</time>
      </trkpt>
      <trkpt lat="42.93949" lon="1.14729">
        <ele>837.4</ele>
        <time>2022-06-02T06:36:13.000Z</time>
      </trkpt>
      <trkpt lat="42.9394" lon="1.14735">
        <ele>838.4</ele>
        <time>2022-06-02T06:36:19.000Z</time>
      </trkpt>
      <trkpt lat="42.93932" lon="1.14743">
        <ele>839.7</ele>
        <time>2022-06-02T06:36:25.000Z</time>
      </trkpt>
      <trkpt lat="42.93925" lon="1.14753">
        <ele>841.8</ele>
        <time>2022-06-02T06:36:32.000Z</time>
      </trkpt>
      <trkpt lat="42.93921" lon="1.14764">
        <ele>843.4</ele>
        <time>2022-06-02T06:36:38.000Z</time>
      </trkpt>
      <trkpt lat="42.9392" lon="1.14778">
        <ele>845.3</ele>
        <time>2022-06-02T06:36:44.000Z</time>
      </trkpt>
      <trkpt lat="42.93915" lon="1.14791">
        <ele>846.8</ele>
        <time>2022-06-02T06:36:51.000Z</time>
      </trkpt>
      <trkpt lat="42.9391" lon="1.14803">
        <ele>848.2</ele>
        <time>2022-06-02T06:36:56.000Z</time>
      </trkpt>
      <trkpt lat="42.93904" lon="1.14812">
        <ele>849.5</ele>
        <time>2022-06-02T06:37:01.000Z</time>
      </trkpt>
      <trkpt lat="42.93896" lon="1.14822">
        <ele>850.4</ele>
        <time>2022-06-02T06:37:06.000Z</time>
      </trkpt>
      <trkpt lat="42.93892" lon="1.14828">
        <ele>851</ele>
        <time>2022-06-02T06:37:13.000Z</time>
      </trkpt>
      <trkpt lat="42.93892" lon="1.14827">
        <ele>851.6</ele>
        <time>2022-06-02T06:37:17.000Z</time>
      </trkpt>
      <trkpt lat="42.93892" lon="1.14828">
        <ele>851.1</ele>
        <time>2022-06-02T06:37:37.000Z</time>
      </trkpt>
      <trkpt lat="42.93892" lon="1.14829">
        <ele>850.6</ele>
        <time>2022-06-02T06:38:44.000Z</time>
      </trkpt>
      <trkpt lat="42.93892" lon="1.14831">
        <ele>850.5</ele>
        <time>2022-06-02T06:38:47.000Z</time>
      </trkpt>
      <trkpt lat="42.93892" lon="1.14832">
        <ele>850.9</ele>
        <time>2022-06-02T06:39:36.000Z</time>
      </trkpt>
      <trkpt lat="42.93891" lon="1.14832">
        <ele>852.2</ele>
        <time>2022-06-02T06:40:05.000Z</time>
      </trkpt>
      <trkpt lat="42.93892" lon="1.14832">
        <ele>853</ele>
        <time>2022-06-02T06:41:16.000Z</time>
      </trkpt>
      <trkpt lat="42.93892" lon="1.14833">
        <ele>852.7</ele>
        <time>2022-06-02T06:41:22.000Z</time>
      </trkpt>
      <trkpt lat="42.93891" lon="1.14847">
        <ele>852.6</ele>
        <time>2022-06-02T06:41:28.000Z</time>
      </trkpt>
      <trkpt lat="42.93889" lon="1.14862">
        <ele>852.4</ele>
        <time>2022-06-02T06:41:33.000Z</time>
      </trkpt>
      <trkpt lat="42.93879" lon="1.14867">
        <ele>851.7</ele>
        <time>2022-06-02T06:41:40.000Z</time>
      </trkpt>
      <trkpt lat="42.93871" lon="1.1486">
        <ele>852.2</ele>
        <time>2022-06-02T06:41:44.000Z</time>
      </trkpt>
      <trkpt lat="42.93868" lon="1.14872">
        <ele>851.1</ele>
        <time>2022-06-02T06:41:55.000Z</time>
      </trkpt>
      <trkpt lat="42.93869" lon="1.14877">
        <ele>850.6</ele>
        <time>2022-06-02T06:42:00.000Z</time>
      </trkpt>
      <trkpt lat="42.93869" lon="1.14878">
        <ele>848.2</ele>
        <time>2022-06-02T06:42:35.000Z</time>
      </trkpt>
      <trkpt lat="42.93868" lon="1.14878">
        <ele>844.7</ele>
        <time>2022-06-02T06:43:26.000Z</time>
      </trkpt>
      <trkpt lat="42.93871" lon="1.14891">
        <ele>843.8</ele>
        <time>2022-06-02T06:43:33.000Z</time>
      </trkpt>
      <trkpt lat="42.93871" lon="1.14903">
        <ele>843.7</ele>
        <time>2022-06-02T06:43:38.000Z</time>
      </trkpt>
      <trkpt lat="42.93871" lon="1.14919">
        <ele>842.8</ele>
        <time>2022-06-02T06:43:42.000Z</time>
      </trkpt>
      <trkpt lat="42.93872" lon="1.14935">
        <ele>842.9</ele>
        <time>2022-06-02T06:43:45.000Z</time>
      </trkpt>
      <trkpt lat="42.93872" lon="1.14951">
        <ele>842.8</ele>
        <time>2022-06-02T06:43:48.000Z</time>
      </trkpt>
      <trkpt lat="42.93866" lon="1.14961">
        <ele>842.8</ele>
        <time>2022-06-02T06:43:50.000Z</time>
      </trkpt>
      <trkpt lat="42.93863" lon="1.14977">
        <ele>842.4</ele>
        <time>2022-06-02T06:43:53.000Z</time>
      </trkpt>
      <trkpt lat="42.93863" lon="1.1499">
        <ele>842.3</ele>
        <time>2022-06-02T06:43:58.000Z</time>
      </trkpt>
      <trkpt lat="42.93861" lon="1.15004">
        <ele>842.3</ele>
        <time>2022-06-02T06:44:04.000Z</time>
      </trkpt>
      <trkpt lat="42.93855" lon="1.15015">
        <ele>841.8</ele>
        <time>2022-06-02T06:44:12.000Z</time>
      </trkpt>
      <trkpt lat="42.93855" lon="1.15016">
        <ele>839.7</ele>
        <time>2022-06-02T06:44:46.000Z</time>
      </trkpt>
      <trkpt lat="42.93851" lon="1.15019">
        <ele>838.4</ele>
        <time>2022-06-02T06:45:04.000Z</time>
      </trkpt>
      <trkpt lat="42.9385" lon="1.15019">
        <ele>838.6</ele>
        <time>2022-06-02T06:45:05.000Z</time>
      </trkpt>
      <trkpt lat="42.93844" lon="1.15021">
        <ele>836.8</ele>
        <time>2022-06-02T06:45:21.000Z</time>
      </trkpt>
      <trkpt lat="42.93843" lon="1.15021">
        <ele>836.7</ele>
        <time>2022-06-02T06:45:23.000Z</time>
      </trkpt>
      <trkpt lat="42.93841" lon="1.15018">
        <ele>835.9</ele>
        <time>2022-06-02T06:45:33.000Z</time>
      </trkpt>
      <trkpt lat="42.93841" lon="1.15017">
        <ele>835.8</ele>
        <time>2022-06-02T06:45:36.000Z</time>
      </trkpt>
      <trkpt lat="42.93839" lon="1.15015">
        <ele>834.9</ele>
        <time>2022-06-02T06:45:43.000Z</time>
      </trkpt>
      <trkpt lat="42.93839" lon="1.15014">
        <ele>834.3</ele>
        <time>2022-06-02T06:45:54.000Z</time>
      </trkpt>
      <trkpt lat="42.93836" lon="1.15014">
        <ele>833.7</ele>
        <time>2022-06-02T06:46:02.000Z</time>
      </trkpt>
      <trkpt lat="42.93837" lon="1.15015">
        <ele>833.4</ele>
        <time>2022-06-02T06:46:07.000Z</time>
      </trkpt>
      <trkpt lat="42.93832" lon="1.15027">
        <ele>831.5</ele>
        <time>2022-06-02T06:46:32.000Z</time>
      </trkpt>
      <trkpt lat="42.9383" lon="1.1504">
        <ele>830.6</ele>
        <time>2022-06-02T06:46:42.000Z</time>
      </trkpt>
      <trkpt lat="42.93829" lon="1.15054">
        <ele>830.3</ele>
        <time>2022-06-02T06:46:47.000Z</time>
      </trkpt>
      <trkpt lat="42.93823" lon="1.15065">
        <ele>829.9</ele>
        <time>2022-06-02T06:46:50.000Z</time>
      </trkpt>
      <trkpt lat="42.93816" lon="1.15078">
        <ele>829.7</ele>
        <time>2022-06-02T06:46:55.000Z</time>
      </trkpt>
      <trkpt lat="42.93814" lon="1.15092">
        <ele>828.8</ele>
        <time>2022-06-02T06:46:59.000Z</time>
      </trkpt>
      <trkpt lat="42.93814" lon="1.15106">
        <ele>828</ele>
        <time>2022-06-02T06:47:03.000Z</time>
      </trkpt>
      <trkpt lat="42.93816" lon="1.15121">
        <ele>827.1</ele>
        <time>2022-06-02T06:47:06.000Z</time>
      </trkpt>
      <trkpt lat="42.93818" lon="1.15135">
        <ele>826.7</ele>
        <time>2022-06-02T06:47:09.000Z</time>
      </trkpt>
      <trkpt lat="42.93817" lon="1.1515">
        <ele>826.5</ele>
        <time>2022-06-02T06:47:12.000Z</time>
      </trkpt>
      <trkpt lat="42.93816" lon="1.15164">
        <ele>826.2</ele>
        <time>2022-06-02T06:47:15.000Z</time>
      </trkpt>
      <trkpt lat="42.93814" lon="1.15177">
        <ele>825</ele>
        <time>2022-06-02T06:47:19.000Z</time>
      </trkpt>
      <trkpt lat="42.93812" lon="1.1519">
        <ele>823.9</ele>
        <time>2022-06-02T06:47:25.000Z</time>
      </trkpt>
      <trkpt lat="42.9381" lon="1.15203">
        <ele>823.3</ele>
        <time>2022-06-02T06:47:30.000Z</time>
      </trkpt>
      <trkpt lat="42.93812" lon="1.15216">
        <ele>821.9</ele>
        <time>2022-06-02T06:47:35.000Z</time>
      </trkpt>
      <trkpt lat="42.93804" lon="1.15224">
        <ele>820.9</ele>
        <time>2022-06-02T06:47:43.000Z</time>
      </trkpt>
      <trkpt lat="42.93794" lon="1.15221">
        <ele>820.1</ele>
        <time>2022-06-02T06:47:49.000Z</time>
      </trkpt>
      <trkpt lat="42.93797" lon="1.15208">
        <ele>819.8</ele>
        <time>2022-06-02T06:47:57.000Z</time>
      </trkpt>
      <trkpt lat="42.93794" lon="1.15203">
        <ele>819.5</ele>
        <time>2022-06-02T06:48:10.000Z</time>
      </trkpt>
      <trkpt lat="42.93791" lon="1.152">
        <ele>818.5</ele>
        <time>2022-06-02T06:48:20.000Z</time>
      </trkpt>
      <trkpt lat="42.93787" lon="1.15211">
        <ele>817.2</ele>
        <time>2022-06-02T06:48:37.000Z</time>
      </trkpt>
      <trkpt lat="42.93784" lon="1.15223">
        <ele>816.6</ele>
        <time>2022-06-02T06:48:41.000Z</time>
      </trkpt>
      <trkpt lat="42.9378" lon="1.15239">
        <ele>816.8</ele>
        <time>2022-06-02T06:48:45.000Z</time>
      </trkpt>
      <trkpt lat="42.93779" lon="1.15252">
        <ele>816.7</ele>
        <time>2022-06-02T06:48:49.000Z</time>
      </trkpt>
      <trkpt lat="42.93781" lon="1.15266">
        <ele>817</ele>
        <time>2022-06-02T06:48:54.000Z</time>
      </trkpt>
      <trkpt lat="42.93777" lon="1.15278">
        <ele>817.8</ele>
        <time>2022-06-02T06:49:01.000Z</time>
      </trkpt>
      <trkpt lat="42.9377" lon="1.15288">
        <ele>818.2</ele>
        <time>2022-06-02T06:49:05.000Z</time>
      </trkpt>
      <trkpt lat="42.93765" lon="1.153">
        <ele>818.8</ele>
        <time>2022-06-02T06:49:12.000Z</time>
      </trkpt>
      <trkpt lat="42.93765" lon="1.15301">
        <ele>819.3</ele>
        <time>2022-06-02T06:49:14.000Z</time>
      </trkpt>
      <trkpt lat="42.93765" lon="1.15302">
        <ele>818.2</ele>
        <time>2022-06-02T06:49:45.000Z</time>
      </trkpt>
      <trkpt lat="42.93766" lon="1.15302">
        <ele>816.6</ele>
        <time>2022-06-02T06:50:19.000Z</time>
      </trkpt>
      <trkpt lat="42.9377" lon="1.15303">
        <ele>817.1</ele>
        <time>2022-06-02T06:50:33.000Z</time>
      </trkpt>
      <trkpt lat="42.93771" lon="1.15301">
        <ele>817.5</ele>
        <time>2022-06-02T06:50:43.000Z</time>
      </trkpt>
      <trkpt lat="42.93769" lon="1.15298">
        <ele>817.5</ele>
        <time>2022-06-02T06:50:49.000Z</time>
      </trkpt>
      <trkpt lat="42.93769" lon="1.15297">
        <ele>817.1</ele>
        <time>2022-06-02T06:50:55.000Z</time>
      </trkpt>
      <trkpt lat="42.93765" lon="1.15285">
        <ele>818.1</ele>
        <time>2022-06-02T06:51:07.000Z</time>
      </trkpt>
      <trkpt lat="42.93758" lon="1.15276">
        <ele>818</ele>
        <time>2022-06-02T06:51:12.000Z</time>
      </trkpt>
      <trkpt lat="42.93751" lon="1.15266">
        <ele>818.3</ele>
        <time>2022-06-02T06:51:17.000Z</time>
      </trkpt>
      <trkpt lat="42.93747" lon="1.15253">
        <ele>818.8</ele>
        <time>2022-06-02T06:51:22.000Z</time>
      </trkpt>
      <trkpt lat="42.93743" lon="1.15239">
        <ele>819.4</ele>
        <time>2022-06-02T06:51:27.000Z</time>
      </trkpt>
      <trkpt lat="42.93737" lon="1.15227">
        <ele>820.1</ele>
        <time>2022-06-02T06:51:33.000Z</time>
      </trkpt>
      <trkpt lat="42.93731" lon="1.15216">
        <ele>821</ele>
        <time>2022-06-02T06:51:38.000Z</time>
      </trkpt>
      <trkpt lat="42.93726" lon="1.15206">
        <ele>821.8</ele>
        <time>2022-06-02T06:51:43.000Z</time>
      </trkpt>
      <trkpt lat="42.9372" lon="1.15194">
        <ele>822.9</ele>
        <time>2022-06-02T06:51:49.000Z</time>
      </trkpt>
      <trkpt lat="42.93722" lon="1.15181">
        <ele>824</ele>
        <time>2022-06-02T06:51:54.000Z</time>
      </trkpt>
      <trkpt lat="42.93723" lon="1.15167">
        <ele>825.2</ele>
        <time>2022-06-02T06:52:00.000Z</time>
      </trkpt>
      <trkpt lat="42.93724" lon="1.1516">
        <ele>826.5</ele>
        <time>2022-06-02T06:52:05.000Z</time>
      </trkpt>
      <trkpt lat="42.93725" lon="1.15159">
        <ele>827.9</ele>
        <time>2022-06-02T06:52:13.000Z</time>
      </trkpt>
      <trkpt lat="42.93725" lon="1.15158">
        <ele>828.1</ele>
        <time>2022-06-02T06:52:16.000Z</time>
      </trkpt>
      <trkpt lat="42.93726" lon="1.15155">
        <ele>828.5</ele>
        <time>2022-06-02T06:52:24.000Z</time>
      </trkpt>
      <trkpt lat="42.93726" lon="1.15154">
        <ele>829.6</ele>
        <time>2022-06-02T06:52:37.000Z</time>
      </trkpt>
      <trkpt lat="42.93731" lon="1.15143">
        <ele>829.9</ele>
        <time>2022-06-02T06:52:45.000Z</time>
      </trkpt>
      <trkpt lat="42.93736" lon="1.1513">
        <ele>830.5</ele>
        <time>2022-06-02T06:52:51.000Z</time>
      </trkpt>
      <trkpt lat="42.9374" lon="1.15118">
        <ele>831.5</ele>
        <time>2022-06-02T06:52:56.000Z</time>
      </trkpt>
      <trkpt lat="42.93748" lon="1.15107">
        <ele>832.5</ele>
        <time>2022-06-02T06:53:00.000Z</time>
      </trkpt>
      <trkpt lat="42.93753" lon="1.15096">
        <ele>833.9</ele>
        <time>2022-06-02T06:53:07.000Z</time>
      </trkpt>
      <trkpt lat="42.93757" lon="1.15091">
        <ele>836</ele>
        <time>2022-06-02T06:53:19.000Z</time>
      </trkpt>
      <trkpt lat="42.93762" lon="1.1508">
        <ele>837.3</ele>
        <time>2022-06-02T06:53:34.000Z</time>
      </trkpt>
      <trkpt lat="42.93767" lon="1.15067">
        <ele>838.3</ele>
        <time>2022-06-02T06:53:39.000Z</time>
      </trkpt>
      <trkpt lat="42.93768" lon="1.15054">
        <ele>838.8</ele>
        <time>2022-06-02T06:53:46.000Z</time>
      </trkpt>
      <trkpt lat="42.93769" lon="1.1504">
        <ele>840.2</ele>
        <time>2022-06-02T06:53:52.000Z</time>
      </trkpt>
      <trkpt lat="42.93764" lon="1.15035">
        <ele>842.6</ele>
        <time>2022-06-02T06:54:03.000Z</time>
      </trkpt>
      <trkpt lat="42.93763" lon="1.15035">
        <ele>843.1</ele>
        <time>2022-06-02T06:54:06.000Z</time>
      </trkpt>
      <trkpt lat="42.93758" lon="1.15024">
        <ele>844.9</ele>
        <time>2022-06-02T06:54:14.000Z</time>
      </trkpt>
      <trkpt lat="42.93762" lon="1.15011">
        <ele>846.3</ele>
        <time>2022-06-02T06:54:20.000Z</time>
      </trkpt>
      <trkpt lat="42.93765" lon="1.15">
        <ele>847.9</ele>
        <time>2022-06-02T06:54:28.000Z</time>
      </trkpt>
      <trkpt lat="42.93765" lon="1.14999">
        <ele>850.4</ele>
        <time>2022-06-02T06:54:41.000Z</time>
      </trkpt>
      <trkpt lat="42.93765" lon="1.14998">
        <ele>851</ele>
        <time>2022-06-02T06:54:44.000Z</time>
      </trkpt>
      <trkpt lat="42.93766" lon="1.14996">
        <ele>851.3</ele>
        <time>2022-06-02T06:54:46.000Z</time>
      </trkpt>
      <trkpt lat="42.93767" lon="1.14996">
        <ele>851.4</ele>
        <time>2022-06-02T06:54:50.000Z</time>
      </trkpt>
      <trkpt lat="42.93766" lon="1.14996">
        <ele>851.8</ele>
        <time>2022-06-02T06:54:51.000Z</time>
      </trkpt>
      <trkpt lat="42.93768" lon="1.1499">
        <ele>853.2</ele>
        <time>2022-06-02T06:55:01.000Z</time>
      </trkpt>
      <trkpt lat="42.93774" lon="1.14978">
        <ele>855.2</ele>
        <time>2022-06-02T06:55:17.000Z</time>
      </trkpt>
      <trkpt lat="42.9378" lon="1.14966">
        <ele>856.3</ele>
        <time>2022-06-02T06:55:28.000Z</time>
      </trkpt>
      <trkpt lat="42.93786" lon="1.14955">
        <ele>857.3</ele>
        <time>2022-06-02T06:55:35.000Z</time>
      </trkpt>
      <trkpt lat="42.93792" lon="1.14946">
        <ele>857.4</ele>
        <time>2022-06-02T06:55:42.000Z</time>
      </trkpt>
      <trkpt lat="42.93798" lon="1.14936">
        <ele>858.4</ele>
        <time>2022-06-02T06:55:48.000Z</time>
      </trkpt>
      <trkpt lat="42.93803" lon="1.14924">
        <ele>859.3</ele>
        <time>2022-06-02T06:55:53.000Z</time>
      </trkpt>
      <trkpt lat="42.93808" lon="1.14911">
        <ele>859.8</ele>
        <time>2022-06-02T06:55:59.000Z</time>
      </trkpt>
      <trkpt lat="42.93812" lon="1.14899">
        <ele>860.2</ele>
        <time>2022-06-02T06:56:05.000Z</time>
      </trkpt>
      <trkpt lat="42.93816" lon="1.14886">
        <ele>860.9</ele>
        <time>2022-06-02T06:56:13.000Z</time>
      </trkpt>
      <trkpt lat="42.93821" lon="1.14873">
        <ele>861.2</ele>
        <time>2022-06-02T06:56:19.000Z</time>
      </trkpt>
      <trkpt lat="42.9382" lon="1.14868">
        <ele>861.8</ele>
        <time>2022-06-02T06:56:31.000Z</time>
      </trkpt>
      <trkpt lat="42.93819" lon="1.14868">
        <ele>861.9</ele>
        <time>2022-06-02T06:56:38.000Z</time>
      </trkpt>
      <trkpt lat="42.93812" lon="1.14877">
        <ele>861.8</ele>
        <time>2022-06-02T06:56:44.000Z</time>
      </trkpt>
      <trkpt lat="42.93803" lon="1.14884">
        <ele>862.5</ele>
        <time>2022-06-02T06:56:50.000Z</time>
      </trkpt>
      <trkpt lat="42.93796" lon="1.14892">
        <ele>862.9</ele>
        <time>2022-06-02T06:56:55.000Z</time>
      </trkpt>
      <trkpt lat="42.93787" lon="1.149">
        <ele>864.2</ele>
        <time>2022-06-02T06:57:01.000Z</time>
      </trkpt>
      <trkpt lat="42.93778" lon="1.14905">
        <ele>864.6</ele>
        <time>2022-06-02T06:57:06.000Z</time>
      </trkpt>
      <trkpt lat="42.93769" lon="1.1491">
        <ele>865.6</ele>
        <time>2022-06-02T06:57:11.000Z</time>
      </trkpt>
      <trkpt lat="42.93761" lon="1.14917">
        <ele>866</ele>
        <time>2022-06-02T06:57:16.000Z</time>
      </trkpt>
      <trkpt lat="42.93752" lon="1.14922">
        <ele>866.6</ele>
        <time>2022-06-02T06:57:22.000Z</time>
      </trkpt>
      <trkpt lat="42.93743" lon="1.14924">
        <ele>867</ele>
        <time>2022-06-02T06:57:27.000Z</time>
      </trkpt>
      <trkpt lat="42.93733" lon="1.14925">
        <ele>867.5</ele>
        <time>2022-06-02T06:57:32.000Z</time>
      </trkpt>
      <trkpt lat="42.93724" lon="1.14925">
        <ele>867.4</ele>
        <time>2022-06-02T06:57:37.000Z</time>
      </trkpt>
      <trkpt lat="42.93714" lon="1.14917">
        <ele>867.4</ele>
        <time>2022-06-02T06:57:43.000Z</time>
      </trkpt>
      <trkpt lat="42.93705" lon="1.14914">
        <ele>867.7</ele>
        <time>2022-06-02T06:57:48.000Z</time>
      </trkpt>
      <trkpt lat="42.93694" lon="1.14913">
        <ele>868.5</ele>
        <time>2022-06-02T06:57:54.000Z</time>
      </trkpt>
      <trkpt lat="42.93686" lon="1.14909">
        <ele>868.6</ele>
        <time>2022-06-02T06:57:58.000Z</time>
      </trkpt>
      <trkpt lat="42.93677" lon="1.14909">
        <ele>869.3</ele>
        <time>2022-06-02T06:58:02.000Z</time>
      </trkpt>
      <trkpt lat="42.93674" lon="1.14912">
        <ele>870</ele>
        <time>2022-06-02T06:58:07.000Z</time>
      </trkpt>
      <trkpt lat="42.93673" lon="1.14912">
        <ele>870.4</ele>
        <time>2022-06-02T06:58:10.000Z</time>
      </trkpt>
      <trkpt lat="42.93673" lon="1.14913">
        <ele>870.8</ele>
        <time>2022-06-02T06:58:13.000Z</time>
      </trkpt>
      <trkpt lat="42.93672" lon="1.14912">
        <ele>871.4</ele>
        <time>2022-06-02T06:58:19.000Z</time>
      </trkpt>
      <trkpt lat="42.93671" lon="1.14912">
        <ele>872.1</ele>
        <time>2022-06-02T06:58:28.000Z</time>
      </trkpt>
      <trkpt lat="42.93671" lon="1.14911">
        <ele>872.3</ele>
        <time>2022-06-02T06:58:32.000Z</time>
      </trkpt>
      <trkpt lat="42.93663" lon="1.1492">
        <ele>872</ele>
        <time>2022-06-02T06:58:45.000Z</time>
      </trkpt>
      <trkpt lat="42.93657" lon="1.14929">
        <ele>872.4</ele>
        <time>2022-06-02T06:58:52.000Z</time>
      </trkpt>
      <trkpt lat="42.93651" lon="1.14938">
        <ele>872.2</ele>
        <time>2022-06-02T06:58:57.000Z</time>
      </trkpt>
      <trkpt lat="42.93642" lon="1.14944">
        <ele>873.5</ele>
        <time>2022-06-02T06:59:04.000Z</time>
      </trkpt>
      <trkpt lat="42.93638" lon="1.14957">
        <ele>874.1</ele>
        <time>2022-06-02T06:59:09.000Z</time>
      </trkpt>
      <trkpt lat="42.9363" lon="1.14968">
        <ele>874.5</ele>
        <time>2022-06-02T06:59:13.000Z</time>
      </trkpt>
      <trkpt lat="42.93626" lon="1.14981">
        <ele>874.2</ele>
        <time>2022-06-02T06:59:17.000Z</time>
      </trkpt>
      <trkpt lat="42.93621" lon="1.14988">
        <ele>874.7</ele>
        <time>2022-06-02T06:59:22.000Z</time>
      </trkpt>
      <trkpt lat="42.9362" lon="1.14988">
        <ele>875.1</ele>
        <time>2022-06-02T06:59:26.000Z</time>
      </trkpt>
      <trkpt lat="42.93612" lon="1.15">
        <ele>874.5</ele>
        <time>2022-06-02T06:59:32.000Z</time>
      </trkpt>
      <trkpt lat="42.93608" lon="1.15012">
        <ele>874.3</ele>
        <time>2022-06-02T06:59:36.000Z</time>
      </trkpt>
      <trkpt lat="42.93599" lon="1.1502">
        <ele>874.3</ele>
        <time>2022-06-02T06:59:40.000Z</time>
      </trkpt>
      <trkpt lat="42.9359" lon="1.15024">
        <ele>874.7</ele>
        <time>2022-06-02T06:59:45.000Z</time>
      </trkpt>
      <trkpt lat="42.93582" lon="1.15033">
        <ele>875.4</ele>
        <time>2022-06-02T06:59:51.000Z</time>
      </trkpt>
      <trkpt lat="42.93573" lon="1.15038">
        <ele>876.6</ele>
        <time>2022-06-02T06:59:59.000Z</time>
      </trkpt>
      <trkpt lat="42.93565" lon="1.15043">
        <ele>877.4</ele>
        <time>2022-06-02T07:00:05.000Z</time>
      </trkpt>
      <trkpt lat="42.93556" lon="1.15049">
        <ele>878.1</ele>
        <time>2022-06-02T07:00:10.000Z</time>
      </trkpt>
      <trkpt lat="42.93548" lon="1.15055">
        <ele>878.6</ele>
        <time>2022-06-02T07:00:16.000Z</time>
      </trkpt>
      <trkpt lat="42.9354" lon="1.15065">
        <ele>879.4</ele>
        <time>2022-06-02T07:00:22.000Z</time>
      </trkpt>
      <trkpt lat="42.93531" lon="1.15072">
        <ele>880.7</ele>
        <time>2022-06-02T07:00:27.000Z</time>
      </trkpt>
      <trkpt lat="42.93523" lon="1.15083">
        <ele>881.2</ele>
        <time>2022-06-02T07:00:33.000Z</time>
      </trkpt>
      <trkpt lat="42.93515" lon="1.1509">
        <ele>881.8</ele>
        <time>2022-06-02T07:00:37.000Z</time>
      </trkpt>
      <trkpt lat="42.93506" lon="1.15096">
        <ele>882.8</ele>
        <time>2022-06-02T07:00:43.000Z</time>
      </trkpt>
      <trkpt lat="42.93502" lon="1.15108">
        <ele>883.6</ele>
        <time>2022-06-02T07:00:49.000Z</time>
      </trkpt>
      <trkpt lat="42.93498" lon="1.15122">
        <ele>884</ele>
        <time>2022-06-02T07:00:54.000Z</time>
      </trkpt>
      <trkpt lat="42.93489" lon="1.15132">
        <ele>885.4</ele>
        <time>2022-06-02T07:00:59.000Z</time>
      </trkpt>
      <trkpt lat="42.9348" lon="1.15138">
        <ele>885.8</ele>
        <time>2022-06-02T07:01:07.000Z</time>
      </trkpt>
      <trkpt lat="42.93482" lon="1.15151">
        <ele>887</ele>
        <time>2022-06-02T07:01:14.000Z</time>
      </trkpt>
      <trkpt lat="42.93479" lon="1.15164">
        <ele>887.9</ele>
        <time>2022-06-02T07:01:19.000Z</time>
      </trkpt>
      <trkpt lat="42.93474" lon="1.15178">
        <ele>888.2</ele>
        <time>2022-06-02T07:01:23.000Z</time>
      </trkpt>
      <trkpt lat="42.93468" lon="1.15189">
        <ele>888.8</ele>
        <time>2022-06-02T07:01:28.000Z</time>
      </trkpt>
      <trkpt lat="42.93464" lon="1.15199">
        <ele>889.2</ele>
        <time>2022-06-02T07:01:32.000Z</time>
      </trkpt>
      <trkpt lat="42.93459" lon="1.15211">
        <ele>889.3</ele>
        <time>2022-06-02T07:01:36.000Z</time>
      </trkpt>
      <trkpt lat="42.93455" lon="1.15223">
        <ele>889.6</ele>
        <time>2022-06-02T07:01:43.000Z</time>
      </trkpt>
      <trkpt lat="42.93449" lon="1.15237">
        <ele>890.1</ele>
        <time>2022-06-02T07:01:49.000Z</time>
      </trkpt>
      <trkpt lat="42.93443" lon="1.15248">
        <ele>890.2</ele>
        <time>2022-06-02T07:01:53.000Z</time>
      </trkpt>
      <trkpt lat="42.93437" lon="1.1526">
        <ele>890.1</ele>
        <time>2022-06-02T07:01:57.000Z</time>
      </trkpt>
      <trkpt lat="42.93432" lon="1.1527">
        <ele>891</ele>
        <time>2022-06-02T07:02:01.000Z</time>
      </trkpt>
      <trkpt lat="42.93427" lon="1.15281">
        <ele>891.2</ele>
        <time>2022-06-02T07:02:06.000Z</time>
      </trkpt>
      <trkpt lat="42.9342" lon="1.15292">
        <ele>892</ele>
        <time>2022-06-02T07:02:10.000Z</time>
      </trkpt>
      <trkpt lat="42.93413" lon="1.153">
        <ele>892.3</ele>
        <time>2022-06-02T07:02:15.000Z</time>
      </trkpt>
      <trkpt lat="42.93406" lon="1.15309">
        <ele>892.7</ele>
        <time>2022-06-02T07:02:23.000Z</time>
      </trkpt>
      <trkpt lat="42.93399" lon="1.15317">
        <ele>893</ele>
        <time>2022-06-02T07:02:28.000Z</time>
      </trkpt>
      <trkpt lat="42.93389" lon="1.15321">
        <ele>893</ele>
        <time>2022-06-02T07:02:32.000Z</time>
      </trkpt>
      <trkpt lat="42.93384" lon="1.15323">
        <ele>892.9</ele>
        <time>2022-06-02T07:02:37.000Z</time>
      </trkpt>
      <trkpt lat="42.93384" lon="1.15324">
        <ele>892.7</ele>
        <time>2022-06-02T07:02:38.000Z</time>
      </trkpt>
      <trkpt lat="42.9338" lon="1.15328">
        <ele>893.4</ele>
        <time>2022-06-02T07:02:45.000Z</time>
      </trkpt>
      <trkpt lat="42.93381" lon="1.15327">
        <ele>893.5</ele>
        <time>2022-06-02T07:02:46.000Z</time>
      </trkpt>
      <trkpt lat="42.93376" lon="1.15334">
        <ele>893</ele>
        <time>2022-06-02T07:02:57.000Z</time>
      </trkpt>
      <trkpt lat="42.93376" lon="1.15335">
        <ele>892.9</ele>
        <time>2022-06-02T07:02:58.000Z</time>
      </trkpt>
      <trkpt lat="42.93377" lon="1.15336">
        <ele>893</ele>
        <time>2022-06-02T07:03:01.000Z</time>
      </trkpt>
      <trkpt lat="42.93377" lon="1.15337">
        <ele>893.4</ele>
        <time>2022-06-02T07:03:03.000Z</time>
      </trkpt>
      <trkpt lat="42.93373" lon="1.15349">
        <ele>893.8</ele>
        <time>2022-06-02T07:03:16.000Z</time>
      </trkpt>
      <trkpt lat="42.93366" lon="1.15358">
        <ele>893.8</ele>
        <time>2022-06-02T07:03:21.000Z</time>
      </trkpt>
      <trkpt lat="42.93361" lon="1.15369">
        <ele>894.5</ele>
        <time>2022-06-02T07:03:25.000Z</time>
      </trkpt>
      <trkpt lat="42.93355" lon="1.15379">
        <ele>894</ele>
        <time>2022-06-02T07:03:29.000Z</time>
      </trkpt>
      <trkpt lat="42.93351" lon="1.1539">
        <ele>894.2</ele>
        <time>2022-06-02T07:03:33.000Z</time>
      </trkpt>
      <trkpt lat="42.93342" lon="1.15401">
        <ele>893.2</ele>
        <time>2022-06-02T07:03:41.000Z</time>
      </trkpt>
      <trkpt lat="42.93332" lon="1.15402">
        <ele>893.3</ele>
        <time>2022-06-02T07:03:44.000Z</time>
      </trkpt>
      <trkpt lat="42.93324" lon="1.15398">
        <ele>892</ele>
        <time>2022-06-02T07:03:53.000Z</time>
      </trkpt>
      <trkpt lat="42.93318" lon="1.154">
        <ele>891.8</ele>
        <time>2022-06-02T07:04:03.000Z</time>
      </trkpt>
      <trkpt lat="42.93318" lon="1.15401">
        <ele>892.3</ele>
        <time>2022-06-02T07:04:05.000Z</time>
      </trkpt>
      <trkpt lat="42.93313" lon="1.1541">
        <ele>893</ele>
        <time>2022-06-02T07:04:23.000Z</time>
      </trkpt>
      <trkpt lat="42.93306" lon="1.15418">
        <ele>893.2</ele>
        <time>2022-06-02T07:04:32.000Z</time>
      </trkpt>
      <trkpt lat="42.93297" lon="1.15426">
        <ele>893.4</ele>
        <time>2022-06-02T07:04:41.000Z</time>
      </trkpt>
      <trkpt lat="42.9329" lon="1.15437">
        <ele>893.1</ele>
        <time>2022-06-02T07:04:46.000Z</time>
      </trkpt>
      <trkpt lat="42.93282" lon="1.15443">
        <ele>893.2</ele>
        <time>2022-06-02T07:04:52.000Z</time>
      </trkpt>
      <trkpt lat="42.93277" lon="1.15455">
        <ele>893.4</ele>
        <time>2022-06-02T07:05:00.000Z</time>
      </trkpt>
      <trkpt lat="42.93271" lon="1.15465">
        <ele>893.2</ele>
        <time>2022-06-02T07:05:08.000Z</time>
      </trkpt>
      <trkpt lat="42.93265" lon="1.15474">
        <ele>893.4</ele>
        <time>2022-06-02T07:05:15.000Z</time>
      </trkpt>
      <trkpt lat="42.93265" lon="1.15486">
        <ele>893.2</ele>
        <time>2022-06-02T07:05:28.000Z</time>
      </trkpt>
      <trkpt lat="42.93259" lon="1.15497">
        <ele>893.6</ele>
        <time>2022-06-02T07:05:35.000Z</time>
      </trkpt>
      <trkpt lat="42.93252" lon="1.15505">
        <ele>893.1</ele>
        <time>2022-06-02T07:05:40.000Z</time>
      </trkpt>
      <trkpt lat="42.93243" lon="1.15513">
        <ele>892.6</ele>
        <time>2022-06-02T07:05:47.000Z</time>
      </trkpt>
      <trkpt lat="42.93234" lon="1.15517">
        <ele>892.3</ele>
        <time>2022-06-02T07:05:52.000Z</time>
      </trkpt>
      <trkpt lat="42.93234" lon="1.15518">
        <ele>892.5</ele>
        <time>2022-06-02T07:05:53.000Z</time>
      </trkpt>
      <trkpt lat="42.93233" lon="1.15518">
        <ele>892.4</ele>
        <time>2022-06-02T07:05:56.000Z</time>
      </trkpt>
      <trkpt lat="42.9323" lon="1.15518">
        <ele>892.3</ele>
        <time>2022-06-02T07:06:00.000Z</time>
      </trkpt>
      <trkpt lat="42.93229" lon="1.15518">
        <ele>892</ele>
        <time>2022-06-02T07:06:03.000Z</time>
      </trkpt>
      <trkpt lat="42.93225" lon="1.1552">
        <ele>891.8</ele>
        <time>2022-06-02T07:06:19.000Z</time>
      </trkpt>
      <trkpt lat="42.93224" lon="1.1552">
        <ele>891.8</ele>
        <time>2022-06-02T07:06:21.000Z</time>
      </trkpt>
      <trkpt lat="42.93214" lon="1.15525">
        <ele>890.8</ele>
        <time>2022-06-02T07:06:31.000Z</time>
      </trkpt>
      <trkpt lat="42.93202" lon="1.15528">
        <ele>890.2</ele>
        <time>2022-06-02T07:06:36.000Z</time>
      </trkpt>
      <trkpt lat="42.93192" lon="1.15534">
        <ele>889.7</ele>
        <time>2022-06-02T07:06:40.000Z</time>
      </trkpt>
      <trkpt lat="42.93186" lon="1.15544">
        <ele>889.2</ele>
        <time>2022-06-02T07:06:46.000Z</time>
      </trkpt>
      <trkpt lat="42.93179" lon="1.15554">
        <ele>888.4</ele>
        <time>2022-06-02T07:06:53.000Z</time>
      </trkpt>
      <trkpt lat="42.93175" lon="1.15555">
        <ele>888.3</ele>
        <time>2022-06-02T07:06:58.000Z</time>
      </trkpt>
      <trkpt lat="42.9317" lon="1.15566">
        <ele>888</ele>
        <time>2022-06-02T07:07:11.000Z</time>
      </trkpt>
      <trkpt lat="42.93164" lon="1.15577">
        <ele>887.7</ele>
        <time>2022-06-02T07:07:15.000Z</time>
      </trkpt>
      <trkpt lat="42.93156" lon="1.15589">
        <ele>887.5</ele>
        <time>2022-06-02T07:07:19.000Z</time>
      </trkpt>
      <trkpt lat="42.93149" lon="1.15598">
        <ele>887.2</ele>
        <time>2022-06-02T07:07:24.000Z</time>
      </trkpt>
      <trkpt lat="42.93142" lon="1.15609">
        <ele>886.5</ele>
        <time>2022-06-02T07:07:29.000Z</time>
      </trkpt>
      <trkpt lat="42.93134" lon="1.15619">
        <ele>885.4</ele>
        <time>2022-06-02T07:07:34.000Z</time>
      </trkpt>
      <trkpt lat="42.93125" lon="1.15626">
        <ele>884.7</ele>
        <time>2022-06-02T07:07:39.000Z</time>
      </trkpt>
      <trkpt lat="42.93119" lon="1.15635">
        <ele>883.9</ele>
        <time>2022-06-02T07:07:44.000Z</time>
      </trkpt>
      <trkpt lat="42.93115" lon="1.15648">
        <ele>881.3</ele>
        <time>2022-06-02T07:07:50.000Z</time>
      </trkpt>
      <trkpt lat="42.93107" lon="1.15655">
        <ele>878.9</ele>
        <time>2022-06-02T07:07:56.000Z</time>
      </trkpt>
      <trkpt lat="42.93102" lon="1.15665">
        <ele>874.5</ele>
        <time>2022-06-02T07:08:06.000Z</time>
      </trkpt>
      <trkpt lat="42.93096" lon="1.15674">
        <ele>866.6</ele>
        <time>2022-06-02T07:08:21.000Z</time>
      </trkpt>
      <trkpt lat="42.93089" lon="1.15682">
        <ele>862.3</ele>
        <time>2022-06-02T07:08:32.000Z</time>
      </trkpt>
      <trkpt lat="42.93083" lon="1.15692">
        <ele>858.9</ele>
        <time>2022-06-02T07:08:39.000Z</time>
      </trkpt>
      <trkpt lat="42.93078" lon="1.15704">
        <ele>857.2</ele>
        <time>2022-06-02T07:08:44.000Z</time>
      </trkpt>
      <trkpt lat="42.93079" lon="1.15719">
        <ele>855.4</ele>
        <time>2022-06-02T07:08:48.000Z</time>
      </trkpt>
      <trkpt lat="42.93084" lon="1.1573">
        <ele>855.1</ele>
        <time>2022-06-02T07:08:53.000Z</time>
      </trkpt>
      <trkpt lat="42.9309" lon="1.15743">
        <ele>854.2</ele>
        <time>2022-06-02T07:08:58.000Z</time>
      </trkpt>
      <trkpt lat="42.93094" lon="1.15757">
        <ele>854.1</ele>
        <time>2022-06-02T07:09:01.000Z</time>
      </trkpt>
      <trkpt lat="42.931" lon="1.15767">
        <ele>853.3</ele>
        <time>2022-06-02T07:09:11.000Z</time>
      </trkpt>
      <trkpt lat="42.93102" lon="1.15767">
        <ele>853.2</ele>
        <time>2022-06-02T07:09:37.000Z</time>
      </trkpt>
      <trkpt lat="42.93103" lon="1.1577">
        <ele>853.6</ele>
        <time>2022-06-02T07:09:50.000Z</time>
      </trkpt>
      <trkpt lat="42.93105" lon="1.15772">
        <ele>852.5</ele>
        <time>2022-06-02T07:10:11.000Z</time>
      </trkpt>
      <trkpt lat="42.93106" lon="1.15772">
        <ele>854.4</ele>
        <time>2022-06-02T07:10:31.000Z</time>
      </trkpt>
      <trkpt lat="42.93107" lon="1.15772">
        <ele>854.7</ele>
        <time>2022-06-02T07:10:36.000Z</time>
      </trkpt>
      <trkpt lat="42.93113" lon="1.1578">
        <ele>854.3</ele>
        <time>2022-06-02T07:10:44.000Z</time>
      </trkpt>
      <trkpt lat="42.93116" lon="1.15793">
        <ele>854.3</ele>
        <time>2022-06-02T07:10:51.000Z</time>
      </trkpt>
      <trkpt lat="42.93119" lon="1.15805">
        <ele>853.5</ele>
        <time>2022-06-02T07:10:54.000Z</time>
      </trkpt>
      <trkpt lat="42.93116" lon="1.15817">
        <ele>853.4</ele>
        <time>2022-06-02T07:10:59.000Z</time>
      </trkpt>
      <trkpt lat="42.93115" lon="1.15829">
        <ele>853</ele>
        <time>2022-06-02T07:11:05.000Z</time>
      </trkpt>
      <trkpt lat="42.93114" lon="1.1583">
        <ele>853.1</ele>
        <time>2022-06-02T07:11:08.000Z</time>
      </trkpt>
      <trkpt lat="42.93114" lon="1.15831">
        <ele>853</ele>
        <time>2022-06-02T07:11:11.000Z</time>
      </trkpt>
      <trkpt lat="42.93115" lon="1.15832">
        <ele>852.2</ele>
        <time>2022-06-02T07:11:18.000Z</time>
      </trkpt>
      <trkpt lat="42.93114" lon="1.15833">
        <ele>853.7</ele>
        <time>2022-06-02T07:11:19.000Z</time>
      </trkpt>
      <trkpt lat="42.93114" lon="1.15834">
        <ele>853.5</ele>
        <time>2022-06-02T07:11:22.000Z</time>
      </trkpt>
      <trkpt lat="42.93114" lon="1.15835">
        <ele>853.6</ele>
        <time>2022-06-02T07:11:23.000Z</time>
      </trkpt>
      <trkpt lat="42.93112" lon="1.15843">
        <ele>852.7</ele>
        <time>2022-06-02T07:11:33.000Z</time>
      </trkpt>
      <trkpt lat="42.93112" lon="1.15842">
        <ele>849.9</ele>
        <time>2022-06-02T07:11:51.000Z</time>
      </trkpt>
      <trkpt lat="42.93112" lon="1.15855">
        <ele>848.7</ele>
        <time>2022-06-02T07:12:03.000Z</time>
      </trkpt>
      <trkpt lat="42.93111" lon="1.15868">
        <ele>848.5</ele>
        <time>2022-06-02T07:12:09.000Z</time>
      </trkpt>
      <trkpt lat="42.93106" lon="1.15881">
        <ele>848.5</ele>
        <time>2022-06-02T07:12:14.000Z</time>
      </trkpt>
      <trkpt lat="42.93104" lon="1.15895">
        <ele>847.8</ele>
        <time>2022-06-02T07:12:19.000Z</time>
      </trkpt>
      <trkpt lat="42.93104" lon="1.15909">
        <ele>846.9</ele>
        <time>2022-06-02T07:12:23.000Z</time>
      </trkpt>
      <trkpt lat="42.93102" lon="1.15922">
        <ele>846.7</ele>
        <time>2022-06-02T07:12:26.000Z</time>
      </trkpt>
      <trkpt lat="42.93102" lon="1.15934">
        <ele>847.3</ele>
        <time>2022-06-02T07:12:32.000Z</time>
      </trkpt>
      <trkpt lat="42.93105" lon="1.15946">
        <ele>846.8</ele>
        <time>2022-06-02T07:12:37.000Z</time>
      </trkpt>
      <trkpt lat="42.93107" lon="1.1596">
        <ele>846</ele>
        <time>2022-06-02T07:12:42.000Z</time>
      </trkpt>
      <trkpt lat="42.93105" lon="1.15972">
        <ele>845.6</ele>
        <time>2022-06-02T07:12:45.000Z</time>
      </trkpt>
      <trkpt lat="42.93105" lon="1.15985">
        <ele>844.6</ele>
        <time>2022-06-02T07:12:53.000Z</time>
      </trkpt>
      <trkpt lat="42.93103" lon="1.15999">
        <ele>843.2</ele>
        <time>2022-06-02T07:13:00.000Z</time>
      </trkpt>
      <trkpt lat="42.93102" lon="1.16012">
        <ele>841.8</ele>
        <time>2022-06-02T07:13:05.000Z</time>
      </trkpt>
      <trkpt lat="42.93097" lon="1.16024">
        <ele>841</ele>
        <time>2022-06-02T07:13:08.000Z</time>
      </trkpt>
      <trkpt lat="42.93091" lon="1.16032">
        <ele>840.7</ele>
        <time>2022-06-02T07:13:12.000Z</time>
      </trkpt>
      <trkpt lat="42.93084" lon="1.1604">
        <ele>839</ele>
        <time>2022-06-02T07:13:18.000Z</time>
      </trkpt>
      <trkpt lat="42.93077" lon="1.16052">
        <ele>837.9</ele>
        <time>2022-06-02T07:13:24.000Z</time>
      </trkpt>
      <trkpt lat="42.93071" lon="1.16063">
        <ele>837</ele>
        <time>2022-06-02T07:13:28.000Z</time>
      </trkpt>
      <trkpt lat="42.93062" lon="1.16072">
        <ele>836.7</ele>
        <time>2022-06-02T07:13:31.000Z</time>
      </trkpt>
      <trkpt lat="42.93056" lon="1.16084">
        <ele>836.1</ele>
        <time>2022-06-02T07:13:34.000Z</time>
      </trkpt>
      <trkpt lat="42.93053" lon="1.16096">
        <ele>835.7</ele>
        <time>2022-06-02T07:13:38.000Z</time>
      </trkpt>
      <trkpt lat="42.93047" lon="1.16111">
        <ele>834.8</ele>
        <time>2022-06-02T07:13:43.000Z</time>
      </trkpt>
      <trkpt lat="42.93043" lon="1.16122">
        <ele>834.2</ele>
        <time>2022-06-02T07:13:46.000Z</time>
      </trkpt>
      <trkpt lat="42.9304" lon="1.16136">
        <ele>833.5</ele>
        <time>2022-06-02T07:13:49.000Z</time>
      </trkpt>
      <trkpt lat="42.93038" lon="1.1615">
        <ele>832.7</ele>
        <time>2022-06-02T07:13:53.000Z</time>
      </trkpt>
      <trkpt lat="42.93034" lon="1.16162">
        <ele>831.6</ele>
        <time>2022-06-02T07:13:57.000Z</time>
      </trkpt>
      <trkpt lat="42.9303" lon="1.16176">
        <ele>831.6</ele>
        <time>2022-06-02T07:14:00.000Z</time>
      </trkpt>
      <trkpt lat="42.93024" lon="1.16185">
        <ele>830.2</ele>
        <time>2022-06-02T07:14:03.000Z</time>
      </trkpt>
      <trkpt lat="42.93016" lon="1.16192">
        <ele>829.5</ele>
        <time>2022-06-02T07:14:06.000Z</time>
      </trkpt>
      <trkpt lat="42.93007" lon="1.16203">
        <ele>828.7</ele>
        <time>2022-06-02T07:14:10.000Z</time>
      </trkpt>
      <trkpt lat="42.92999" lon="1.16217">
        <ele>827.8</ele>
        <time>2022-06-02T07:14:13.000Z</time>
      </trkpt>
      <trkpt lat="42.92991" lon="1.16231">
        <ele>826.7</ele>
        <time>2022-06-02T07:14:16.000Z</time>
      </trkpt>
      <trkpt lat="42.92985" lon="1.16242">
        <ele>824.7</ele>
        <time>2022-06-02T07:14:20.000Z</time>
      </trkpt>
      <trkpt lat="42.92979" lon="1.16253">
        <ele>823.3</ele>
        <time>2022-06-02T07:14:24.000Z</time>
      </trkpt>
      <trkpt lat="42.92973" lon="1.16267">
        <ele>821.6</ele>
        <time>2022-06-02T07:14:28.000Z</time>
      </trkpt>
      <trkpt lat="42.92967" lon="1.16279">
        <ele>819.4</ele>
        <time>2022-06-02T07:14:33.000Z</time>
      </trkpt>
      <trkpt lat="42.92963" lon="1.16291">
        <ele>816.8</ele>
        <time>2022-06-02T07:14:38.000Z</time>
      </trkpt>
      <trkpt lat="42.92956" lon="1.16282">
        <ele>814.5</ele>
        <time>2022-06-02T07:14:44.000Z</time>
      </trkpt>
      <trkpt lat="42.92953" lon="1.1627">
        <ele>811.5</ele>
        <time>2022-06-02T07:14:49.000Z</time>
      </trkpt>
      <trkpt lat="42.92944" lon="1.16272">
        <ele>807.2</ele>
        <time>2022-06-02T07:14:57.000Z</time>
      </trkpt>
      <trkpt lat="42.92938" lon="1.16284">
        <ele>805</ele>
        <time>2022-06-02T07:15:02.000Z</time>
      </trkpt>
      <trkpt lat="42.92938" lon="1.16298">
        <ele>803.3</ele>
        <time>2022-06-02T07:15:06.000Z</time>
      </trkpt>
      <trkpt lat="42.92941" lon="1.16311">
        <ele>801.8</ele>
        <time>2022-06-02T07:15:09.000Z</time>
      </trkpt>
      <trkpt lat="42.92945" lon="1.16327">
        <ele>800.9</ele>
        <time>2022-06-02T07:15:12.000Z</time>
      </trkpt>
      <trkpt lat="42.92949" lon="1.16343">
        <ele>799.3</ele>
        <time>2022-06-02T07:15:15.000Z</time>
      </trkpt>
      <trkpt lat="42.92952" lon="1.16361">
        <ele>797.9</ele>
        <time>2022-06-02T07:15:18.000Z</time>
      </trkpt>
      <trkpt lat="42.92959" lon="1.16371">
        <ele>796.7</ele>
        <time>2022-06-02T07:15:21.000Z</time>
      </trkpt>
      <trkpt lat="42.92958" lon="1.16375">
        <ele>792.7</ele>
        <time>2022-06-02T07:15:30.000Z</time>
      </trkpt>
      <trkpt lat="42.92957" lon="1.16375">
        <ele>791.2</ele>
        <time>2022-06-02T07:15:34.000Z</time>
      </trkpt>
      <trkpt lat="42.92955" lon="1.16378">
        <ele>786.7</ele>
        <time>2022-06-02T07:15:45.000Z</time>
      </trkpt>
      <trkpt lat="42.92954" lon="1.16378">
        <ele>776.6</ele>
        <time>2022-06-02T07:16:23.000Z</time>
      </trkpt>
      <trkpt lat="42.92946" lon="1.16372">
        <ele>776.2</ele>
        <time>2022-06-02T07:16:27.000Z</time>
      </trkpt>
      <trkpt lat="42.92938" lon="1.16366">
        <ele>774.9</ele>
        <time>2022-06-02T07:16:29.000Z</time>
      </trkpt>
      <trkpt lat="42.92929" lon="1.16368">
        <ele>774.4</ele>
        <time>2022-06-02T07:16:34.000Z</time>
      </trkpt>
      <trkpt lat="42.92936" lon="1.1638">
        <ele>773.1</ele>
        <time>2022-06-02T07:16:38.000Z</time>
      </trkpt>
      <trkpt lat="42.92936" lon="1.16394">
        <ele>772.3</ele>
        <time>2022-06-02T07:16:41.000Z</time>
      </trkpt>
      <trkpt lat="42.92938" lon="1.16412">
        <ele>771.1</ele>
        <time>2022-06-02T07:16:44.000Z</time>
      </trkpt>
      <trkpt lat="42.92937" lon="1.16429">
        <ele>770.8</ele>
        <time>2022-06-02T07:16:47.000Z</time>
      </trkpt>
      <trkpt lat="42.92935" lon="1.16443">
        <ele>769.9</ele>
        <time>2022-06-02T07:16:50.000Z</time>
      </trkpt>
      <trkpt lat="42.92929" lon="1.16455">
        <ele>769.2</ele>
        <time>2022-06-02T07:16:53.000Z</time>
      </trkpt>
      <trkpt lat="42.92918" lon="1.16462">
        <ele>768.6</ele>
        <time>2022-06-02T07:16:56.000Z</time>
      </trkpt>
      <trkpt lat="42.92905" lon="1.16461">
        <ele>766.9</ele>
        <time>2022-06-02T07:16:59.000Z</time>
      </trkpt>
      <trkpt lat="42.92893" lon="1.16457">
        <ele>766.4</ele>
        <time>2022-06-02T07:17:02.000Z</time>
      </trkpt>
      <trkpt lat="42.92881" lon="1.16454">
        <ele>766.2</ele>
        <time>2022-06-02T07:17:05.000Z</time>
      </trkpt>
      <trkpt lat="42.92868" lon="1.16452">
        <ele>765.2</ele>
        <time>2022-06-02T07:17:08.000Z</time>
      </trkpt>
      <trkpt lat="42.92855" lon="1.16453">
        <ele>765</ele>
        <time>2022-06-02T07:17:10.000Z</time>
      </trkpt>
      <trkpt lat="42.9284" lon="1.1645">
        <ele>764.2</ele>
        <time>2022-06-02T07:17:12.000Z</time>
      </trkpt>
      <trkpt lat="42.92825" lon="1.16444">
        <ele>763.8</ele>
        <time>2022-06-02T07:17:14.000Z</time>
      </trkpt>
      <trkpt lat="42.9281" lon="1.16439">
        <ele>764.1</ele>
        <time>2022-06-02T07:17:16.000Z</time>
      </trkpt>
      <trkpt lat="42.92798" lon="1.16435">
        <ele>763.9</ele>
        <time>2022-06-02T07:17:18.000Z</time>
      </trkpt>
      <trkpt lat="42.92788" lon="1.16433">
        <ele>763.5</ele>
        <time>2022-06-02T07:17:21.000Z</time>
      </trkpt>
      <trkpt lat="42.92779" lon="1.16439">
        <ele>762.9</ele>
        <time>2022-06-02T07:17:25.000Z</time>
      </trkpt>
      <trkpt lat="42.9277" lon="1.16432">
        <ele>763.1</ele>
        <time>2022-06-02T07:17:35.000Z</time>
      </trkpt>
      <trkpt lat="42.92764" lon="1.16422">
        <ele>763.4</ele>
        <time>2022-06-02T07:17:39.000Z</time>
      </trkpt>
      <trkpt lat="42.92755" lon="1.16414">
        <ele>763.3</ele>
        <time>2022-06-02T07:17:45.000Z</time>
      </trkpt>
      <trkpt lat="42.92745" lon="1.16407">
        <ele>763.3</ele>
        <time>2022-06-02T07:17:50.000Z</time>
      </trkpt>
      <trkpt lat="42.92737" lon="1.16401">
        <ele>763.3</ele>
        <time>2022-06-02T07:17:55.000Z</time>
      </trkpt>
      <trkpt lat="42.92737" lon="1.164">
        <ele>763.3</ele>
        <time>2022-06-02T07:18:04.000Z</time>
      </trkpt>
      <trkpt lat="42.92736" lon="1.164">
        <ele>763.1</ele>
        <time>2022-06-02T07:18:06.000Z</time>
      </trkpt>
      <trkpt lat="42.92736" lon="1.16399">
        <ele>764.6</ele>
        <time>2022-06-02T07:18:34.000Z</time>
      </trkpt>
      <trkpt lat="42.92728" lon="1.16387">
        <ele>764.3</ele>
        <time>2022-06-02T07:18:39.000Z</time>
      </trkpt>
      <trkpt lat="42.92722" lon="1.16374">
        <ele>764.5</ele>
        <time>2022-06-02T07:18:42.000Z</time>
      </trkpt>
      <trkpt lat="42.92716" lon="1.16359">
        <ele>764.4</ele>
        <time>2022-06-02T07:18:45.000Z</time>
      </trkpt>
      <trkpt lat="42.92709" lon="1.16348">
        <ele>764</ele>
        <time>2022-06-02T07:18:48.000Z</time>
      </trkpt>
      <trkpt lat="42.927" lon="1.16342">
        <ele>763.9</ele>
        <time>2022-06-02T07:18:51.000Z</time>
      </trkpt>
      <trkpt lat="42.9269" lon="1.16335">
        <ele>763.7</ele>
        <time>2022-06-02T07:18:55.000Z</time>
      </trkpt>
      <trkpt lat="42.92681" lon="1.16328">
        <ele>763.9</ele>
        <time>2022-06-02T07:18:59.000Z</time>
      </trkpt>
      <trkpt lat="42.92673" lon="1.16322">
        <ele>763.5</ele>
        <time>2022-06-02T07:19:02.000Z</time>
      </trkpt>
      <trkpt lat="42.92664" lon="1.16317">
        <ele>763.6</ele>
        <time>2022-06-02T07:19:05.000Z</time>
      </trkpt>
      <trkpt lat="42.92656" lon="1.16312">
        <ele>762.3</ele>
        <time>2022-06-02T07:19:08.000Z</time>
      </trkpt>
      <trkpt lat="42.92647" lon="1.16306">
        <ele>762</ele>
        <time>2022-06-02T07:19:11.000Z</time>
      </trkpt>
      <trkpt lat="42.92638" lon="1.16302">
        <ele>761.3</ele>
        <time>2022-06-02T07:19:14.000Z</time>
      </trkpt>
      <trkpt lat="42.92629" lon="1.16294">
        <ele>760.3</ele>
        <time>2022-06-02T07:19:18.000Z</time>
      </trkpt>
      <trkpt lat="42.92623" lon="1.16281">
        <ele>759.6</ele>
        <time>2022-06-02T07:19:22.000Z</time>
      </trkpt>
      <trkpt lat="42.92618" lon="1.16267">
        <ele>759.3</ele>
        <time>2022-06-02T07:19:26.000Z</time>
      </trkpt>
      <trkpt lat="42.92614" lon="1.16253">
        <ele>759.4</ele>
        <time>2022-06-02T07:19:30.000Z</time>
      </trkpt>
      <trkpt lat="42.92608" lon="1.16242">
        <ele>759</ele>
        <time>2022-06-02T07:19:34.000Z</time>
      </trkpt>
      <trkpt lat="42.926" lon="1.16234">
        <ele>758.9</ele>
        <time>2022-06-02T07:19:38.000Z</time>
      </trkpt>
      <trkpt lat="42.9259" lon="1.16229">
        <ele>756</ele>
        <time>2022-06-02T07:19:42.000Z</time>
      </trkpt>
      <trkpt lat="42.92581" lon="1.16225">
        <ele>757.8</ele>
        <time>2022-06-02T07:19:46.000Z</time>
      </trkpt>
      <trkpt lat="42.92569" lon="1.16222">
        <ele>756.4</ele>
        <time>2022-06-02T07:19:50.000Z</time>
      </trkpt>
      <trkpt lat="42.92566" lon="1.1622">
        <ele>755.3</ele>
        <time>2022-06-02T07:19:54.000Z</time>
      </trkpt>
      <trkpt lat="42.92556" lon="1.16217">
        <ele>747.7</ele>
        <time>2022-06-02T07:21:01.000Z</time>
      </trkpt>
      <trkpt lat="42.92546" lon="1.16214">
        <ele>746.8</ele>
        <time>2022-06-02T07:21:05.000Z</time>
      </trkpt>
      <trkpt lat="42.92536" lon="1.16209">
        <ele>744.7</ele>
        <time>2022-06-02T07:21:09.000Z</time>
      </trkpt>
      <trkpt lat="42.92527" lon="1.16204">
        <ele>744.1</ele>
        <time>2022-06-02T07:21:12.000Z</time>
      </trkpt>
      <trkpt lat="42.92516" lon="1.16199">
        <ele>742.8</ele>
        <time>2022-06-02T07:21:16.000Z</time>
      </trkpt>
      <trkpt lat="42.92507" lon="1.16194">
        <ele>741.3</ele>
        <time>2022-06-02T07:21:22.000Z</time>
      </trkpt>
      <trkpt lat="42.92498" lon="1.16191">
        <ele>740.8</ele>
        <time>2022-06-02T07:21:26.000Z</time>
      </trkpt>
      <trkpt lat="42.92489" lon="1.16188">
        <ele>740.6</ele>
        <time>2022-06-02T07:21:30.000Z</time>
      </trkpt>
      <trkpt lat="42.92478" lon="1.16186">
        <ele>739.4</ele>
        <time>2022-06-02T07:21:34.000Z</time>
      </trkpt>
      <trkpt lat="42.92468" lon="1.16185">
        <ele>738.5</ele>
        <time>2022-06-02T07:21:37.000Z</time>
      </trkpt>
      <trkpt lat="42.92456" lon="1.16185">
        <ele>738.1</ele>
        <time>2022-06-02T07:21:40.000Z</time>
      </trkpt>
      <trkpt lat="42.92443" lon="1.16188">
        <ele>737.2</ele>
        <time>2022-06-02T07:21:43.000Z</time>
      </trkpt>
      <trkpt lat="42.92432" lon="1.16191">
        <ele>736.7</ele>
        <time>2022-06-02T07:21:46.000Z</time>
      </trkpt>
      <trkpt lat="42.92422" lon="1.16193">
        <ele>735.9</ele>
        <time>2022-06-02T07:21:49.000Z</time>
      </trkpt>
      <trkpt lat="42.92411" lon="1.16196">
        <ele>735.6</ele>
        <time>2022-06-02T07:21:52.000Z</time>
      </trkpt>
      <trkpt lat="42.92399" lon="1.16196">
        <ele>734.8</ele>
        <time>2022-06-02T07:21:55.000Z</time>
      </trkpt>
      <trkpt lat="42.92388" lon="1.1619">
        <ele>733.7</ele>
        <time>2022-06-02T07:21:58.000Z</time>
      </trkpt>
      <trkpt lat="42.92377" lon="1.16181">
        <ele>733.1</ele>
        <time>2022-06-02T07:22:01.000Z</time>
      </trkpt>
      <trkpt lat="42.92369" lon="1.1617">
        <ele>732.7</ele>
        <time>2022-06-02T07:22:05.000Z</time>
      </trkpt>
      <trkpt lat="42.92363" lon="1.16157">
        <ele>732.5</ele>
        <time>2022-06-02T07:22:09.000Z</time>
      </trkpt>
      <trkpt lat="42.92358" lon="1.16146">
        <ele>732.9</ele>
        <time>2022-06-02T07:22:13.000Z</time>
      </trkpt>
      <trkpt lat="42.92353" lon="1.16134">
        <ele>733.6</ele>
        <time>2022-06-02T07:22:18.000Z</time>
      </trkpt>
      <trkpt lat="42.92347" lon="1.16123">
        <ele>734.6</ele>
        <time>2022-06-02T07:22:23.000Z</time>
      </trkpt>
      <trkpt lat="42.92346" lon="1.16123">
        <ele>735</ele>
        <time>2022-06-02T07:22:26.000Z</time>
      </trkpt>
      <trkpt lat="42.92345" lon="1.16123">
        <ele>735.7</ele>
        <time>2022-06-02T07:22:30.000Z</time>
      </trkpt>
      <trkpt lat="42.92345" lon="1.16124">
        <ele>736</ele>
        <time>2022-06-02T07:22:31.000Z</time>
      </trkpt>
      <trkpt lat="42.92338" lon="1.16133">
        <ele>736.8</ele>
        <time>2022-06-02T07:22:38.000Z</time>
      </trkpt>
      <trkpt lat="42.92331" lon="1.16142">
        <ele>737.1</ele>
        <time>2022-06-02T07:22:45.000Z</time>
      </trkpt>
      <trkpt lat="42.92323" lon="1.1614">
        <ele>736.7</ele>
        <time>2022-06-02T07:22:54.000Z</time>
      </trkpt>
      <trkpt lat="42.92317" lon="1.16127">
        <ele>736.7</ele>
        <time>2022-06-02T07:22:59.000Z</time>
      </trkpt>
      <trkpt lat="42.9231" lon="1.16117">
        <ele>735.6</ele>
        <time>2022-06-02T07:23:03.000Z</time>
      </trkpt>
      <trkpt lat="42.92304" lon="1.16109">
        <ele>735.2</ele>
        <time>2022-06-02T07:23:07.000Z</time>
      </trkpt>
      <trkpt lat="42.92296" lon="1.16101">
        <ele>733.9</ele>
        <time>2022-06-02T07:23:12.000Z</time>
      </trkpt>
      <trkpt lat="42.92288" lon="1.16092">
        <ele>732.9</ele>
        <time>2022-06-02T07:23:18.000Z</time>
      </trkpt>
      <trkpt lat="42.92281" lon="1.16083">
        <ele>732.2</ele>
        <time>2022-06-02T07:23:23.000Z</time>
      </trkpt>
      <trkpt lat="42.92275" lon="1.16072">
        <ele>731.8</ele>
        <time>2022-06-02T07:23:28.000Z</time>
      </trkpt>
      <trkpt lat="42.92269" lon="1.16062">
        <ele>731</ele>
        <time>2022-06-02T07:23:33.000Z</time>
      </trkpt>
      <trkpt lat="42.92262" lon="1.1605">
        <ele>730.3</ele>
        <time>2022-06-02T07:23:39.000Z</time>
      </trkpt>
      <trkpt lat="42.92257" lon="1.16038">
        <ele>730</ele>
        <time>2022-06-02T07:23:44.000Z</time>
      </trkpt>
      <trkpt lat="42.9225" lon="1.16027">
        <ele>729.3</ele>
        <time>2022-06-02T07:23:49.000Z</time>
      </trkpt>
      <trkpt lat="42.92242" lon="1.1602">
        <ele>728</ele>
        <time>2022-06-02T07:23:53.000Z</time>
      </trkpt>
      <trkpt lat="42.92234" lon="1.16013">
        <ele>727</ele>
        <time>2022-06-02T07:23:57.000Z</time>
      </trkpt>
      <trkpt lat="42.92226" lon="1.16003">
        <ele>726.1</ele>
        <time>2022-06-02T07:24:02.000Z</time>
      </trkpt>
      <trkpt lat="42.92219" lon="1.15991">
        <ele>724.9</ele>
        <time>2022-06-02T07:24:05.000Z</time>
      </trkpt>
      <trkpt lat="42.92216" lon="1.15975">
        <ele>724.1</ele>
        <time>2022-06-02T07:24:07.000Z</time>
      </trkpt>
      <trkpt lat="42.92212" lon="1.15957">
        <ele>724.3</ele>
        <time>2022-06-02T07:24:09.000Z</time>
      </trkpt>
      <trkpt lat="42.9221" lon="1.15941">
        <ele>723.9</ele>
        <time>2022-06-02T07:24:11.000Z</time>
      </trkpt>
      <trkpt lat="42.92206" lon="1.15928">
        <ele>723.5</ele>
        <time>2022-06-02T07:24:13.000Z</time>
      </trkpt>
      <trkpt lat="42.92201" lon="1.15917">
        <ele>723.2</ele>
        <time>2022-06-02T07:24:15.000Z</time>
      </trkpt>
      <trkpt lat="42.92195" lon="1.15906">
        <ele>722.2</ele>
        <time>2022-06-02T07:24:17.000Z</time>
      </trkpt>
      <trkpt lat="42.92188" lon="1.15898">
        <ele>722.4</ele>
        <time>2022-06-02T07:24:19.000Z</time>
      </trkpt>
      <trkpt lat="42.92177" lon="1.15887">
        <ele>722.8</ele>
        <time>2022-06-02T07:24:22.000Z</time>
      </trkpt>
      <trkpt lat="42.92169" lon="1.15879">
        <ele>722</ele>
        <time>2022-06-02T07:24:24.000Z</time>
      </trkpt>
      <trkpt lat="42.9216" lon="1.15871">
        <ele>722.5</ele>
        <time>2022-06-02T07:24:26.000Z</time>
      </trkpt>
      <trkpt lat="42.92152" lon="1.15862">
        <ele>721.6</ele>
        <time>2022-06-02T07:24:28.000Z</time>
      </trkpt>
      <trkpt lat="42.92143" lon="1.15854">
        <ele>721.9</ele>
        <time>2022-06-02T07:24:30.000Z</time>
      </trkpt>
      <trkpt lat="42.92136" lon="1.15846">
        <ele>721.6</ele>
        <time>2022-06-02T07:24:32.000Z</time>
      </trkpt>
      <trkpt lat="42.92127" lon="1.15835">
        <ele>720.9</ele>
        <time>2022-06-02T07:24:37.000Z</time>
      </trkpt>
      <trkpt lat="42.92118" lon="1.15826">
        <ele>719.8</ele>
        <time>2022-06-02T07:24:41.000Z</time>
      </trkpt>
      <trkpt lat="42.92108" lon="1.15816">
        <ele>719.2</ele>
        <time>2022-06-02T07:24:45.000Z</time>
      </trkpt>
      <trkpt lat="42.92098" lon="1.15809">
        <ele>718.5</ele>
        <time>2022-06-02T07:24:48.000Z</time>
      </trkpt>
      <trkpt lat="42.92093" lon="1.15799">
        <ele>718.1</ele>
        <time>2022-06-02T07:24:51.000Z</time>
      </trkpt>
      <trkpt lat="42.9209" lon="1.15784">
        <ele>717.1</ele>
        <time>2022-06-02T07:24:55.000Z</time>
      </trkpt>
      <trkpt lat="42.92091" lon="1.15771">
        <ele>716.3</ele>
        <time>2022-06-02T07:24:59.000Z</time>
      </trkpt>
      <trkpt lat="42.92095" lon="1.15757">
        <ele>715.8</ele>
        <time>2022-06-02T07:25:03.000Z</time>
      </trkpt>
      <trkpt lat="42.92094" lon="1.15743">
        <ele>715.2</ele>
        <time>2022-06-02T07:25:06.000Z</time>
      </trkpt>
      <trkpt lat="42.9209" lon="1.1573">
        <ele>715.2</ele>
        <time>2022-06-02T07:25:09.000Z</time>
      </trkpt>
      <trkpt lat="42.92083" lon="1.15717">
        <ele>714.4</ele>
        <time>2022-06-02T07:25:12.000Z</time>
      </trkpt>
      <trkpt lat="42.92079" lon="1.15705">
        <ele>714.9</ele>
        <time>2022-06-02T07:25:14.000Z</time>
      </trkpt>
      <trkpt lat="42.92072" lon="1.15694">
        <ele>714.9</ele>
        <time>2022-06-02T07:25:16.000Z</time>
      </trkpt>
      <trkpt lat="42.92065" lon="1.15684">
        <ele>714.5</ele>
        <time>2022-06-02T07:25:18.000Z</time>
      </trkpt>
      <trkpt lat="42.92059" lon="1.15673">
        <ele>714.7</ele>
        <time>2022-06-02T07:25:20.000Z</time>
      </trkpt>
      <trkpt lat="42.9205" lon="1.1566">
        <ele>714.3</ele>
        <time>2022-06-02T07:25:23.000Z</time>
      </trkpt>
      <trkpt lat="42.92045" lon="1.15647">
        <ele>714.9</ele>
        <time>2022-06-02T07:25:26.000Z</time>
      </trkpt>
      <trkpt lat="42.92036" lon="1.15634">
        <ele>715.5</ele>
        <time>2022-06-02T07:25:29.000Z</time>
      </trkpt>
      <trkpt lat="42.92029" lon="1.15622">
        <ele>715.1</ele>
        <time>2022-06-02T07:25:32.000Z</time>
      </trkpt>
      <trkpt lat="42.92022" lon="1.15609">
        <ele>714.8</ele>
        <time>2022-06-02T07:25:35.000Z</time>
      </trkpt>
      <trkpt lat="42.92014" lon="1.15596">
        <ele>715.1</ele>
        <time>2022-06-02T07:25:38.000Z</time>
      </trkpt>
      <trkpt lat="42.92008" lon="1.15583">
        <ele>715.1</ele>
        <time>2022-06-02T07:25:41.000Z</time>
      </trkpt>
      <trkpt lat="42.92003" lon="1.15567">
        <ele>715.5</ele>
        <time>2022-06-02T07:25:44.000Z</time>
      </trkpt>
      <trkpt lat="42.91997" lon="1.15552">
        <ele>715.7</ele>
        <time>2022-06-02T07:25:47.000Z</time>
      </trkpt>
      <trkpt lat="42.9199" lon="1.1554">
        <ele>715.4</ele>
        <time>2022-06-02T07:25:50.000Z</time>
      </trkpt>
      <trkpt lat="42.91985" lon="1.1553">
        <ele>715.3</ele>
        <time>2022-06-02T07:25:53.000Z</time>
      </trkpt>
      <trkpt lat="42.91979" lon="1.15516">
        <ele>714.4</ele>
        <time>2022-06-02T07:25:56.000Z</time>
      </trkpt>
      <trkpt lat="42.9197" lon="1.15505">
        <ele>713.8</ele>
        <time>2022-06-02T07:25:59.000Z</time>
      </trkpt>
      <trkpt lat="42.91962" lon="1.15493">
        <ele>713.5</ele>
        <time>2022-06-02T07:26:02.000Z</time>
      </trkpt>
      <trkpt lat="42.91952" lon="1.15483">
        <ele>712.9</ele>
        <time>2022-06-02T07:26:04.000Z</time>
      </trkpt>
      <trkpt lat="42.91943" lon="1.15474">
        <ele>712.2</ele>
        <time>2022-06-02T07:26:06.000Z</time>
      </trkpt>
      <trkpt lat="42.91935" lon="1.15466">
        <ele>710.3</ele>
        <time>2022-06-02T07:26:08.000Z</time>
      </trkpt>
      <trkpt lat="42.91926" lon="1.15456">
        <ele>710</ele>
        <time>2022-06-02T07:26:10.000Z</time>
      </trkpt>
      <trkpt lat="42.91915" lon="1.15449">
        <ele>710</ele>
        <time>2022-06-02T07:26:12.000Z</time>
      </trkpt>
      <trkpt lat="42.91904" lon="1.15438">
        <ele>708.9</ele>
        <time>2022-06-02T07:26:15.000Z</time>
      </trkpt>
      <trkpt lat="42.91897" lon="1.15429">
        <ele>708.1</ele>
        <time>2022-06-02T07:26:17.000Z</time>
      </trkpt>
      <trkpt lat="42.91892" lon="1.15419">
        <ele>706.4</ele>
        <time>2022-06-02T07:26:19.000Z</time>
      </trkpt>
      <trkpt lat="42.91883" lon="1.15405">
        <ele>706</ele>
        <time>2022-06-02T07:26:21.000Z</time>
      </trkpt>
      <trkpt lat="42.91874" lon="1.1539">
        <ele>704.9</ele>
        <time>2022-06-02T07:26:23.000Z</time>
      </trkpt>
      <trkpt lat="42.91866" lon="1.15378">
        <ele>704.5</ele>
        <time>2022-06-02T07:26:25.000Z</time>
      </trkpt>
      <trkpt lat="42.91861" lon="1.15368">
        <ele>702.6</ele>
        <time>2022-06-02T07:26:27.000Z</time>
      </trkpt>
      <trkpt lat="42.91852" lon="1.15355">
        <ele>700.7</ele>
        <time>2022-06-02T07:26:30.000Z</time>
      </trkpt>
      <trkpt lat="42.91846" lon="1.15344">
        <ele>699.2</ele>
        <time>2022-06-02T07:26:33.000Z</time>
      </trkpt>
      <trkpt lat="42.9184" lon="1.15333">
        <ele>697.8</ele>
        <time>2022-06-02T07:26:36.000Z</time>
      </trkpt>
      <trkpt lat="42.91831" lon="1.1532">
        <ele>695.8</ele>
        <time>2022-06-02T07:26:38.000Z</time>
      </trkpt>
      <trkpt lat="42.91822" lon="1.15305">
        <ele>695</ele>
        <time>2022-06-02T07:26:40.000Z</time>
      </trkpt>
      <trkpt lat="42.91813" lon="1.1529">
        <ele>694.1</ele>
        <time>2022-06-02T07:26:42.000Z</time>
      </trkpt>
      <trkpt lat="42.91804" lon="1.15275">
        <ele>692.1</ele>
        <time>2022-06-02T07:26:44.000Z</time>
      </trkpt>
      <trkpt lat="42.91794" lon="1.15263">
        <ele>690.4</ele>
        <time>2022-06-02T07:26:46.000Z</time>
      </trkpt>
      <trkpt lat="42.91784" lon="1.15253">
        <ele>688.6</ele>
        <time>2022-06-02T07:26:48.000Z</time>
      </trkpt>
      <trkpt lat="42.91778" lon="1.15242">
        <ele>687.4</ele>
        <time>2022-06-02T07:26:50.000Z</time>
      </trkpt>
      <trkpt lat="42.91773" lon="1.15228">
        <ele>686.4</ele>
        <time>2022-06-02T07:26:52.000Z</time>
      </trkpt>
      <trkpt lat="42.91769" lon="1.15212">
        <ele>684.6</ele>
        <time>2022-06-02T07:26:54.000Z</time>
      </trkpt>
      <trkpt lat="42.91766" lon="1.15198">
        <ele>681.8</ele>
        <time>2022-06-02T07:26:56.000Z</time>
      </trkpt>
      <trkpt lat="42.91755" lon="1.15188">
        <ele>679.7</ele>
        <time>2022-06-02T07:26:59.000Z</time>
      </trkpt>
      <trkpt lat="42.91742" lon="1.15189">
        <ele>678</ele>
        <time>2022-06-02T07:27:01.000Z</time>
      </trkpt>
      <trkpt lat="42.91731" lon="1.15189">
        <ele>675.2</ele>
        <time>2022-06-02T07:27:03.000Z</time>
      </trkpt>
      <trkpt lat="42.91718" lon="1.15187">
        <ele>674.3</ele>
        <time>2022-06-02T07:27:05.000Z</time>
      </trkpt>
      <trkpt lat="42.91707" lon="1.15182">
        <ele>672</ele>
        <time>2022-06-02T07:27:07.000Z</time>
      </trkpt>
      <trkpt lat="42.91696" lon="1.15175">
        <ele>669.8</ele>
        <time>2022-06-02T07:27:09.000Z</time>
      </trkpt>
      <trkpt lat="42.91685" lon="1.15169">
        <ele>668.2</ele>
        <time>2022-06-02T07:27:11.000Z</time>
      </trkpt>
      <trkpt lat="42.91673" lon="1.15159">
        <ele>666.2</ele>
        <time>2022-06-02T07:27:13.000Z</time>
      </trkpt>
      <trkpt lat="42.91661" lon="1.15148">
        <ele>665.3</ele>
        <time>2022-06-02T07:27:15.000Z</time>
      </trkpt>
      <trkpt lat="42.91651" lon="1.15139">
        <ele>663.3</ele>
        <time>2022-06-02T07:27:17.000Z</time>
      </trkpt>
      <trkpt lat="42.91641" lon="1.15132">
        <ele>660.3</ele>
        <time>2022-06-02T07:27:20.000Z</time>
      </trkpt>
      <trkpt lat="42.91629" lon="1.15122">
        <ele>658</ele>
        <time>2022-06-02T07:27:23.000Z</time>
      </trkpt>
      <trkpt lat="42.91619" lon="1.15112">
        <ele>656.6</ele>
        <time>2022-06-02T07:27:25.000Z</time>
      </trkpt>
      <trkpt lat="42.91611" lon="1.15102">
        <ele>654.5</ele>
        <time>2022-06-02T07:27:27.000Z</time>
      </trkpt>
      <trkpt lat="42.916" lon="1.15094">
        <ele>652.6</ele>
        <time>2022-06-02T07:27:29.000Z</time>
      </trkpt>
      <trkpt lat="42.91589" lon="1.15085">
        <ele>650.5</ele>
        <time>2022-06-02T07:27:31.000Z</time>
      </trkpt>
      <trkpt lat="42.91577" lon="1.15076">
        <ele>648.9</ele>
        <time>2022-06-02T07:27:33.000Z</time>
      </trkpt>
      <trkpt lat="42.91568" lon="1.15071">
        <ele>647.6</ele>
        <time>2022-06-02T07:27:35.000Z</time>
      </trkpt>
      <trkpt lat="42.91557" lon="1.15067">
        <ele>644</ele>
        <time>2022-06-02T07:27:38.000Z</time>
      </trkpt>
      <trkpt lat="42.91548" lon="1.15061">
        <ele>643.1</ele>
        <time>2022-06-02T07:27:40.000Z</time>
      </trkpt>
      <trkpt lat="42.91538" lon="1.15049">
        <ele>640.8</ele>
        <time>2022-06-02T07:27:42.000Z</time>
      </trkpt>
      <trkpt lat="42.9153" lon="1.15037">
        <ele>638.7</ele>
        <time>2022-06-02T07:27:44.000Z</time>
      </trkpt>
      <trkpt lat="42.91521" lon="1.15025">
        <ele>636.4</ele>
        <time>2022-06-02T07:27:46.000Z</time>
      </trkpt>
      <trkpt lat="42.91511" lon="1.15014">
        <ele>634.9</ele>
        <time>2022-06-02T07:27:48.000Z</time>
      </trkpt>
      <trkpt lat="42.91504" lon="1.15005">
        <ele>633.5</ele>
        <time>2022-06-02T07:27:50.000Z</time>
      </trkpt>
      <trkpt lat="42.91496" lon="1.14997">
        <ele>631.7</ele>
        <time>2022-06-02T07:27:52.000Z</time>
      </trkpt>
      <trkpt lat="42.91484" lon="1.14991">
        <ele>628.9</ele>
        <time>2022-06-02T07:27:54.000Z</time>
      </trkpt>
      <trkpt lat="42.91472" lon="1.14987">
        <ele>626.6</ele>
        <time>2022-06-02T07:27:56.000Z</time>
      </trkpt>
      <trkpt lat="42.91461" lon="1.14984">
        <ele>623.8</ele>
        <time>2022-06-02T07:27:58.000Z</time>
      </trkpt>
      <trkpt lat="42.9145" lon="1.14981">
        <ele>622.2</ele>
        <time>2022-06-02T07:28:00.000Z</time>
      </trkpt>
      <trkpt lat="42.91438" lon="1.14985">
        <ele>620.6</ele>
        <time>2022-06-02T07:28:02.000Z</time>
      </trkpt>
      <trkpt lat="42.91428" lon="1.14989">
        <ele>618.5</ele>
        <time>2022-06-02T07:28:04.000Z</time>
      </trkpt>
      <trkpt lat="42.91424" lon="1.15002">
        <ele>616.4</ele>
        <time>2022-06-02T07:28:07.000Z</time>
      </trkpt>
      <trkpt lat="42.91414" lon="1.15001">
        <ele>612.3</ele>
        <time>2022-06-02T07:28:14.000Z</time>
      </trkpt>
      <trkpt lat="42.91404" lon="1.14993">
        <ele>609.7</ele>
        <time>2022-06-02T07:28:19.000Z</time>
      </trkpt>
      <trkpt lat="42.91397" lon="1.14984">
        <ele>607.5</ele>
        <time>2022-06-02T07:28:24.000Z</time>
      </trkpt>
      <trkpt lat="42.9139" lon="1.14973">
        <ele>606.1</ele>
        <time>2022-06-02T07:28:30.000Z</time>
      </trkpt>
      <trkpt lat="42.91384" lon="1.14962">
        <ele>604.3</ele>
        <time>2022-06-02T07:28:35.000Z</time>
      </trkpt>
      <trkpt lat="42.9138" lon="1.14949">
        <ele>604</ele>
        <time>2022-06-02T07:28:40.000Z</time>
      </trkpt>
      <trkpt lat="42.91378" lon="1.14937">
        <ele>603.5</ele>
        <time>2022-06-02T07:28:44.000Z</time>
      </trkpt>
      <trkpt lat="42.91377" lon="1.14922">
        <ele>602.8</ele>
        <time>2022-06-02T07:28:49.000Z</time>
      </trkpt>
      <trkpt lat="42.91377" lon="1.14909">
        <ele>602.8</ele>
        <time>2022-06-02T07:28:53.000Z</time>
      </trkpt>
      <trkpt lat="42.91378" lon="1.14894">
        <ele>602.6</ele>
        <time>2022-06-02T07:28:58.000Z</time>
      </trkpt>
      <trkpt lat="42.91377" lon="1.14879">
        <ele>602.5</ele>
        <time>2022-06-02T07:29:03.000Z</time>
      </trkpt>
      <trkpt lat="42.91376" lon="1.14865">
        <ele>602.4</ele>
        <time>2022-06-02T07:29:08.000Z</time>
      </trkpt>
      <trkpt lat="42.91372" lon="1.1485">
        <ele>602.6</ele>
        <time>2022-06-02T07:29:13.000Z</time>
      </trkpt>
      <trkpt lat="42.91369" lon="1.14838">
        <ele>602.5</ele>
        <time>2022-06-02T07:29:17.000Z</time>
      </trkpt>
      <trkpt lat="42.91365" lon="1.14824">
        <ele>603.2</ele>
        <time>2022-06-02T07:29:22.000Z</time>
      </trkpt>
      <trkpt lat="42.9136" lon="1.14814">
        <ele>603.9</ele>
        <time>2022-06-02T07:29:26.000Z</time>
      </trkpt>
      <trkpt lat="42.91354" lon="1.14801">
        <ele>603.9</ele>
        <time>2022-06-02T07:29:31.000Z</time>
      </trkpt>
      <trkpt lat="42.91347" lon="1.14789">
        <ele>604.4</ele>
        <time>2022-06-02T07:29:36.000Z</time>
      </trkpt>
      <trkpt lat="42.9134" lon="1.14778">
        <ele>605</ele>
        <time>2022-06-02T07:29:41.000Z</time>
      </trkpt>
      <trkpt lat="42.91335" lon="1.14766">
        <ele>605.9</ele>
        <time>2022-06-02T07:29:46.000Z</time>
      </trkpt>
      <trkpt lat="42.9133" lon="1.14753">
        <ele>606.1</ele>
        <time>2022-06-02T07:29:51.000Z</time>
      </trkpt>
      <trkpt lat="42.91328" lon="1.14739">
        <ele>606.4</ele>
        <time>2022-06-02T07:29:56.000Z</time>
      </trkpt>
      <trkpt lat="42.91329" lon="1.14725">
        <ele>607</ele>
        <time>2022-06-02T07:30:01.000Z</time>
      </trkpt>
      <trkpt lat="42.91329" lon="1.14712">
        <ele>607.2</ele>
        <time>2022-06-02T07:30:06.000Z</time>
      </trkpt>
      <trkpt lat="42.91328" lon="1.14712">
        <ele>607.8</ele>
        <time>2022-06-02T07:30:12.000Z</time>
      </trkpt>
      <trkpt lat="42.91328" lon="1.14711">
        <ele>608.1</ele>
        <time>2022-06-02T07:30:16.000Z</time>
      </trkpt>
      <trkpt lat="42.91329" lon="1.14711">
        <ele>609</ele>
        <time>2022-06-02T07:31:40.000Z</time>
      </trkpt>
      <trkpt lat="42.91328" lon="1.14696">
        <ele>608.8</ele>
        <time>2022-06-02T07:31:47.000Z</time>
      </trkpt>
      <trkpt lat="42.91324" lon="1.14683">
        <ele>609.1</ele>
        <time>2022-06-02T07:31:52.000Z</time>
      </trkpt>
      <trkpt lat="42.91318" lon="1.14672">
        <ele>608.3</ele>
        <time>2022-06-02T07:31:57.000Z</time>
      </trkpt>
      <trkpt lat="42.91312" lon="1.14661">
        <ele>608</ele>
        <time>2022-06-02T07:32:02.000Z</time>
      </trkpt>
      <trkpt lat="42.91306" lon="1.14649">
        <ele>608.6</ele>
        <time>2022-06-02T07:32:07.000Z</time>
      </trkpt>
      <trkpt lat="42.91301" lon="1.14636">
        <ele>608.1</ele>
        <time>2022-06-02T07:32:12.000Z</time>
      </trkpt>
      <trkpt lat="42.91295" lon="1.14627">
        <ele>607.7</ele>
        <time>2022-06-02T07:32:16.000Z</time>
      </trkpt>
      <trkpt lat="42.91289" lon="1.14618">
        <ele>607.3</ele>
        <time>2022-06-02T07:32:20.000Z</time>
      </trkpt>
      <trkpt lat="42.9128" lon="1.14609">
        <ele>606.2</ele>
        <time>2022-06-02T07:32:24.000Z</time>
      </trkpt>
      <trkpt lat="42.91271" lon="1.14598">
        <ele>605.4</ele>
        <time>2022-06-02T07:32:27.000Z</time>
      </trkpt>
      <trkpt lat="42.91263" lon="1.14587">
        <ele>605.5</ele>
        <time>2022-06-02T07:32:30.000Z</time>
      </trkpt>
      <trkpt lat="42.91255" lon="1.14576">
        <ele>605.5</ele>
        <time>2022-06-02T07:32:33.000Z</time>
      </trkpt>
      <trkpt lat="42.91247" lon="1.14564">
        <ele>605.3</ele>
        <time>2022-06-02T07:32:36.000Z</time>
      </trkpt>
      <trkpt lat="42.91239" lon="1.14553">
        <ele>605.1</ele>
        <time>2022-06-02T07:32:39.000Z</time>
      </trkpt>
      <trkpt lat="42.91244" lon="1.14541">
        <ele>605.6</ele>
        <time>2022-06-02T07:32:43.000Z</time>
      </trkpt>
      <trkpt lat="42.91254" lon="1.14541">
        <ele>605.5</ele>
        <time>2022-06-02T07:32:46.000Z</time>
      </trkpt>
      <trkpt lat="42.91263" lon="1.14542">
        <ele>605</ele>
        <time>2022-06-02T07:32:50.000Z</time>
      </trkpt>
      <trkpt lat="42.91274" lon="1.14546">
        <ele>604.6</ele>
        <time>2022-06-02T07:32:55.000Z</time>
      </trkpt>
      <trkpt lat="42.91285" lon="1.14541">
        <ele>604.7</ele>
        <time>2022-06-02T07:32:59.000Z</time>
      </trkpt>
      <trkpt lat="42.91289" lon="1.14529">
        <ele>604.7</ele>
        <time>2022-06-02T07:33:04.000Z</time>
      </trkpt>
      <trkpt lat="42.91299" lon="1.14531">
        <ele>604.9</ele>
        <time>2022-06-02T07:33:10.000Z</time>
      </trkpt>
      <trkpt lat="42.9131" lon="1.14528">
        <ele>604.8</ele>
        <time>2022-06-02T07:33:15.000Z</time>
      </trkpt>
      <trkpt lat="42.9132" lon="1.14524">
        <ele>604.8</ele>
        <time>2022-06-02T07:33:20.000Z</time>
      </trkpt>
      <trkpt lat="42.91329" lon="1.14519">
        <ele>605.3</ele>
        <time>2022-06-02T07:33:24.000Z</time>
      </trkpt>
      <trkpt lat="42.91337" lon="1.14512">
        <ele>605.4</ele>
        <time>2022-06-02T07:33:28.000Z</time>
      </trkpt>
      <trkpt lat="42.91345" lon="1.14505">
        <ele>605.6</ele>
        <time>2022-06-02T07:33:32.000Z</time>
      </trkpt>
      <trkpt lat="42.91354" lon="1.14497">
        <ele>605.3</ele>
        <time>2022-06-02T07:33:37.000Z</time>
      </trkpt>
      <trkpt lat="42.9136" lon="1.14485">
        <ele>605.4</ele>
        <time>2022-06-02T07:33:42.000Z</time>
      </trkpt>
      <trkpt lat="42.91364" lon="1.1447">
        <ele>605.5</ele>
        <time>2022-06-02T07:33:47.000Z</time>
      </trkpt>
      <trkpt lat="42.91367" lon="1.14456">
        <ele>605.7</ele>
        <time>2022-06-02T07:33:52.000Z</time>
      </trkpt>
      <trkpt lat="42.9137" lon="1.14441">
        <ele>605.8</ele>
        <time>2022-06-02T07:33:57.000Z</time>
      </trkpt>
      <trkpt lat="42.91373" lon="1.14427">
        <ele>606.3</ele>
        <time>2022-06-02T07:34:02.000Z</time>
      </trkpt>
      <trkpt lat="42.91377" lon="1.14412">
        <ele>606.8</ele>
        <time>2022-06-02T07:34:07.000Z</time>
      </trkpt>
      <trkpt lat="42.9138" lon="1.14401">
        <ele>607.2</ele>
        <time>2022-06-02T07:34:11.000Z</time>
      </trkpt>
      <trkpt lat="42.91383" lon="1.14386">
        <ele>607.9</ele>
        <time>2022-06-02T07:34:16.000Z</time>
      </trkpt>
      <trkpt lat="42.91388" lon="1.14373">
        <ele>608.5</ele>
        <time>2022-06-02T07:34:21.000Z</time>
      </trkpt>
      <trkpt lat="42.91392" lon="1.14359">
        <ele>609.7</ele>
        <time>2022-06-02T07:34:26.000Z</time>
      </trkpt>
      <trkpt lat="42.91398" lon="1.14347">
        <ele>611</ele>
        <time>2022-06-02T07:34:31.000Z</time>
      </trkpt>
      <trkpt lat="42.91404" lon="1.14337">
        <ele>611.8</ele>
        <time>2022-06-02T07:34:36.000Z</time>
      </trkpt>
      <trkpt lat="42.91409" lon="1.14325">
        <ele>613.3</ele>
        <time>2022-06-02T07:34:41.000Z</time>
      </trkpt>
      <trkpt lat="42.91415" lon="1.14315">
        <ele>614.6</ele>
        <time>2022-06-02T07:34:46.000Z</time>
      </trkpt>
      <trkpt lat="42.9142" lon="1.14303">
        <ele>616.3</ele>
        <time>2022-06-02T07:34:51.000Z</time>
      </trkpt>
      <trkpt lat="42.91425" lon="1.14291">
        <ele>617.5</ele>
        <time>2022-06-02T07:34:56.000Z</time>
      </trkpt>
      <trkpt lat="42.9143" lon="1.14279">
        <ele>618.8</ele>
        <time>2022-06-02T07:35:02.000Z</time>
      </trkpt>
      <trkpt lat="42.91437" lon="1.1427">
        <ele>620.2</ele>
        <time>2022-06-02T07:35:08.000Z</time>
      </trkpt>
      <trkpt lat="42.91441" lon="1.14258">
        <ele>620.6</ele>
        <time>2022-06-02T07:35:12.000Z</time>
      </trkpt>
      <trkpt lat="42.91446" lon="1.14247">
        <ele>621.7</ele>
        <time>2022-06-02T07:35:16.000Z</time>
      </trkpt>
      <trkpt lat="42.91451" lon="1.14236">
        <ele>623</ele>
        <time>2022-06-02T07:35:20.000Z</time>
      </trkpt>
      <trkpt lat="42.91455" lon="1.14224">
        <ele>624.7</ele>
        <time>2022-06-02T07:35:25.000Z</time>
      </trkpt>
      <trkpt lat="42.9146" lon="1.14211">
        <ele>626.6</ele>
        <time>2022-06-02T07:35:30.000Z</time>
      </trkpt>
      <trkpt lat="42.91464" lon="1.142">
        <ele>627.7</ele>
        <time>2022-06-02T07:35:34.000Z</time>
      </trkpt>
      <trkpt lat="42.91471" lon="1.14188">
        <ele>629.2</ele>
        <time>2022-06-02T07:35:39.000Z</time>
      </trkpt>
      <trkpt lat="42.91477" lon="1.14176">
        <ele>630.8</ele>
        <time>2022-06-02T07:35:44.000Z</time>
      </trkpt>
      <trkpt lat="42.91483" lon="1.14164">
        <ele>631.8</ele>
        <time>2022-06-02T07:35:49.000Z</time>
      </trkpt>
      <trkpt lat="42.91488" lon="1.14154">
        <ele>633.7</ele>
        <time>2022-06-02T07:35:53.000Z</time>
      </trkpt>
      <trkpt lat="42.91497" lon="1.14145">
        <ele>634.3</ele>
        <time>2022-06-02T07:36:00.000Z</time>
      </trkpt>
      <trkpt lat="42.91507" lon="1.14139">
        <ele>635</ele>
        <time>2022-06-02T07:36:04.000Z</time>
      </trkpt>
      <trkpt lat="42.91517" lon="1.14133">
        <ele>636.1</ele>
        <time>2022-06-02T07:36:09.000Z</time>
      </trkpt>
      <trkpt lat="42.91525" lon="1.14124">
        <ele>636.9</ele>
        <time>2022-06-02T07:36:14.000Z</time>
      </trkpt>
      <trkpt lat="42.91534" lon="1.14115">
        <ele>637.9</ele>
        <time>2022-06-02T07:36:19.000Z</time>
      </trkpt>
      <trkpt lat="42.91542" lon="1.14109">
        <ele>638.7</ele>
        <time>2022-06-02T07:36:23.000Z</time>
      </trkpt>
      <trkpt lat="42.91549" lon="1.14101">
        <ele>639.7</ele>
        <time>2022-06-02T07:36:27.000Z</time>
      </trkpt>
      <trkpt lat="42.91557" lon="1.14093">
        <ele>640.9</ele>
        <time>2022-06-02T07:36:32.000Z</time>
      </trkpt>
      <trkpt lat="42.91564" lon="1.14083">
        <ele>642</ele>
        <time>2022-06-02T07:36:37.000Z</time>
      </trkpt>
      <trkpt lat="42.91571" lon="1.14073">
        <ele>643.1</ele>
        <time>2022-06-02T07:36:42.000Z</time>
      </trkpt>
      <trkpt lat="42.91578" lon="1.14064">
        <ele>643.8</ele>
        <time>2022-06-02T07:36:47.000Z</time>
      </trkpt>
      <trkpt lat="42.91585" lon="1.14053">
        <ele>644.6</ele>
        <time>2022-06-02T07:36:52.000Z</time>
      </trkpt>
      <trkpt lat="42.91591" lon="1.14043">
        <ele>645.2</ele>
        <time>2022-06-02T07:36:57.000Z</time>
      </trkpt>
      <trkpt lat="42.91597" lon="1.14032">
        <ele>645.5</ele>
        <time>2022-06-02T07:37:02.000Z</time>
      </trkpt>
      <trkpt lat="42.91603" lon="1.14021">
        <ele>645.8</ele>
        <time>2022-06-02T07:37:07.000Z</time>
      </trkpt>
      <trkpt lat="42.91609" lon="1.14009">
        <ele>646.1</ele>
        <time>2022-06-02T07:37:12.000Z</time>
      </trkpt>
      <trkpt lat="42.91613" lon="1.13997">
        <ele>645.9</ele>
        <time>2022-06-02T07:37:17.000Z</time>
      </trkpt>
      <trkpt lat="42.91617" lon="1.13984">
        <ele>646.5</ele>
        <time>2022-06-02T07:37:22.000Z</time>
      </trkpt>
      <trkpt lat="42.91622" lon="1.13973">
        <ele>646.9</ele>
        <time>2022-06-02T07:37:27.000Z</time>
      </trkpt>
      <trkpt lat="42.91626" lon="1.1396">
        <ele>647.1</ele>
        <time>2022-06-02T07:37:32.000Z</time>
      </trkpt>
      <trkpt lat="42.91626" lon="1.13959">
        <ele>647.1</ele>
        <time>2022-06-02T07:37:34.000Z</time>
      </trkpt>
      <trkpt lat="42.91627" lon="1.13956">
        <ele>647.5</ele>
        <time>2022-06-02T07:37:42.000Z</time>
      </trkpt>
      <trkpt lat="42.91629" lon="1.13955">
        <ele>647.3</ele>
        <time>2022-06-02T07:37:54.000Z</time>
      </trkpt>
      <trkpt lat="42.91629" lon="1.13954">
        <ele>646.1</ele>
        <time>2022-06-02T07:38:12.000Z</time>
      </trkpt>
      <trkpt lat="42.91628" lon="1.13954">
        <ele>644.8</ele>
        <time>2022-06-02T07:38:25.000Z</time>
      </trkpt>
      <trkpt lat="42.91629" lon="1.13954">
        <ele>644.7</ele>
        <time>2022-06-02T07:38:32.000Z</time>
      </trkpt>
      <trkpt lat="42.91628" lon="1.13954">
        <ele>644.3</ele>
        <time>2022-06-02T07:38:38.000Z</time>
      </trkpt>
      <trkpt lat="42.91628" lon="1.13953">
        <ele>641.7</ele>
        <time>2022-06-02T07:38:51.000Z</time>
      </trkpt>
      <trkpt lat="42.91629" lon="1.13952">
        <ele>644.2</ele>
        <time>2022-06-02T07:39:02.000Z</time>
      </trkpt>
      <trkpt lat="42.91632" lon="1.1394">
        <ele>643.8</ele>
        <time>2022-06-02T07:39:08.000Z</time>
      </trkpt>
      <trkpt lat="42.91635" lon="1.13927">
        <ele>643.7</ele>
        <time>2022-06-02T07:39:14.000Z</time>
      </trkpt>
      <trkpt lat="42.91636" lon="1.13914">
        <ele>644.3</ele>
        <time>2022-06-02T07:39:19.000Z</time>
      </trkpt>
      <trkpt lat="42.91637" lon="1.13899">
        <ele>645</ele>
        <time>2022-06-02T07:39:23.000Z</time>
      </trkpt>
      <trkpt lat="42.91639" lon="1.13887">
        <ele>645.6</ele>
        <time>2022-06-02T07:39:28.000Z</time>
      </trkpt>
      <trkpt lat="42.91643" lon="1.13874">
        <ele>646.2</ele>
        <time>2022-06-02T07:39:33.000Z</time>
      </trkpt>
      <trkpt lat="42.91646" lon="1.1386">
        <ele>647.4</ele>
        <time>2022-06-02T07:39:38.000Z</time>
      </trkpt>
      <trkpt lat="42.91651" lon="1.1385">
        <ele>648.1</ele>
        <time>2022-06-02T07:39:42.000Z</time>
      </trkpt>
      <trkpt lat="42.91656" lon="1.13838">
        <ele>648.9</ele>
        <time>2022-06-02T07:39:47.000Z</time>
      </trkpt>
      <trkpt lat="42.91663" lon="1.13829">
        <ele>650.1</ele>
        <time>2022-06-02T07:39:52.000Z</time>
      </trkpt>
      <trkpt lat="42.91667" lon="1.13816">
        <ele>651</ele>
        <time>2022-06-02T07:39:57.000Z</time>
      </trkpt>
      <trkpt lat="42.91674" lon="1.13803">
        <ele>652.4</ele>
        <time>2022-06-02T07:40:02.000Z</time>
      </trkpt>
      <trkpt lat="42.91679" lon="1.13791">
        <ele>652.9</ele>
        <time>2022-06-02T07:40:06.000Z</time>
      </trkpt>
      <trkpt lat="42.91682" lon="1.13779">
        <ele>653.7</ele>
        <time>2022-06-02T07:40:11.000Z</time>
      </trkpt>
      <trkpt lat="42.91684" lon="1.13775">
        <ele>643.4</ele>
        <time>2022-06-02T07:40:16.000Z</time>
      </trkpt>
      <trkpt lat="42.91683" lon="1.13775">
        <ele>642</ele>
        <time>2022-06-02T07:40:17.000Z</time>
      </trkpt>
      <trkpt lat="42.91683" lon="1.13771">
        <ele>657</ele>
        <time>2022-06-02T07:40:26.000Z</time>
      </trkpt>
      <trkpt lat="42.9169" lon="1.1376">
        <ele>658.6</ele>
        <time>2022-06-02T07:40:36.000Z</time>
      </trkpt>
      <trkpt lat="42.91696" lon="1.13748">
        <ele>658.8</ele>
        <time>2022-06-02T07:40:42.000Z</time>
      </trkpt>
      <trkpt lat="42.91702" lon="1.13737">
        <ele>659.5</ele>
        <time>2022-06-02T07:40:47.000Z</time>
      </trkpt>
      <trkpt lat="42.91709" lon="1.13727">
        <ele>660.2</ele>
        <time>2022-06-02T07:40:52.000Z</time>
      </trkpt>
      <trkpt lat="42.91715" lon="1.13716">
        <ele>661.1</ele>
        <time>2022-06-02T07:40:57.000Z</time>
      </trkpt>
      <trkpt lat="42.91722" lon="1.13706">
        <ele>661.9</ele>
        <time>2022-06-02T07:41:02.000Z</time>
      </trkpt>
      <trkpt lat="42.91731" lon="1.13701">
        <ele>662.5</ele>
        <time>2022-06-02T07:41:07.000Z</time>
      </trkpt>
      <trkpt lat="42.91742" lon="1.13699">
        <ele>663.6</ele>
        <time>2022-06-02T07:41:15.000Z</time>
      </trkpt>
      <trkpt lat="42.91752" lon="1.13698">
        <ele>664.7</ele>
        <time>2022-06-02T07:41:20.000Z</time>
      </trkpt>
      <trkpt lat="42.91761" lon="1.13697">
        <ele>665.4</ele>
        <time>2022-06-02T07:41:25.000Z</time>
      </trkpt>
      <trkpt lat="42.9177" lon="1.13697">
        <ele>666.8</ele>
        <time>2022-06-02T07:41:30.000Z</time>
      </trkpt>
      <trkpt lat="42.9178" lon="1.13699">
        <ele>668.2</ele>
        <time>2022-06-02T07:41:36.000Z</time>
      </trkpt>
      <trkpt lat="42.91789" lon="1.13697">
        <ele>671.8</ele>
        <time>2022-06-02T07:41:45.000Z</time>
      </trkpt>
      <trkpt lat="42.91789" lon="1.13683">
        <ele>673.5</ele>
        <time>2022-06-02T07:41:55.000Z</time>
      </trkpt>
      <trkpt lat="42.91789" lon="1.1367">
        <ele>675</ele>
        <time>2022-06-02T07:42:02.000Z</time>
      </trkpt>
      <trkpt lat="42.91795" lon="1.1366">
        <ele>676.6</ele>
        <time>2022-06-02T07:42:07.000Z</time>
      </trkpt>
      <trkpt lat="42.91801" lon="1.13649">
        <ele>677.9</ele>
        <time>2022-06-02T07:42:13.000Z</time>
      </trkpt>
      <trkpt lat="42.91808" lon="1.1364">
        <ele>678.7</ele>
        <time>2022-06-02T07:42:18.000Z</time>
      </trkpt>
      <trkpt lat="42.91816" lon="1.13631">
        <ele>680</ele>
        <time>2022-06-02T07:42:23.000Z</time>
      </trkpt>
      <trkpt lat="42.91822" lon="1.1362">
        <ele>680.7</ele>
        <time>2022-06-02T07:42:28.000Z</time>
      </trkpt>
      <trkpt lat="42.91827" lon="1.13609">
        <ele>681.8</ele>
        <time>2022-06-02T07:42:33.000Z</time>
      </trkpt>
      <trkpt lat="42.91832" lon="1.13598">
        <ele>682.8</ele>
        <time>2022-06-02T07:42:38.000Z</time>
      </trkpt>
      <trkpt lat="42.91838" lon="1.13588">
        <ele>683.1</ele>
        <time>2022-06-02T07:42:44.000Z</time>
      </trkpt>
      <trkpt lat="42.91844" lon="1.13577">
        <ele>684</ele>
        <time>2022-06-02T07:42:49.000Z</time>
      </trkpt>
      <trkpt lat="42.9185" lon="1.13568">
        <ele>685.2</ele>
        <time>2022-06-02T07:42:54.000Z</time>
      </trkpt>
      <trkpt lat="42.91851" lon="1.13567">
        <ele>685.9</ele>
        <time>2022-06-02T07:42:57.000Z</time>
      </trkpt>
      <trkpt lat="42.91855" lon="1.13568">
        <ele>686.5</ele>
        <time>2022-06-02T07:43:14.000Z</time>
      </trkpt>
      <trkpt lat="42.91855" lon="1.13566">
        <ele>687</ele>
        <time>2022-06-02T07:43:29.000Z</time>
      </trkpt>
      <trkpt lat="42.91854" lon="1.13566">
        <ele>686.9</ele>
        <time>2022-06-02T07:43:33.000Z</time>
      </trkpt>
      <trkpt lat="42.91854" lon="1.13565">
        <ele>686.6</ele>
        <time>2022-06-02T07:44:06.000Z</time>
      </trkpt>
      <trkpt lat="42.91859" lon="1.13554">
        <ele>686.2</ele>
        <time>2022-06-02T07:44:13.000Z</time>
      </trkpt>
      <trkpt lat="42.91865" lon="1.13544">
        <ele>686.1</ele>
        <time>2022-06-02T07:44:19.000Z</time>
      </trkpt>
      <trkpt lat="42.91871" lon="1.13535">
        <ele>686.1</ele>
        <time>2022-06-02T07:44:24.000Z</time>
      </trkpt>
      <trkpt lat="42.91878" lon="1.13525">
        <ele>685.8</ele>
        <time>2022-06-02T07:44:30.000Z</time>
      </trkpt>
      <trkpt lat="42.91885" lon="1.13514">
        <ele>685.6</ele>
        <time>2022-06-02T07:44:36.000Z</time>
      </trkpt>
      <trkpt lat="42.91893" lon="1.13504">
        <ele>685.6</ele>
        <time>2022-06-02T07:44:42.000Z</time>
      </trkpt>
      <trkpt lat="42.919" lon="1.13493">
        <ele>685.2</ele>
        <time>2022-06-02T07:44:48.000Z</time>
      </trkpt>
      <trkpt lat="42.91906" lon="1.13482">
        <ele>684.8</ele>
        <time>2022-06-02T07:44:54.000Z</time>
      </trkpt>
      <trkpt lat="42.91911" lon="1.1347">
        <ele>685.9</ele>
        <time>2022-06-02T07:45:00.000Z</time>
      </trkpt>
      <trkpt lat="42.91916" lon="1.13458">
        <ele>686.8</ele>
        <time>2022-06-02T07:45:06.000Z</time>
      </trkpt>
      <trkpt lat="42.91921" lon="1.13444">
        <ele>687.2</ele>
        <time>2022-06-02T07:45:12.000Z</time>
      </trkpt>
      <trkpt lat="42.91925" lon="1.13432">
        <ele>688.1</ele>
        <time>2022-06-02T07:45:18.000Z</time>
      </trkpt>
      <trkpt lat="42.91931" lon="1.1342">
        <ele>688.9</ele>
        <time>2022-06-02T07:45:24.000Z</time>
      </trkpt>
      <trkpt lat="42.91937" lon="1.13409">
        <ele>689.7</ele>
        <time>2022-06-02T07:45:30.000Z</time>
      </trkpt>
      <trkpt lat="42.91943" lon="1.13398">
        <ele>691.7</ele>
        <time>2022-06-02T07:45:37.000Z</time>
      </trkpt>
      <trkpt lat="42.91949" lon="1.13389">
        <ele>693.5</ele>
        <time>2022-06-02T07:45:43.000Z</time>
      </trkpt>
      <trkpt lat="42.91958" lon="1.13381">
        <ele>695</ele>
        <time>2022-06-02T07:45:49.000Z</time>
      </trkpt>
      <trkpt lat="42.91966" lon="1.13373">
        <ele>696.7</ele>
        <time>2022-06-02T07:45:55.000Z</time>
      </trkpt>
      <trkpt lat="42.91972" lon="1.13365">
        <ele>698.4</ele>
        <time>2022-06-02T07:46:01.000Z</time>
      </trkpt>
      <trkpt lat="42.91981" lon="1.13356">
        <ele>699.7</ele>
        <time>2022-06-02T07:46:07.000Z</time>
      </trkpt>
      <trkpt lat="42.91989" lon="1.13348">
        <ele>701.6</ele>
        <time>2022-06-02T07:46:13.000Z</time>
      </trkpt>
      <trkpt lat="42.91998" lon="1.13341">
        <ele>703.1</ele>
        <time>2022-06-02T07:46:19.000Z</time>
      </trkpt>
      <trkpt lat="42.92005" lon="1.13331">
        <ele>704.7</ele>
        <time>2022-06-02T07:46:24.000Z</time>
      </trkpt>
      <trkpt lat="42.92009" lon="1.1332">
        <ele>706.3</ele>
        <time>2022-06-02T07:46:28.000Z</time>
      </trkpt>
      <trkpt lat="42.92013" lon="1.13307">
        <ele>709.6</ele>
        <time>2022-06-02T07:46:33.000Z</time>
      </trkpt>
      <trkpt lat="42.92018" lon="1.13296">
        <ele>711.5</ele>
        <time>2022-06-02T07:46:38.000Z</time>
      </trkpt>
      <trkpt lat="42.92024" lon="1.13285">
        <ele>713.8</ele>
        <time>2022-06-02T07:46:43.000Z</time>
      </trkpt>
      <trkpt lat="42.92029" lon="1.13274">
        <ele>716.2</ele>
        <time>2022-06-02T07:46:48.000Z</time>
      </trkpt>
      <trkpt lat="42.92034" lon="1.13263">
        <ele>718.4</ele>
        <time>2022-06-02T07:46:53.000Z</time>
      </trkpt>
      <trkpt lat="42.9204" lon="1.13252">
        <ele>720.1</ele>
        <time>2022-06-02T07:46:59.000Z</time>
      </trkpt>
      <trkpt lat="42.92046" lon="1.1324">
        <ele>721.6</ele>
        <time>2022-06-02T07:47:05.000Z</time>
      </trkpt>
      <trkpt lat="42.92052" lon="1.1323">
        <ele>722.8</ele>
        <time>2022-06-02T07:47:11.000Z</time>
      </trkpt>
      <trkpt lat="42.92057" lon="1.13219">
        <ele>723.9</ele>
        <time>2022-06-02T07:47:16.000Z</time>
      </trkpt>
      <trkpt lat="42.92063" lon="1.13207">
        <ele>725.4</ele>
        <time>2022-06-02T07:47:22.000Z</time>
      </trkpt>
      <trkpt lat="42.9207" lon="1.13197">
        <ele>726.6</ele>
        <time>2022-06-02T07:47:28.000Z</time>
      </trkpt>
      <trkpt lat="42.92077" lon="1.13187">
        <ele>728.3</ele>
        <time>2022-06-02T07:47:34.000Z</time>
      </trkpt>
      <trkpt lat="42.92081" lon="1.13175">
        <ele>730.8</ele>
        <time>2022-06-02T07:47:42.000Z</time>
      </trkpt>
      <trkpt lat="42.92082" lon="1.13162">
        <ele>732.5</ele>
        <time>2022-06-02T07:47:48.000Z</time>
      </trkpt>
      <trkpt lat="42.92081" lon="1.13147">
        <ele>734.4</ele>
        <time>2022-06-02T07:47:54.000Z</time>
      </trkpt>
      <trkpt lat="42.92079" lon="1.13134">
        <ele>735.2</ele>
        <time>2022-06-02T07:47:57.000Z</time>
      </trkpt>
      <trkpt lat="42.92078" lon="1.13121">
        <ele>736.1</ele>
        <time>2022-06-02T07:48:00.000Z</time>
      </trkpt>
      <trkpt lat="42.92081" lon="1.13108">
        <ele>737.3</ele>
        <time>2022-06-02T07:48:03.000Z</time>
      </trkpt>
      <trkpt lat="42.92079" lon="1.13092">
        <ele>737.9</ele>
        <time>2022-06-02T07:48:06.000Z</time>
      </trkpt>
      <trkpt lat="42.92068" lon="1.13089">
        <ele>738.1</ele>
        <time>2022-06-02T07:48:09.000Z</time>
      </trkpt>
      <trkpt lat="42.92058" lon="1.13095">
        <ele>739.5</ele>
        <time>2022-06-02T07:48:14.000Z</time>
      </trkpt>
      <trkpt lat="42.92049" lon="1.13101">
        <ele>741.5</ele>
        <time>2022-06-02T07:48:18.000Z</time>
      </trkpt>
      <trkpt lat="42.92041" lon="1.13111">
        <ele>742.5</ele>
        <time>2022-06-02T07:48:22.000Z</time>
      </trkpt>
      <trkpt lat="42.92032" lon="1.1312">
        <ele>744.3</ele>
        <time>2022-06-02T07:48:26.000Z</time>
      </trkpt>
      <trkpt lat="42.92025" lon="1.13129">
        <ele>746.1</ele>
        <time>2022-06-02T07:48:30.000Z</time>
      </trkpt>
      <trkpt lat="42.92015" lon="1.13137">
        <ele>747.7</ele>
        <time>2022-06-02T07:48:34.000Z</time>
      </trkpt>
      <trkpt lat="42.92006" lon="1.13144">
        <ele>749.9</ele>
        <time>2022-06-02T07:48:39.000Z</time>
      </trkpt>
      <trkpt lat="42.91997" lon="1.13151">
        <ele>752.2</ele>
        <time>2022-06-02T07:48:44.000Z</time>
      </trkpt>
      <trkpt lat="42.91988" lon="1.13157">
        <ele>753.9</ele>
        <time>2022-06-02T07:48:49.000Z</time>
      </trkpt>
      <trkpt lat="42.9198" lon="1.13164">
        <ele>755.9</ele>
        <time>2022-06-02T07:48:54.000Z</time>
      </trkpt>
      <trkpt lat="42.91971" lon="1.13171">
        <ele>757.6</ele>
        <time>2022-06-02T07:48:59.000Z</time>
      </trkpt>
      <trkpt lat="42.91963" lon="1.13179">
        <ele>758.8</ele>
        <time>2022-06-02T07:49:04.000Z</time>
      </trkpt>
      <trkpt lat="42.91954" lon="1.13185">
        <ele>760.8</ele>
        <time>2022-06-02T07:49:09.000Z</time>
      </trkpt>
      <trkpt lat="42.91946" lon="1.13191">
        <ele>761.2</ele>
        <time>2022-06-02T07:49:14.000Z</time>
      </trkpt>
      <trkpt lat="42.9195" lon="1.1318">
        <ele>762.1</ele>
        <time>2022-06-02T07:49:21.000Z</time>
      </trkpt>
      <trkpt lat="42.91957" lon="1.1317">
        <ele>761.9</ele>
        <time>2022-06-02T07:49:26.000Z</time>
      </trkpt>
      <trkpt lat="42.91964" lon="1.1316">
        <ele>762</ele>
        <time>2022-06-02T07:49:31.000Z</time>
      </trkpt>
      <trkpt lat="42.91969" lon="1.13148">
        <ele>763</ele>
        <time>2022-06-02T07:49:36.000Z</time>
      </trkpt>
      <trkpt lat="42.91976" lon="1.1314">
        <ele>763.8</ele>
        <time>2022-06-02T07:49:40.000Z</time>
      </trkpt>
      <trkpt lat="42.91984" lon="1.13132">
        <ele>765.9</ele>
        <time>2022-06-02T07:49:46.000Z</time>
      </trkpt>
      <trkpt lat="42.91993" lon="1.13122">
        <ele>767</ele>
        <time>2022-06-02T07:49:51.000Z</time>
      </trkpt>
      <trkpt lat="42.91999" lon="1.13112">
        <ele>768.8</ele>
        <time>2022-06-02T07:49:55.000Z</time>
      </trkpt>
      <trkpt lat="42.92004" lon="1.131">
        <ele>770.5</ele>
        <time>2022-06-02T07:50:00.000Z</time>
      </trkpt>
      <trkpt lat="42.92011" lon="1.13089">
        <ele>772.1</ele>
        <time>2022-06-02T07:50:05.000Z</time>
      </trkpt>
      <trkpt lat="42.92017" lon="1.13077">
        <ele>773.4</ele>
        <time>2022-06-02T07:50:10.000Z</time>
      </trkpt>
      <trkpt lat="42.92024" lon="1.13068">
        <ele>774.3</ele>
        <time>2022-06-02T07:50:15.000Z</time>
      </trkpt>
      <trkpt lat="42.92031" lon="1.13059">
        <ele>775.6</ele>
        <time>2022-06-02T07:50:21.000Z</time>
      </trkpt>
      <trkpt lat="42.92038" lon="1.1305">
        <ele>775.5</ele>
        <time>2022-06-02T07:50:26.000Z</time>
      </trkpt>
      <trkpt lat="42.92046" lon="1.13043">
        <ele>775.8</ele>
        <time>2022-06-02T07:50:30.000Z</time>
      </trkpt>
      <trkpt lat="42.92055" lon="1.13035">
        <ele>776.1</ele>
        <time>2022-06-02T07:50:35.000Z</time>
      </trkpt>
      <trkpt lat="42.92062" lon="1.13028">
        <ele>776</ele>
        <time>2022-06-02T07:50:39.000Z</time>
      </trkpt>
      <trkpt lat="42.92072" lon="1.13019">
        <ele>775.7</ele>
        <time>2022-06-02T07:50:44.000Z</time>
      </trkpt>
      <trkpt lat="42.92081" lon="1.13012">
        <ele>775.5</ele>
        <time>2022-06-02T07:50:49.000Z</time>
      </trkpt>
      <trkpt lat="42.92089" lon="1.13004">
        <ele>775.5</ele>
        <time>2022-06-02T07:50:54.000Z</time>
      </trkpt>
      <trkpt lat="42.92098" lon="1.12997">
        <ele>775.8</ele>
        <time>2022-06-02T07:50:59.000Z</time>
      </trkpt>
      <trkpt lat="42.92107" lon="1.12989">
        <ele>776.5</ele>
        <time>2022-06-02T07:51:04.000Z</time>
      </trkpt>
      <trkpt lat="42.92114" lon="1.1298">
        <ele>776</ele>
        <time>2022-06-02T07:51:09.000Z</time>
      </trkpt>
      <trkpt lat="42.92122" lon="1.12972">
        <ele>776.3</ele>
        <time>2022-06-02T07:51:14.000Z</time>
      </trkpt>
      <trkpt lat="42.92129" lon="1.12962">
        <ele>776.4</ele>
        <time>2022-06-02T07:51:19.000Z</time>
      </trkpt>
      <trkpt lat="42.92136" lon="1.12952">
        <ele>776.4</ele>
        <time>2022-06-02T07:51:24.000Z</time>
      </trkpt>
      <trkpt lat="42.92143" lon="1.12942">
        <ele>776.6</ele>
        <time>2022-06-02T07:51:29.000Z</time>
      </trkpt>
      <trkpt lat="42.9215" lon="1.1293">
        <ele>776.8</ele>
        <time>2022-06-02T07:51:34.000Z</time>
      </trkpt>
      <trkpt lat="42.92155" lon="1.12917">
        <ele>777.3</ele>
        <time>2022-06-02T07:51:39.000Z</time>
      </trkpt>
      <trkpt lat="42.9216" lon="1.12904">
        <ele>778.1</ele>
        <time>2022-06-02T07:51:44.000Z</time>
      </trkpt>
      <trkpt lat="42.92165" lon="1.12892">
        <ele>778.6</ele>
        <time>2022-06-02T07:51:49.000Z</time>
      </trkpt>
      <trkpt lat="42.92173" lon="1.12883">
        <ele>779.5</ele>
        <time>2022-06-02T07:51:54.000Z</time>
      </trkpt>
      <trkpt lat="42.92183" lon="1.12884">
        <ele>780.4</ele>
        <time>2022-06-02T07:51:59.000Z</time>
      </trkpt>
      <trkpt lat="42.92191" lon="1.12893">
        <ele>781.8</ele>
        <time>2022-06-02T07:52:04.000Z</time>
      </trkpt>
      <trkpt lat="42.92195" lon="1.12905">
        <ele>783.2</ele>
        <time>2022-06-02T07:52:09.000Z</time>
      </trkpt>
      <trkpt lat="42.92198" lon="1.1292">
        <ele>784.6</ele>
        <time>2022-06-02T07:52:14.000Z</time>
      </trkpt>
      <trkpt lat="42.922" lon="1.12934">
        <ele>785.6</ele>
        <time>2022-06-02T07:52:19.000Z</time>
      </trkpt>
      <trkpt lat="42.92203" lon="1.12949">
        <ele>786.5</ele>
        <time>2022-06-02T07:52:24.000Z</time>
      </trkpt>
      <trkpt lat="42.92209" lon="1.12961">
        <ele>787.3</ele>
        <time>2022-06-02T07:52:29.000Z</time>
      </trkpt>
      <trkpt lat="42.92217" lon="1.1297">
        <ele>788</ele>
        <time>2022-06-02T07:52:34.000Z</time>
      </trkpt>
      <trkpt lat="42.92228" lon="1.12974">
        <ele>788.9</ele>
        <time>2022-06-02T07:52:39.000Z</time>
      </trkpt>
      <trkpt lat="42.92238" lon="1.12977">
        <ele>789.4</ele>
        <time>2022-06-02T07:52:44.000Z</time>
      </trkpt>
      <trkpt lat="42.92247" lon="1.12981">
        <ele>790.7</ele>
        <time>2022-06-02T07:52:49.000Z</time>
      </trkpt>
      <trkpt lat="42.92255" lon="1.12988">
        <ele>791.4</ele>
        <time>2022-06-02T07:52:54.000Z</time>
      </trkpt>
      <trkpt lat="42.92261" lon="1.12999">
        <ele>792.7</ele>
        <time>2022-06-02T07:52:59.000Z</time>
      </trkpt>
      <trkpt lat="42.92265" lon="1.1301">
        <ele>793.2</ele>
        <time>2022-06-02T07:53:04.000Z</time>
      </trkpt>
      <trkpt lat="42.92269" lon="1.13022">
        <ele>794.8</ele>
        <time>2022-06-02T07:53:09.000Z</time>
      </trkpt>
      <trkpt lat="42.92274" lon="1.13033">
        <ele>795.2</ele>
        <time>2022-06-02T07:53:14.000Z</time>
      </trkpt>
      <trkpt lat="42.92278" lon="1.13044">
        <ele>795.8</ele>
        <time>2022-06-02T07:53:19.000Z</time>
      </trkpt>
      <trkpt lat="42.92283" lon="1.13056">
        <ele>796.7</ele>
        <time>2022-06-02T07:53:24.000Z</time>
      </trkpt>
      <trkpt lat="42.92288" lon="1.13067">
        <ele>797.6</ele>
        <time>2022-06-02T07:53:29.000Z</time>
      </trkpt>
      <trkpt lat="42.9229" lon="1.1308">
        <ele>798.7</ele>
        <time>2022-06-02T07:53:34.000Z</time>
      </trkpt>
      <trkpt lat="42.9229" lon="1.13093">
        <ele>799.9</ele>
        <time>2022-06-02T07:53:39.000Z</time>
      </trkpt>
      <trkpt lat="42.92286" lon="1.13107">
        <ele>801.2</ele>
        <time>2022-06-02T07:53:44.000Z</time>
      </trkpt>
      <trkpt lat="42.92281" lon="1.13118">
        <ele>802.1</ele>
        <time>2022-06-02T07:53:49.000Z</time>
      </trkpt>
      <trkpt lat="42.92273" lon="1.13126">
        <ele>802.9</ele>
        <time>2022-06-02T07:53:54.000Z</time>
      </trkpt>
      <trkpt lat="42.92264" lon="1.1313">
        <ele>803.6</ele>
        <time>2022-06-02T07:53:59.000Z</time>
      </trkpt>
      <trkpt lat="42.92255" lon="1.13134">
        <ele>804.3</ele>
        <time>2022-06-02T07:54:04.000Z</time>
      </trkpt>
      <trkpt lat="42.92246" lon="1.13139">
        <ele>804.5</ele>
        <time>2022-06-02T07:54:09.000Z</time>
      </trkpt>
      <trkpt lat="42.92241" lon="1.13145">
        <ele>805.5</ele>
        <time>2022-06-02T07:54:16.000Z</time>
      </trkpt>
      <trkpt lat="42.92242" lon="1.13146">
        <ele>806.6</ele>
        <time>2022-06-02T07:54:20.000Z</time>
      </trkpt>
      <trkpt lat="42.92242" lon="1.13147">
        <ele>806.8</ele>
        <time>2022-06-02T07:54:22.000Z</time>
      </trkpt>
      <trkpt lat="42.92242" lon="1.13148">
        <ele>807.6</ele>
        <time>2022-06-02T07:54:24.000Z</time>
      </trkpt>
      <trkpt lat="42.92252" lon="1.13152">
        <ele>808.5</ele>
        <time>2022-06-02T07:54:29.000Z</time>
      </trkpt>
      <trkpt lat="42.92263" lon="1.13149">
        <ele>808.8</ele>
        <time>2022-06-02T07:54:33.000Z</time>
      </trkpt>
      <trkpt lat="42.92274" lon="1.13145">
        <ele>809.6</ele>
        <time>2022-06-02T07:54:37.000Z</time>
      </trkpt>
      <trkpt lat="42.92285" lon="1.1314">
        <ele>810.8</ele>
        <time>2022-06-02T07:54:41.000Z</time>
      </trkpt>
      <trkpt lat="42.92293" lon="1.13136">
        <ele>811.9</ele>
        <time>2022-06-02T07:54:45.000Z</time>
      </trkpt>
      <trkpt lat="42.92303" lon="1.13129">
        <ele>812.6</ele>
        <time>2022-06-02T07:54:49.000Z</time>
      </trkpt>
      <trkpt lat="42.92312" lon="1.13121">
        <ele>813.3</ele>
        <time>2022-06-02T07:54:53.000Z</time>
      </trkpt>
      <trkpt lat="42.92319" lon="1.1311">
        <ele>813.6</ele>
        <time>2022-06-02T07:54:57.000Z</time>
      </trkpt>
      <trkpt lat="42.92325" lon="1.13098">
        <ele>814.1</ele>
        <time>2022-06-02T07:55:01.000Z</time>
      </trkpt>
      <trkpt lat="42.92326" lon="1.13085">
        <ele>814.5</ele>
        <time>2022-06-02T07:55:05.000Z</time>
      </trkpt>
      <trkpt lat="42.92325" lon="1.13072">
        <ele>815.6</ele>
        <time>2022-06-02T07:55:09.000Z</time>
      </trkpt>
      <trkpt lat="42.92324" lon="1.13059">
        <ele>816.5</ele>
        <time>2022-06-02T07:55:13.000Z</time>
      </trkpt>
      <trkpt lat="42.92323" lon="1.13046">
        <ele>817.7</ele>
        <time>2022-06-02T07:55:17.000Z</time>
      </trkpt>
      <trkpt lat="42.92321" lon="1.13031">
        <ele>819.2</ele>
        <time>2022-06-02T07:55:22.000Z</time>
      </trkpt>
      <trkpt lat="42.92319" lon="1.13017">
        <ele>820.5</ele>
        <time>2022-06-02T07:55:27.000Z</time>
      </trkpt>
      <trkpt lat="42.92317" lon="1.13003">
        <ele>822</ele>
        <time>2022-06-02T07:55:32.000Z</time>
      </trkpt>
      <trkpt lat="42.92314" lon="1.12989">
        <ele>823.4</ele>
        <time>2022-06-02T07:55:37.000Z</time>
      </trkpt>
      <trkpt lat="42.92311" lon="1.12976">
        <ele>825.1</ele>
        <time>2022-06-02T07:55:42.000Z</time>
      </trkpt>
      <trkpt lat="42.92308" lon="1.12961">
        <ele>826.7</ele>
        <time>2022-06-02T07:55:47.000Z</time>
      </trkpt>
      <trkpt lat="42.92305" lon="1.12947">
        <ele>828.1</ele>
        <time>2022-06-02T07:55:52.000Z</time>
      </trkpt>
      <trkpt lat="42.92302" lon="1.12934">
        <ele>829.2</ele>
        <time>2022-06-02T07:55:57.000Z</time>
      </trkpt>
      <trkpt lat="42.92299" lon="1.12921">
        <ele>830.5</ele>
        <time>2022-06-02T07:56:02.000Z</time>
      </trkpt>
      <trkpt lat="42.92297" lon="1.12908">
        <ele>831.9</ele>
        <time>2022-06-02T07:56:07.000Z</time>
      </trkpt>
      <trkpt lat="42.92295" lon="1.12894">
        <ele>833.1</ele>
        <time>2022-06-02T07:56:12.000Z</time>
      </trkpt>
      <trkpt lat="42.92292" lon="1.1288">
        <ele>834.1</ele>
        <time>2022-06-02T07:56:17.000Z</time>
      </trkpt>
      <trkpt lat="42.92289" lon="1.12867">
        <ele>835.5</ele>
        <time>2022-06-02T07:56:22.000Z</time>
      </trkpt>
      <trkpt lat="42.92285" lon="1.12854">
        <ele>836.4</ele>
        <time>2022-06-02T07:56:27.000Z</time>
      </trkpt>
      <trkpt lat="42.92281" lon="1.12841">
        <ele>837.4</ele>
        <time>2022-06-02T07:56:32.000Z</time>
      </trkpt>
      <trkpt lat="42.92278" lon="1.12828">
        <ele>838.7</ele>
        <time>2022-06-02T07:56:37.000Z</time>
      </trkpt>
      <trkpt lat="42.92279" lon="1.12815">
        <ele>840.3</ele>
        <time>2022-06-02T07:56:42.000Z</time>
      </trkpt>
      <trkpt lat="42.92283" lon="1.12803">
        <ele>841.3</ele>
        <time>2022-06-02T07:56:47.000Z</time>
      </trkpt>
      <trkpt lat="42.92286" lon="1.12791">
        <ele>841.9</ele>
        <time>2022-06-02T07:56:52.000Z</time>
      </trkpt>
      <trkpt lat="42.92291" lon="1.1278">
        <ele>841.9</ele>
        <time>2022-06-02T07:56:57.000Z</time>
      </trkpt>
      <trkpt lat="42.92294" lon="1.12768">
        <ele>842.4</ele>
        <time>2022-06-02T07:57:02.000Z</time>
      </trkpt>
      <trkpt lat="42.92296" lon="1.12755">
        <ele>842.7</ele>
        <time>2022-06-02T07:57:07.000Z</time>
      </trkpt>
      <trkpt lat="42.92296" lon="1.12742">
        <ele>843.7</ele>
        <time>2022-06-02T07:57:12.000Z</time>
      </trkpt>
      <trkpt lat="42.92294" lon="1.12729">
        <ele>844.4</ele>
        <time>2022-06-02T07:57:17.000Z</time>
      </trkpt>
      <trkpt lat="42.9229" lon="1.12718">
        <ele>845</ele>
        <time>2022-06-02T07:57:22.000Z</time>
      </trkpt>
      <trkpt lat="42.92284" lon="1.12707">
        <ele>845.3</ele>
        <time>2022-06-02T07:57:27.000Z</time>
      </trkpt>
      <trkpt lat="42.92278" lon="1.12696">
        <ele>845.2</ele>
        <time>2022-06-02T07:57:32.000Z</time>
      </trkpt>
      <trkpt lat="42.92273" lon="1.12686">
        <ele>845.2</ele>
        <time>2022-06-02T07:57:37.000Z</time>
      </trkpt>
      <trkpt lat="42.92276" lon="1.12674">
        <ele>846.1</ele>
        <time>2022-06-02T07:57:42.000Z</time>
      </trkpt>
      <trkpt lat="42.92284" lon="1.12669">
        <ele>846.4</ele>
        <time>2022-06-02T07:57:47.000Z</time>
      </trkpt>
      <trkpt lat="42.92294" lon="1.12669">
        <ele>847.4</ele>
        <time>2022-06-02T07:57:52.000Z</time>
      </trkpt>
      <trkpt lat="42.92304" lon="1.12672">
        <ele>848.4</ele>
        <time>2022-06-02T07:57:57.000Z</time>
      </trkpt>
      <trkpt lat="42.92314" lon="1.12673">
        <ele>849</ele>
        <time>2022-06-02T07:58:02.000Z</time>
      </trkpt>
      <trkpt lat="42.92323" lon="1.12677">
        <ele>850</ele>
        <time>2022-06-02T07:58:08.000Z</time>
      </trkpt>
      <trkpt lat="42.92324" lon="1.12676">
        <ele>850.7</ele>
        <time>2022-06-02T07:58:12.000Z</time>
      </trkpt>
      <trkpt lat="42.92325" lon="1.12676">
        <ele>850.7</ele>
        <time>2022-06-02T07:58:15.000Z</time>
      </trkpt>
      <trkpt lat="42.92324" lon="1.12676">
        <ele>850.9</ele>
        <time>2022-06-02T07:58:18.000Z</time>
      </trkpt>
      <trkpt lat="42.92325" lon="1.12676">
        <ele>851</ele>
        <time>2022-06-02T07:58:20.000Z</time>
      </trkpt>
      <trkpt lat="42.92324" lon="1.12676">
        <ele>860.3</ele>
        <time>2022-06-02T08:02:44.000Z</time>
      </trkpt>
      <trkpt lat="42.92325" lon="1.12676">
        <ele>859.2</ele>
        <time>2022-06-02T08:03:58.000Z</time>
      </trkpt>
      <trkpt lat="42.92325" lon="1.12675">
        <ele>858.5</ele>
        <time>2022-06-02T08:04:44.000Z</time>
      </trkpt>
      <trkpt lat="42.92325" lon="1.12676">
        <ele>860.4</ele>
        <time>2022-06-02T08:08:27.000Z</time>
      </trkpt>
      <trkpt lat="42.92328" lon="1.12673">
        <ele>859.3</ele>
        <time>2022-06-02T08:08:38.000Z</time>
      </trkpt>
      <trkpt lat="42.92329" lon="1.12673">
        <ele>858.2</ele>
        <time>2022-06-02T08:08:46.000Z</time>
      </trkpt>
      <trkpt lat="42.92336" lon="1.12683">
        <ele>856.1</ele>
        <time>2022-06-02T08:08:54.000Z</time>
      </trkpt>
      <trkpt lat="42.92343" lon="1.12693">
        <ele>855.6</ele>
        <time>2022-06-02T08:09:00.000Z</time>
      </trkpt>
      <trkpt lat="42.92353" lon="1.12698">
        <ele>855</ele>
        <time>2022-06-02T08:09:05.000Z</time>
      </trkpt>
      <trkpt lat="42.92361" lon="1.12704">
        <ele>855</ele>
        <time>2022-06-02T08:09:11.000Z</time>
      </trkpt>
      <trkpt lat="42.92369" lon="1.12711">
        <ele>854.8</ele>
        <time>2022-06-02T08:09:16.000Z</time>
      </trkpt>
      <trkpt lat="42.92377" lon="1.1272">
        <ele>855.7</ele>
        <time>2022-06-02T08:09:22.000Z</time>
      </trkpt>
      <trkpt lat="42.92386" lon="1.12727">
        <ele>856.6</ele>
        <time>2022-06-02T08:09:28.000Z</time>
      </trkpt>
      <trkpt lat="42.92394" lon="1.12735">
        <ele>857.1</ele>
        <time>2022-06-02T08:09:34.000Z</time>
      </trkpt>
      <trkpt lat="42.92402" lon="1.12744">
        <ele>858.5</ele>
        <time>2022-06-02T08:09:40.000Z</time>
      </trkpt>
      <trkpt lat="42.92407" lon="1.12755">
        <ele>859.4</ele>
        <time>2022-06-02T08:09:46.000Z</time>
      </trkpt>
      <trkpt lat="42.92411" lon="1.12767">
        <ele>860.9</ele>
        <time>2022-06-02T08:09:52.000Z</time>
      </trkpt>
      <trkpt lat="42.92413" lon="1.12779">
        <ele>862.6</ele>
        <time>2022-06-02T08:09:58.000Z</time>
      </trkpt>
      <trkpt lat="42.92416" lon="1.12791">
        <ele>864</ele>
        <time>2022-06-02T08:10:04.000Z</time>
      </trkpt>
      <trkpt lat="42.92419" lon="1.12804">
        <ele>866.1</ele>
        <time>2022-06-02T08:10:11.000Z</time>
      </trkpt>
      <trkpt lat="42.92423" lon="1.12816">
        <ele>868</ele>
        <time>2022-06-02T08:10:18.000Z</time>
      </trkpt>
      <trkpt lat="42.92426" lon="1.12828">
        <ele>869.6</ele>
        <time>2022-06-02T08:10:24.000Z</time>
      </trkpt>
      <trkpt lat="42.9243" lon="1.1284">
        <ele>871.3</ele>
        <time>2022-06-02T08:10:30.000Z</time>
      </trkpt>
      <trkpt lat="42.92432" lon="1.12852">
        <ele>873</ele>
        <time>2022-06-02T08:10:36.000Z</time>
      </trkpt>
      <trkpt lat="42.92432" lon="1.12864">
        <ele>874.2</ele>
        <time>2022-06-02T08:10:42.000Z</time>
      </trkpt>
      <trkpt lat="42.9243" lon="1.12877">
        <ele>875.7</ele>
        <time>2022-06-02T08:10:48.000Z</time>
      </trkpt>
      <trkpt lat="42.92431" lon="1.12889">
        <ele>876.3</ele>
        <time>2022-06-02T08:10:54.000Z</time>
      </trkpt>
      <trkpt lat="42.92433" lon="1.12902">
        <ele>877.6</ele>
        <time>2022-06-02T08:11:00.000Z</time>
      </trkpt>
      <trkpt lat="42.92436" lon="1.12913">
        <ele>878.8</ele>
        <time>2022-06-02T08:11:06.000Z</time>
      </trkpt>
      <trkpt lat="42.9244" lon="1.12926">
        <ele>879.9</ele>
        <time>2022-06-02T08:11:12.000Z</time>
      </trkpt>
      <trkpt lat="42.92443" lon="1.12939">
        <ele>880.9</ele>
        <time>2022-06-02T08:11:18.000Z</time>
      </trkpt>
      <trkpt lat="42.92446" lon="1.12952">
        <ele>881.6</ele>
        <time>2022-06-02T08:11:24.000Z</time>
      </trkpt>
      <trkpt lat="42.9245" lon="1.12965">
        <ele>882.3</ele>
        <time>2022-06-02T08:11:30.000Z</time>
      </trkpt>
      <trkpt lat="42.92453" lon="1.12978">
        <ele>883.1</ele>
        <time>2022-06-02T08:11:36.000Z</time>
      </trkpt>
      <trkpt lat="42.92456" lon="1.1299">
        <ele>883.3</ele>
        <time>2022-06-02T08:11:42.000Z</time>
      </trkpt>
      <trkpt lat="42.9246" lon="1.13003">
        <ele>884.2</ele>
        <time>2022-06-02T08:11:48.000Z</time>
      </trkpt>
      <trkpt lat="42.92465" lon="1.13015">
        <ele>885.1</ele>
        <time>2022-06-02T08:11:54.000Z</time>
      </trkpt>
      <trkpt lat="42.92471" lon="1.13026">
        <ele>885.9</ele>
        <time>2022-06-02T08:12:00.000Z</time>
      </trkpt>
      <trkpt lat="42.92476" lon="1.13037">
        <ele>886.8</ele>
        <time>2022-06-02T08:12:06.000Z</time>
      </trkpt>
      <trkpt lat="42.92482" lon="1.13048">
        <ele>887.9</ele>
        <time>2022-06-02T08:12:12.000Z</time>
      </trkpt>
      <trkpt lat="42.9249" lon="1.13057">
        <ele>889.5</ele>
        <time>2022-06-02T08:12:18.000Z</time>
      </trkpt>
      <trkpt lat="42.92498" lon="1.13061">
        <ele>890.5</ele>
        <time>2022-06-02T08:12:24.000Z</time>
      </trkpt>
      <trkpt lat="42.92507" lon="1.13066">
        <ele>891.9</ele>
        <time>2022-06-02T08:12:30.000Z</time>
      </trkpt>
      <trkpt lat="42.92515" lon="1.13072">
        <ele>893.2</ele>
        <time>2022-06-02T08:12:36.000Z</time>
      </trkpt>
      <trkpt lat="42.92524" lon="1.13079">
        <ele>894.5</ele>
        <time>2022-06-02T08:12:42.000Z</time>
      </trkpt>
      <trkpt lat="42.92533" lon="1.13085">
        <ele>896.1</ele>
        <time>2022-06-02T08:12:48.000Z</time>
      </trkpt>
      <trkpt lat="42.92543" lon="1.1309">
        <ele>896.8</ele>
        <time>2022-06-02T08:12:54.000Z</time>
      </trkpt>
      <trkpt lat="42.92553" lon="1.13095">
        <ele>898</ele>
        <time>2022-06-02T08:13:00.000Z</time>
      </trkpt>
      <trkpt lat="42.92562" lon="1.131">
        <ele>899.1</ele>
        <time>2022-06-02T08:13:06.000Z</time>
      </trkpt>
      <trkpt lat="42.92571" lon="1.13104">
        <ele>900.5</ele>
        <time>2022-06-02T08:13:12.000Z</time>
      </trkpt>
      <trkpt lat="42.92581" lon="1.13108">
        <ele>902.2</ele>
        <time>2022-06-02T08:13:18.000Z</time>
      </trkpt>
      <trkpt lat="42.9259" lon="1.1311">
        <ele>903.6</ele>
        <time>2022-06-02T08:13:24.000Z</time>
      </trkpt>
      <trkpt lat="42.92601" lon="1.13111">
        <ele>905.4</ele>
        <time>2022-06-02T08:13:30.000Z</time>
      </trkpt>
      <trkpt lat="42.92611" lon="1.13113">
        <ele>907.4</ele>
        <time>2022-06-02T08:13:36.000Z</time>
      </trkpt>
      <trkpt lat="42.9262" lon="1.13115">
        <ele>909.2</ele>
        <time>2022-06-02T08:13:42.000Z</time>
      </trkpt>
      <trkpt lat="42.9263" lon="1.13118">
        <ele>911.8</ele>
        <time>2022-06-02T08:13:48.000Z</time>
      </trkpt>
      <trkpt lat="42.9264" lon="1.13118">
        <ele>914.4</ele>
        <time>2022-06-02T08:13:55.000Z</time>
      </trkpt>
      <trkpt lat="42.92651" lon="1.13118">
        <ele>917.1</ele>
        <time>2022-06-02T08:14:01.000Z</time>
      </trkpt>
      <trkpt lat="42.92661" lon="1.13118">
        <ele>919.6</ele>
        <time>2022-06-02T08:14:07.000Z</time>
      </trkpt>
      <trkpt lat="42.9267" lon="1.13117">
        <ele>922.9</ele>
        <time>2022-06-02T08:14:13.000Z</time>
      </trkpt>
      <trkpt lat="42.92679" lon="1.13116">
        <ele>925.9</ele>
        <time>2022-06-02T08:14:19.000Z</time>
      </trkpt>
      <trkpt lat="42.92679" lon="1.13129">
        <ele>931.7</ele>
        <time>2022-06-02T08:14:33.000Z</time>
      </trkpt>
      <trkpt lat="42.92672" lon="1.13136">
        <ele>933.7</ele>
        <time>2022-06-02T08:14:39.000Z</time>
      </trkpt>
      <trkpt lat="42.92664" lon="1.13143">
        <ele>936</ele>
        <time>2022-06-02T08:14:45.000Z</time>
      </trkpt>
      <trkpt lat="42.92657" lon="1.13152">
        <ele>938.5</ele>
        <time>2022-06-02T08:14:51.000Z</time>
      </trkpt>
      <trkpt lat="42.9265" lon="1.13161">
        <ele>941.1</ele>
        <time>2022-06-02T08:14:57.000Z</time>
      </trkpt>
      <trkpt lat="42.92642" lon="1.13169">
        <ele>943.8</ele>
        <time>2022-06-02T08:15:04.000Z</time>
      </trkpt>
      <trkpt lat="42.92634" lon="1.13178">
        <ele>946.5</ele>
        <time>2022-06-02T08:15:11.000Z</time>
      </trkpt>
      <trkpt lat="42.92626" lon="1.13184">
        <ele>948.5</ele>
        <time>2022-06-02T08:15:17.000Z</time>
      </trkpt>
      <trkpt lat="42.92618" lon="1.1319">
        <ele>949.9</ele>
        <time>2022-06-02T08:15:23.000Z</time>
      </trkpt>
      <trkpt lat="42.92609" lon="1.13197">
        <ele>950.8</ele>
        <time>2022-06-02T08:15:29.000Z</time>
      </trkpt>
      <trkpt lat="42.926" lon="1.13204">
        <ele>951.7</ele>
        <time>2022-06-02T08:15:35.000Z</time>
      </trkpt>
      <trkpt lat="42.92591" lon="1.13211">
        <ele>953</ele>
        <time>2022-06-02T08:15:41.000Z</time>
      </trkpt>
      <trkpt lat="42.92584" lon="1.13217">
        <ele>954.5</ele>
        <time>2022-06-02T08:15:47.000Z</time>
      </trkpt>
      <trkpt lat="42.92576" lon="1.13225">
        <ele>955</ele>
        <time>2022-06-02T08:15:53.000Z</time>
      </trkpt>
      <trkpt lat="42.92568" lon="1.13234">
        <ele>956</ele>
        <time>2022-06-02T08:16:00.000Z</time>
      </trkpt>
      <trkpt lat="42.92564" lon="1.13245">
        <ele>956.9</ele>
        <time>2022-06-02T08:16:05.000Z</time>
      </trkpt>
      <trkpt lat="42.92559" lon="1.13257">
        <ele>958.8</ele>
        <time>2022-06-02T08:16:12.000Z</time>
      </trkpt>
      <trkpt lat="42.92554" lon="1.13268">
        <ele>961.2</ele>
        <time>2022-06-02T08:16:19.000Z</time>
      </trkpt>
      <trkpt lat="42.92549" lon="1.13279">
        <ele>963.7</ele>
        <time>2022-06-02T08:16:26.000Z</time>
      </trkpt>
      <trkpt lat="42.92545" lon="1.13292">
        <ele>966.6</ele>
        <time>2022-06-02T08:16:33.000Z</time>
      </trkpt>
      <trkpt lat="42.9254" lon="1.13303">
        <ele>969</ele>
        <time>2022-06-02T08:16:39.000Z</time>
      </trkpt>
      <trkpt lat="42.92537" lon="1.13316">
        <ele>971.1</ele>
        <time>2022-06-02T08:16:46.000Z</time>
      </trkpt>
      <trkpt lat="42.92535" lon="1.1333">
        <ele>973.5</ele>
        <time>2022-06-02T08:16:52.000Z</time>
      </trkpt>
      <trkpt lat="42.92533" lon="1.13342">
        <ele>976.3</ele>
        <time>2022-06-02T08:16:58.000Z</time>
      </trkpt>
      <trkpt lat="42.92529" lon="1.13354">
        <ele>978.9</ele>
        <time>2022-06-02T08:17:05.000Z</time>
      </trkpt>
      <trkpt lat="42.92525" lon="1.13367">
        <ele>982.1</ele>
        <time>2022-06-02T08:17:12.000Z</time>
      </trkpt>
      <trkpt lat="42.92523" lon="1.13381">
        <ele>984.4</ele>
        <time>2022-06-02T08:17:19.000Z</time>
      </trkpt>
      <trkpt lat="42.92518" lon="1.13393">
        <ele>986.1</ele>
        <time>2022-06-02T08:17:25.000Z</time>
      </trkpt>
      <trkpt lat="42.92513" lon="1.13404">
        <ele>988.4</ele>
        <time>2022-06-02T08:17:31.000Z</time>
      </trkpt>
      <trkpt lat="42.92508" lon="1.13416">
        <ele>990</ele>
        <time>2022-06-02T08:17:37.000Z</time>
      </trkpt>
      <trkpt lat="42.92505" lon="1.1343">
        <ele>991.1</ele>
        <time>2022-06-02T08:17:43.000Z</time>
      </trkpt>
      <trkpt lat="42.92503" lon="1.13443">
        <ele>993</ele>
        <time>2022-06-02T08:17:49.000Z</time>
      </trkpt>
      <trkpt lat="42.92501" lon="1.13456">
        <ele>994.6</ele>
        <time>2022-06-02T08:17:56.000Z</time>
      </trkpt>
      <trkpt lat="42.92499" lon="1.1347">
        <ele>995.9</ele>
        <time>2022-06-02T08:18:02.000Z</time>
      </trkpt>
      <trkpt lat="42.92496" lon="1.13483">
        <ele>997</ele>
        <time>2022-06-02T08:18:09.000Z</time>
      </trkpt>
      <trkpt lat="42.92499" lon="1.13496">
        <ele>998.8</ele>
        <time>2022-06-02T08:18:16.000Z</time>
      </trkpt>
      <trkpt lat="42.92508" lon="1.13494">
        <ele>999.8</ele>
        <time>2022-06-02T08:18:23.000Z</time>
      </trkpt>
      <trkpt lat="42.92518" lon="1.13491">
        <ele>1001</ele>
        <time>2022-06-02T08:18:29.000Z</time>
      </trkpt>
      <trkpt lat="42.92527" lon="1.13488">
        <ele>1001.3</ele>
        <time>2022-06-02T08:18:35.000Z</time>
      </trkpt>
      <trkpt lat="42.92536" lon="1.13483">
        <ele>1002.1</ele>
        <time>2022-06-02T08:18:42.000Z</time>
      </trkpt>
      <trkpt lat="42.92543" lon="1.13474">
        <ele>1003.3</ele>
        <time>2022-06-02T08:18:48.000Z</time>
      </trkpt>
      <trkpt lat="42.92553" lon="1.1347">
        <ele>1005.5</ele>
        <time>2022-06-02T08:18:55.000Z</time>
      </trkpt>
      <trkpt lat="42.92563" lon="1.13467">
        <ele>1009.1</ele>
        <time>2022-06-02T08:19:01.000Z</time>
      </trkpt>
      <trkpt lat="42.92564" lon="1.13466">
        <ele>1011.4</ele>
        <time>2022-06-02T08:19:05.000Z</time>
      </trkpt>
      <trkpt lat="42.92572" lon="1.13459">
        <ele>1022</ele>
        <time>2022-06-02T08:19:32.000Z</time>
      </trkpt>
      <trkpt lat="42.92581" lon="1.13457">
        <ele>1024.6</ele>
        <time>2022-06-02T08:19:49.000Z</time>
      </trkpt>
      <trkpt lat="42.92587" lon="1.13452">
        <ele>1025.3</ele>
        <time>2022-06-02T08:20:01.000Z</time>
      </trkpt>
      <trkpt lat="42.92588" lon="1.13452">
        <ele>1024.6</ele>
        <time>2022-06-02T08:20:14.000Z</time>
      </trkpt>
      <trkpt lat="42.92597" lon="1.13449">
        <ele>1016.2</ele>
        <time>2022-06-02T08:22:06.000Z</time>
      </trkpt>
      <trkpt lat="42.92605" lon="1.13451">
        <ele>1017.7</ele>
        <time>2022-06-02T08:22:13.000Z</time>
      </trkpt>
      <trkpt lat="42.92606" lon="1.13451">
        <ele>1018.9</ele>
        <time>2022-06-02T08:22:19.000Z</time>
      </trkpt>
      <trkpt lat="42.92607" lon="1.13451">
        <ele>1019.7</ele>
        <time>2022-06-02T08:22:30.000Z</time>
      </trkpt>
      <trkpt lat="42.92618" lon="1.13449">
        <ele>1019.8</ele>
        <time>2022-06-02T08:22:47.000Z</time>
      </trkpt>
      <trkpt lat="42.92628" lon="1.13447">
        <ele>1020.6</ele>
        <time>2022-06-02T08:22:54.000Z</time>
      </trkpt>
      <trkpt lat="42.92637" lon="1.13448">
        <ele>1022.1</ele>
        <time>2022-06-02T08:23:00.000Z</time>
      </trkpt>
      <trkpt lat="42.92647" lon="1.13452">
        <ele>1024</ele>
        <time>2022-06-02T08:23:06.000Z</time>
      </trkpt>
      <trkpt lat="42.92656" lon="1.13454">
        <ele>1026.3</ele>
        <time>2022-06-02T08:23:12.000Z</time>
      </trkpt>
      <trkpt lat="42.92664" lon="1.1346">
        <ele>1029.5</ele>
        <time>2022-06-02T08:23:19.000Z</time>
      </trkpt>
      <trkpt lat="42.92673" lon="1.13466">
        <ele>1032.5</ele>
        <time>2022-06-02T08:23:26.000Z</time>
      </trkpt>
      <trkpt lat="42.92683" lon="1.13467">
        <ele>1035.2</ele>
        <time>2022-06-02T08:23:33.000Z</time>
      </trkpt>
      <trkpt lat="42.92693" lon="1.13464">
        <ele>1037</ele>
        <time>2022-06-02T08:23:40.000Z</time>
      </trkpt>
      <trkpt lat="42.92702" lon="1.13462">
        <ele>1039</ele>
        <time>2022-06-02T08:23:46.000Z</time>
      </trkpt>
      <trkpt lat="42.92711" lon="1.13459">
        <ele>1040.3</ele>
        <time>2022-06-02T08:23:52.000Z</time>
      </trkpt>
      <trkpt lat="42.92721" lon="1.13453">
        <ele>1042.2</ele>
        <time>2022-06-02T08:23:58.000Z</time>
      </trkpt>
      <trkpt lat="42.9273" lon="1.13449">
        <ele>1043.3</ele>
        <time>2022-06-02T08:24:03.000Z</time>
      </trkpt>
      <trkpt lat="42.92739" lon="1.13444">
        <ele>1045.5</ele>
        <time>2022-06-02T08:24:08.000Z</time>
      </trkpt>
      <trkpt lat="42.92747" lon="1.13438">
        <ele>1046.7</ele>
        <time>2022-06-02T08:24:13.000Z</time>
      </trkpt>
      <trkpt lat="42.92755" lon="1.13434">
        <ele>1048.3</ele>
        <time>2022-06-02T08:24:18.000Z</time>
      </trkpt>
      <trkpt lat="42.92763" lon="1.13428">
        <ele>1049.2</ele>
        <time>2022-06-02T08:24:23.000Z</time>
      </trkpt>
      <trkpt lat="42.92771" lon="1.13422">
        <ele>1051.3</ele>
        <time>2022-06-02T08:24:28.000Z</time>
      </trkpt>
      <trkpt lat="42.9278" lon="1.13417">
        <ele>1053.1</ele>
        <time>2022-06-02T08:24:35.000Z</time>
      </trkpt>
      <trkpt lat="42.92775" lon="1.13427">
        <ele>1055.5</ele>
        <time>2022-06-02T08:24:43.000Z</time>
      </trkpt>
      <trkpt lat="42.92769" lon="1.13437">
        <ele>1057.3</ele>
        <time>2022-06-02T08:24:48.000Z</time>
      </trkpt>
      <trkpt lat="42.92768" lon="1.1345">
        <ele>1059.6</ele>
        <time>2022-06-02T08:24:53.000Z</time>
      </trkpt>
      <trkpt lat="42.92767" lon="1.13462">
        <ele>1061.8</ele>
        <time>2022-06-02T08:24:58.000Z</time>
      </trkpt>
      <trkpt lat="42.92766" lon="1.13474">
        <ele>1064.2</ele>
        <time>2022-06-02T08:25:03.000Z</time>
      </trkpt>
      <trkpt lat="42.92765" lon="1.13487">
        <ele>1066.9</ele>
        <time>2022-06-02T08:25:08.000Z</time>
      </trkpt>
      <trkpt lat="42.92764" lon="1.13501">
        <ele>1070</ele>
        <time>2022-06-02T08:25:14.000Z</time>
      </trkpt>
      <trkpt lat="42.92763" lon="1.13514">
        <ele>1072.5</ele>
        <time>2022-06-02T08:25:19.000Z</time>
      </trkpt>
      <trkpt lat="42.92763" lon="1.13527">
        <ele>1075.1</ele>
        <time>2022-06-02T08:25:24.000Z</time>
      </trkpt>
      <trkpt lat="42.92763" lon="1.13541">
        <ele>1078.1</ele>
        <time>2022-06-02T08:25:30.000Z</time>
      </trkpt>
      <trkpt lat="42.92763" lon="1.13555">
        <ele>1081</ele>
        <time>2022-06-02T08:25:36.000Z</time>
      </trkpt>
      <trkpt lat="42.92764" lon="1.1357">
        <ele>1083.8</ele>
        <time>2022-06-02T08:25:42.000Z</time>
      </trkpt>
      <trkpt lat="42.9277" lon="1.13574">
        <ele>1087.1</ele>
        <time>2022-06-02T08:25:49.000Z</time>
      </trkpt>
      <trkpt lat="42.92771" lon="1.13573">
        <ele>1087.5</ele>
        <time>2022-06-02T08:25:51.000Z</time>
      </trkpt>
      <trkpt lat="42.92779" lon="1.13567">
        <ele>1089.6</ele>
        <time>2022-06-02T08:25:56.000Z</time>
      </trkpt>
      <trkpt lat="42.92787" lon="1.13561">
        <ele>1093.2</ele>
        <time>2022-06-02T08:26:03.000Z</time>
      </trkpt>
      <trkpt lat="42.92797" lon="1.13557">
        <ele>1097</ele>
        <time>2022-06-02T08:26:10.000Z</time>
      </trkpt>
      <trkpt lat="42.92806" lon="1.13551">
        <ele>1099.8</ele>
        <time>2022-06-02T08:26:16.000Z</time>
      </trkpt>
      <trkpt lat="42.92816" lon="1.13552">
        <ele>1104.3</ele>
        <time>2022-06-02T08:26:24.000Z</time>
      </trkpt>
      <trkpt lat="42.92826" lon="1.13553">
        <ele>1108</ele>
        <time>2022-06-02T08:26:30.000Z</time>
      </trkpt>
      <trkpt lat="42.92834" lon="1.13559">
        <ele>1111.1</ele>
        <time>2022-06-02T08:26:36.000Z</time>
      </trkpt>
      <trkpt lat="42.92842" lon="1.13566">
        <ele>1114.1</ele>
        <time>2022-06-02T08:26:42.000Z</time>
      </trkpt>
      <trkpt lat="42.92849" lon="1.13574">
        <ele>1116.9</ele>
        <time>2022-06-02T08:26:48.000Z</time>
      </trkpt>
      <trkpt lat="42.92858" lon="1.13569">
        <ele>1119.6</ele>
        <time>2022-06-02T08:26:54.000Z</time>
      </trkpt>
      <trkpt lat="42.92866" lon="1.1356">
        <ele>1122.5</ele>
        <time>2022-06-02T08:27:01.000Z</time>
      </trkpt>
      <trkpt lat="42.92875" lon="1.13558">
        <ele>1125.1</ele>
        <time>2022-06-02T08:27:07.000Z</time>
      </trkpt>
      <trkpt lat="42.92885" lon="1.1356">
        <ele>1127.4</ele>
        <time>2022-06-02T08:27:13.000Z</time>
      </trkpt>
      <trkpt lat="42.92894" lon="1.13558">
        <ele>1129.5</ele>
        <time>2022-06-02T08:27:19.000Z</time>
      </trkpt>
      <trkpt lat="42.92902" lon="1.13553">
        <ele>1131.3</ele>
        <time>2022-06-02T08:27:25.000Z</time>
      </trkpt>
      <trkpt lat="42.9291" lon="1.13545">
        <ele>1133.2</ele>
        <time>2022-06-02T08:27:30.000Z</time>
      </trkpt>
      <trkpt lat="42.92919" lon="1.13541">
        <ele>1134.3</ele>
        <time>2022-06-02T08:27:35.000Z</time>
      </trkpt>
      <trkpt lat="42.92929" lon="1.13541">
        <ele>1134.5</ele>
        <time>2022-06-02T08:27:39.000Z</time>
      </trkpt>
      <trkpt lat="42.92938" lon="1.1355">
        <ele>1135.4</ele>
        <time>2022-06-02T08:27:43.000Z</time>
      </trkpt>
      <trkpt lat="42.92946" lon="1.1356">
        <ele>1136</ele>
        <time>2022-06-02T08:27:47.000Z</time>
      </trkpt>
      <trkpt lat="42.92955" lon="1.13568">
        <ele>1137.2</ele>
        <time>2022-06-02T08:27:52.000Z</time>
      </trkpt>
      <trkpt lat="42.92962" lon="1.13577">
        <ele>1138.4</ele>
        <time>2022-06-02T08:27:57.000Z</time>
      </trkpt>
      <trkpt lat="42.9297" lon="1.13587">
        <ele>1139.9</ele>
        <time>2022-06-02T08:28:03.000Z</time>
      </trkpt>
      <trkpt lat="42.92978" lon="1.13595">
        <ele>1141.1</ele>
        <time>2022-06-02T08:28:08.000Z</time>
      </trkpt>
      <trkpt lat="42.92987" lon="1.13604">
        <ele>1142.3</ele>
        <time>2022-06-02T08:28:13.000Z</time>
      </trkpt>
      <trkpt lat="42.92994" lon="1.13614">
        <ele>1143.8</ele>
        <time>2022-06-02T08:28:17.000Z</time>
      </trkpt>
      <trkpt lat="42.92999" lon="1.13626">
        <ele>1145.3</ele>
        <time>2022-06-02T08:28:22.000Z</time>
      </trkpt>
      <trkpt lat="42.93005" lon="1.13635">
        <ele>1146.5</ele>
        <time>2022-06-02T08:28:26.000Z</time>
      </trkpt>
      <trkpt lat="42.93014" lon="1.13643">
        <ele>1148.8</ele>
        <time>2022-06-02T08:28:31.000Z</time>
      </trkpt>
      <trkpt lat="42.93024" lon="1.13643">
        <ele>1150.3</ele>
        <time>2022-06-02T08:28:37.000Z</time>
      </trkpt>
      <trkpt lat="42.9303" lon="1.13633">
        <ele>1152.2</ele>
        <time>2022-06-02T08:28:45.000Z</time>
      </trkpt>
      <trkpt lat="42.93037" lon="1.13625">
        <ele>1153.8</ele>
        <time>2022-06-02T08:28:52.000Z</time>
      </trkpt>
      <trkpt lat="42.93044" lon="1.13614">
        <ele>1155.8</ele>
        <time>2022-06-02T08:29:01.000Z</time>
      </trkpt>
      <trkpt lat="42.9305" lon="1.13605">
        <ele>1156.9</ele>
        <time>2022-06-02T08:29:07.000Z</time>
      </trkpt>
      <trkpt lat="42.93058" lon="1.13598">
        <ele>1158.4</ele>
        <time>2022-06-02T08:29:13.000Z</time>
      </trkpt>
      <trkpt lat="42.93068" lon="1.13595">
        <ele>1159.9</ele>
        <time>2022-06-02T08:29:20.000Z</time>
      </trkpt>
      <trkpt lat="42.93077" lon="1.13595">
        <ele>1161.5</ele>
        <time>2022-06-02T08:29:26.000Z</time>
      </trkpt>
      <trkpt lat="42.93087" lon="1.13592">
        <ele>1162.3</ele>
        <time>2022-06-02T08:29:32.000Z</time>
      </trkpt>
      <trkpt lat="42.93095" lon="1.13584">
        <ele>1163.3</ele>
        <time>2022-06-02T08:29:38.000Z</time>
      </trkpt>
      <trkpt lat="42.93099" lon="1.13573">
        <ele>1163.7</ele>
        <time>2022-06-02T08:29:44.000Z</time>
      </trkpt>
      <trkpt lat="42.93105" lon="1.13562">
        <ele>1165.3</ele>
        <time>2022-06-02T08:29:54.000Z</time>
      </trkpt>
      <trkpt lat="42.93112" lon="1.13552">
        <ele>1166.4</ele>
        <time>2022-06-02T08:30:01.000Z</time>
      </trkpt>
      <trkpt lat="42.93121" lon="1.13545">
        <ele>1167.3</ele>
        <time>2022-06-02T08:30:08.000Z</time>
      </trkpt>
      <trkpt lat="42.9313" lon="1.13543">
        <ele>1167.5</ele>
        <time>2022-06-02T08:30:14.000Z</time>
      </trkpt>
      <trkpt lat="42.93139" lon="1.13545">
        <ele>1168.1</ele>
        <time>2022-06-02T08:30:21.000Z</time>
      </trkpt>
      <trkpt lat="42.93148" lon="1.1355">
        <ele>1168.9</ele>
        <time>2022-06-02T08:30:30.000Z</time>
      </trkpt>
      <trkpt lat="42.93158" lon="1.13554">
        <ele>1169.4</ele>
        <time>2022-06-02T08:30:37.000Z</time>
      </trkpt>
      <trkpt lat="42.93167" lon="1.13558">
        <ele>1169.7</ele>
        <time>2022-06-02T08:30:43.000Z</time>
      </trkpt>
      <trkpt lat="42.93176" lon="1.13565">
        <ele>1171.1</ele>
        <time>2022-06-02T08:30:48.000Z</time>
      </trkpt>
      <trkpt lat="42.93186" lon="1.13569">
        <ele>1172</ele>
        <time>2022-06-02T08:30:55.000Z</time>
      </trkpt>
      <trkpt lat="42.93195" lon="1.13575">
        <ele>1173</ele>
        <time>2022-06-02T08:31:01.000Z</time>
      </trkpt>
      <trkpt lat="42.93203" lon="1.13582">
        <ele>1174.1</ele>
        <time>2022-06-02T08:31:06.000Z</time>
      </trkpt>
      <trkpt lat="42.93211" lon="1.13588">
        <ele>1175.4</ele>
        <time>2022-06-02T08:31:11.000Z</time>
      </trkpt>
      <trkpt lat="42.93219" lon="1.13596">
        <ele>1177.3</ele>
        <time>2022-06-02T08:31:17.000Z</time>
      </trkpt>
      <trkpt lat="42.93228" lon="1.13603">
        <ele>1178.7</ele>
        <time>2022-06-02T08:31:24.000Z</time>
      </trkpt>
      <trkpt lat="42.93236" lon="1.13613">
        <ele>1180.2</ele>
        <time>2022-06-02T08:31:30.000Z</time>
      </trkpt>
      <trkpt lat="42.93242" lon="1.13624">
        <ele>1181.5</ele>
        <time>2022-06-02T08:31:36.000Z</time>
      </trkpt>
      <trkpt lat="42.93244" lon="1.13636">
        <ele>1182.2</ele>
        <time>2022-06-02T08:31:41.000Z</time>
      </trkpt>
      <trkpt lat="42.93248" lon="1.13648">
        <ele>1182.8</ele>
        <time>2022-06-02T08:31:46.000Z</time>
      </trkpt>
      <trkpt lat="42.9325" lon="1.13661">
        <ele>1183.6</ele>
        <time>2022-06-02T08:31:51.000Z</time>
      </trkpt>
      <trkpt lat="42.9325" lon="1.13674">
        <ele>1184</ele>
        <time>2022-06-02T08:31:56.000Z</time>
      </trkpt>
      <trkpt lat="42.93254" lon="1.13686">
        <ele>1184.1</ele>
        <time>2022-06-02T08:32:01.000Z</time>
      </trkpt>
      <trkpt lat="42.93257" lon="1.13697">
        <ele>1184.2</ele>
        <time>2022-06-02T08:32:06.000Z</time>
      </trkpt>
      <trkpt lat="42.93259" lon="1.13712">
        <ele>1184</ele>
        <time>2022-06-02T08:32:10.000Z</time>
      </trkpt>
      <trkpt lat="42.93257" lon="1.13725">
        <ele>1184.6</ele>
        <time>2022-06-02T08:32:14.000Z</time>
      </trkpt>
      <trkpt lat="42.93254" lon="1.13737">
        <ele>1184.8</ele>
        <time>2022-06-02T08:32:19.000Z</time>
      </trkpt>
      <trkpt lat="42.93252" lon="1.13751">
        <ele>1185.6</ele>
        <time>2022-06-02T08:32:25.000Z</time>
      </trkpt>
      <trkpt lat="42.9325" lon="1.13763">
        <ele>1186.5</ele>
        <time>2022-06-02T08:32:31.000Z</time>
      </trkpt>
      <trkpt lat="42.9325" lon="1.13776">
        <ele>1186.7</ele>
        <time>2022-06-02T08:32:36.000Z</time>
      </trkpt>
      <trkpt lat="42.93251" lon="1.13789">
        <ele>1187.7</ele>
        <time>2022-06-02T08:32:42.000Z</time>
      </trkpt>
      <trkpt lat="42.93254" lon="1.13802">
        <ele>1188.1</ele>
        <time>2022-06-02T08:32:48.000Z</time>
      </trkpt>
      <trkpt lat="42.93256" lon="1.13816">
        <ele>1188.8</ele>
        <time>2022-06-02T08:32:54.000Z</time>
      </trkpt>
      <trkpt lat="42.93261" lon="1.13829">
        <ele>1189.7</ele>
        <time>2022-06-02T08:33:00.000Z</time>
      </trkpt>
      <trkpt lat="42.93266" lon="1.1384">
        <ele>1190.2</ele>
        <time>2022-06-02T08:33:05.000Z</time>
      </trkpt>
      <trkpt lat="42.93273" lon="1.13851">
        <ele>1191.1</ele>
        <time>2022-06-02T08:33:12.000Z</time>
      </trkpt>
      <trkpt lat="42.93276" lon="1.13863">
        <ele>1191.6</ele>
        <time>2022-06-02T08:33:17.000Z</time>
      </trkpt>
      <trkpt lat="42.93276" lon="1.13877">
        <ele>1192.8</ele>
        <time>2022-06-02T08:33:22.000Z</time>
      </trkpt>
      <trkpt lat="42.93277" lon="1.1389">
        <ele>1193.8</ele>
        <time>2022-06-02T08:33:27.000Z</time>
      </trkpt>
      <trkpt lat="42.93271" lon="1.139">
        <ele>1194.3</ele>
        <time>2022-06-02T08:33:32.000Z</time>
      </trkpt>
      <trkpt lat="42.93264" lon="1.1391">
        <ele>1195.3</ele>
        <time>2022-06-02T08:33:37.000Z</time>
      </trkpt>
      <trkpt lat="42.93259" lon="1.13924">
        <ele>1195.9</ele>
        <time>2022-06-02T08:33:42.000Z</time>
      </trkpt>
      <trkpt lat="42.93261" lon="1.13938">
        <ele>1196.6</ele>
        <time>2022-06-02T08:33:47.000Z</time>
      </trkpt>
      <trkpt lat="42.93264" lon="1.13951">
        <ele>1197.3</ele>
        <time>2022-06-02T08:33:53.000Z</time>
      </trkpt>
      <trkpt lat="42.9327" lon="1.13962">
        <ele>1198.1</ele>
        <time>2022-06-02T08:33:59.000Z</time>
      </trkpt>
      <trkpt lat="42.9328" lon="1.13963">
        <ele>1197.7</ele>
        <time>2022-06-02T08:34:03.000Z</time>
      </trkpt>
      <trkpt lat="42.93289" lon="1.13969">
        <ele>1197.5</ele>
        <time>2022-06-02T08:34:09.000Z</time>
      </trkpt>
      <trkpt lat="42.93297" lon="1.13978">
        <ele>1197.7</ele>
        <time>2022-06-02T08:34:13.000Z</time>
      </trkpt>
      <trkpt lat="42.93305" lon="1.13987">
        <ele>1197.9</ele>
        <time>2022-06-02T08:34:16.000Z</time>
      </trkpt>
      <trkpt lat="42.93313" lon="1.13998">
        <ele>1198.2</ele>
        <time>2022-06-02T08:34:19.000Z</time>
      </trkpt>
      <trkpt lat="42.93321" lon="1.14006">
        <ele>1198.8</ele>
        <time>2022-06-02T08:34:22.000Z</time>
      </trkpt>
      <trkpt lat="42.93328" lon="1.14016">
        <ele>1198.8</ele>
        <time>2022-06-02T08:34:26.000Z</time>
      </trkpt>
      <trkpt lat="42.93334" lon="1.14025">
        <ele>1199.2</ele>
        <time>2022-06-02T08:34:30.000Z</time>
      </trkpt>
      <trkpt lat="42.93343" lon="1.14031">
        <ele>1199.6</ele>
        <time>2022-06-02T08:34:35.000Z</time>
      </trkpt>
      <trkpt lat="42.93352" lon="1.14038">
        <ele>1200.3</ele>
        <time>2022-06-02T08:34:40.000Z</time>
      </trkpt>
      <trkpt lat="42.93361" lon="1.14046">
        <ele>1200.6</ele>
        <time>2022-06-02T08:34:45.000Z</time>
      </trkpt>
      <trkpt lat="42.9337" lon="1.14052">
        <ele>1202</ele>
        <time>2022-06-02T08:34:51.000Z</time>
      </trkpt>
      <trkpt lat="42.93377" lon="1.1406">
        <ele>1202.9</ele>
        <time>2022-06-02T08:34:56.000Z</time>
      </trkpt>
      <trkpt lat="42.93384" lon="1.14071">
        <ele>1203.8</ele>
        <time>2022-06-02T08:35:02.000Z</time>
      </trkpt>
      <trkpt lat="42.93394" lon="1.1407">
        <ele>1205</ele>
        <time>2022-06-02T08:35:09.000Z</time>
      </trkpt>
      <trkpt lat="42.93403" lon="1.14067">
        <ele>1205.1</ele>
        <time>2022-06-02T08:35:14.000Z</time>
      </trkpt>
      <trkpt lat="42.93414" lon="1.14069">
        <ele>1206.8</ele>
        <time>2022-06-02T08:35:21.000Z</time>
      </trkpt>
      <trkpt lat="42.93424" lon="1.14071">
        <ele>1207.4</ele>
        <time>2022-06-02T08:35:26.000Z</time>
      </trkpt>
      <trkpt lat="42.93434" lon="1.1407">
        <ele>1208.5</ele>
        <time>2022-06-02T08:35:32.000Z</time>
      </trkpt>
      <trkpt lat="42.93443" lon="1.1407">
        <ele>1209.6</ele>
        <time>2022-06-02T08:35:38.000Z</time>
      </trkpt>
      <trkpt lat="42.93453" lon="1.14063">
        <ele>1210.3</ele>
        <time>2022-06-02T08:35:45.000Z</time>
      </trkpt>
      <trkpt lat="42.93462" lon="1.14062">
        <ele>1210.6</ele>
        <time>2022-06-02T08:35:50.000Z</time>
      </trkpt>
      <trkpt lat="42.93472" lon="1.14057">
        <ele>1211.1</ele>
        <time>2022-06-02T08:35:56.000Z</time>
      </trkpt>
      <trkpt lat="42.93481" lon="1.14049">
        <ele>1211.8</ele>
        <time>2022-06-02T08:36:01.000Z</time>
      </trkpt>
      <trkpt lat="42.93488" lon="1.14042">
        <ele>1212.3</ele>
        <time>2022-06-02T08:36:06.000Z</time>
      </trkpt>
      <trkpt lat="42.93498" lon="1.14041">
        <ele>1213.1</ele>
        <time>2022-06-02T08:36:13.000Z</time>
      </trkpt>
      <trkpt lat="42.93508" lon="1.14042">
        <ele>1214.3</ele>
        <time>2022-06-02T08:36:19.000Z</time>
      </trkpt>
      <trkpt lat="42.93517" lon="1.14039">
        <ele>1214.6</ele>
        <time>2022-06-02T08:36:24.000Z</time>
      </trkpt>
      <trkpt lat="42.93527" lon="1.14038">
        <ele>1215.7</ele>
        <time>2022-06-02T08:36:29.000Z</time>
      </trkpt>
      <trkpt lat="42.93536" lon="1.14034">
        <ele>1217.1</ele>
        <time>2022-06-02T08:36:35.000Z</time>
      </trkpt>
      <trkpt lat="42.93537" lon="1.14032">
        <ele>1217.1</ele>
        <time>2022-06-02T08:36:39.000Z</time>
      </trkpt>
      <trkpt lat="42.93537" lon="1.14031">
        <ele>1218.1</ele>
        <time>2022-06-02T08:36:43.000Z</time>
      </trkpt>
      <trkpt lat="42.93534" lon="1.14029">
        <ele>1218.3</ele>
        <time>2022-06-02T08:36:52.000Z</time>
      </trkpt>
      <trkpt lat="42.93534" lon="1.1403">
        <ele>1218.5</ele>
        <time>2022-06-02T08:36:57.000Z</time>
      </trkpt>
      <trkpt lat="42.93534" lon="1.14031">
        <ele>1218.2</ele>
        <time>2022-06-02T08:36:59.000Z</time>
      </trkpt>
      <trkpt lat="42.93535" lon="1.14031">
        <ele>1224</ele>
        <time>2022-06-02T08:46:19.000Z</time>
      </trkpt>
      <trkpt lat="42.93538" lon="1.14029">
        <ele>1225.8</ele>
        <time>2022-06-02T08:46:43.000Z</time>
      </trkpt>
      <trkpt lat="42.93539" lon="1.14029">
        <ele>1225.8</ele>
        <time>2022-06-02T08:46:45.000Z</time>
      </trkpt>
      <trkpt lat="42.93539" lon="1.14028">
        <ele>1225.7</ele>
        <time>2022-06-02T08:46:49.000Z</time>
      </trkpt>
      <trkpt lat="42.9354" lon="1.14028">
        <ele>1226.1</ele>
        <time>2022-06-02T08:47:01.000Z</time>
      </trkpt>
      <trkpt lat="42.93545" lon="1.14018">
        <ele>1225.9</ele>
        <time>2022-06-02T08:47:07.000Z</time>
      </trkpt>
      <trkpt lat="42.93549" lon="1.14005">
        <ele>1225.4</ele>
        <time>2022-06-02T08:47:13.000Z</time>
      </trkpt>
      <trkpt lat="42.93553" lon="1.13991">
        <ele>1225.6</ele>
        <time>2022-06-02T08:47:18.000Z</time>
      </trkpt>
      <trkpt lat="42.93558" lon="1.13979">
        <ele>1225</ele>
        <time>2022-06-02T08:47:22.000Z</time>
      </trkpt>
      <trkpt lat="42.93563" lon="1.13964">
        <ele>1224.9</ele>
        <time>2022-06-02T08:47:26.000Z</time>
      </trkpt>
      <trkpt lat="42.93565" lon="1.1395">
        <ele>1224.6</ele>
        <time>2022-06-02T08:47:30.000Z</time>
      </trkpt>
      <trkpt lat="42.93566" lon="1.13937">
        <ele>1225.1</ele>
        <time>2022-06-02T08:47:36.000Z</time>
      </trkpt>
      <trkpt lat="42.93565" lon="1.13925">
        <ele>1225</ele>
        <time>2022-06-02T08:47:40.000Z</time>
      </trkpt>
      <trkpt lat="42.93565" lon="1.13912">
        <ele>1225.4</ele>
        <time>2022-06-02T08:47:43.000Z</time>
      </trkpt>
      <trkpt lat="42.93564" lon="1.13897">
        <ele>1225.8</ele>
        <time>2022-06-02T08:47:48.000Z</time>
      </trkpt>
      <trkpt lat="42.93572" lon="1.13889">
        <ele>1226.5</ele>
        <time>2022-06-02T08:47:55.000Z</time>
      </trkpt>
      <trkpt lat="42.93582" lon="1.13887">
        <ele>1227</ele>
        <time>2022-06-02T08:48:00.000Z</time>
      </trkpt>
      <trkpt lat="42.9359" lon="1.13882">
        <ele>1226.7</ele>
        <time>2022-06-02T08:48:04.000Z</time>
      </trkpt>
      <trkpt lat="42.93599" lon="1.13875">
        <ele>1226.5</ele>
        <time>2022-06-02T08:48:08.000Z</time>
      </trkpt>
      <trkpt lat="42.93606" lon="1.13867">
        <ele>1226.4</ele>
        <time>2022-06-02T08:48:12.000Z</time>
      </trkpt>
      <trkpt lat="42.93612" lon="1.13856">
        <ele>1227.1</ele>
        <time>2022-06-02T08:48:17.000Z</time>
      </trkpt>
      <trkpt lat="42.93618" lon="1.13843">
        <ele>1225.2</ele>
        <time>2022-06-02T08:48:21.000Z</time>
      </trkpt>
      <trkpt lat="42.93626" lon="1.13833">
        <ele>1225.5</ele>
        <time>2022-06-02T08:48:25.000Z</time>
      </trkpt>
      <trkpt lat="42.93634" lon="1.13822">
        <ele>1225.1</ele>
        <time>2022-06-02T08:48:29.000Z</time>
      </trkpt>
      <trkpt lat="42.9364" lon="1.13812">
        <ele>1224.7</ele>
        <time>2022-06-02T08:48:33.000Z</time>
      </trkpt>
      <trkpt lat="42.93642" lon="1.13798">
        <ele>1224.2</ele>
        <time>2022-06-02T08:48:37.000Z</time>
      </trkpt>
      <trkpt lat="42.93642" lon="1.13797">
        <ele>1224.4</ele>
        <time>2022-06-02T08:48:39.000Z</time>
      </trkpt>
      <trkpt lat="42.93642" lon="1.13796">
        <ele>1224.2</ele>
        <time>2022-06-02T08:48:43.000Z</time>
      </trkpt>
      <trkpt lat="42.93643" lon="1.13795">
        <ele>1224.3</ele>
        <time>2022-06-02T08:48:45.000Z</time>
      </trkpt>
      <trkpt lat="42.93643" lon="1.13794">
        <ele>1223</ele>
        <time>2022-06-02T08:48:55.000Z</time>
      </trkpt>
      <trkpt lat="42.93643" lon="1.13793">
        <ele>1222.8</ele>
        <time>2022-06-02T08:48:57.000Z</time>
      </trkpt>
      <trkpt lat="42.93647" lon="1.13779">
        <ele>1220.3</ele>
        <time>2022-06-02T08:49:08.000Z</time>
      </trkpt>
      <trkpt lat="42.93647" lon="1.13767">
        <ele>1218.2</ele>
        <time>2022-06-02T08:49:13.000Z</time>
      </trkpt>
      <trkpt lat="42.93651" lon="1.13756">
        <ele>1216.7</ele>
        <time>2022-06-02T08:49:19.000Z</time>
      </trkpt>
      <trkpt lat="42.93659" lon="1.13746">
        <ele>1215.1</ele>
        <time>2022-06-02T08:49:23.000Z</time>
      </trkpt>
      <trkpt lat="42.93667" lon="1.13738">
        <ele>1214.4</ele>
        <time>2022-06-02T08:49:26.000Z</time>
      </trkpt>
      <trkpt lat="42.93674" lon="1.13727">
        <ele>1213.3</ele>
        <time>2022-06-02T08:49:30.000Z</time>
      </trkpt>
      <trkpt lat="42.9368" lon="1.13718">
        <ele>1212.3</ele>
        <time>2022-06-02T08:49:33.000Z</time>
      </trkpt>
      <trkpt lat="42.93688" lon="1.13709">
        <ele>1211</ele>
        <time>2022-06-02T08:49:36.000Z</time>
      </trkpt>
      <trkpt lat="42.93697" lon="1.13702">
        <ele>1209.6</ele>
        <time>2022-06-02T08:49:40.000Z</time>
      </trkpt>
      <trkpt lat="42.93706" lon="1.13695">
        <ele>1208.7</ele>
        <time>2022-06-02T08:49:43.000Z</time>
      </trkpt>
      <trkpt lat="42.93714" lon="1.13684">
        <ele>1207.4</ele>
        <time>2022-06-02T08:49:46.000Z</time>
      </trkpt>
      <trkpt lat="42.93722" lon="1.13675">
        <ele>1206.1</ele>
        <time>2022-06-02T08:49:49.000Z</time>
      </trkpt>
      <trkpt lat="42.93731" lon="1.13665">
        <ele>1205</ele>
        <time>2022-06-02T08:49:52.000Z</time>
      </trkpt>
      <trkpt lat="42.9374" lon="1.13654">
        <ele>1204.5</ele>
        <time>2022-06-02T08:49:55.000Z</time>
      </trkpt>
      <trkpt lat="42.93745" lon="1.13642">
        <ele>1202</ele>
        <time>2022-06-02T08:49:58.000Z</time>
      </trkpt>
      <trkpt lat="42.93743" lon="1.13628">
        <ele>1200.7</ele>
        <time>2022-06-02T08:50:02.000Z</time>
      </trkpt>
      <trkpt lat="42.93749" lon="1.13615">
        <ele>1198.2</ele>
        <time>2022-06-02T08:50:06.000Z</time>
      </trkpt>
      <trkpt lat="42.93758" lon="1.13606">
        <ele>1196.4</ele>
        <time>2022-06-02T08:50:09.000Z</time>
      </trkpt>
      <trkpt lat="42.93768" lon="1.13598">
        <ele>1194.3</ele>
        <time>2022-06-02T08:50:13.000Z</time>
      </trkpt>
      <trkpt lat="42.93777" lon="1.13591">
        <ele>1193.1</ele>
        <time>2022-06-02T08:50:16.000Z</time>
      </trkpt>
      <trkpt lat="42.93785" lon="1.13583">
        <ele>1191.5</ele>
        <time>2022-06-02T08:50:18.000Z</time>
      </trkpt>
      <trkpt lat="42.93794" lon="1.1357">
        <ele>1188.8</ele>
        <time>2022-06-02T08:50:21.000Z</time>
      </trkpt>
      <trkpt lat="42.93806" lon="1.13562">
        <ele>1187.2</ele>
        <time>2022-06-02T08:50:24.000Z</time>
      </trkpt>
      <trkpt lat="42.93815" lon="1.13552">
        <ele>1186.9</ele>
        <time>2022-06-02T08:50:26.000Z</time>
      </trkpt>
      <trkpt lat="42.93822" lon="1.13543">
        <ele>1184.9</ele>
        <time>2022-06-02T08:50:28.000Z</time>
      </trkpt>
      <trkpt lat="42.93832" lon="1.13535">
        <ele>1183.4</ele>
        <time>2022-06-02T08:50:31.000Z</time>
      </trkpt>
      <trkpt lat="42.93842" lon="1.13531">
        <ele>1182</ele>
        <time>2022-06-02T08:50:33.000Z</time>
      </trkpt>
      <trkpt lat="42.93854" lon="1.13523">
        <ele>1181.1</ele>
        <time>2022-06-02T08:50:35.000Z</time>
      </trkpt>
      <trkpt lat="42.93864" lon="1.13511">
        <ele>1179.8</ele>
        <time>2022-06-02T08:50:37.000Z</time>
      </trkpt>
      <trkpt lat="42.9387" lon="1.13496">
        <ele>1178.1</ele>
        <time>2022-06-02T08:50:39.000Z</time>
      </trkpt>
      <trkpt lat="42.93874" lon="1.13479">
        <ele>1176.8</ele>
        <time>2022-06-02T08:50:41.000Z</time>
      </trkpt>
      <trkpt lat="42.93878" lon="1.13459">
        <ele>1174.7</ele>
        <time>2022-06-02T08:50:43.000Z</time>
      </trkpt>
      <trkpt lat="42.9388" lon="1.13437">
        <ele>1173.9</ele>
        <time>2022-06-02T08:50:45.000Z</time>
      </trkpt>
      <trkpt lat="42.93883" lon="1.13425">
        <ele>1173.6</ele>
        <time>2022-06-02T08:50:46.000Z</time>
      </trkpt>
      <trkpt lat="42.93886" lon="1.13412">
        <ele>1173</ele>
        <time>2022-06-02T08:50:47.000Z</time>
      </trkpt>
      <trkpt lat="42.93889" lon="1.13401">
        <ele>1171.6</ele>
        <time>2022-06-02T08:50:48.000Z</time>
      </trkpt>
      <trkpt lat="42.93892" lon="1.13389">
        <ele>1170.9</ele>
        <time>2022-06-02T08:50:49.000Z</time>
      </trkpt>
      <trkpt lat="42.93896" lon="1.13377">
        <ele>1170.3</ele>
        <time>2022-06-02T08:50:50.000Z</time>
      </trkpt>
      <trkpt lat="42.93901" lon="1.13358">
        <ele>1168.3</ele>
        <time>2022-06-02T08:50:52.000Z</time>
      </trkpt>
      <trkpt lat="42.93897" lon="1.13342">
        <ele>1166.6</ele>
        <time>2022-06-02T08:50:54.000Z</time>
      </trkpt>
      <trkpt lat="42.93892" lon="1.13326">
        <ele>1165.5</ele>
        <time>2022-06-02T08:50:56.000Z</time>
      </trkpt>
      <trkpt lat="42.93888" lon="1.1331">
        <ele>1163.8</ele>
        <time>2022-06-02T08:50:58.000Z</time>
      </trkpt>
      <trkpt lat="42.93884" lon="1.13288">
        <ele>1162.8</ele>
        <time>2022-06-02T08:51:00.000Z</time>
      </trkpt>
      <trkpt lat="42.93879" lon="1.13266">
        <ele>1161.1</ele>
        <time>2022-06-02T08:51:02.000Z</time>
      </trkpt>
      <trkpt lat="42.93872" lon="1.13251">
        <ele>1159.5</ele>
        <time>2022-06-02T08:51:04.000Z</time>
      </trkpt>
      <trkpt lat="42.93865" lon="1.13237">
        <ele>1158.1</ele>
        <time>2022-06-02T08:51:06.000Z</time>
      </trkpt>
      <trkpt lat="42.93856" lon="1.13223">
        <ele>1156.1</ele>
        <time>2022-06-02T08:51:08.000Z</time>
      </trkpt>
      <trkpt lat="42.9385" lon="1.13211">
        <ele>1155</ele>
        <time>2022-06-02T08:51:10.000Z</time>
      </trkpt>
      <trkpt lat="42.93845" lon="1.132">
        <ele>1154.4</ele>
        <time>2022-06-02T08:51:12.000Z</time>
      </trkpt>
      <trkpt lat="42.9384" lon="1.13185">
        <ele>1152.8</ele>
        <time>2022-06-02T08:51:15.000Z</time>
      </trkpt>
      <trkpt lat="42.93833" lon="1.13169">
        <ele>1150.9</ele>
        <time>2022-06-02T08:51:18.000Z</time>
      </trkpt>
      <trkpt lat="42.93831" lon="1.13153">
        <ele>1149.9</ele>
        <time>2022-06-02T08:51:21.000Z</time>
      </trkpt>
      <trkpt lat="42.93828" lon="1.13136">
        <ele>1148.2</ele>
        <time>2022-06-02T08:51:24.000Z</time>
      </trkpt>
      <trkpt lat="42.93823" lon="1.13125">
        <ele>1147.6</ele>
        <time>2022-06-02T08:51:26.000Z</time>
      </trkpt>
      <trkpt lat="42.93816" lon="1.13112">
        <ele>1146.6</ele>
        <time>2022-06-02T08:51:28.000Z</time>
      </trkpt>
      <trkpt lat="42.93811" lon="1.13098">
        <ele>1145.9</ele>
        <time>2022-06-02T08:51:30.000Z</time>
      </trkpt>
      <trkpt lat="42.93808" lon="1.13084">
        <ele>1144.6</ele>
        <time>2022-06-02T08:51:32.000Z</time>
      </trkpt>
      <trkpt lat="42.93804" lon="1.13072">
        <ele>1143.8</ele>
        <time>2022-06-02T08:51:34.000Z</time>
      </trkpt>
      <trkpt lat="42.93804" lon="1.1306">
        <ele>1143.9</ele>
        <time>2022-06-02T08:51:36.000Z</time>
      </trkpt>
      <trkpt lat="42.93804" lon="1.13043">
        <ele>1142.4</ele>
        <time>2022-06-02T08:51:39.000Z</time>
      </trkpt>
      <trkpt lat="42.93806" lon="1.13026">
        <ele>1142.4</ele>
        <time>2022-06-02T08:51:42.000Z</time>
      </trkpt>
      <trkpt lat="42.9381" lon="1.13013">
        <ele>1140.7</ele>
        <time>2022-06-02T08:51:46.000Z</time>
      </trkpt>
      <trkpt lat="42.93814" lon="1.13001">
        <ele>1140.4</ele>
        <time>2022-06-02T08:51:49.000Z</time>
      </trkpt>
      <trkpt lat="42.93816" lon="1.12984">
        <ele>1139</ele>
        <time>2022-06-02T08:51:52.000Z</time>
      </trkpt>
      <trkpt lat="42.93819" lon="1.12965">
        <ele>1138.6</ele>
        <time>2022-06-02T08:51:55.000Z</time>
      </trkpt>
      <trkpt lat="42.9382" lon="1.1295">
        <ele>1137.6</ele>
        <time>2022-06-02T08:51:57.000Z</time>
      </trkpt>
      <trkpt lat="42.93819" lon="1.12934">
        <ele>1136.3</ele>
        <time>2022-06-02T08:51:59.000Z</time>
      </trkpt>
      <trkpt lat="42.93819" lon="1.12917">
        <ele>1136.1</ele>
        <time>2022-06-02T08:52:01.000Z</time>
      </trkpt>
      <trkpt lat="42.93821" lon="1.12895">
        <ele>1135.3</ele>
        <time>2022-06-02T08:52:03.000Z</time>
      </trkpt>
      <trkpt lat="42.93824" lon="1.12873">
        <ele>1134.2</ele>
        <time>2022-06-02T08:52:05.000Z</time>
      </trkpt>
      <trkpt lat="42.93827" lon="1.12851">
        <ele>1133.1</ele>
        <time>2022-06-02T08:52:07.000Z</time>
      </trkpt>
      <trkpt lat="42.93827" lon="1.12838">
        <ele>1131.9</ele>
        <time>2022-06-02T08:52:08.000Z</time>
      </trkpt>
      <trkpt lat="42.93824" lon="1.12814">
        <ele>1131.2</ele>
        <time>2022-06-02T08:52:10.000Z</time>
      </trkpt>
      <trkpt lat="42.93823" lon="1.12791">
        <ele>1130.7</ele>
        <time>2022-06-02T08:52:12.000Z</time>
      </trkpt>
      <trkpt lat="42.93821" lon="1.12768">
        <ele>1129.1</ele>
        <time>2022-06-02T08:52:14.000Z</time>
      </trkpt>
      <trkpt lat="42.93817" lon="1.12745">
        <ele>1128.5</ele>
        <time>2022-06-02T08:52:16.000Z</time>
      </trkpt>
      <trkpt lat="42.93819" lon="1.12725">
        <ele>1126.1</ele>
        <time>2022-06-02T08:52:18.000Z</time>
      </trkpt>
      <trkpt lat="42.9382" lon="1.12704">
        <ele>1125.1</ele>
        <time>2022-06-02T08:52:20.000Z</time>
      </trkpt>
      <trkpt lat="42.93825" lon="1.12691">
        <ele>1123.1</ele>
        <time>2022-06-02T08:52:22.000Z</time>
      </trkpt>
      <trkpt lat="42.93833" lon="1.12677">
        <ele>1121.6</ele>
        <time>2022-06-02T08:52:24.000Z</time>
      </trkpt>
      <trkpt lat="42.93838" lon="1.1266">
        <ele>1120.7</ele>
        <time>2022-06-02T08:52:26.000Z</time>
      </trkpt>
      <trkpt lat="42.93846" lon="1.12643">
        <ele>1119.5</ele>
        <time>2022-06-02T08:52:28.000Z</time>
      </trkpt>
      <trkpt lat="42.93854" lon="1.12625">
        <ele>1118.3</ele>
        <time>2022-06-02T08:52:30.000Z</time>
      </trkpt>
      <trkpt lat="42.93865" lon="1.12608">
        <ele>1116.8</ele>
        <time>2022-06-02T08:52:32.000Z</time>
      </trkpt>
      <trkpt lat="42.93875" lon="1.12594">
        <ele>1115.2</ele>
        <time>2022-06-02T08:52:34.000Z</time>
      </trkpt>
      <trkpt lat="42.93887" lon="1.12587">
        <ele>1114.6</ele>
        <time>2022-06-02T08:52:36.000Z</time>
      </trkpt>
      <trkpt lat="42.939" lon="1.12583">
        <ele>1113.4</ele>
        <time>2022-06-02T08:52:38.000Z</time>
      </trkpt>
      <trkpt lat="42.93911" lon="1.12577">
        <ele>1112.8</ele>
        <time>2022-06-02T08:52:40.000Z</time>
      </trkpt>
      <trkpt lat="42.93923" lon="1.1257">
        <ele>1111.5</ele>
        <time>2022-06-02T08:52:42.000Z</time>
      </trkpt>
      <trkpt lat="42.93934" lon="1.12562">
        <ele>1110.6</ele>
        <time>2022-06-02T08:52:44.000Z</time>
      </trkpt>
      <trkpt lat="42.93944" lon="1.12557">
        <ele>1109</ele>
        <time>2022-06-02T08:52:46.000Z</time>
      </trkpt>
      <trkpt lat="42.93955" lon="1.12556">
        <ele>1107.4</ele>
        <time>2022-06-02T08:52:48.000Z</time>
      </trkpt>
      <trkpt lat="42.93966" lon="1.12549">
        <ele>1106.8</ele>
        <time>2022-06-02T08:52:50.000Z</time>
      </trkpt>
      <trkpt lat="42.9398" lon="1.12545">
        <ele>1105.9</ele>
        <time>2022-06-02T08:52:52.000Z</time>
      </trkpt>
      <trkpt lat="42.93991" lon="1.12538">
        <ele>1104.2</ele>
        <time>2022-06-02T08:52:54.000Z</time>
      </trkpt>
      <trkpt lat="42.94" lon="1.12531">
        <ele>1103.1</ele>
        <time>2022-06-02T08:52:56.000Z</time>
      </trkpt>
      <trkpt lat="42.94011" lon="1.12516">
        <ele>1101.8</ele>
        <time>2022-06-02T08:52:58.000Z</time>
      </trkpt>
      <trkpt lat="42.9402" lon="1.12499">
        <ele>1100.8</ele>
        <time>2022-06-02T08:53:00.000Z</time>
      </trkpt>
      <trkpt lat="42.94024" lon="1.12481">
        <ele>1098.6</ele>
        <time>2022-06-02T08:53:02.000Z</time>
      </trkpt>
      <trkpt lat="42.94026" lon="1.12463">
        <ele>1097.1</ele>
        <time>2022-06-02T08:53:04.000Z</time>
      </trkpt>
      <trkpt lat="42.94028" lon="1.12447">
        <ele>1095.8</ele>
        <time>2022-06-02T08:53:06.000Z</time>
      </trkpt>
      <trkpt lat="42.94031" lon="1.12433">
        <ele>1095.2</ele>
        <time>2022-06-02T08:53:08.000Z</time>
      </trkpt>
      <trkpt lat="42.94032" lon="1.12416">
        <ele>1092</ele>
        <time>2022-06-02T08:53:11.000Z</time>
      </trkpt>
      <trkpt lat="42.94029" lon="1.12398">
        <ele>1090.6</ele>
        <time>2022-06-02T08:53:13.000Z</time>
      </trkpt>
      <trkpt lat="42.94025" lon="1.12381">
        <ele>1089.3</ele>
        <time>2022-06-02T08:53:15.000Z</time>
      </trkpt>
      <trkpt lat="42.94024" lon="1.12365">
        <ele>1088.6</ele>
        <time>2022-06-02T08:53:17.000Z</time>
      </trkpt>
      <trkpt lat="42.94025" lon="1.12353">
        <ele>1086.6</ele>
        <time>2022-06-02T08:53:19.000Z</time>
      </trkpt>
      <trkpt lat="42.94027" lon="1.12335">
        <ele>1085.6</ele>
        <time>2022-06-02T08:53:22.000Z</time>
      </trkpt>
      <trkpt lat="42.9403" lon="1.12318">
        <ele>1084.3</ele>
        <time>2022-06-02T08:53:24.000Z</time>
      </trkpt>
      <trkpt lat="42.94033" lon="1.12301">
        <ele>1082.5</ele>
        <time>2022-06-02T08:53:26.000Z</time>
      </trkpt>
      <trkpt lat="42.9403" lon="1.12289">
        <ele>1080.6</ele>
        <time>2022-06-02T08:53:28.000Z</time>
      </trkpt>
      <trkpt lat="42.94023" lon="1.12278">
        <ele>1078.9</ele>
        <time>2022-06-02T08:53:30.000Z</time>
      </trkpt>
      <trkpt lat="42.94016" lon="1.12266">
        <ele>1077.9</ele>
        <time>2022-06-02T08:53:32.000Z</time>
      </trkpt>
      <trkpt lat="42.94012" lon="1.12254">
        <ele>1076</ele>
        <time>2022-06-02T08:53:34.000Z</time>
      </trkpt>
      <trkpt lat="42.94011" lon="1.12242">
        <ele>1074</ele>
        <time>2022-06-02T08:53:36.000Z</time>
      </trkpt>
      <trkpt lat="42.94014" lon="1.12225">
        <ele>1070.8</ele>
        <time>2022-06-02T08:53:39.000Z</time>
      </trkpt>
      <trkpt lat="42.94021" lon="1.12215">
        <ele>1069.3</ele>
        <time>2022-06-02T08:53:41.000Z</time>
      </trkpt>
      <trkpt lat="42.94029" lon="1.12203">
        <ele>1067.1</ele>
        <time>2022-06-02T08:53:43.000Z</time>
      </trkpt>
      <trkpt lat="42.94038" lon="1.12192">
        <ele>1065.5</ele>
        <time>2022-06-02T08:53:45.000Z</time>
      </trkpt>
      <trkpt lat="42.94049" lon="1.12183">
        <ele>1064.2</ele>
        <time>2022-06-02T08:53:47.000Z</time>
      </trkpt>
      <trkpt lat="42.94059" lon="1.1217">
        <ele>1062.6</ele>
        <time>2022-06-02T08:53:49.000Z</time>
      </trkpt>
      <trkpt lat="42.94069" lon="1.12152">
        <ele>1060.2</ele>
        <time>2022-06-02T08:53:51.000Z</time>
      </trkpt>
      <trkpt lat="42.94075" lon="1.1213">
        <ele>1057.9</ele>
        <time>2022-06-02T08:53:53.000Z</time>
      </trkpt>
      <trkpt lat="42.9408" lon="1.12108">
        <ele>1056.4</ele>
        <time>2022-06-02T08:53:55.000Z</time>
      </trkpt>
      <trkpt lat="42.94084" lon="1.12087">
        <ele>1055</ele>
        <time>2022-06-02T08:53:57.000Z</time>
      </trkpt>
      <trkpt lat="42.94087" lon="1.12064">
        <ele>1052.7</ele>
        <time>2022-06-02T08:53:59.000Z</time>
      </trkpt>
      <trkpt lat="42.94089" lon="1.12052">
        <ele>1051.8</ele>
        <time>2022-06-02T08:54:00.000Z</time>
      </trkpt>
      <trkpt lat="42.94092" lon="1.12029">
        <ele>1050.1</ele>
        <time>2022-06-02T08:54:02.000Z</time>
      </trkpt>
      <trkpt lat="42.94096" lon="1.12012">
        <ele>1047.2</ele>
        <time>2022-06-02T08:54:04.000Z</time>
      </trkpt>
      <trkpt lat="42.94104" lon="1.11995">
        <ele>1045.3</ele>
        <time>2022-06-02T08:54:06.000Z</time>
      </trkpt>
      <trkpt lat="42.94113" lon="1.11976">
        <ele>1043.6</ele>
        <time>2022-06-02T08:54:08.000Z</time>
      </trkpt>
      <trkpt lat="42.9412" lon="1.11955">
        <ele>1041.7</ele>
        <time>2022-06-02T08:54:10.000Z</time>
      </trkpt>
      <trkpt lat="42.94128" lon="1.11939">
        <ele>1039</ele>
        <time>2022-06-02T08:54:12.000Z</time>
      </trkpt>
      <trkpt lat="42.94134" lon="1.11925">
        <ele>1036.8</ele>
        <time>2022-06-02T08:54:14.000Z</time>
      </trkpt>
      <trkpt lat="42.9414" lon="1.11914">
        <ele>1035.3</ele>
        <time>2022-06-02T08:54:16.000Z</time>
      </trkpt>
      <trkpt lat="42.94147" lon="1.11903">
        <ele>1031.7</ele>
        <time>2022-06-02T08:54:18.000Z</time>
      </trkpt>
      <trkpt lat="42.94148" lon="1.11886">
        <ele>1029.1</ele>
        <time>2022-06-02T08:54:21.000Z</time>
      </trkpt>
      <trkpt lat="42.94149" lon="1.11873">
        <ele>1026</ele>
        <time>2022-06-02T08:54:23.000Z</time>
      </trkpt>
      <trkpt lat="42.94155" lon="1.11871">
        <ele>1020.3</ele>
        <time>2022-06-02T08:54:28.000Z</time>
      </trkpt>
      <trkpt lat="42.94154" lon="1.11871">
        <ele>958.5</ele>
        <time>2022-06-02T08:55:56.000Z</time>
      </trkpt>
      <trkpt lat="42.94154" lon="1.11872">
        <ele>950.2</ele>
        <time>2022-06-02T08:56:26.000Z</time>
      </trkpt>
      <trkpt lat="42.94148" lon="1.11881">
        <ele>949.3</ele>
        <time>2022-06-02T08:56:35.000Z</time>
      </trkpt>
      <trkpt lat="42.9414" lon="1.11889">
        <ele>949.2</ele>
        <time>2022-06-02T08:56:38.000Z</time>
      </trkpt>
      <trkpt lat="42.94135" lon="1.11901">
        <ele>949.9</ele>
        <time>2022-06-02T08:56:41.000Z</time>
      </trkpt>
      <trkpt lat="42.94127" lon="1.11913">
        <ele>950.6</ele>
        <time>2022-06-02T08:56:44.000Z</time>
      </trkpt>
      <trkpt lat="42.94118" lon="1.11924">
        <ele>951.4</ele>
        <time>2022-06-02T08:56:47.000Z</time>
      </trkpt>
      <trkpt lat="42.94108" lon="1.11935">
        <ele>953</ele>
        <time>2022-06-02T08:56:50.000Z</time>
      </trkpt>
      <trkpt lat="42.94099" lon="1.11945">
        <ele>954.7</ele>
        <time>2022-06-02T08:56:53.000Z</time>
      </trkpt>
      <trkpt lat="42.94091" lon="1.11958">
        <ele>955.9</ele>
        <time>2022-06-02T08:56:56.000Z</time>
      </trkpt>
      <trkpt lat="42.94083" lon="1.11971">
        <ele>958</ele>
        <time>2022-06-02T08:56:59.000Z</time>
      </trkpt>
      <trkpt lat="42.94077" lon="1.11986">
        <ele>960.2</ele>
        <time>2022-06-02T08:57:02.000Z</time>
      </trkpt>
      <trkpt lat="42.94073" lon="1.12003">
        <ele>962.3</ele>
        <time>2022-06-02T08:57:05.000Z</time>
      </trkpt>
      <trkpt lat="42.94071" lon="1.12019">
        <ele>963.3</ele>
        <time>2022-06-02T08:57:08.000Z</time>
      </trkpt>
      <trkpt lat="42.94069" lon="1.12036">
        <ele>964.4</ele>
        <time>2022-06-02T08:57:11.000Z</time>
      </trkpt>
      <trkpt lat="42.94064" lon="1.12051">
        <ele>966.4</ele>
        <time>2022-06-02T08:57:14.000Z</time>
      </trkpt>
      <trkpt lat="42.94057" lon="1.12065">
        <ele>968.4</ele>
        <time>2022-06-02T08:57:17.000Z</time>
      </trkpt>
      <trkpt lat="42.94051" lon="1.1208">
        <ele>970.2</ele>
        <time>2022-06-02T08:57:20.000Z</time>
      </trkpt>
      <trkpt lat="42.94043" lon="1.12092">
        <ele>972.3</ele>
        <time>2022-06-02T08:57:23.000Z</time>
      </trkpt>
      <trkpt lat="42.94032" lon="1.12103">
        <ele>974.2</ele>
        <time>2022-06-02T08:57:26.000Z</time>
      </trkpt>
      <trkpt lat="42.94024" lon="1.12109">
        <ele>975.9</ele>
        <time>2022-06-02T08:57:28.000Z</time>
      </trkpt>
      <trkpt lat="42.94016" lon="1.12115">
        <ele>977</ele>
        <time>2022-06-02T08:57:30.000Z</time>
      </trkpt>
      <trkpt lat="42.94007" lon="1.12121">
        <ele>978.4</ele>
        <time>2022-06-02T08:57:32.000Z</time>
      </trkpt>
      <trkpt lat="42.93999" lon="1.12127">
        <ele>980.3</ele>
        <time>2022-06-02T08:57:34.000Z</time>
      </trkpt>
      <trkpt lat="42.93991" lon="1.12134">
        <ele>981.5</ele>
        <time>2022-06-02T08:57:36.000Z</time>
      </trkpt>
      <trkpt lat="42.93981" lon="1.12146">
        <ele>983.9</ele>
        <time>2022-06-02T08:57:39.000Z</time>
      </trkpt>
      <trkpt lat="42.93974" lon="1.12155">
        <ele>985.4</ele>
        <time>2022-06-02T08:57:41.000Z</time>
      </trkpt>
      <trkpt lat="42.93968" lon="1.12164">
        <ele>987.3</ele>
        <time>2022-06-02T08:57:43.000Z</time>
      </trkpt>
      <trkpt lat="42.93961" lon="1.12174">
        <ele>988.7</ele>
        <time>2022-06-02T08:57:45.000Z</time>
      </trkpt>
      <trkpt lat="42.93952" lon="1.12187">
        <ele>991.3</ele>
        <time>2022-06-02T08:57:48.000Z</time>
      </trkpt>
      <trkpt lat="42.93945" lon="1.12201">
        <ele>993.3</ele>
        <time>2022-06-02T08:57:51.000Z</time>
      </trkpt>
      <trkpt lat="42.93937" lon="1.12216">
        <ele>995.3</ele>
        <time>2022-06-02T08:57:54.000Z</time>
      </trkpt>
      <trkpt lat="42.93932" lon="1.12232">
        <ele>997.2</ele>
        <time>2022-06-02T08:57:57.000Z</time>
      </trkpt>
      <trkpt lat="42.93928" lon="1.12249">
        <ele>999.8</ele>
        <time>2022-06-02T08:58:00.000Z</time>
      </trkpt>
      <trkpt lat="42.93925" lon="1.12266">
        <ele>1002.1</ele>
        <time>2022-06-02T08:58:03.000Z</time>
      </trkpt>
      <trkpt lat="42.93925" lon="1.12283">
        <ele>1004</ele>
        <time>2022-06-02T08:58:06.000Z</time>
      </trkpt>
      <trkpt lat="42.93927" lon="1.12297">
        <ele>1005.6</ele>
        <time>2022-06-02T08:58:09.000Z</time>
      </trkpt>
      <trkpt lat="42.93922" lon="1.12308">
        <ele>1009.8</ele>
        <time>2022-06-02T08:58:15.000Z</time>
      </trkpt>
      <trkpt lat="42.93913" lon="1.12313">
        <ele>1011.8</ele>
        <time>2022-06-02T08:58:18.000Z</time>
      </trkpt>
      <trkpt lat="42.93902" lon="1.12319">
        <ele>1013.8</ele>
        <time>2022-06-02T08:58:21.000Z</time>
      </trkpt>
      <trkpt lat="42.93892" lon="1.12328">
        <ele>1016.2</ele>
        <time>2022-06-02T08:58:24.000Z</time>
      </trkpt>
      <trkpt lat="42.93882" lon="1.1234">
        <ele>1018.1</ele>
        <time>2022-06-02T08:58:27.000Z</time>
      </trkpt>
      <trkpt lat="42.93875" lon="1.12347">
        <ele>1019.6</ele>
        <time>2022-06-02T08:58:29.000Z</time>
      </trkpt>
      <trkpt lat="42.93867" lon="1.12354">
        <ele>1021.5</ele>
        <time>2022-06-02T08:58:31.000Z</time>
      </trkpt>
      <trkpt lat="42.9386" lon="1.12362">
        <ele>1022.5</ele>
        <time>2022-06-02T08:58:33.000Z</time>
      </trkpt>
      <trkpt lat="42.93852" lon="1.12375">
        <ele>1024.7</ele>
        <time>2022-06-02T08:58:36.000Z</time>
      </trkpt>
      <trkpt lat="42.93844" lon="1.12388">
        <ele>1027</ele>
        <time>2022-06-02T08:58:39.000Z</time>
      </trkpt>
      <trkpt lat="42.93838" lon="1.12398">
        <ele>1028.1</ele>
        <time>2022-06-02T08:58:41.000Z</time>
      </trkpt>
      <trkpt lat="42.93831" lon="1.12407">
        <ele>1029.7</ele>
        <time>2022-06-02T08:58:43.000Z</time>
      </trkpt>
      <trkpt lat="42.93825" lon="1.12417">
        <ele>1030.7</ele>
        <time>2022-06-02T08:58:45.000Z</time>
      </trkpt>
      <trkpt lat="42.93819" lon="1.12427">
        <ele>1032.1</ele>
        <time>2022-06-02T08:58:47.000Z</time>
      </trkpt>
      <trkpt lat="42.93813" lon="1.12438">
        <ele>1033.8</ele>
        <time>2022-06-02T08:58:49.000Z</time>
      </trkpt>
      <trkpt lat="42.93807" lon="1.12449">
        <ele>1035.4</ele>
        <time>2022-06-02T08:58:51.000Z</time>
      </trkpt>
      <trkpt lat="42.93804" lon="1.1246">
        <ele>1036.5</ele>
        <time>2022-06-02T08:58:53.000Z</time>
      </trkpt>
      <trkpt lat="42.93799" lon="1.12477">
        <ele>1038.2</ele>
        <time>2022-06-02T08:58:56.000Z</time>
      </trkpt>
      <trkpt lat="42.93795" lon="1.12493">
        <ele>1040.4</ele>
        <time>2022-06-02T08:58:59.000Z</time>
      </trkpt>
      <trkpt lat="42.93788" lon="1.12508">
        <ele>1042.3</ele>
        <time>2022-06-02T08:59:02.000Z</time>
      </trkpt>
      <trkpt lat="42.9378" lon="1.12522">
        <ele>1044.2</ele>
        <time>2022-06-02T08:59:05.000Z</time>
      </trkpt>
      <trkpt lat="42.93771" lon="1.12535">
        <ele>1045.3</ele>
        <time>2022-06-02T08:59:08.000Z</time>
      </trkpt>
      <trkpt lat="42.93766" lon="1.12546">
        <ele>1046.6</ele>
        <time>2022-06-02T08:59:10.000Z</time>
      </trkpt>
      <trkpt lat="42.9376" lon="1.12557">
        <ele>1048</ele>
        <time>2022-06-02T08:59:12.000Z</time>
      </trkpt>
      <trkpt lat="42.93755" lon="1.12569">
        <ele>1049.1</ele>
        <time>2022-06-02T08:59:14.000Z</time>
      </trkpt>
      <trkpt lat="42.93751" lon="1.1258">
        <ele>1050.2</ele>
        <time>2022-06-02T08:59:16.000Z</time>
      </trkpt>
      <trkpt lat="42.93747" lon="1.12591">
        <ele>1051.6</ele>
        <time>2022-06-02T08:59:18.000Z</time>
      </trkpt>
      <trkpt lat="42.93742" lon="1.12602">
        <ele>1052</ele>
        <time>2022-06-02T08:59:20.000Z</time>
      </trkpt>
      <trkpt lat="42.93736" lon="1.12612">
        <ele>1053</ele>
        <time>2022-06-02T08:59:22.000Z</time>
      </trkpt>
      <trkpt lat="42.93728" lon="1.12626">
        <ele>1055.1</ele>
        <time>2022-06-02T08:59:25.000Z</time>
      </trkpt>
      <trkpt lat="42.9372" lon="1.1264">
        <ele>1056.2</ele>
        <time>2022-06-02T08:59:28.000Z</time>
      </trkpt>
      <trkpt lat="42.93711" lon="1.12654">
        <ele>1057.7</ele>
        <time>2022-06-02T08:59:31.000Z</time>
      </trkpt>
      <trkpt lat="42.93703" lon="1.12669">
        <ele>1059</ele>
        <time>2022-06-02T08:59:34.000Z</time>
      </trkpt>
      <trkpt lat="42.93696" lon="1.12683">
        <ele>1060.1</ele>
        <time>2022-06-02T08:59:37.000Z</time>
      </trkpt>
      <trkpt lat="42.93688" lon="1.12698">
        <ele>1061.7</ele>
        <time>2022-06-02T08:59:40.000Z</time>
      </trkpt>
      <trkpt lat="42.9368" lon="1.12712">
        <ele>1064.1</ele>
        <time>2022-06-02T08:59:43.000Z</time>
      </trkpt>
      <trkpt lat="42.93671" lon="1.12723">
        <ele>1066</ele>
        <time>2022-06-02T08:59:46.000Z</time>
      </trkpt>
      <trkpt lat="42.93661" lon="1.12733">
        <ele>1067.2</ele>
        <time>2022-06-02T08:59:49.000Z</time>
      </trkpt>
      <trkpt lat="42.93661" lon="1.12748">
        <ele>1068.6</ele>
        <time>2022-06-02T08:59:52.000Z</time>
      </trkpt>
      <trkpt lat="42.93672" lon="1.12745">
        <ele>1069.6</ele>
        <time>2022-06-02T08:59:55.000Z</time>
      </trkpt>
      <trkpt lat="42.9368" lon="1.12736">
        <ele>1070.1</ele>
        <time>2022-06-02T08:59:57.000Z</time>
      </trkpt>
      <trkpt lat="42.93689" lon="1.12727">
        <ele>1070.4</ele>
        <time>2022-06-02T08:59:59.000Z</time>
      </trkpt>
      <trkpt lat="42.93698" lon="1.12719">
        <ele>1071.9</ele>
        <time>2022-06-02T09:00:01.000Z</time>
      </trkpt>
      <trkpt lat="42.93708" lon="1.12714">
        <ele>1072.8</ele>
        <time>2022-06-02T09:00:03.000Z</time>
      </trkpt>
      <trkpt lat="42.93717" lon="1.12708">
        <ele>1073</ele>
        <time>2022-06-02T09:00:05.000Z</time>
      </trkpt>
      <trkpt lat="42.93727" lon="1.12704">
        <ele>1073.7</ele>
        <time>2022-06-02T09:00:07.000Z</time>
      </trkpt>
      <trkpt lat="42.93736" lon="1.12699">
        <ele>1074.6</ele>
        <time>2022-06-02T09:00:09.000Z</time>
      </trkpt>
      <trkpt lat="42.93746" lon="1.12694">
        <ele>1075.5</ele>
        <time>2022-06-02T09:00:11.000Z</time>
      </trkpt>
      <trkpt lat="42.93755" lon="1.1269">
        <ele>1076.5</ele>
        <time>2022-06-02T09:00:13.000Z</time>
      </trkpt>
      <trkpt lat="42.93763" lon="1.12685">
        <ele>1077.2</ele>
        <time>2022-06-02T09:00:15.000Z</time>
      </trkpt>
      <trkpt lat="42.93775" lon="1.12678">
        <ele>1079</ele>
        <time>2022-06-02T09:00:18.000Z</time>
      </trkpt>
      <trkpt lat="42.93785" lon="1.12676">
        <ele>1079.5</ele>
        <time>2022-06-02T09:00:21.000Z</time>
      </trkpt>
      <trkpt lat="42.93794" lon="1.12679">
        <ele>1081.9</ele>
        <time>2022-06-02T09:00:27.000Z</time>
      </trkpt>
      <trkpt lat="42.93805" lon="1.12675">
        <ele>1085.1</ele>
        <time>2022-06-02T09:01:36.000Z</time>
      </trkpt>
      <trkpt lat="42.93814" lon="1.12678">
        <ele>1085</ele>
        <time>2022-06-02T09:01:41.000Z</time>
      </trkpt>
      <trkpt lat="42.93822" lon="1.12685">
        <ele>1085.1</ele>
        <time>2022-06-02T09:01:46.000Z</time>
      </trkpt>
      <trkpt lat="42.93832" lon="1.12683">
        <ele>1085.8</ele>
        <time>2022-06-02T09:01:52.000Z</time>
      </trkpt>
      <trkpt lat="42.9383" lon="1.12696">
        <ele>1088</ele>
        <time>2022-06-02T09:02:04.000Z</time>
      </trkpt>
      <trkpt lat="42.93829" lon="1.1271">
        <ele>1088.9</ele>
        <time>2022-06-02T09:02:08.000Z</time>
      </trkpt>
      <trkpt lat="42.93829" lon="1.12723">
        <ele>1090.1</ele>
        <time>2022-06-02T09:02:12.000Z</time>
      </trkpt>
      <trkpt lat="42.9383" lon="1.12736">
        <ele>1091.5</ele>
        <time>2022-06-02T09:02:16.000Z</time>
      </trkpt>
      <trkpt lat="42.93828" lon="1.1275">
        <ele>1093.1</ele>
        <time>2022-06-02T09:02:20.000Z</time>
      </trkpt>
      <trkpt lat="42.93828" lon="1.12765">
        <ele>1094.7</ele>
        <time>2022-06-02T09:02:24.000Z</time>
      </trkpt>
      <trkpt lat="42.93828" lon="1.12779">
        <ele>1096.5</ele>
        <time>2022-06-02T09:02:28.000Z</time>
      </trkpt>
      <trkpt lat="42.9383" lon="1.12792">
        <ele>1097.8</ele>
        <time>2022-06-02T09:02:32.000Z</time>
      </trkpt>
      <trkpt lat="42.93829" lon="1.12806">
        <ele>1099.9</ele>
        <time>2022-06-02T09:02:36.000Z</time>
      </trkpt>
      <trkpt lat="42.9383" lon="1.1282">
        <ele>1101.3</ele>
        <time>2022-06-02T09:02:40.000Z</time>
      </trkpt>
      <trkpt lat="42.93833" lon="1.12835">
        <ele>1102.4</ele>
        <time>2022-06-02T09:02:44.000Z</time>
      </trkpt>
      <trkpt lat="42.93833" lon="1.12848">
        <ele>1103.3</ele>
        <time>2022-06-02T09:02:47.000Z</time>
      </trkpt>
      <trkpt lat="42.93831" lon="1.1286">
        <ele>1105</ele>
        <time>2022-06-02T09:02:50.000Z</time>
      </trkpt>
      <trkpt lat="42.93828" lon="1.12874">
        <ele>1107</ele>
        <time>2022-06-02T09:02:54.000Z</time>
      </trkpt>
      <trkpt lat="42.93827" lon="1.1289">
        <ele>1108.7</ele>
        <time>2022-06-02T09:02:58.000Z</time>
      </trkpt>
      <trkpt lat="42.93823" lon="1.12902">
        <ele>1110.1</ele>
        <time>2022-06-02T09:03:02.000Z</time>
      </trkpt>
      <trkpt lat="42.93822" lon="1.12914">
        <ele>1111.9</ele>
        <time>2022-06-02T09:03:05.000Z</time>
      </trkpt>
      <trkpt lat="42.93823" lon="1.1293">
        <ele>1113.7</ele>
        <time>2022-06-02T09:03:09.000Z</time>
      </trkpt>
      <trkpt lat="42.93824" lon="1.12945">
        <ele>1115.3</ele>
        <time>2022-06-02T09:03:13.000Z</time>
      </trkpt>
      <trkpt lat="42.93825" lon="1.12958">
        <ele>1116.6</ele>
        <time>2022-06-02T09:03:16.000Z</time>
      </trkpt>
      <trkpt lat="42.93823" lon="1.12973">
        <ele>1118.2</ele>
        <time>2022-06-02T09:03:20.000Z</time>
      </trkpt>
      <trkpt lat="42.93821" lon="1.12987">
        <ele>1120</ele>
        <time>2022-06-02T09:03:24.000Z</time>
      </trkpt>
      <trkpt lat="42.93818" lon="1.12999">
        <ele>1120.7</ele>
        <time>2022-06-02T09:03:27.000Z</time>
      </trkpt>
      <trkpt lat="42.93814" lon="1.1301">
        <ele>1122.1</ele>
        <time>2022-06-02T09:03:30.000Z</time>
      </trkpt>
      <trkpt lat="42.93813" lon="1.13012">
        <ele>1123.2</ele>
        <time>2022-06-02T09:03:33.000Z</time>
      </trkpt>
      <trkpt lat="42.93813" lon="1.13013">
        <ele>1125.7</ele>
        <time>2022-06-02T09:03:44.000Z</time>
      </trkpt>
      <trkpt lat="42.93813" lon="1.13014">
        <ele>1126</ele>
        <time>2022-06-02T09:03:46.000Z</time>
      </trkpt>
      <trkpt lat="42.93813" lon="1.13013">
        <ele>1126.4</ele>
        <time>2022-06-02T09:03:47.000Z</time>
      </trkpt>
      <trkpt lat="42.93816" lon="1.13001">
        <ele>1127.7</ele>
        <time>2022-06-02T09:03:59.000Z</time>
      </trkpt>
      <trkpt lat="42.93819" lon="1.12989">
        <ele>1127.5</ele>
        <time>2022-06-02T09:04:02.000Z</time>
      </trkpt>
      <trkpt lat="42.9382" lon="1.12977">
        <ele>1127.8</ele>
        <time>2022-06-02T09:04:05.000Z</time>
      </trkpt>
      <trkpt lat="42.93823" lon="1.12964">
        <ele>1127.2</ele>
        <time>2022-06-02T09:04:08.000Z</time>
      </trkpt>
      <trkpt lat="42.93824" lon="1.12948">
        <ele>1127.5</ele>
        <time>2022-06-02T09:04:12.000Z</time>
      </trkpt>
      <trkpt lat="42.93822" lon="1.12932">
        <ele>1127.6</ele>
        <time>2022-06-02T09:04:15.000Z</time>
      </trkpt>
      <trkpt lat="42.93821" lon="1.12917">
        <ele>1127.6</ele>
        <time>2022-06-02T09:04:17.000Z</time>
      </trkpt>
      <trkpt lat="42.93823" lon="1.12902">
        <ele>1127.4</ele>
        <time>2022-06-02T09:04:19.000Z</time>
      </trkpt>
      <trkpt lat="42.93826" lon="1.12889">
        <ele>1126.6</ele>
        <time>2022-06-02T09:04:21.000Z</time>
      </trkpt>
      <trkpt lat="42.93827" lon="1.12876">
        <ele>1126.2</ele>
        <time>2022-06-02T09:04:23.000Z</time>
      </trkpt>
      <trkpt lat="42.93831" lon="1.12861">
        <ele>1126</ele>
        <time>2022-06-02T09:04:25.000Z</time>
      </trkpt>
      <trkpt lat="42.93834" lon="1.12843">
        <ele>1125.5</ele>
        <time>2022-06-02T09:04:27.000Z</time>
      </trkpt>
      <trkpt lat="42.93832" lon="1.12827">
        <ele>1124.8</ele>
        <time>2022-06-02T09:04:29.000Z</time>
      </trkpt>
      <trkpt lat="42.9383" lon="1.12812">
        <ele>1125</ele>
        <time>2022-06-02T09:04:31.000Z</time>
      </trkpt>
      <trkpt lat="42.93829" lon="1.12799">
        <ele>1124.9</ele>
        <time>2022-06-02T09:04:33.000Z</time>
      </trkpt>
      <trkpt lat="42.93829" lon="1.12786">
        <ele>1124.7</ele>
        <time>2022-06-02T09:04:35.000Z</time>
      </trkpt>
      <trkpt lat="42.93827" lon="1.12772">
        <ele>1123.6</ele>
        <time>2022-06-02T09:04:37.000Z</time>
      </trkpt>
      <trkpt lat="42.93825" lon="1.12759">
        <ele>1123.1</ele>
        <time>2022-06-02T09:04:39.000Z</time>
      </trkpt>
      <trkpt lat="42.93825" lon="1.12744">
        <ele>1122</ele>
        <time>2022-06-02T09:04:42.000Z</time>
      </trkpt>
      <trkpt lat="42.93827" lon="1.12726">
        <ele>1121.2</ele>
        <time>2022-06-02T09:04:45.000Z</time>
      </trkpt>
      <trkpt lat="42.93827" lon="1.12712">
        <ele>1120.4</ele>
        <time>2022-06-02T09:04:47.000Z</time>
      </trkpt>
      <trkpt lat="42.93827" lon="1.12699">
        <ele>1119.2</ele>
        <time>2022-06-02T09:04:49.000Z</time>
      </trkpt>
      <trkpt lat="42.93832" lon="1.12687">
        <ele>1118.4</ele>
        <time>2022-06-02T09:04:51.000Z</time>
      </trkpt>
      <trkpt lat="42.93838" lon="1.12674">
        <ele>1118.2</ele>
        <time>2022-06-02T09:04:53.000Z</time>
      </trkpt>
      <trkpt lat="42.93843" lon="1.1266">
        <ele>1117.6</ele>
        <time>2022-06-02T09:04:55.000Z</time>
      </trkpt>
      <trkpt lat="42.93848" lon="1.12646">
        <ele>1116.7</ele>
        <time>2022-06-02T09:04:57.000Z</time>
      </trkpt>
      <trkpt lat="42.93852" lon="1.12634">
        <ele>1115.9</ele>
        <time>2022-06-02T09:04:59.000Z</time>
      </trkpt>
      <trkpt lat="42.93861" lon="1.12624">
        <ele>1115.6</ele>
        <time>2022-06-02T09:05:01.000Z</time>
      </trkpt>
      <trkpt lat="42.93869" lon="1.12611">
        <ele>1115.4</ele>
        <time>2022-06-02T09:05:03.000Z</time>
      </trkpt>
      <trkpt lat="42.93876" lon="1.12601">
        <ele>1114.6</ele>
        <time>2022-06-02T09:05:05.000Z</time>
      </trkpt>
      <trkpt lat="42.93887" lon="1.12592">
        <ele>1113.6</ele>
        <time>2022-06-02T09:05:07.000Z</time>
      </trkpt>
      <trkpt lat="42.93896" lon="1.12587">
        <ele>1112.9</ele>
        <time>2022-06-02T09:05:09.000Z</time>
      </trkpt>
      <trkpt lat="42.93905" lon="1.12584">
        <ele>1112.4</ele>
        <time>2022-06-02T09:05:11.000Z</time>
      </trkpt>
      <trkpt lat="42.93914" lon="1.12578">
        <ele>1111.9</ele>
        <time>2022-06-02T09:05:13.000Z</time>
      </trkpt>
      <trkpt lat="42.93923" lon="1.12573">
        <ele>1111.8</ele>
        <time>2022-06-02T09:05:15.000Z</time>
      </trkpt>
      <trkpt lat="42.93931" lon="1.12569">
        <ele>1110.8</ele>
        <time>2022-06-02T09:05:18.000Z</time>
      </trkpt>
      <trkpt lat="42.9394" lon="1.12561">
        <ele>1109.8</ele>
        <time>2022-06-02T09:05:21.000Z</time>
      </trkpt>
      <trkpt lat="42.93949" lon="1.12556">
        <ele>1108.5</ele>
        <time>2022-06-02T09:05:24.000Z</time>
      </trkpt>
      <trkpt lat="42.93961" lon="1.12551">
        <ele>1107.7</ele>
        <time>2022-06-02T09:05:27.000Z</time>
      </trkpt>
      <trkpt lat="42.93973" lon="1.12546">
        <ele>1106.8</ele>
        <time>2022-06-02T09:05:29.000Z</time>
      </trkpt>
      <trkpt lat="42.93984" lon="1.12542">
        <ele>1105.4</ele>
        <time>2022-06-02T09:05:31.000Z</time>
      </trkpt>
      <trkpt lat="42.93995" lon="1.12541">
        <ele>1104.3</ele>
        <time>2022-06-02T09:05:33.000Z</time>
      </trkpt>
      <trkpt lat="42.94003" lon="1.12536">
        <ele>1103.7</ele>
        <time>2022-06-02T09:05:35.000Z</time>
      </trkpt>
      <trkpt lat="42.94012" lon="1.12532">
        <ele>1103.2</ele>
        <time>2022-06-02T09:05:37.000Z</time>
      </trkpt>
      <trkpt lat="42.9402" lon="1.12525">
        <ele>1102.1</ele>
        <time>2022-06-02T09:05:39.000Z</time>
      </trkpt>
      <trkpt lat="42.94027" lon="1.12512">
        <ele>1101.2</ele>
        <time>2022-06-02T09:05:41.000Z</time>
      </trkpt>
      <trkpt lat="42.94029" lon="1.12498">
        <ele>1100.7</ele>
        <time>2022-06-02T09:05:43.000Z</time>
      </trkpt>
      <trkpt lat="42.9403" lon="1.12485">
        <ele>1100.2</ele>
        <time>2022-06-02T09:05:45.000Z</time>
      </trkpt>
      <trkpt lat="42.9403" lon="1.12471">
        <ele>1099.8</ele>
        <time>2022-06-02T09:05:47.000Z</time>
      </trkpt>
      <trkpt lat="42.9403" lon="1.12458">
        <ele>1098.4</ele>
        <time>2022-06-02T09:05:49.000Z</time>
      </trkpt>
      <trkpt lat="42.94032" lon="1.12445">
        <ele>1097.8</ele>
        <time>2022-06-02T09:05:51.000Z</time>
      </trkpt>
      <trkpt lat="42.94036" lon="1.1243">
        <ele>1095.6</ele>
        <time>2022-06-02T09:05:54.000Z</time>
      </trkpt>
      <trkpt lat="42.94036" lon="1.12411">
        <ele>1095.2</ele>
        <time>2022-06-02T09:05:57.000Z</time>
      </trkpt>
      <trkpt lat="42.94033" lon="1.12392">
        <ele>1094.2</ele>
        <time>2022-06-02T09:05:59.000Z</time>
      </trkpt>
      <trkpt lat="42.9403" lon="1.12376">
        <ele>1093.6</ele>
        <time>2022-06-02T09:06:01.000Z</time>
      </trkpt>
      <trkpt lat="42.94029" lon="1.12361">
        <ele>1092.3</ele>
        <time>2022-06-02T09:06:04.000Z</time>
      </trkpt>
      <trkpt lat="42.94029" lon="1.12347">
        <ele>1092</ele>
        <time>2022-06-02T09:06:07.000Z</time>
      </trkpt>
      <trkpt lat="42.94029" lon="1.12331">
        <ele>1090.1</ele>
        <time>2022-06-02T09:06:11.000Z</time>
      </trkpt>
      <trkpt lat="42.94028" lon="1.12317">
        <ele>1088.4</ele>
        <time>2022-06-02T09:06:14.000Z</time>
      </trkpt>
      <trkpt lat="42.94028" lon="1.12303">
        <ele>1086.9</ele>
        <time>2022-06-02T09:06:17.000Z</time>
      </trkpt>
      <trkpt lat="42.9403" lon="1.12289">
        <ele>1083.7</ele>
        <time>2022-06-02T09:06:21.000Z</time>
      </trkpt>
      <trkpt lat="42.94025" lon="1.12277">
        <ele>1080.9</ele>
        <time>2022-06-02T09:06:25.000Z</time>
      </trkpt>
      <trkpt lat="42.94018" lon="1.12266">
        <ele>1079.2</ele>
        <time>2022-06-02T09:06:28.000Z</time>
      </trkpt>
      <trkpt lat="42.94013" lon="1.12253">
        <ele>1077.5</ele>
        <time>2022-06-02T09:06:32.000Z</time>
      </trkpt>
      <trkpt lat="42.9401" lon="1.12237">
        <ele>1074.7</ele>
        <time>2022-06-02T09:06:36.000Z</time>
      </trkpt>
      <trkpt lat="42.94013" lon="1.12224">
        <ele>1072.3</ele>
        <time>2022-06-02T09:06:40.000Z</time>
      </trkpt>
      <trkpt lat="42.94021" lon="1.12214">
        <ele>1070.4</ele>
        <time>2022-06-02T09:06:43.000Z</time>
      </trkpt>
      <trkpt lat="42.94029" lon="1.12203">
        <ele>1068.6</ele>
        <time>2022-06-02T09:06:46.000Z</time>
      </trkpt>
      <trkpt lat="42.94035" lon="1.12193">
        <ele>1066.4</ele>
        <time>2022-06-02T09:06:49.000Z</time>
      </trkpt>
      <trkpt lat="42.94047" lon="1.12186">
        <ele>1064</ele>
        <time>2022-06-02T09:06:53.000Z</time>
      </trkpt>
      <trkpt lat="42.94057" lon="1.1218">
        <ele>1061.9</ele>
        <time>2022-06-02T09:06:56.000Z</time>
      </trkpt>
      <trkpt lat="42.94067" lon="1.1217">
        <ele>1060.2</ele>
        <time>2022-06-02T09:06:59.000Z</time>
      </trkpt>
      <trkpt lat="42.94074" lon="1.1216">
        <ele>1058.7</ele>
        <time>2022-06-02T09:07:01.000Z</time>
      </trkpt>
      <trkpt lat="42.94078" lon="1.12145">
        <ele>1057.9</ele>
        <time>2022-06-02T09:07:03.000Z</time>
      </trkpt>
      <trkpt lat="42.94082" lon="1.12127">
        <ele>1056.2</ele>
        <time>2022-06-02T09:07:05.000Z</time>
      </trkpt>
      <trkpt lat="42.94087" lon="1.12113">
        <ele>1054.7</ele>
        <time>2022-06-02T09:07:07.000Z</time>
      </trkpt>
      <trkpt lat="42.94091" lon="1.12101">
        <ele>1053.4</ele>
        <time>2022-06-02T09:07:09.000Z</time>
      </trkpt>
      <trkpt lat="42.94093" lon="1.12085">
        <ele>1053.2</ele>
        <time>2022-06-02T09:07:11.000Z</time>
      </trkpt>
      <trkpt lat="42.94095" lon="1.12068">
        <ele>1052</ele>
        <time>2022-06-02T09:07:13.000Z</time>
      </trkpt>
      <trkpt lat="42.94097" lon="1.12048">
        <ele>1049.7</ele>
        <time>2022-06-02T09:07:15.000Z</time>
      </trkpt>
      <trkpt lat="42.94097" lon="1.12028">
        <ele>1047.9</ele>
        <time>2022-06-02T09:07:17.000Z</time>
      </trkpt>
      <trkpt lat="42.941" lon="1.12015">
        <ele>1047.2</ele>
        <time>2022-06-02T09:07:19.000Z</time>
      </trkpt>
      <trkpt lat="42.94105" lon="1.12004">
        <ele>1046.4</ele>
        <time>2022-06-02T09:07:21.000Z</time>
      </trkpt>
      <trkpt lat="42.9411" lon="1.11993">
        <ele>1044.5</ele>
        <time>2022-06-02T09:07:23.000Z</time>
      </trkpt>
      <trkpt lat="42.94116" lon="1.11979">
        <ele>1042.7</ele>
        <time>2022-06-02T09:07:26.000Z</time>
      </trkpt>
      <trkpt lat="42.9412" lon="1.11964">
        <ele>1040.7</ele>
        <time>2022-06-02T09:07:28.000Z</time>
      </trkpt>
      <trkpt lat="42.94126" lon="1.11949">
        <ele>1038.9</ele>
        <time>2022-06-02T09:07:31.000Z</time>
      </trkpt>
      <trkpt lat="42.94133" lon="1.11938">
        <ele>1036.8</ele>
        <time>2022-06-02T09:07:34.000Z</time>
      </trkpt>
      <trkpt lat="42.94136" lon="1.11926">
        <ele>1035.1</ele>
        <time>2022-06-02T09:07:36.000Z</time>
      </trkpt>
      <trkpt lat="42.94141" lon="1.11912">
        <ele>1032.8</ele>
        <time>2022-06-02T09:07:39.000Z</time>
      </trkpt>
      <trkpt lat="42.94144" lon="1.11896">
        <ele>1030</ele>
        <time>2022-06-02T09:07:42.000Z</time>
      </trkpt>
      <trkpt lat="42.94146" lon="1.11881">
        <ele>1027.5</ele>
        <time>2022-06-02T09:07:46.000Z</time>
      </trkpt>
      <trkpt lat="42.94146" lon="1.11869">
        <ele>1023.8</ele>
        <time>2022-06-02T09:07:50.000Z</time>
      </trkpt>
      <trkpt lat="42.9415" lon="1.11871">
        <ele>1018.2</ele>
        <time>2022-06-02T09:07:57.000Z</time>
      </trkpt>
      <trkpt lat="42.9415" lon="1.11872">
        <ele>1017.1</ele>
        <time>2022-06-02T09:07:58.000Z</time>
      </trkpt>
      <trkpt lat="42.94149" lon="1.11876">
        <ele>1012.4</ele>
        <time>2022-06-02T09:08:03.000Z</time>
      </trkpt>
      <trkpt lat="42.94142" lon="1.11887">
        <ele>972</ele>
        <time>2022-06-02T09:09:18.000Z</time>
      </trkpt>
      <trkpt lat="42.94136" lon="1.119">
        <ele>971.8</ele>
        <time>2022-06-02T09:09:22.000Z</time>
      </trkpt>
      <trkpt lat="42.9413" lon="1.11911">
        <ele>971.8</ele>
        <time>2022-06-02T09:09:25.000Z</time>
      </trkpt>
      <trkpt lat="42.94122" lon="1.1192">
        <ele>972.6</ele>
        <time>2022-06-02T09:09:28.000Z</time>
      </trkpt>
      <trkpt lat="42.94113" lon="1.1193">
        <ele>972.9</ele>
        <time>2022-06-02T09:09:31.000Z</time>
      </trkpt>
      <trkpt lat="42.94104" lon="1.11939">
        <ele>973.2</ele>
        <time>2022-06-02T09:09:34.000Z</time>
      </trkpt>
      <trkpt lat="42.94096" lon="1.1195">
        <ele>974.8</ele>
        <time>2022-06-02T09:09:37.000Z</time>
      </trkpt>
      <trkpt lat="42.94087" lon="1.11961">
        <ele>975.9</ele>
        <time>2022-06-02T09:09:40.000Z</time>
      </trkpt>
      <trkpt lat="42.9408" lon="1.11975">
        <ele>977.1</ele>
        <time>2022-06-02T09:09:43.000Z</time>
      </trkpt>
      <trkpt lat="42.94075" lon="1.11991">
        <ele>978.2</ele>
        <time>2022-06-02T09:09:46.000Z</time>
      </trkpt>
      <trkpt lat="42.94071" lon="1.12007">
        <ele>979.6</ele>
        <time>2022-06-02T09:09:49.000Z</time>
      </trkpt>
      <trkpt lat="42.9407" lon="1.12025">
        <ele>980.7</ele>
        <time>2022-06-02T09:09:52.000Z</time>
      </trkpt>
      <trkpt lat="42.94068" lon="1.12041">
        <ele>982.2</ele>
        <time>2022-06-02T09:09:55.000Z</time>
      </trkpt>
      <trkpt lat="42.94062" lon="1.12055">
        <ele>983.7</ele>
        <time>2022-06-02T09:09:58.000Z</time>
      </trkpt>
      <trkpt lat="42.94055" lon="1.12067">
        <ele>985.5</ele>
        <time>2022-06-02T09:10:01.000Z</time>
      </trkpt>
      <trkpt lat="42.94049" lon="1.12082">
        <ele>986.4</ele>
        <time>2022-06-02T09:10:04.000Z</time>
      </trkpt>
      <trkpt lat="42.94041" lon="1.12092">
        <ele>988.1</ele>
        <time>2022-06-02T09:10:07.000Z</time>
      </trkpt>
      <trkpt lat="42.94032" lon="1.121">
        <ele>989.8</ele>
        <time>2022-06-02T09:10:10.000Z</time>
      </trkpt>
      <trkpt lat="42.94021" lon="1.12109">
        <ele>991.3</ele>
        <time>2022-06-02T09:10:13.000Z</time>
      </trkpt>
      <trkpt lat="42.9401" lon="1.12117">
        <ele>993.2</ele>
        <time>2022-06-02T09:10:16.000Z</time>
      </trkpt>
      <trkpt lat="42.93998" lon="1.12126">
        <ele>995</ele>
        <time>2022-06-02T09:10:19.000Z</time>
      </trkpt>
      <trkpt lat="42.93991" lon="1.12133">
        <ele>995.8</ele>
        <time>2022-06-02T09:10:21.000Z</time>
      </trkpt>
      <trkpt lat="42.93981" lon="1.12144">
        <ele>997.9</ele>
        <time>2022-06-02T09:10:24.000Z</time>
      </trkpt>
      <trkpt lat="42.93972" lon="1.12158">
        <ele>999.9</ele>
        <time>2022-06-02T09:10:27.000Z</time>
      </trkpt>
      <trkpt lat="42.93965" lon="1.12166">
        <ele>1000.3</ele>
        <time>2022-06-02T09:10:29.000Z</time>
      </trkpt>
      <trkpt lat="42.93958" lon="1.12175">
        <ele>1001.5</ele>
        <time>2022-06-02T09:10:31.000Z</time>
      </trkpt>
      <trkpt lat="42.93952" lon="1.12185">
        <ele>1002.7</ele>
        <time>2022-06-02T09:10:33.000Z</time>
      </trkpt>
      <trkpt lat="42.93944" lon="1.122">
        <ele>1004.4</ele>
        <time>2022-06-02T09:10:36.000Z</time>
      </trkpt>
      <trkpt lat="42.93937" lon="1.12215">
        <ele>1005.4</ele>
        <time>2022-06-02T09:10:39.000Z</time>
      </trkpt>
      <trkpt lat="42.93932" lon="1.12231">
        <ele>1007</ele>
        <time>2022-06-02T09:10:42.000Z</time>
      </trkpt>
      <trkpt lat="42.93929" lon="1.12247">
        <ele>1008.7</ele>
        <time>2022-06-02T09:10:45.000Z</time>
      </trkpt>
      <trkpt lat="42.93925" lon="1.12263">
        <ele>1009.9</ele>
        <time>2022-06-02T09:10:48.000Z</time>
      </trkpt>
      <trkpt lat="42.93924" lon="1.12279">
        <ele>1011.4</ele>
        <time>2022-06-02T09:10:51.000Z</time>
      </trkpt>
      <trkpt lat="42.93925" lon="1.12296">
        <ele>1013.2</ele>
        <time>2022-06-02T09:10:54.000Z</time>
      </trkpt>
      <trkpt lat="42.93918" lon="1.12308">
        <ele>1014.4</ele>
        <time>2022-06-02T09:10:57.000Z</time>
      </trkpt>
      <trkpt lat="42.93907" lon="1.12316">
        <ele>1016.2</ele>
        <time>2022-06-02T09:11:00.000Z</time>
      </trkpt>
      <trkpt lat="42.93896" lon="1.12324">
        <ele>1018</ele>
        <time>2022-06-02T09:11:03.000Z</time>
      </trkpt>
      <trkpt lat="42.93886" lon="1.12335">
        <ele>1019.4</ele>
        <time>2022-06-02T09:11:06.000Z</time>
      </trkpt>
      <trkpt lat="42.93876" lon="1.12347">
        <ele>1021.5</ele>
        <time>2022-06-02T09:11:09.000Z</time>
      </trkpt>
      <trkpt lat="42.93866" lon="1.12356">
        <ele>1023.4</ele>
        <time>2022-06-02T09:11:12.000Z</time>
      </trkpt>
      <trkpt lat="42.93856" lon="1.12367">
        <ele>1025.2</ele>
        <time>2022-06-02T09:11:15.000Z</time>
      </trkpt>
      <trkpt lat="42.93848" lon="1.1238">
        <ele>1027</ele>
        <time>2022-06-02T09:11:18.000Z</time>
      </trkpt>
      <trkpt lat="42.93841" lon="1.12392">
        <ele>1028.8</ele>
        <time>2022-06-02T09:11:21.000Z</time>
      </trkpt>
      <trkpt lat="42.93832" lon="1.12406">
        <ele>1030.2</ele>
        <time>2022-06-02T09:11:24.000Z</time>
      </trkpt>
      <trkpt lat="42.93824" lon="1.12419">
        <ele>1031.9</ele>
        <time>2022-06-02T09:11:27.000Z</time>
      </trkpt>
      <trkpt lat="42.93816" lon="1.12432">
        <ele>1033.5</ele>
        <time>2022-06-02T09:11:30.000Z</time>
      </trkpt>
      <trkpt lat="42.93809" lon="1.12446">
        <ele>1035.3</ele>
        <time>2022-06-02T09:11:33.000Z</time>
      </trkpt>
      <trkpt lat="42.93803" lon="1.12462">
        <ele>1037.1</ele>
        <time>2022-06-02T09:11:36.000Z</time>
      </trkpt>
      <trkpt lat="42.938" lon="1.12478">
        <ele>1038.7</ele>
        <time>2022-06-02T09:11:39.000Z</time>
      </trkpt>
      <trkpt lat="42.93795" lon="1.12493">
        <ele>1039.9</ele>
        <time>2022-06-02T09:11:42.000Z</time>
      </trkpt>
      <trkpt lat="42.93788" lon="1.12507">
        <ele>1041.7</ele>
        <time>2022-06-02T09:11:45.000Z</time>
      </trkpt>
      <trkpt lat="42.9378" lon="1.1252">
        <ele>1043.6</ele>
        <time>2022-06-02T09:11:48.000Z</time>
      </trkpt>
      <trkpt lat="42.93772" lon="1.12533">
        <ele>1044.7</ele>
        <time>2022-06-02T09:11:51.000Z</time>
      </trkpt>
      <trkpt lat="42.93763" lon="1.12548">
        <ele>1046.5</ele>
        <time>2022-06-02T09:11:54.000Z</time>
      </trkpt>
      <trkpt lat="42.93758" lon="1.12558">
        <ele>1048.1</ele>
        <time>2022-06-02T09:11:56.000Z</time>
      </trkpt>
      <trkpt lat="42.93753" lon="1.1257">
        <ele>1049.8</ele>
        <time>2022-06-02T09:11:58.000Z</time>
      </trkpt>
      <trkpt lat="42.93749" lon="1.12582">
        <ele>1050.9</ele>
        <time>2022-06-02T09:12:00.000Z</time>
      </trkpt>
      <trkpt lat="42.93745" lon="1.12593">
        <ele>1052.3</ele>
        <time>2022-06-02T09:12:02.000Z</time>
      </trkpt>
      <trkpt lat="42.9374" lon="1.12603">
        <ele>1053.2</ele>
        <time>2022-06-02T09:12:04.000Z</time>
      </trkpt>
      <trkpt lat="42.93734" lon="1.12614">
        <ele>1054.5</ele>
        <time>2022-06-02T09:12:06.000Z</time>
      </trkpt>
      <trkpt lat="42.93728" lon="1.12623">
        <ele>1055.3</ele>
        <time>2022-06-02T09:12:08.000Z</time>
      </trkpt>
      <trkpt lat="42.9372" lon="1.12637">
        <ele>1057.9</ele>
        <time>2022-06-02T09:12:11.000Z</time>
      </trkpt>
      <trkpt lat="42.93714" lon="1.12646">
        <ele>1059</ele>
        <time>2022-06-02T09:12:13.000Z</time>
      </trkpt>
      <trkpt lat="42.93706" lon="1.1266">
        <ele>1060.5</ele>
        <time>2022-06-02T09:12:16.000Z</time>
      </trkpt>
      <trkpt lat="42.93698" lon="1.12675">
        <ele>1061.9</ele>
        <time>2022-06-02T09:12:19.000Z</time>
      </trkpt>
      <trkpt lat="42.93691" lon="1.12689">
        <ele>1062.4</ele>
        <time>2022-06-02T09:12:22.000Z</time>
      </trkpt>
      <trkpt lat="42.93684" lon="1.12703">
        <ele>1064</ele>
        <time>2022-06-02T09:12:25.000Z</time>
      </trkpt>
      <trkpt lat="42.93675" lon="1.12716">
        <ele>1065.3</ele>
        <time>2022-06-02T09:12:28.000Z</time>
      </trkpt>
      <trkpt lat="42.93666" lon="1.12726">
        <ele>1067.2</ele>
        <time>2022-06-02T09:12:31.000Z</time>
      </trkpt>
      <trkpt lat="42.93658" lon="1.12737">
        <ele>1068.5</ele>
        <time>2022-06-02T09:12:34.000Z</time>
      </trkpt>
      <trkpt lat="42.93663" lon="1.1275">
        <ele>1069.4</ele>
        <time>2022-06-02T09:12:37.000Z</time>
      </trkpt>
      <trkpt lat="42.93674" lon="1.12741">
        <ele>1070.8</ele>
        <time>2022-06-02T09:12:40.000Z</time>
      </trkpt>
      <trkpt lat="42.93682" lon="1.12732">
        <ele>1071.5</ele>
        <time>2022-06-02T09:12:42.000Z</time>
      </trkpt>
      <trkpt lat="42.93691" lon="1.12724">
        <ele>1072.7</ele>
        <time>2022-06-02T09:12:44.000Z</time>
      </trkpt>
      <trkpt lat="42.937" lon="1.12717">
        <ele>1073.4</ele>
        <time>2022-06-02T09:12:46.000Z</time>
      </trkpt>
      <trkpt lat="42.9371" lon="1.12711">
        <ele>1073.9</ele>
        <time>2022-06-02T09:12:48.000Z</time>
      </trkpt>
      <trkpt lat="42.9372" lon="1.12706">
        <ele>1074.9</ele>
        <time>2022-06-02T09:12:50.000Z</time>
      </trkpt>
      <trkpt lat="42.93729" lon="1.12702">
        <ele>1075.4</ele>
        <time>2022-06-02T09:12:52.000Z</time>
      </trkpt>
      <trkpt lat="42.93739" lon="1.12697">
        <ele>1076.4</ele>
        <time>2022-06-02T09:12:54.000Z</time>
      </trkpt>
      <trkpt lat="42.93748" lon="1.12693">
        <ele>1077.6</ele>
        <time>2022-06-02T09:12:56.000Z</time>
      </trkpt>
      <trkpt lat="42.93758" lon="1.12688">
        <ele>1078.2</ele>
        <time>2022-06-02T09:12:58.000Z</time>
      </trkpt>
      <trkpt lat="42.93767" lon="1.12682">
        <ele>1079.5</ele>
        <time>2022-06-02T09:13:00.000Z</time>
      </trkpt>
      <trkpt lat="42.93779" lon="1.12675">
        <ele>1080.4</ele>
        <time>2022-06-02T09:13:03.000Z</time>
      </trkpt>
      <trkpt lat="42.93784" lon="1.12687">
        <ele>1081.9</ele>
        <time>2022-06-02T09:13:07.000Z</time>
      </trkpt>
      <trkpt lat="42.93771" lon="1.12694">
        <ele>1083.1</ele>
        <time>2022-06-02T09:13:10.000Z</time>
      </trkpt>
      <trkpt lat="42.93763" lon="1.127">
        <ele>1083.8</ele>
        <time>2022-06-02T09:13:12.000Z</time>
      </trkpt>
      <trkpt lat="42.93752" lon="1.12711">
        <ele>1085</ele>
        <time>2022-06-02T09:13:15.000Z</time>
      </trkpt>
      <trkpt lat="42.93745" lon="1.1272">
        <ele>1086.3</ele>
        <time>2022-06-02T09:13:17.000Z</time>
      </trkpt>
      <trkpt lat="42.93738" lon="1.12728">
        <ele>1087.2</ele>
        <time>2022-06-02T09:13:19.000Z</time>
      </trkpt>
      <trkpt lat="42.93731" lon="1.12736">
        <ele>1087.6</ele>
        <time>2022-06-02T09:13:21.000Z</time>
      </trkpt>
      <trkpt lat="42.93723" lon="1.12745">
        <ele>1088.9</ele>
        <time>2022-06-02T09:13:23.000Z</time>
      </trkpt>
      <trkpt lat="42.93714" lon="1.12753">
        <ele>1089.3</ele>
        <time>2022-06-02T09:13:25.000Z</time>
      </trkpt>
      <trkpt lat="42.93708" lon="1.12765">
        <ele>1090.2</ele>
        <time>2022-06-02T09:13:28.000Z</time>
      </trkpt>
      <trkpt lat="42.93721" lon="1.12765">
        <ele>1092.7</ele>
        <time>2022-06-02T09:13:32.000Z</time>
      </trkpt>
      <trkpt lat="42.9373" lon="1.1276">
        <ele>1092.9</ele>
        <time>2022-06-02T09:13:34.000Z</time>
      </trkpt>
      <trkpt lat="42.9374" lon="1.12757">
        <ele>1093.5</ele>
        <time>2022-06-02T09:13:36.000Z</time>
      </trkpt>
      <trkpt lat="42.93749" lon="1.12757">
        <ele>1093.9</ele>
        <time>2022-06-02T09:13:38.000Z</time>
      </trkpt>
      <trkpt lat="42.93759" lon="1.12758">
        <ele>1094.4</ele>
        <time>2022-06-02T09:13:40.000Z</time>
      </trkpt>
      <trkpt lat="42.93768" lon="1.12759">
        <ele>1095.1</ele>
        <time>2022-06-02T09:13:42.000Z</time>
      </trkpt>
      <trkpt lat="42.9378" lon="1.12763">
        <ele>1096.3</ele>
        <time>2022-06-02T09:13:45.000Z</time>
      </trkpt>
      <trkpt lat="42.93792" lon="1.1277">
        <ele>1097.7</ele>
        <time>2022-06-02T09:13:48.000Z</time>
      </trkpt>
      <trkpt lat="42.93803" lon="1.12778">
        <ele>1099.8</ele>
        <time>2022-06-02T09:13:51.000Z</time>
      </trkpt>
      <trkpt lat="42.93813" lon="1.12789">
        <ele>1100.4</ele>
        <time>2022-06-02T09:13:54.000Z</time>
      </trkpt>
      <trkpt lat="42.93821" lon="1.128">
        <ele>1101.8</ele>
        <time>2022-06-02T09:13:57.000Z</time>
      </trkpt>
      <trkpt lat="42.93828" lon="1.12812">
        <ele>1104.2</ele>
        <time>2022-06-02T09:14:01.000Z</time>
      </trkpt>
      <trkpt lat="42.93832" lon="1.12827">
        <ele>1105</ele>
        <time>2022-06-02T09:14:04.000Z</time>
      </trkpt>
      <trkpt lat="42.93834" lon="1.12839">
        <ele>1105.7</ele>
        <time>2022-06-02T09:14:06.000Z</time>
      </trkpt>
      <trkpt lat="42.93832" lon="1.12855">
        <ele>1107</ele>
        <time>2022-06-02T09:14:09.000Z</time>
      </trkpt>
      <trkpt lat="42.93829" lon="1.12869">
        <ele>1108.7</ele>
        <time>2022-06-02T09:14:12.000Z</time>
      </trkpt>
      <trkpt lat="42.93827" lon="1.12881">
        <ele>1110.2</ele>
        <time>2022-06-02T09:14:15.000Z</time>
      </trkpt>
      <trkpt lat="42.93825" lon="1.12895">
        <ele>1111.8</ele>
        <time>2022-06-02T09:14:18.000Z</time>
      </trkpt>
      <trkpt lat="42.93822" lon="1.12909">
        <ele>1113.2</ele>
        <time>2022-06-02T09:14:22.000Z</time>
      </trkpt>
      <trkpt lat="42.93821" lon="1.12924">
        <ele>1115.4</ele>
        <time>2022-06-02T09:14:26.000Z</time>
      </trkpt>
      <trkpt lat="42.93823" lon="1.12938">
        <ele>1117.2</ele>
        <time>2022-06-02T09:14:29.000Z</time>
      </trkpt>
      <trkpt lat="42.93823" lon="1.12952">
        <ele>1118.6</ele>
        <time>2022-06-02T09:14:33.000Z</time>
      </trkpt>
      <trkpt lat="42.93824" lon="1.12966">
        <ele>1120.1</ele>
        <time>2022-06-02T09:14:36.000Z</time>
      </trkpt>
      <trkpt lat="42.93822" lon="1.12979">
        <ele>1120.8</ele>
        <time>2022-06-02T09:14:39.000Z</time>
      </trkpt>
      <trkpt lat="42.9382" lon="1.12994">
        <ele>1121.8</ele>
        <time>2022-06-02T09:14:42.000Z</time>
      </trkpt>
      <trkpt lat="42.93816" lon="1.13009">
        <ele>1123.6</ele>
        <time>2022-06-02T09:14:45.000Z</time>
      </trkpt>
      <trkpt lat="42.93812" lon="1.13021">
        <ele>1125.2</ele>
        <time>2022-06-02T09:14:48.000Z</time>
      </trkpt>
      <trkpt lat="42.93808" lon="1.13037">
        <ele>1126.3</ele>
        <time>2022-06-02T09:14:51.000Z</time>
      </trkpt>
      <trkpt lat="42.93806" lon="1.13055">
        <ele>1126.9</ele>
        <time>2022-06-02T09:14:54.000Z</time>
      </trkpt>
      <trkpt lat="42.93805" lon="1.13069">
        <ele>1127.2</ele>
        <time>2022-06-02T09:14:56.000Z</time>
      </trkpt>
      <trkpt lat="42.93808" lon="1.13085">
        <ele>1128.8</ele>
        <time>2022-06-02T09:14:59.000Z</time>
      </trkpt>
      <trkpt lat="42.9381" lon="1.13097">
        <ele>1129.7</ele>
        <time>2022-06-02T09:15:01.000Z</time>
      </trkpt>
      <trkpt lat="42.93813" lon="1.1311">
        <ele>1130</ele>
        <time>2022-06-02T09:15:03.000Z</time>
      </trkpt>
      <trkpt lat="42.93818" lon="1.13122">
        <ele>1130.1</ele>
        <time>2022-06-02T09:15:05.000Z</time>
      </trkpt>
      <trkpt lat="42.93824" lon="1.13135">
        <ele>1131.1</ele>
        <time>2022-06-02T09:15:08.000Z</time>
      </trkpt>
      <trkpt lat="42.93827" lon="1.13149">
        <ele>1132</ele>
        <time>2022-06-02T09:15:11.000Z</time>
      </trkpt>
      <trkpt lat="42.93831" lon="1.13166">
        <ele>1132.9</ele>
        <time>2022-06-02T09:15:14.000Z</time>
      </trkpt>
      <trkpt lat="42.93836" lon="1.13177">
        <ele>1132.5</ele>
        <time>2022-06-02T09:15:16.000Z</time>
      </trkpt>
      <trkpt lat="42.9384" lon="1.13189">
        <ele>1134</ele>
        <time>2022-06-02T09:15:18.000Z</time>
      </trkpt>
      <trkpt lat="42.93844" lon="1.13202">
        <ele>1134.1</ele>
        <time>2022-06-02T09:15:20.000Z</time>
      </trkpt>
      <trkpt lat="42.93848" lon="1.13215">
        <ele>1134</ele>
        <time>2022-06-02T09:15:22.000Z</time>
      </trkpt>
      <trkpt lat="42.93855" lon="1.13228">
        <ele>1134.9</ele>
        <time>2022-06-02T09:15:24.000Z</time>
      </trkpt>
      <trkpt lat="42.93863" lon="1.13244">
        <ele>1135.7</ele>
        <time>2022-06-02T09:15:27.000Z</time>
      </trkpt>
      <trkpt lat="42.9387" lon="1.13257">
        <ele>1136.1</ele>
        <time>2022-06-02T09:15:29.000Z</time>
      </trkpt>
      <trkpt lat="42.93876" lon="1.13267">
        <ele>1136.3</ele>
        <time>2022-06-02T09:15:31.000Z</time>
      </trkpt>
      <trkpt lat="42.9388" lon="1.13285">
        <ele>1137.4</ele>
        <time>2022-06-02T09:15:34.000Z</time>
      </trkpt>
      <trkpt lat="42.93881" lon="1.13298">
        <ele>1137.9</ele>
        <time>2022-06-02T09:15:36.000Z</time>
      </trkpt>
      <trkpt lat="42.93883" lon="1.1331">
        <ele>1138.4</ele>
        <time>2022-06-02T09:15:38.000Z</time>
      </trkpt>
      <trkpt lat="42.93886" lon="1.13322">
        <ele>1138.6</ele>
        <time>2022-06-02T09:15:40.000Z</time>
      </trkpt>
      <trkpt lat="42.93889" lon="1.13335">
        <ele>1139</ele>
        <time>2022-06-02T09:15:42.000Z</time>
      </trkpt>
      <trkpt lat="42.93894" lon="1.1335">
        <ele>1139.6</ele>
        <time>2022-06-02T09:15:45.000Z</time>
      </trkpt>
      <trkpt lat="42.93892" lon="1.13368">
        <ele>1140.3</ele>
        <time>2022-06-02T09:15:48.000Z</time>
      </trkpt>
      <trkpt lat="42.93886" lon="1.13383">
        <ele>1141</ele>
        <time>2022-06-02T09:15:51.000Z</time>
      </trkpt>
      <trkpt lat="42.93882" lon="1.13395">
        <ele>1141.9</ele>
        <time>2022-06-02T09:15:54.000Z</time>
      </trkpt>
      <trkpt lat="42.93878" lon="1.13408">
        <ele>1143.2</ele>
        <time>2022-06-02T09:15:57.000Z</time>
      </trkpt>
      <trkpt lat="42.93874" lon="1.13423">
        <ele>1144.2</ele>
        <time>2022-06-02T09:16:00.000Z</time>
      </trkpt>
      <trkpt lat="42.93872" lon="1.1344">
        <ele>1144.9</ele>
        <time>2022-06-02T09:16:03.000Z</time>
      </trkpt>
      <trkpt lat="42.93871" lon="1.13456">
        <ele>1145.8</ele>
        <time>2022-06-02T09:16:06.000Z</time>
      </trkpt>
      <trkpt lat="42.93868" lon="1.13469">
        <ele>1146.9</ele>
        <time>2022-06-02T09:16:09.000Z</time>
      </trkpt>
      <trkpt lat="42.93864" lon="1.1348">
        <ele>1147.9</ele>
        <time>2022-06-02T09:16:12.000Z</time>
      </trkpt>
      <trkpt lat="42.9386" lon="1.13494">
        <ele>1149</ele>
        <time>2022-06-02T09:16:16.000Z</time>
      </trkpt>
      <trkpt lat="42.93855" lon="1.13505">
        <ele>1150.6</ele>
        <time>2022-06-02T09:16:20.000Z</time>
      </trkpt>
      <trkpt lat="42.93849" lon="1.13515">
        <ele>1151.8</ele>
        <time>2022-06-02T09:16:23.000Z</time>
      </trkpt>
      <trkpt lat="42.93841" lon="1.13522">
        <ele>1152.5</ele>
        <time>2022-06-02T09:16:26.000Z</time>
      </trkpt>
      <trkpt lat="42.93831" lon="1.13527">
        <ele>1154.3</ele>
        <time>2022-06-02T09:16:30.000Z</time>
      </trkpt>
      <trkpt lat="42.93822" lon="1.13532">
        <ele>1155</ele>
        <time>2022-06-02T09:16:33.000Z</time>
      </trkpt>
      <trkpt lat="42.93811" lon="1.13537">
        <ele>1156.3</ele>
        <time>2022-06-02T09:16:37.000Z</time>
      </trkpt>
      <trkpt lat="42.93802" lon="1.13537">
        <ele>1156.9</ele>
        <time>2022-06-02T09:16:40.000Z</time>
      </trkpt>
      <trkpt lat="42.93791" lon="1.13535">
        <ele>1158</ele>
        <time>2022-06-02T09:16:44.000Z</time>
      </trkpt>
      <trkpt lat="42.93779" lon="1.13532">
        <ele>1158.9</ele>
        <time>2022-06-02T09:16:48.000Z</time>
      </trkpt>
      <trkpt lat="42.9377" lon="1.13531">
        <ele>1159.9</ele>
        <time>2022-06-02T09:16:51.000Z</time>
      </trkpt>
      <trkpt lat="42.9376" lon="1.13527">
        <ele>1160.7</ele>
        <time>2022-06-02T09:16:55.000Z</time>
      </trkpt>
      <trkpt lat="42.93751" lon="1.1353">
        <ele>1161.8</ele>
        <time>2022-06-02T09:16:58.000Z</time>
      </trkpt>
      <trkpt lat="42.93741" lon="1.13535">
        <ele>1162.8</ele>
        <time>2022-06-02T09:17:02.000Z</time>
      </trkpt>
      <trkpt lat="42.93735" lon="1.13544">
        <ele>1164</ele>
        <time>2022-06-02T09:17:06.000Z</time>
      </trkpt>
      <trkpt lat="42.93729" lon="1.13557">
        <ele>1166.3</ele>
        <time>2022-06-02T09:17:11.000Z</time>
      </trkpt>
      <trkpt lat="42.93721" lon="1.13566">
        <ele>1167.9</ele>
        <time>2022-06-02T09:17:16.000Z</time>
      </trkpt>
      <trkpt lat="42.93712" lon="1.1357">
        <ele>1169.1</ele>
        <time>2022-06-02T09:17:20.000Z</time>
      </trkpt>
      <trkpt lat="42.93701" lon="1.13572">
        <ele>1170.7</ele>
        <time>2022-06-02T09:17:25.000Z</time>
      </trkpt>
      <trkpt lat="42.93691" lon="1.13573">
        <ele>1172.1</ele>
        <time>2022-06-02T09:17:29.000Z</time>
      </trkpt>
      <trkpt lat="42.93681" lon="1.13577">
        <ele>1173.5</ele>
        <time>2022-06-02T09:17:33.000Z</time>
      </trkpt>
      <trkpt lat="42.93672" lon="1.13582">
        <ele>1174.5</ele>
        <time>2022-06-02T09:17:37.000Z</time>
      </trkpt>
      <trkpt lat="42.93666" lon="1.13589">
        <ele>1176.5</ele>
        <time>2022-06-02T09:17:46.000Z</time>
      </trkpt>
      <trkpt lat="42.93666" lon="1.13588">
        <ele>1160.1</ele>
        <time>2022-06-02T09:17:58.000Z</time>
      </trkpt>
      <trkpt lat="42.93665" lon="1.13587">
        <ele>1177.3</ele>
        <time>2022-06-02T09:19:00.000Z</time>
      </trkpt>
      <trkpt lat="42.93664" lon="1.13587">
        <ele>1177.2</ele>
        <time>2022-06-02T09:19:01.000Z</time>
      </trkpt>
      <trkpt lat="42.93657" lon="1.13584">
        <ele>1177</ele>
        <time>2022-06-02T09:19:12.000Z</time>
      </trkpt>
      <trkpt lat="42.93655" lon="1.13581">
        <ele>1174.9</ele>
        <time>2022-06-02T09:19:34.000Z</time>
      </trkpt>
      <trkpt lat="42.93657" lon="1.13579">
        <ele>1175.5</ele>
        <time>2022-06-02T09:19:41.000Z</time>
      </trkpt>
      <trkpt lat="42.93657" lon="1.1358">
        <ele>1176.8</ele>
        <time>2022-06-02T09:19:45.000Z</time>
      </trkpt>
      <trkpt lat="42.93652" lon="1.13584">
        <ele>1178.4</ele>
        <time>2022-06-02T09:19:52.000Z</time>
      </trkpt>
      <trkpt lat="42.93651" lon="1.13584">
        <ele>1178.5</ele>
        <time>2022-06-02T09:20:00.000Z</time>
      </trkpt>
      <trkpt lat="42.93652" lon="1.13582">
        <ele>1178.5</ele>
        <time>2022-06-02T09:20:07.000Z</time>
      </trkpt>
      <trkpt lat="42.93653" lon="1.13583">
        <ele>1175.8</ele>
        <time>2022-06-02T09:20:30.000Z</time>
      </trkpt>
      <trkpt lat="42.93654" lon="1.13583">
        <ele>1179.5</ele>
        <time>2022-06-02T09:20:38.000Z</time>
      </trkpt>
      <trkpt lat="42.93656" lon="1.13583">
        <ele>1179.5</ele>
        <time>2022-06-02T09:20:43.000Z</time>
      </trkpt>
      <trkpt lat="42.93657" lon="1.13584">
        <ele>1179.3</ele>
        <time>2022-06-02T09:20:45.000Z</time>
      </trkpt>
      <trkpt lat="42.93657" lon="1.13585">
        <ele>1179.4</ele>
        <time>2022-06-02T09:20:51.000Z</time>
      </trkpt>
      <trkpt lat="42.93658" lon="1.13599">
        <ele>1179.9</ele>
        <time>2022-06-02T09:20:56.000Z</time>
      </trkpt>
      <trkpt lat="42.93659" lon="1.13613">
        <ele>1180.2</ele>
        <time>2022-06-02T09:21:01.000Z</time>
      </trkpt>
      <trkpt lat="42.93654" lon="1.13625">
        <ele>1181.4</ele>
        <time>2022-06-02T09:21:06.000Z</time>
      </trkpt>
      <trkpt lat="42.9365" lon="1.13636">
        <ele>1182.4</ele>
        <time>2022-06-02T09:21:11.000Z</time>
      </trkpt>
      <trkpt lat="42.93649" lon="1.13649">
        <ele>1183.7</ele>
        <time>2022-06-02T09:21:15.000Z</time>
      </trkpt>
      <trkpt lat="42.93642" lon="1.13658">
        <ele>1185.1</ele>
        <time>2022-06-02T09:21:20.000Z</time>
      </trkpt>
      <trkpt lat="42.93636" lon="1.13667">
        <ele>1186.6</ele>
        <time>2022-06-02T09:21:25.000Z</time>
      </trkpt>
      <trkpt lat="42.93636" lon="1.1368">
        <ele>1188.1</ele>
        <time>2022-06-02T09:21:29.000Z</time>
      </trkpt>
      <trkpt lat="42.93636" lon="1.13693">
        <ele>1189</ele>
        <time>2022-06-02T09:21:33.000Z</time>
      </trkpt>
      <trkpt lat="42.9363" lon="1.13705">
        <ele>1190.5</ele>
        <time>2022-06-02T09:21:38.000Z</time>
      </trkpt>
      <trkpt lat="42.93624" lon="1.13714">
        <ele>1193</ele>
        <time>2022-06-02T09:21:46.000Z</time>
      </trkpt>
      <trkpt lat="42.93623" lon="1.13714">
        <ele>1194.3</ele>
        <time>2022-06-02T09:21:50.000Z</time>
      </trkpt>
      <trkpt lat="42.93621" lon="1.13728">
        <ele>1197.6</ele>
        <time>2022-06-02T09:22:02.000Z</time>
      </trkpt>
      <trkpt lat="42.93614" lon="1.13736">
        <ele>1199.4</ele>
        <time>2022-06-02T09:22:07.000Z</time>
      </trkpt>
      <trkpt lat="42.93611" lon="1.13747">
        <ele>1201.5</ele>
        <time>2022-06-02T09:22:12.000Z</time>
      </trkpt>
      <trkpt lat="42.93609" lon="1.13759">
        <ele>1203.4</ele>
        <time>2022-06-02T09:22:17.000Z</time>
      </trkpt>
      <trkpt lat="42.93605" lon="1.13772">
        <ele>1206.2</ele>
        <time>2022-06-02T09:22:24.000Z</time>
      </trkpt>
      <trkpt lat="42.93615" lon="1.13773">
        <ele>1207.6</ele>
        <time>2022-06-02T09:22:29.000Z</time>
      </trkpt>
      <trkpt lat="42.93624" lon="1.13775">
        <ele>1208.7</ele>
        <time>2022-06-02T09:22:35.000Z</time>
      </trkpt>
      <trkpt lat="42.93632" lon="1.13778">
        <ele>1210.3</ele>
        <time>2022-06-02T09:22:41.000Z</time>
      </trkpt>
      <trkpt lat="42.93642" lon="1.1378">
        <ele>1212.2</ele>
        <time>2022-06-02T09:22:48.000Z</time>
      </trkpt>
      <trkpt lat="42.93642" lon="1.13767">
        <ele>1215.1</ele>
        <time>2022-06-02T09:23:05.000Z</time>
      </trkpt>
      <trkpt lat="42.93647" lon="1.13756">
        <ele>1215.1</ele>
        <time>2022-06-02T09:23:13.000Z</time>
      </trkpt>
      <trkpt lat="42.93653" lon="1.13746">
        <ele>1215.1</ele>
        <time>2022-06-02T09:23:19.000Z</time>
      </trkpt>
      <trkpt lat="42.9366" lon="1.13739">
        <ele>1214.6</ele>
        <time>2022-06-02T09:23:24.000Z</time>
      </trkpt>
      <trkpt lat="42.93668" lon="1.1373">
        <ele>1214.5</ele>
        <time>2022-06-02T09:23:31.000Z</time>
      </trkpt>
      <trkpt lat="42.93676" lon="1.13721">
        <ele>1213.1</ele>
        <time>2022-06-02T09:23:38.000Z</time>
      </trkpt>
      <trkpt lat="42.93684" lon="1.13712">
        <ele>1212.7</ele>
        <time>2022-06-02T09:23:43.000Z</time>
      </trkpt>
      <trkpt lat="42.93692" lon="1.13704">
        <ele>1211.6</ele>
        <time>2022-06-02T09:23:48.000Z</time>
      </trkpt>
      <trkpt lat="42.93702" lon="1.13698">
        <ele>1211</ele>
        <time>2022-06-02T09:23:52.000Z</time>
      </trkpt>
      <trkpt lat="42.93708" lon="1.13689">
        <ele>1210.4</ele>
        <time>2022-06-02T09:23:56.000Z</time>
      </trkpt>
      <trkpt lat="42.93715" lon="1.13678">
        <ele>1209.3</ele>
        <time>2022-06-02T09:24:01.000Z</time>
      </trkpt>
      <trkpt lat="42.93722" lon="1.13671">
        <ele>1208.3</ele>
        <time>2022-06-02T09:24:07.000Z</time>
      </trkpt>
      <trkpt lat="42.93729" lon="1.13663">
        <ele>1206.6</ele>
        <time>2022-06-02T09:24:11.000Z</time>
      </trkpt>
      <trkpt lat="42.93736" lon="1.13654">
        <ele>1205.6</ele>
        <time>2022-06-02T09:24:16.000Z</time>
      </trkpt>
      <trkpt lat="42.9374" lon="1.13641">
        <ele>1204</ele>
        <time>2022-06-02T09:24:21.000Z</time>
      </trkpt>
      <trkpt lat="42.93739" lon="1.13627">
        <ele>1201.7</ele>
        <time>2022-06-02T09:24:27.000Z</time>
      </trkpt>
      <trkpt lat="42.93745" lon="1.13618">
        <ele>1199.7</ele>
        <time>2022-06-02T09:24:32.000Z</time>
      </trkpt>
      <trkpt lat="42.93753" lon="1.13612">
        <ele>1197.4</ele>
        <time>2022-06-02T09:24:36.000Z</time>
      </trkpt>
      <trkpt lat="42.93761" lon="1.13605">
        <ele>1195.3</ele>
        <time>2022-06-02T09:24:42.000Z</time>
      </trkpt>
      <trkpt lat="42.93761" lon="1.13603">
        <ele>1194.6</ele>
        <time>2022-06-02T09:24:44.000Z</time>
      </trkpt>
      <trkpt lat="42.93762" lon="1.13602">
        <ele>1182</ele>
        <time>2022-06-02T09:25:49.000Z</time>
      </trkpt>
      <trkpt lat="42.93763" lon="1.13601">
        <ele>1180.9</ele>
        <time>2022-06-02T09:25:59.000Z</time>
      </trkpt>
      <trkpt lat="42.93764" lon="1.13601">
        <ele>1179</ele>
        <time>2022-06-02T09:26:45.000Z</time>
      </trkpt>
      <trkpt lat="42.93769" lon="1.13593">
        <ele>1177.6</ele>
        <time>2022-06-02T09:26:58.000Z</time>
      </trkpt>
      <trkpt lat="42.93769" lon="1.13592">
        <ele>1176.9</ele>
        <time>2022-06-02T09:27:06.000Z</time>
      </trkpt>
      <trkpt lat="42.93768" lon="1.13591">
        <ele>1176.7</ele>
        <time>2022-06-02T09:27:25.000Z</time>
      </trkpt>
      <trkpt lat="42.93768" lon="1.1359">
        <ele>1176.4</ele>
        <time>2022-06-02T09:27:27.000Z</time>
      </trkpt>
      <trkpt lat="42.93768" lon="1.13589">
        <ele>1176.5</ele>
        <time>2022-06-02T09:27:29.000Z</time>
      </trkpt>
      <trkpt lat="42.93768" lon="1.13588">
        <ele>1175.3</ele>
        <time>2022-06-02T09:27:48.000Z</time>
      </trkpt>
      <trkpt lat="42.93768" lon="1.13587">
        <ele>1174.4</ele>
        <time>2022-06-02T09:28:31.000Z</time>
      </trkpt>
      <trkpt lat="42.93777" lon="1.13583">
        <ele>1173.8</ele>
        <time>2022-06-02T09:28:44.000Z</time>
      </trkpt>
      <trkpt lat="42.93785" lon="1.13575">
        <ele>1173.2</ele>
        <time>2022-06-02T09:28:47.000Z</time>
      </trkpt>
      <trkpt lat="42.93795" lon="1.13567">
        <ele>1172.3</ele>
        <time>2022-06-02T09:28:50.000Z</time>
      </trkpt>
      <trkpt lat="42.93805" lon="1.1356">
        <ele>1171.2</ele>
        <time>2022-06-02T09:28:53.000Z</time>
      </trkpt>
      <trkpt lat="42.93815" lon="1.13549">
        <ele>1170.1</ele>
        <time>2022-06-02T09:28:56.000Z</time>
      </trkpt>
      <trkpt lat="42.93823" lon="1.13541">
        <ele>1170</ele>
        <time>2022-06-02T09:28:58.000Z</time>
      </trkpt>
      <trkpt lat="42.93833" lon="1.13537">
        <ele>1169.9</ele>
        <time>2022-06-02T09:29:00.000Z</time>
      </trkpt>
      <trkpt lat="42.93845" lon="1.13531">
        <ele>1169.4</ele>
        <time>2022-06-02T09:29:02.000Z</time>
      </trkpt>
      <trkpt lat="42.93854" lon="1.13519">
        <ele>1168.2</ele>
        <time>2022-06-02T09:29:04.000Z</time>
      </trkpt>
      <trkpt lat="42.93862" lon="1.13504">
        <ele>1168</ele>
        <time>2022-06-02T09:29:06.000Z</time>
      </trkpt>
      <trkpt lat="42.93868" lon="1.13489">
        <ele>1166.8</ele>
        <time>2022-06-02T09:29:08.000Z</time>
      </trkpt>
      <trkpt lat="42.93875" lon="1.13472">
        <ele>1166.2</ele>
        <time>2022-06-02T09:29:10.000Z</time>
      </trkpt>
      <trkpt lat="42.93879" lon="1.13455">
        <ele>1166.6</ele>
        <time>2022-06-02T09:29:12.000Z</time>
      </trkpt>
      <trkpt lat="42.93882" lon="1.13433">
        <ele>1164.5</ele>
        <time>2022-06-02T09:29:14.000Z</time>
      </trkpt>
      <trkpt lat="42.93886" lon="1.13421">
        <ele>1164.1</ele>
        <time>2022-06-02T09:29:15.000Z</time>
      </trkpt>
      <trkpt lat="42.93889" lon="1.13409">
        <ele>1164.3</ele>
        <time>2022-06-02T09:29:16.000Z</time>
      </trkpt>
      <trkpt lat="42.93893" lon="1.13396">
        <ele>1164.1</ele>
        <time>2022-06-02T09:29:17.000Z</time>
      </trkpt>
      <trkpt lat="42.93896" lon="1.13384">
        <ele>1163.3</ele>
        <time>2022-06-02T09:29:18.000Z</time>
      </trkpt>
      <trkpt lat="42.93899" lon="1.13371">
        <ele>1162.8</ele>
        <time>2022-06-02T09:29:19.000Z</time>
      </trkpt>
      <trkpt lat="42.93898" lon="1.1335">
        <ele>1161.8</ele>
        <time>2022-06-02T09:29:21.000Z</time>
      </trkpt>
      <trkpt lat="42.93893" lon="1.13334">
        <ele>1160.8</ele>
        <time>2022-06-02T09:29:23.000Z</time>
      </trkpt>
      <trkpt lat="42.93889" lon="1.13317">
        <ele>1160.1</ele>
        <time>2022-06-02T09:29:25.000Z</time>
      </trkpt>
      <trkpt lat="42.93886" lon="1.13297">
        <ele>1159.3</ele>
        <time>2022-06-02T09:29:27.000Z</time>
      </trkpt>
      <trkpt lat="42.93883" lon="1.13276">
        <ele>1157.6</ele>
        <time>2022-06-02T09:29:29.000Z</time>
      </trkpt>
      <trkpt lat="42.93877" lon="1.13258">
        <ele>1157.6</ele>
        <time>2022-06-02T09:29:31.000Z</time>
      </trkpt>
      <trkpt lat="42.93868" lon="1.13242">
        <ele>1156.8</ele>
        <time>2022-06-02T09:29:33.000Z</time>
      </trkpt>
      <trkpt lat="42.9386" lon="1.13227">
        <ele>1156.2</ele>
        <time>2022-06-02T09:29:35.000Z</time>
      </trkpt>
      <trkpt lat="42.93852" lon="1.13211">
        <ele>1154.6</ele>
        <time>2022-06-02T09:29:37.000Z</time>
      </trkpt>
      <trkpt lat="42.93846" lon="1.13198">
        <ele>1154.6</ele>
        <time>2022-06-02T09:29:39.000Z</time>
      </trkpt>
      <trkpt lat="42.93841" lon="1.13184">
        <ele>1153.9</ele>
        <time>2022-06-02T09:29:42.000Z</time>
      </trkpt>
      <trkpt lat="42.93835" lon="1.13168">
        <ele>1153.2</ele>
        <time>2022-06-02T09:29:45.000Z</time>
      </trkpt>
      <trkpt lat="42.93832" lon="1.13153">
        <ele>1152.8</ele>
        <time>2022-06-02T09:29:47.000Z</time>
      </trkpt>
      <trkpt lat="42.93829" lon="1.13138">
        <ele>1152.1</ele>
        <time>2022-06-02T09:29:49.000Z</time>
      </trkpt>
      <trkpt lat="42.93822" lon="1.13123">
        <ele>1151.5</ele>
        <time>2022-06-02T09:29:51.000Z</time>
      </trkpt>
      <trkpt lat="42.93815" lon="1.13106">
        <ele>1151.1</ele>
        <time>2022-06-02T09:29:53.000Z</time>
      </trkpt>
      <trkpt lat="42.9381" lon="1.13089">
        <ele>1150.8</ele>
        <time>2022-06-02T09:29:55.000Z</time>
      </trkpt>
      <trkpt lat="42.93807" lon="1.13074">
        <ele>1150.6</ele>
        <time>2022-06-02T09:29:57.000Z</time>
      </trkpt>
      <trkpt lat="42.93806" lon="1.13058">
        <ele>1149.5</ele>
        <time>2022-06-02T09:29:59.000Z</time>
      </trkpt>
      <trkpt lat="42.93805" lon="1.13045">
        <ele>1148.9</ele>
        <time>2022-06-02T09:30:01.000Z</time>
      </trkpt>
      <trkpt lat="42.93806" lon="1.13032">
        <ele>1148</ele>
        <time>2022-06-02T09:30:03.000Z</time>
      </trkpt>
      <trkpt lat="42.93812" lon="1.13017">
        <ele>1148.2</ele>
        <time>2022-06-02T09:30:07.000Z</time>
      </trkpt>
      <trkpt lat="42.93817" lon="1.13002">
        <ele>1147.2</ele>
        <time>2022-06-02T09:30:10.000Z</time>
      </trkpt>
      <trkpt lat="42.9382" lon="1.1299">
        <ele>1147.4</ele>
        <time>2022-06-02T09:30:12.000Z</time>
      </trkpt>
      <trkpt lat="42.93821" lon="1.12977">
        <ele>1146.3</ele>
        <time>2022-06-02T09:30:14.000Z</time>
      </trkpt>
      <trkpt lat="42.93823" lon="1.12962">
        <ele>1146.4</ele>
        <time>2022-06-02T09:30:16.000Z</time>
      </trkpt>
      <trkpt lat="42.93823" lon="1.12946">
        <ele>1145.9</ele>
        <time>2022-06-02T09:30:18.000Z</time>
      </trkpt>
      <trkpt lat="42.93823" lon="1.12933">
        <ele>1145.9</ele>
        <time>2022-06-02T09:30:20.000Z</time>
      </trkpt>
      <trkpt lat="42.93824" lon="1.12916">
        <ele>1145.2</ele>
        <time>2022-06-02T09:30:22.000Z</time>
      </trkpt>
      <trkpt lat="42.93829" lon="1.12896">
        <ele>1144.5</ele>
        <time>2022-06-02T09:30:24.000Z</time>
      </trkpt>
      <trkpt lat="42.93833" lon="1.12872">
        <ele>1143</ele>
        <time>2022-06-02T09:30:26.000Z</time>
      </trkpt>
      <trkpt lat="42.93837" lon="1.12849">
        <ele>1142.4</ele>
        <time>2022-06-02T09:30:28.000Z</time>
      </trkpt>
      <trkpt lat="42.93836" lon="1.12836">
        <ele>1142.1</ele>
        <time>2022-06-02T09:30:29.000Z</time>
      </trkpt>
      <trkpt lat="42.93833" lon="1.12812">
        <ele>1141.1</ele>
        <time>2022-06-02T09:30:31.000Z</time>
      </trkpt>
      <trkpt lat="42.93832" lon="1.12789">
        <ele>1140</ele>
        <time>2022-06-02T09:30:33.000Z</time>
      </trkpt>
      <trkpt lat="42.93831" lon="1.1277">
        <ele>1139.4</ele>
        <time>2022-06-02T09:30:35.000Z</time>
      </trkpt>
      <trkpt lat="42.93832" lon="1.12751">
        <ele>1137.6</ele>
        <time>2022-06-02T09:30:37.000Z</time>
      </trkpt>
      <trkpt lat="42.93833" lon="1.1273">
        <ele>1136.8</ele>
        <time>2022-06-02T09:30:39.000Z</time>
      </trkpt>
      <trkpt lat="42.93833" lon="1.12709">
        <ele>1135.6</ele>
        <time>2022-06-02T09:30:41.000Z</time>
      </trkpt>
      <trkpt lat="42.93838" lon="1.12692">
        <ele>1133.9</ele>
        <time>2022-06-02T09:30:43.000Z</time>
      </trkpt>
      <trkpt lat="42.93846" lon="1.12677">
        <ele>1133</ele>
        <time>2022-06-02T09:30:45.000Z</time>
      </trkpt>
      <trkpt lat="42.93851" lon="1.1266">
        <ele>1131.7</ele>
        <time>2022-06-02T09:30:47.000Z</time>
      </trkpt>
      <trkpt lat="42.93856" lon="1.12644">
        <ele>1130.2</ele>
        <time>2022-06-02T09:30:49.000Z</time>
      </trkpt>
      <trkpt lat="42.93864" lon="1.12627">
        <ele>1129.1</ele>
        <time>2022-06-02T09:30:51.000Z</time>
      </trkpt>
      <trkpt lat="42.93873" lon="1.12611">
        <ele>1127.7</ele>
        <time>2022-06-02T09:30:53.000Z</time>
      </trkpt>
      <trkpt lat="42.93885" lon="1.12599">
        <ele>1126.1</ele>
        <time>2022-06-02T09:30:55.000Z</time>
      </trkpt>
      <trkpt lat="42.93897" lon="1.12591">
        <ele>1125.3</ele>
        <time>2022-06-02T09:30:57.000Z</time>
      </trkpt>
      <trkpt lat="42.9391" lon="1.12585">
        <ele>1123.9</ele>
        <time>2022-06-02T09:30:59.000Z</time>
      </trkpt>
      <trkpt lat="42.93921" lon="1.12579">
        <ele>1122.8</ele>
        <time>2022-06-02T09:31:01.000Z</time>
      </trkpt>
      <trkpt lat="42.93932" lon="1.12572">
        <ele>1121.1</ele>
        <time>2022-06-02T09:31:03.000Z</time>
      </trkpt>
      <trkpt lat="42.93941" lon="1.12565">
        <ele>1120</ele>
        <time>2022-06-02T09:31:05.000Z</time>
      </trkpt>
      <trkpt lat="42.93951" lon="1.12562">
        <ele>1118.5</ele>
        <time>2022-06-02T09:31:07.000Z</time>
      </trkpt>
      <trkpt lat="42.93963" lon="1.12558">
        <ele>1117.5</ele>
        <time>2022-06-02T09:31:09.000Z</time>
      </trkpt>
      <trkpt lat="42.93978" lon="1.12551">
        <ele>1116.7</ele>
        <time>2022-06-02T09:31:11.000Z</time>
      </trkpt>
      <trkpt lat="42.93991" lon="1.12545">
        <ele>1115.5</ele>
        <time>2022-06-02T09:31:13.000Z</time>
      </trkpt>
      <trkpt lat="42.94005" lon="1.12536">
        <ele>1114.5</ele>
        <time>2022-06-02T09:31:15.000Z</time>
      </trkpt>
      <trkpt lat="42.94017" lon="1.12522">
        <ele>1113</ele>
        <time>2022-06-02T09:31:17.000Z</time>
      </trkpt>
      <trkpt lat="42.94026" lon="1.12507">
        <ele>1111.8</ele>
        <time>2022-06-02T09:31:19.000Z</time>
      </trkpt>
      <trkpt lat="42.94032" lon="1.12493">
        <ele>1110.2</ele>
        <time>2022-06-02T09:31:21.000Z</time>
      </trkpt>
      <trkpt lat="42.94034" lon="1.12477">
        <ele>1109.7</ele>
        <time>2022-06-02T09:31:23.000Z</time>
      </trkpt>
      <trkpt lat="42.94034" lon="1.1246">
        <ele>1108.2</ele>
        <time>2022-06-02T09:31:25.000Z</time>
      </trkpt>
      <trkpt lat="42.94038" lon="1.12441">
        <ele>1107</ele>
        <time>2022-06-02T09:31:27.000Z</time>
      </trkpt>
      <trkpt lat="42.94039" lon="1.12423">
        <ele>1106.1</ele>
        <time>2022-06-02T09:31:29.000Z</time>
      </trkpt>
      <trkpt lat="42.94039" lon="1.12407">
        <ele>1103.6</ele>
        <time>2022-06-02T09:31:31.000Z</time>
      </trkpt>
      <trkpt lat="42.94036" lon="1.12386">
        <ele>1102.7</ele>
        <time>2022-06-02T09:31:33.000Z</time>
      </trkpt>
      <trkpt lat="42.94033" lon="1.12369">
        <ele>1101.3</ele>
        <time>2022-06-02T09:31:35.000Z</time>
      </trkpt>
      <trkpt lat="42.94032" lon="1.12354">
        <ele>1100.2</ele>
        <time>2022-06-02T09:31:37.000Z</time>
      </trkpt>
      <trkpt lat="42.94033" lon="1.12342">
        <ele>1099</ele>
        <time>2022-06-02T09:31:39.000Z</time>
      </trkpt>
      <trkpt lat="42.94034" lon="1.12327">
        <ele>1096</ele>
        <time>2022-06-02T09:31:41.000Z</time>
      </trkpt>
      <trkpt lat="42.94033" lon="1.1231">
        <ele>1095.3</ele>
        <time>2022-06-02T09:31:43.000Z</time>
      </trkpt>
      <trkpt lat="42.94035" lon="1.12292">
        <ele>1093.9</ele>
        <time>2022-06-02T09:31:45.000Z</time>
      </trkpt>
      <trkpt lat="42.94032" lon="1.12279">
        <ele>1092.1</ele>
        <time>2022-06-02T09:31:47.000Z</time>
      </trkpt>
      <trkpt lat="42.94023" lon="1.12268">
        <ele>1090.4</ele>
        <time>2022-06-02T09:31:49.000Z</time>
      </trkpt>
      <trkpt lat="42.94019" lon="1.12257">
        <ele>1088.6</ele>
        <time>2022-06-02T09:31:51.000Z</time>
      </trkpt>
      <trkpt lat="42.94016" lon="1.1224">
        <ele>1085.9</ele>
        <time>2022-06-02T09:31:54.000Z</time>
      </trkpt>
      <trkpt lat="42.9402" lon="1.12223">
        <ele>1082.5</ele>
        <time>2022-06-02T09:31:57.000Z</time>
      </trkpt>
      <trkpt lat="42.94027" lon="1.12211">
        <ele>1080.9</ele>
        <time>2022-06-02T09:31:59.000Z</time>
      </trkpt>
      <trkpt lat="42.94037" lon="1.12196">
        <ele>1079.4</ele>
        <time>2022-06-02T09:32:01.000Z</time>
      </trkpt>
      <trkpt lat="42.94046" lon="1.12189">
        <ele>1076.8</ele>
        <time>2022-06-02T09:32:03.000Z</time>
      </trkpt>
      <trkpt lat="42.94059" lon="1.12184">
        <ele>1075.2</ele>
        <time>2022-06-02T09:32:05.000Z</time>
      </trkpt>
      <trkpt lat="42.94071" lon="1.12169">
        <ele>1073.3</ele>
        <time>2022-06-02T09:32:07.000Z</time>
      </trkpt>
      <trkpt lat="42.94081" lon="1.12152">
        <ele>1071.2</ele>
        <time>2022-06-02T09:32:09.000Z</time>
      </trkpt>
      <trkpt lat="42.94086" lon="1.12129">
        <ele>1068.4</ele>
        <time>2022-06-02T09:32:11.000Z</time>
      </trkpt>
      <trkpt lat="42.94092" lon="1.12108">
        <ele>1066.1</ele>
        <time>2022-06-02T09:32:13.000Z</time>
      </trkpt>
      <trkpt lat="42.94095" lon="1.12089">
        <ele>1064</ele>
        <time>2022-06-02T09:32:15.000Z</time>
      </trkpt>
      <trkpt lat="42.94098" lon="1.12068">
        <ele>1062.7</ele>
        <time>2022-06-02T09:32:17.000Z</time>
      </trkpt>
      <trkpt lat="42.94099" lon="1.12055">
        <ele>1060.7</ele>
        <time>2022-06-02T09:32:18.000Z</time>
      </trkpt>
      <trkpt lat="42.94099" lon="1.12033">
        <ele>1059.1</ele>
        <time>2022-06-02T09:32:20.000Z</time>
      </trkpt>
      <trkpt lat="42.94103" lon="1.12016">
        <ele>1057.7</ele>
        <time>2022-06-02T09:32:22.000Z</time>
      </trkpt>
      <trkpt lat="42.9411" lon="1.12001">
        <ele>1055.2</ele>
        <time>2022-06-02T09:32:24.000Z</time>
      </trkpt>
      <trkpt lat="42.94117" lon="1.11983">
        <ele>1053.9</ele>
        <time>2022-06-02T09:32:26.000Z</time>
      </trkpt>
      <trkpt lat="42.94123" lon="1.11966">
        <ele>1051.3</ele>
        <time>2022-06-02T09:32:28.000Z</time>
      </trkpt>
      <trkpt lat="42.94129" lon="1.11952">
        <ele>1049.5</ele>
        <time>2022-06-02T09:32:30.000Z</time>
      </trkpt>
      <trkpt lat="42.94138" lon="1.11939">
        <ele>1047</ele>
        <time>2022-06-02T09:32:32.000Z</time>
      </trkpt>
      <trkpt lat="42.94144" lon="1.11926">
        <ele>1044.5</ele>
        <time>2022-06-02T09:32:34.000Z</time>
      </trkpt>
      <trkpt lat="42.94148" lon="1.11908">
        <ele>1042.9</ele>
        <time>2022-06-02T09:32:36.000Z</time>
      </trkpt>
      <trkpt lat="42.94151" lon="1.11893">
        <ele>1039.6</ele>
        <time>2022-06-02T09:32:38.000Z</time>
      </trkpt>
      <trkpt lat="42.94149" lon="1.11879">
        <ele>1037.6</ele>
        <time>2022-06-02T09:32:40.000Z</time>
      </trkpt>
      <trkpt lat="42.94155" lon="1.11868">
        <ele>1034.1</ele>
        <time>2022-06-02T09:32:43.000Z</time>
      </trkpt>
      <trkpt lat="42.94158" lon="1.11872">
        <ele>1029.8</ele>
        <time>2022-06-02T09:32:47.000Z</time>
      </trkpt>
      <trkpt lat="42.94157" lon="1.11872">
        <ele>1020.3</ele>
        <time>2022-06-02T09:32:55.000Z</time>
      </trkpt>
      <trkpt lat="42.94157" lon="1.11873">
        <ele>1015.7</ele>
        <time>2022-06-02T09:33:01.000Z</time>
      </trkpt>
      <trkpt lat="42.94157" lon="1.11874">
        <ele>1000.3</ele>
        <time>2022-06-02T09:33:23.000Z</time>
      </trkpt>
      <trkpt lat="42.94157" lon="1.11876">
        <ele>990.2</ele>
        <time>2022-06-02T09:33:49.000Z</time>
      </trkpt>
      <trkpt lat="42.94156" lon="1.11876">
        <ele>989.6</ele>
        <time>2022-06-02T09:33:51.000Z</time>
      </trkpt>
      <trkpt lat="42.94156" lon="1.11877">
        <ele>979.3</ele>
        <time>2022-06-02T09:34:53.000Z</time>
      </trkpt>
      <trkpt lat="42.94156" lon="1.11878">
        <ele>979.1</ele>
        <time>2022-06-02T09:34:55.000Z</time>
      </trkpt>
      <trkpt lat="42.94156" lon="1.11879">
        <ele>972.8</ele>
        <time>2022-06-02T09:35:14.000Z</time>
      </trkpt>
      <trkpt lat="42.94155" lon="1.11879">
        <ele>966.2</ele>
        <time>2022-06-02T09:35:55.000Z</time>
      </trkpt>
      <trkpt lat="42.94155" lon="1.1188">
        <ele>965.4</ele>
        <time>2022-06-02T09:36:12.000Z</time>
      </trkpt>
      <trkpt lat="42.94155" lon="1.11881">
        <ele>970.6</ele>
        <time>2022-06-02T09:37:27.000Z</time>
      </trkpt>
      <trkpt lat="42.94155" lon="1.11882">
        <ele>973.4</ele>
        <time>2022-06-02T09:37:59.000Z</time>
      </trkpt>
      <trkpt lat="42.94155" lon="1.11895">
        <ele>972.9</ele>
        <time>2022-06-02T09:38:05.000Z</time>
      </trkpt>
      <trkpt lat="42.94157" lon="1.11912">
        <ele>972.7</ele>
        <time>2022-06-02T09:38:09.000Z</time>
      </trkpt>
      <trkpt lat="42.9416" lon="1.11924">
        <ele>972.5</ele>
        <time>2022-06-02T09:38:11.000Z</time>
      </trkpt>
      <trkpt lat="42.94163" lon="1.11939">
        <ele>973.3</ele>
        <time>2022-06-02T09:38:13.000Z</time>
      </trkpt>
      <trkpt lat="42.94166" lon="1.11957">
        <ele>973.2</ele>
        <time>2022-06-02T09:38:15.000Z</time>
      </trkpt>
      <trkpt lat="42.94171" lon="1.11974">
        <ele>973.6</ele>
        <time>2022-06-02T09:38:17.000Z</time>
      </trkpt>
      <trkpt lat="42.94176" lon="1.1199">
        <ele>974.3</ele>
        <time>2022-06-02T09:38:19.000Z</time>
      </trkpt>
      <trkpt lat="42.94181" lon="1.12004">
        <ele>975</ele>
        <time>2022-06-02T09:38:21.000Z</time>
      </trkpt>
      <trkpt lat="42.94187" lon="1.12018">
        <ele>975.8</ele>
        <time>2022-06-02T09:38:23.000Z</time>
      </trkpt>
      <trkpt lat="42.94193" lon="1.12032">
        <ele>976.6</ele>
        <time>2022-06-02T09:38:25.000Z</time>
      </trkpt>
      <trkpt lat="42.94196" lon="1.12044">
        <ele>976.8</ele>
        <time>2022-06-02T09:38:27.000Z</time>
      </trkpt>
      <trkpt lat="42.942" lon="1.12062">
        <ele>978</ele>
        <time>2022-06-02T09:38:30.000Z</time>
      </trkpt>
      <trkpt lat="42.94207" lon="1.12073">
        <ele>978.4</ele>
        <time>2022-06-02T09:38:32.000Z</time>
      </trkpt>
      <trkpt lat="42.94215" lon="1.12084">
        <ele>978.8</ele>
        <time>2022-06-02T09:38:34.000Z</time>
      </trkpt>
      <trkpt lat="42.94223" lon="1.12099">
        <ele>980</ele>
        <time>2022-06-02T09:38:36.000Z</time>
      </trkpt>
      <trkpt lat="42.94232" lon="1.12115">
        <ele>980.6</ele>
        <time>2022-06-02T09:38:38.000Z</time>
      </trkpt>
      <trkpt lat="42.94242" lon="1.12134">
        <ele>979.6</ele>
        <time>2022-06-02T09:38:40.000Z</time>
      </trkpt>
      <trkpt lat="42.94253" lon="1.12152">
        <ele>979.1</ele>
        <time>2022-06-02T09:38:42.000Z</time>
      </trkpt>
      <trkpt lat="42.94267" lon="1.12161">
        <ele>979.1</ele>
        <time>2022-06-02T09:38:44.000Z</time>
      </trkpt>
      <trkpt lat="42.94284" lon="1.12167">
        <ele>979.5</ele>
        <time>2022-06-02T09:38:46.000Z</time>
      </trkpt>
      <trkpt lat="42.94292" lon="1.12172">
        <ele>979.3</ele>
        <time>2022-06-02T09:38:47.000Z</time>
      </trkpt>
      <trkpt lat="42.943" lon="1.12183">
        <ele>980</ele>
        <time>2022-06-02T09:38:48.000Z</time>
      </trkpt>
      <trkpt lat="42.94307" lon="1.12196">
        <ele>980.1</ele>
        <time>2022-06-02T09:38:49.000Z</time>
      </trkpt>
      <trkpt lat="42.94314" lon="1.12211">
        <ele>979.7</ele>
        <time>2022-06-02T09:38:50.000Z</time>
      </trkpt>
      <trkpt lat="42.94319" lon="1.12225">
        <ele>979.2</ele>
        <time>2022-06-02T09:38:51.000Z</time>
      </trkpt>
      <trkpt lat="42.94324" lon="1.12238">
        <ele>978.8</ele>
        <time>2022-06-02T09:38:52.000Z</time>
      </trkpt>
      <trkpt lat="42.94328" lon="1.12249">
        <ele>978.2</ele>
        <time>2022-06-02T09:38:53.000Z</time>
      </trkpt>
      <trkpt lat="42.94331" lon="1.1227">
        <ele>978.4</ele>
        <time>2022-06-02T09:38:55.000Z</time>
      </trkpt>
      <trkpt lat="42.94329" lon="1.12282">
        <ele>978.6</ele>
        <time>2022-06-02T09:38:56.000Z</time>
      </trkpt>
      <trkpt lat="42.94329" lon="1.12296">
        <ele>978.4</ele>
        <time>2022-06-02T09:38:57.000Z</time>
      </trkpt>
      <trkpt lat="42.94331" lon="1.1231">
        <ele>977.7</ele>
        <time>2022-06-02T09:38:58.000Z</time>
      </trkpt>
      <trkpt lat="42.94334" lon="1.12325">
        <ele>977.4</ele>
        <time>2022-06-02T09:38:59.000Z</time>
      </trkpt>
      <trkpt lat="42.94337" lon="1.1234">
        <ele>976.7</ele>
        <time>2022-06-02T09:39:00.000Z</time>
      </trkpt>
      <trkpt lat="42.94338" lon="1.12356">
        <ele>976.1</ele>
        <time>2022-06-02T09:39:01.000Z</time>
      </trkpt>
      <trkpt lat="42.94338" lon="1.12373">
        <ele>975.9</ele>
        <time>2022-06-02T09:39:02.000Z</time>
      </trkpt>
      <trkpt lat="42.94339" lon="1.12389">
        <ele>976</ele>
        <time>2022-06-02T09:39:03.000Z</time>
      </trkpt>
      <trkpt lat="42.94338" lon="1.12404">
        <ele>975.6</ele>
        <time>2022-06-02T09:39:04.000Z</time>
      </trkpt>
      <trkpt lat="42.94338" lon="1.12417">
        <ele>974.7</ele>
        <time>2022-06-02T09:39:05.000Z</time>
      </trkpt>
      <trkpt lat="42.94339" lon="1.12436">
        <ele>973.8</ele>
        <time>2022-06-02T09:39:07.000Z</time>
      </trkpt>
      <trkpt lat="42.94348" lon="1.12435">
        <ele>972.4</ele>
        <time>2022-06-02T09:39:10.000Z</time>
      </trkpt>
      <trkpt lat="42.94346" lon="1.12421">
        <ele>971.6</ele>
        <time>2022-06-02T09:39:12.000Z</time>
      </trkpt>
      <trkpt lat="42.94345" lon="1.12404">
        <ele>970.7</ele>
        <time>2022-06-02T09:39:14.000Z</time>
      </trkpt>
      <trkpt lat="42.94347" lon="1.12383">
        <ele>969.7</ele>
        <time>2022-06-02T09:39:16.000Z</time>
      </trkpt>
      <trkpt lat="42.94353" lon="1.1236">
        <ele>968.4</ele>
        <time>2022-06-02T09:39:18.000Z</time>
      </trkpt>
      <trkpt lat="42.94355" lon="1.12347">
        <ele>967.7</ele>
        <time>2022-06-02T09:39:19.000Z</time>
      </trkpt>
      <trkpt lat="42.94357" lon="1.12333">
        <ele>967.6</ele>
        <time>2022-06-02T09:39:20.000Z</time>
      </trkpt>
      <trkpt lat="42.94358" lon="1.12319">
        <ele>967.2</ele>
        <time>2022-06-02T09:39:21.000Z</time>
      </trkpt>
      <trkpt lat="42.94359" lon="1.12305">
        <ele>966.7</ele>
        <time>2022-06-02T09:39:22.000Z</time>
      </trkpt>
      <trkpt lat="42.9436" lon="1.12292">
        <ele>966</ele>
        <time>2022-06-02T09:39:23.000Z</time>
      </trkpt>
      <trkpt lat="42.94367" lon="1.12271">
        <ele>964.5</ele>
        <time>2022-06-02T09:39:25.000Z</time>
      </trkpt>
      <trkpt lat="42.94373" lon="1.12261">
        <ele>963.5</ele>
        <time>2022-06-02T09:39:26.000Z</time>
      </trkpt>
      <trkpt lat="42.9438" lon="1.12252">
        <ele>963.6</ele>
        <time>2022-06-02T09:39:27.000Z</time>
      </trkpt>
      <trkpt lat="42.94387" lon="1.12241">
        <ele>963.4</ele>
        <time>2022-06-02T09:39:28.000Z</time>
      </trkpt>
      <trkpt lat="42.94393" lon="1.1223">
        <ele>963.1</ele>
        <time>2022-06-02T09:39:29.000Z</time>
      </trkpt>
      <trkpt lat="42.94398" lon="1.12218">
        <ele>962.6</ele>
        <time>2022-06-02T09:39:30.000Z</time>
      </trkpt>
      <trkpt lat="42.94402" lon="1.12205">
        <ele>961.6</ele>
        <time>2022-06-02T09:39:31.000Z</time>
      </trkpt>
      <trkpt lat="42.94402" lon="1.12191">
        <ele>960.9</ele>
        <time>2022-06-02T09:39:32.000Z</time>
      </trkpt>
      <trkpt lat="42.944" lon="1.12175">
        <ele>960.3</ele>
        <time>2022-06-02T09:39:33.000Z</time>
      </trkpt>
      <trkpt lat="42.94398" lon="1.1216">
        <ele>959.9</ele>
        <time>2022-06-02T09:39:34.000Z</time>
      </trkpt>
      <trkpt lat="42.94395" lon="1.12145">
        <ele>959.7</ele>
        <time>2022-06-02T09:39:35.000Z</time>
      </trkpt>
      <trkpt lat="42.94391" lon="1.1213">
        <ele>958.8</ele>
        <time>2022-06-02T09:39:36.000Z</time>
      </trkpt>
      <trkpt lat="42.94386" lon="1.12116">
        <ele>957.7</ele>
        <time>2022-06-02T09:39:37.000Z</time>
      </trkpt>
      <trkpt lat="42.94379" lon="1.12103">
        <ele>956.8</ele>
        <time>2022-06-02T09:39:38.000Z</time>
      </trkpt>
      <trkpt lat="42.94371" lon="1.12091">
        <ele>956.5</ele>
        <time>2022-06-02T09:39:39.000Z</time>
      </trkpt>
      <trkpt lat="42.94364" lon="1.12079">
        <ele>956.2</ele>
        <time>2022-06-02T09:39:40.000Z</time>
      </trkpt>
      <trkpt lat="42.94359" lon="1.12065">
        <ele>955.4</ele>
        <time>2022-06-02T09:39:41.000Z</time>
      </trkpt>
      <trkpt lat="42.94356" lon="1.12049">
        <ele>954.3</ele>
        <time>2022-06-02T09:39:42.000Z</time>
      </trkpt>
      <trkpt lat="42.94352" lon="1.12035">
        <ele>953.2</ele>
        <time>2022-06-02T09:39:43.000Z</time>
      </trkpt>
      <trkpt lat="42.94347" lon="1.12023">
        <ele>952.5</ele>
        <time>2022-06-02T09:39:44.000Z</time>
      </trkpt>
      <trkpt lat="42.94335" lon="1.12009">
        <ele>951.2</ele>
        <time>2022-06-02T09:39:46.000Z</time>
      </trkpt>
      <trkpt lat="42.94342" lon="1.12001">
        <ele>948.1</ele>
        <time>2022-06-02T09:39:50.000Z</time>
      </trkpt>
      <trkpt lat="42.94354" lon="1.1201">
        <ele>945.7</ele>
        <time>2022-06-02T09:39:53.000Z</time>
      </trkpt>
      <trkpt lat="42.94364" lon="1.12016">
        <ele>944.5</ele>
        <time>2022-06-02T09:39:55.000Z</time>
      </trkpt>
      <trkpt lat="42.94375" lon="1.12021">
        <ele>943.2</ele>
        <time>2022-06-02T09:39:57.000Z</time>
      </trkpt>
      <trkpt lat="42.94387" lon="1.12022">
        <ele>941.9</ele>
        <time>2022-06-02T09:39:59.000Z</time>
      </trkpt>
      <trkpt lat="42.94402" lon="1.12024">
        <ele>940.7</ele>
        <time>2022-06-02T09:40:01.000Z</time>
      </trkpt>
      <trkpt lat="42.9442" lon="1.12032">
        <ele>938.2</ele>
        <time>2022-06-02T09:40:03.000Z</time>
      </trkpt>
      <trkpt lat="42.94429" lon="1.12039">
        <ele>937.6</ele>
        <time>2022-06-02T09:40:04.000Z</time>
      </trkpt>
      <trkpt lat="42.94441" lon="1.1205">
        <ele>936.2</ele>
        <time>2022-06-02T09:40:06.000Z</time>
      </trkpt>
      <trkpt lat="42.94449" lon="1.12058">
        <ele>934.1</ele>
        <time>2022-06-02T09:40:09.000Z</time>
      </trkpt>
      <trkpt lat="42.94454" lon="1.12071">
        <ele>931.9</ele>
        <time>2022-06-02T09:40:12.000Z</time>
      </trkpt>
      <trkpt lat="42.9446" lon="1.12081">
        <ele>930.7</ele>
        <time>2022-06-02T09:40:14.000Z</time>
      </trkpt>
      <trkpt lat="42.94466" lon="1.12092">
        <ele>929.2</ele>
        <time>2022-06-02T09:40:16.000Z</time>
      </trkpt>
      <trkpt lat="42.94471" lon="1.12106">
        <ele>927.8</ele>
        <time>2022-06-02T09:40:18.000Z</time>
      </trkpt>
      <trkpt lat="42.94475" lon="1.12123">
        <ele>926.6</ele>
        <time>2022-06-02T09:40:20.000Z</time>
      </trkpt>
      <trkpt lat="42.94476" lon="1.12143">
        <ele>925.2</ele>
        <time>2022-06-02T09:40:22.000Z</time>
      </trkpt>
      <trkpt lat="42.94476" lon="1.12164">
        <ele>924.1</ele>
        <time>2022-06-02T09:40:24.000Z</time>
      </trkpt>
      <trkpt lat="42.94475" lon="1.12183">
        <ele>923.1</ele>
        <time>2022-06-02T09:40:26.000Z</time>
      </trkpt>
      <trkpt lat="42.94478" lon="1.122">
        <ele>921.9</ele>
        <time>2022-06-02T09:40:28.000Z</time>
      </trkpt>
      <trkpt lat="42.94481" lon="1.12215">
        <ele>920.6</ele>
        <time>2022-06-02T09:40:30.000Z</time>
      </trkpt>
      <trkpt lat="42.94479" lon="1.12229">
        <ele>919.5</ele>
        <time>2022-06-02T09:40:32.000Z</time>
      </trkpt>
      <trkpt lat="42.94476" lon="1.12241">
        <ele>918.8</ele>
        <time>2022-06-02T09:40:34.000Z</time>
      </trkpt>
      <trkpt lat="42.94471" lon="1.12252">
        <ele>918</ele>
        <time>2022-06-02T09:40:36.000Z</time>
      </trkpt>
      <trkpt lat="42.94465" lon="1.12262">
        <ele>917</ele>
        <time>2022-06-02T09:40:38.000Z</time>
      </trkpt>
      <trkpt lat="42.94459" lon="1.12271">
        <ele>916.3</ele>
        <time>2022-06-02T09:40:40.000Z</time>
      </trkpt>
      <trkpt lat="42.94452" lon="1.1228">
        <ele>915.3</ele>
        <time>2022-06-02T09:40:42.000Z</time>
      </trkpt>
      <trkpt lat="42.94444" lon="1.12295">
        <ele>914.2</ele>
        <time>2022-06-02T09:40:45.000Z</time>
      </trkpt>
      <trkpt lat="42.9444" lon="1.12306">
        <ele>913.6</ele>
        <time>2022-06-02T09:40:47.000Z</time>
      </trkpt>
      <trkpt lat="42.94438" lon="1.12318">
        <ele>912.9</ele>
        <time>2022-06-02T09:40:49.000Z</time>
      </trkpt>
      <trkpt lat="42.94435" lon="1.12331">
        <ele>912</ele>
        <time>2022-06-02T09:40:51.000Z</time>
      </trkpt>
      <trkpt lat="42.94434" lon="1.12343">
        <ele>911.5</ele>
        <time>2022-06-02T09:40:53.000Z</time>
      </trkpt>
      <trkpt lat="42.94434" lon="1.1236">
        <ele>910.8</ele>
        <time>2022-06-02T09:40:56.000Z</time>
      </trkpt>
      <trkpt lat="42.94435" lon="1.12373">
        <ele>909.9</ele>
        <time>2022-06-02T09:40:58.000Z</time>
      </trkpt>
      <trkpt lat="42.94435" lon="1.12387">
        <ele>909.5</ele>
        <time>2022-06-02T09:41:00.000Z</time>
      </trkpt>
      <trkpt lat="42.94436" lon="1.12402">
        <ele>908.9</ele>
        <time>2022-06-02T09:41:02.000Z</time>
      </trkpt>
      <trkpt lat="42.94437" lon="1.12418">
        <ele>908.5</ele>
        <time>2022-06-02T09:41:04.000Z</time>
      </trkpt>
      <trkpt lat="42.94439" lon="1.12437">
        <ele>907.8</ele>
        <time>2022-06-02T09:41:06.000Z</time>
      </trkpt>
      <trkpt lat="42.94441" lon="1.12458">
        <ele>907.2</ele>
        <time>2022-06-02T09:41:08.000Z</time>
      </trkpt>
      <trkpt lat="42.94445" lon="1.1248">
        <ele>906.3</ele>
        <time>2022-06-02T09:41:10.000Z</time>
      </trkpt>
      <trkpt lat="42.94446" lon="1.12505">
        <ele>905.6</ele>
        <time>2022-06-02T09:41:12.000Z</time>
      </trkpt>
      <trkpt lat="42.94446" lon="1.12518">
        <ele>905</ele>
        <time>2022-06-02T09:41:13.000Z</time>
      </trkpt>
      <trkpt lat="42.94444" lon="1.12531">
        <ele>904.5</ele>
        <time>2022-06-02T09:41:14.000Z</time>
      </trkpt>
      <trkpt lat="42.94443" lon="1.12544">
        <ele>904.4</ele>
        <time>2022-06-02T09:41:15.000Z</time>
      </trkpt>
      <trkpt lat="42.94443" lon="1.12558">
        <ele>904.1</ele>
        <time>2022-06-02T09:41:16.000Z</time>
      </trkpt>
      <trkpt lat="42.94444" lon="1.12571">
        <ele>903.6</ele>
        <time>2022-06-02T09:41:17.000Z</time>
      </trkpt>
      <trkpt lat="42.94441" lon="1.12595">
        <ele>902.7</ele>
        <time>2022-06-02T09:41:19.000Z</time>
      </trkpt>
      <trkpt lat="42.94437" lon="1.12607">
        <ele>902.7</ele>
        <time>2022-06-02T09:41:20.000Z</time>
      </trkpt>
      <trkpt lat="42.94432" lon="1.12618">
        <ele>902.2</ele>
        <time>2022-06-02T09:41:21.000Z</time>
      </trkpt>
      <trkpt lat="42.94428" lon="1.1263">
        <ele>901.4</ele>
        <time>2022-06-02T09:41:22.000Z</time>
      </trkpt>
      <trkpt lat="42.94426" lon="1.12643">
        <ele>900.4</ele>
        <time>2022-06-02T09:41:23.000Z</time>
      </trkpt>
      <trkpt lat="42.94426" lon="1.12656">
        <ele>899.8</ele>
        <time>2022-06-02T09:41:24.000Z</time>
      </trkpt>
      <trkpt lat="42.94426" lon="1.12669">
        <ele>899.3</ele>
        <time>2022-06-02T09:41:25.000Z</time>
      </trkpt>
      <trkpt lat="42.94425" lon="1.12683">
        <ele>898.5</ele>
        <time>2022-06-02T09:41:26.000Z</time>
      </trkpt>
      <trkpt lat="42.94424" lon="1.12697">
        <ele>898.1</ele>
        <time>2022-06-02T09:41:27.000Z</time>
      </trkpt>
      <trkpt lat="42.94422" lon="1.1271">
        <ele>897.9</ele>
        <time>2022-06-02T09:41:28.000Z</time>
      </trkpt>
      <trkpt lat="42.9442" lon="1.12724">
        <ele>897.4</ele>
        <time>2022-06-02T09:41:29.000Z</time>
      </trkpt>
      <trkpt lat="42.94417" lon="1.12738">
        <ele>897.2</ele>
        <time>2022-06-02T09:41:30.000Z</time>
      </trkpt>
      <trkpt lat="42.94415" lon="1.12753">
        <ele>896.7</ele>
        <time>2022-06-02T09:41:31.000Z</time>
      </trkpt>
      <trkpt lat="42.94413" lon="1.12768">
        <ele>896.4</ele>
        <time>2022-06-02T09:41:32.000Z</time>
      </trkpt>
      <trkpt lat="42.94413" lon="1.12783">
        <ele>895.6</ele>
        <time>2022-06-02T09:41:33.000Z</time>
      </trkpt>
      <trkpt lat="42.94414" lon="1.12798">
        <ele>895.1</ele>
        <time>2022-06-02T09:41:34.000Z</time>
      </trkpt>
      <trkpt lat="42.94415" lon="1.12813">
        <ele>894.4</ele>
        <time>2022-06-02T09:41:35.000Z</time>
      </trkpt>
      <trkpt lat="42.94417" lon="1.12828">
        <ele>893.6</ele>
        <time>2022-06-02T09:41:36.000Z</time>
      </trkpt>
      <trkpt lat="42.94417" lon="1.12844">
        <ele>893</ele>
        <time>2022-06-02T09:41:37.000Z</time>
      </trkpt>
      <trkpt lat="42.94417" lon="1.1286">
        <ele>892.1</ele>
        <time>2022-06-02T09:41:38.000Z</time>
      </trkpt>
      <trkpt lat="42.94416" lon="1.12875">
        <ele>891.7</ele>
        <time>2022-06-02T09:41:39.000Z</time>
      </trkpt>
      <trkpt lat="42.94414" lon="1.1289">
        <ele>891.1</ele>
        <time>2022-06-02T09:41:40.000Z</time>
      </trkpt>
      <trkpt lat="42.94411" lon="1.12905">
        <ele>890.7</ele>
        <time>2022-06-02T09:41:41.000Z</time>
      </trkpt>
      <trkpt lat="42.94409" lon="1.12919">
        <ele>890</ele>
        <time>2022-06-02T09:41:42.000Z</time>
      </trkpt>
      <trkpt lat="42.94407" lon="1.12934">
        <ele>889.1</ele>
        <time>2022-06-02T09:41:43.000Z</time>
      </trkpt>
      <trkpt lat="42.94408" lon="1.12948">
        <ele>888.7</ele>
        <time>2022-06-02T09:41:44.000Z</time>
      </trkpt>
      <trkpt lat="42.94411" lon="1.12963">
        <ele>888.5</ele>
        <time>2022-06-02T09:41:45.000Z</time>
      </trkpt>
      <trkpt lat="42.94413" lon="1.12978">
        <ele>888.3</ele>
        <time>2022-06-02T09:41:46.000Z</time>
      </trkpt>
      <trkpt lat="42.94416" lon="1.12994">
        <ele>887.9</ele>
        <time>2022-06-02T09:41:47.000Z</time>
      </trkpt>
      <trkpt lat="42.94418" lon="1.1301">
        <ele>887.1</ele>
        <time>2022-06-02T09:41:48.000Z</time>
      </trkpt>
      <trkpt lat="42.9442" lon="1.13026">
        <ele>886.9</ele>
        <time>2022-06-02T09:41:49.000Z</time>
      </trkpt>
      <trkpt lat="42.94423" lon="1.13041">
        <ele>886.1</ele>
        <time>2022-06-02T09:41:50.000Z</time>
      </trkpt>
      <trkpt lat="42.94426" lon="1.13056">
        <ele>885.4</ele>
        <time>2022-06-02T09:41:51.000Z</time>
      </trkpt>
      <trkpt lat="42.94432" lon="1.13069">
        <ele>884.9</ele>
        <time>2022-06-02T09:41:52.000Z</time>
      </trkpt>
      <trkpt lat="42.94438" lon="1.13081">
        <ele>884.1</ele>
        <time>2022-06-02T09:41:53.000Z</time>
      </trkpt>
      <trkpt lat="42.94446" lon="1.13091">
        <ele>883.5</ele>
        <time>2022-06-02T09:41:54.000Z</time>
      </trkpt>
      <trkpt lat="42.94454" lon="1.13102">
        <ele>882.8</ele>
        <time>2022-06-02T09:41:55.000Z</time>
      </trkpt>
      <trkpt lat="42.94462" lon="1.13113">
        <ele>882</ele>
        <time>2022-06-02T09:41:56.000Z</time>
      </trkpt>
      <trkpt lat="42.94469" lon="1.13124">
        <ele>881.1</ele>
        <time>2022-06-02T09:41:57.000Z</time>
      </trkpt>
      <trkpt lat="42.94474" lon="1.13135">
        <ele>879.8</ele>
        <time>2022-06-02T09:41:58.000Z</time>
      </trkpt>
      <trkpt lat="42.94477" lon="1.13147">
        <ele>879.2</ele>
        <time>2022-06-02T09:41:59.000Z</time>
      </trkpt>
      <trkpt lat="42.94478" lon="1.1316">
        <ele>878.9</ele>
        <time>2022-06-02T09:42:00.000Z</time>
      </trkpt>
      <trkpt lat="42.94477" lon="1.13174">
        <ele>878.4</ele>
        <time>2022-06-02T09:42:01.000Z</time>
      </trkpt>
      <trkpt lat="42.94475" lon="1.13187">
        <ele>877.8</ele>
        <time>2022-06-02T09:42:02.000Z</time>
      </trkpt>
      <trkpt lat="42.94473" lon="1.13201">
        <ele>876.8</ele>
        <time>2022-06-02T09:42:03.000Z</time>
      </trkpt>
      <trkpt lat="42.94472" lon="1.13216">
        <ele>876.3</ele>
        <time>2022-06-02T09:42:04.000Z</time>
      </trkpt>
      <trkpt lat="42.94471" lon="1.13231">
        <ele>875.1</ele>
        <time>2022-06-02T09:42:05.000Z</time>
      </trkpt>
      <trkpt lat="42.94469" lon="1.13247">
        <ele>874.2</ele>
        <time>2022-06-02T09:42:06.000Z</time>
      </trkpt>
      <trkpt lat="42.94466" lon="1.13262">
        <ele>873.6</ele>
        <time>2022-06-02T09:42:07.000Z</time>
      </trkpt>
      <trkpt lat="42.94462" lon="1.13276">
        <ele>872.9</ele>
        <time>2022-06-02T09:42:08.000Z</time>
      </trkpt>
      <trkpt lat="42.94459" lon="1.13288">
        <ele>872.8</ele>
        <time>2022-06-02T09:42:09.000Z</time>
      </trkpt>
      <trkpt lat="42.94456" lon="1.133">
        <ele>871.7</ele>
        <time>2022-06-02T09:42:10.000Z</time>
      </trkpt>
      <trkpt lat="42.94456" lon="1.13322">
        <ele>868.9</ele>
        <time>2022-06-02T09:42:12.000Z</time>
      </trkpt>
      <trkpt lat="42.94464" lon="1.13344">
        <ele>866.8</ele>
        <time>2022-06-02T09:42:14.000Z</time>
      </trkpt>
      <trkpt lat="42.94469" lon="1.13356">
        <ele>866.3</ele>
        <time>2022-06-02T09:42:15.000Z</time>
      </trkpt>
      <trkpt lat="42.94473" lon="1.13368">
        <ele>865.8</ele>
        <time>2022-06-02T09:42:16.000Z</time>
      </trkpt>
      <trkpt lat="42.94477" lon="1.1338">
        <ele>865.5</ele>
        <time>2022-06-02T09:42:17.000Z</time>
      </trkpt>
      <trkpt lat="42.9448" lon="1.13393">
        <ele>864.8</ele>
        <time>2022-06-02T09:42:18.000Z</time>
      </trkpt>
      <trkpt lat="42.94481" lon="1.13406">
        <ele>864.4</ele>
        <time>2022-06-02T09:42:19.000Z</time>
      </trkpt>
      <trkpt lat="42.94481" lon="1.1343">
        <ele>862.7</ele>
        <time>2022-06-02T09:42:21.000Z</time>
      </trkpt>
      <trkpt lat="42.94475" lon="1.13453">
        <ele>859.6</ele>
        <time>2022-06-02T09:42:23.000Z</time>
      </trkpt>
      <trkpt lat="42.94471" lon="1.13465">
        <ele>859</ele>
        <time>2022-06-02T09:42:24.000Z</time>
      </trkpt>
      <trkpt lat="42.94467" lon="1.13477">
        <ele>858.3</ele>
        <time>2022-06-02T09:42:25.000Z</time>
      </trkpt>
      <trkpt lat="42.94463" lon="1.13489">
        <ele>857.2</ele>
        <time>2022-06-02T09:42:26.000Z</time>
      </trkpt>
      <trkpt lat="42.94459" lon="1.13502">
        <ele>856.8</ele>
        <time>2022-06-02T09:42:27.000Z</time>
      </trkpt>
      <trkpt lat="42.94456" lon="1.13515">
        <ele>855.9</ele>
        <time>2022-06-02T09:42:28.000Z</time>
      </trkpt>
      <trkpt lat="42.94452" lon="1.13528">
        <ele>855.1</ele>
        <time>2022-06-02T09:42:29.000Z</time>
      </trkpt>
      <trkpt lat="42.94448" lon="1.1354">
        <ele>854.3</ele>
        <time>2022-06-02T09:42:30.000Z</time>
      </trkpt>
      <trkpt lat="42.94442" lon="1.13552">
        <ele>853.4</ele>
        <time>2022-06-02T09:42:31.000Z</time>
      </trkpt>
      <trkpt lat="42.94437" lon="1.13563">
        <ele>852.9</ele>
        <time>2022-06-02T09:42:32.000Z</time>
      </trkpt>
      <trkpt lat="42.94435" lon="1.13577">
        <ele>852</ele>
        <time>2022-06-02T09:42:33.000Z</time>
      </trkpt>
      <trkpt lat="42.94434" lon="1.1359">
        <ele>851.4</ele>
        <time>2022-06-02T09:42:34.000Z</time>
      </trkpt>
      <trkpt lat="42.94434" lon="1.13604">
        <ele>850.3</ele>
        <time>2022-06-02T09:42:35.000Z</time>
      </trkpt>
      <trkpt lat="42.94434" lon="1.13617">
        <ele>849.6</ele>
        <time>2022-06-02T09:42:36.000Z</time>
      </trkpt>
      <trkpt lat="42.94434" lon="1.1363">
        <ele>849.1</ele>
        <time>2022-06-02T09:42:37.000Z</time>
      </trkpt>
      <trkpt lat="42.9444" lon="1.1365">
        <ele>847.7</ele>
        <time>2022-06-02T09:42:39.000Z</time>
      </trkpt>
      <trkpt lat="42.94451" lon="1.13654">
        <ele>846.3</ele>
        <time>2022-06-02T09:42:41.000Z</time>
      </trkpt>
      <trkpt lat="42.94461" lon="1.13649">
        <ele>845.1</ele>
        <time>2022-06-02T09:42:43.000Z</time>
      </trkpt>
      <trkpt lat="42.94473" lon="1.13643">
        <ele>844.2</ele>
        <time>2022-06-02T09:42:46.000Z</time>
      </trkpt>
      <trkpt lat="42.94484" lon="1.13645">
        <ele>842.5</ele>
        <time>2022-06-02T09:42:49.000Z</time>
      </trkpt>
      <trkpt lat="42.94493" lon="1.13655">
        <ele>841.2</ele>
        <time>2022-06-02T09:42:52.000Z</time>
      </trkpt>
      <trkpt lat="42.94503" lon="1.13665">
        <ele>840.5</ele>
        <time>2022-06-02T09:42:55.000Z</time>
      </trkpt>
      <trkpt lat="42.94511" lon="1.13675">
        <ele>839.1</ele>
        <time>2022-06-02T09:42:58.000Z</time>
      </trkpt>
      <trkpt lat="42.9452" lon="1.13682">
        <ele>838.3</ele>
        <time>2022-06-02T09:43:01.000Z</time>
      </trkpt>
      <trkpt lat="42.94531" lon="1.13689">
        <ele>837</ele>
        <time>2022-06-02T09:43:04.000Z</time>
      </trkpt>
      <trkpt lat="42.94541" lon="1.13694">
        <ele>836.7</ele>
        <time>2022-06-02T09:43:07.000Z</time>
      </trkpt>
      <trkpt lat="42.94552" lon="1.13698">
        <ele>836.4</ele>
        <time>2022-06-02T09:43:10.000Z</time>
      </trkpt>
      <trkpt lat="42.94562" lon="1.13701">
        <ele>835.9</ele>
        <time>2022-06-02T09:43:13.000Z</time>
      </trkpt>
      <trkpt lat="42.94572" lon="1.13704">
        <ele>836</ele>
        <time>2022-06-02T09:43:16.000Z</time>
      </trkpt>
      <trkpt lat="42.94582" lon="1.1371">
        <ele>834.7</ele>
        <time>2022-06-02T09:43:19.000Z</time>
      </trkpt>
      <trkpt lat="42.9458" lon="1.13725">
        <ele>834.8</ele>
        <time>2022-06-02T09:43:23.000Z</time>
      </trkpt>
      <trkpt lat="42.94569" lon="1.13729">
        <ele>834.8</ele>
        <time>2022-06-02T09:43:26.000Z</time>
      </trkpt>
      <trkpt lat="42.94558" lon="1.13729">
        <ele>834.6</ele>
        <time>2022-06-02T09:43:29.000Z</time>
      </trkpt>
      <trkpt lat="42.94547" lon="1.13731">
        <ele>834</ele>
        <time>2022-06-02T09:43:32.000Z</time>
      </trkpt>
      <trkpt lat="42.94536" lon="1.13734">
        <ele>834.6</ele>
        <time>2022-06-02T09:43:35.000Z</time>
      </trkpt>
      <trkpt lat="42.94526" lon="1.13738">
        <ele>835.1</ele>
        <time>2022-06-02T09:43:38.000Z</time>
      </trkpt>
      <trkpt lat="42.94515" lon="1.1374">
        <ele>835.2</ele>
        <time>2022-06-02T09:43:41.000Z</time>
      </trkpt>
      <trkpt lat="42.94506" lon="1.13746">
        <ele>835.3</ele>
        <time>2022-06-02T09:43:44.000Z</time>
      </trkpt>
      <trkpt lat="42.9451" lon="1.13759">
        <ele>835.5</ele>
        <time>2022-06-02T09:43:48.000Z</time>
      </trkpt>
      <trkpt lat="42.94522" lon="1.1376">
        <ele>835.7</ele>
        <time>2022-06-02T09:43:52.000Z</time>
      </trkpt>
      <trkpt lat="42.94532" lon="1.13761">
        <ele>836</ele>
        <time>2022-06-02T09:43:55.000Z</time>
      </trkpt>
      <trkpt lat="42.94542" lon="1.13761">
        <ele>836.1</ele>
        <time>2022-06-02T09:43:58.000Z</time>
      </trkpt>
      <trkpt lat="42.94553" lon="1.13762">
        <ele>836.2</ele>
        <time>2022-06-02T09:44:01.000Z</time>
      </trkpt>
      <trkpt lat="42.94563" lon="1.13761">
        <ele>836.1</ele>
        <time>2022-06-02T09:44:04.000Z</time>
      </trkpt>
      <trkpt lat="42.94573" lon="1.13762">
        <ele>835.9</ele>
        <time>2022-06-02T09:44:07.000Z</time>
      </trkpt>
      <trkpt lat="42.94584" lon="1.13764">
        <ele>836.3</ele>
        <time>2022-06-02T09:44:10.000Z</time>
      </trkpt>
      <trkpt lat="42.94594" lon="1.13768">
        <ele>835.5</ele>
        <time>2022-06-02T09:44:13.000Z</time>
      </trkpt>
      <trkpt lat="42.94604" lon="1.13773">
        <ele>835.1</ele>
        <time>2022-06-02T09:44:17.000Z</time>
      </trkpt>
      <trkpt lat="42.94614" lon="1.13773">
        <ele>835.3</ele>
        <time>2022-06-02T09:44:20.000Z</time>
      </trkpt>
      <trkpt lat="42.94624" lon="1.13774">
        <ele>835.2</ele>
        <time>2022-06-02T09:44:24.000Z</time>
      </trkpt>
      <trkpt lat="42.94634" lon="1.13766">
        <ele>834.4</ele>
        <time>2022-06-02T09:44:28.000Z</time>
      </trkpt>
      <trkpt lat="42.94642" lon="1.13757">
        <ele>833.9</ele>
        <time>2022-06-02T09:44:31.000Z</time>
      </trkpt>
      <trkpt lat="42.9465" lon="1.13747">
        <ele>833.4</ele>
        <time>2022-06-02T09:44:35.000Z</time>
      </trkpt>
      <trkpt lat="42.94656" lon="1.13736">
        <ele>833.3</ele>
        <time>2022-06-02T09:44:39.000Z</time>
      </trkpt>
      <trkpt lat="42.94663" lon="1.13723">
        <ele>832.3</ele>
        <time>2022-06-02T09:44:43.000Z</time>
      </trkpt>
      <trkpt lat="42.94673" lon="1.13721">
        <ele>831.5</ele>
        <time>2022-06-02T09:44:46.000Z</time>
      </trkpt>
      <trkpt lat="42.94684" lon="1.13721">
        <ele>831.1</ele>
        <time>2022-06-02T09:44:48.000Z</time>
      </trkpt>
      <trkpt lat="42.94693" lon="1.13725">
        <ele>830.9</ele>
        <time>2022-06-02T09:44:50.000Z</time>
      </trkpt>
      <trkpt lat="42.94704" lon="1.1373">
        <ele>830.5</ele>
        <time>2022-06-02T09:44:53.000Z</time>
      </trkpt>
      <trkpt lat="42.94713" lon="1.13738">
        <ele>830.5</ele>
        <time>2022-06-02T09:44:57.000Z</time>
      </trkpt>
      <trkpt lat="42.94721" lon="1.13747">
        <ele>830.9</ele>
        <time>2022-06-02T09:45:01.000Z</time>
      </trkpt>
      <trkpt lat="42.94731" lon="1.13751">
        <ele>830.7</ele>
        <time>2022-06-02T09:45:05.000Z</time>
      </trkpt>
      <trkpt lat="42.94742" lon="1.13753">
        <ele>830.8</ele>
        <time>2022-06-02T09:45:10.000Z</time>
      </trkpt>
      <trkpt lat="42.94752" lon="1.13754">
        <ele>830.9</ele>
        <time>2022-06-02T09:45:15.000Z</time>
      </trkpt>
      <trkpt lat="42.94763" lon="1.13755">
        <ele>830.8</ele>
        <time>2022-06-02T09:45:20.000Z</time>
      </trkpt>
      <trkpt lat="42.94772" lon="1.13755">
        <ele>831.2</ele>
        <time>2022-06-02T09:45:24.000Z</time>
      </trkpt>
      <trkpt lat="42.94782" lon="1.13755">
        <ele>831.6</ele>
        <time>2022-06-02T09:45:28.000Z</time>
      </trkpt>
      <trkpt lat="42.94791" lon="1.13754">
        <ele>831.7</ele>
        <time>2022-06-02T09:45:32.000Z</time>
      </trkpt>
      <trkpt lat="42.94801" lon="1.13754">
        <ele>831.8</ele>
        <time>2022-06-02T09:45:36.000Z</time>
      </trkpt>
      <trkpt lat="42.94811" lon="1.13753">
        <ele>832.5</ele>
        <time>2022-06-02T09:45:39.000Z</time>
      </trkpt>
      <trkpt lat="42.9482" lon="1.1375">
        <ele>832.8</ele>
        <time>2022-06-02T09:45:42.000Z</time>
      </trkpt>
      <trkpt lat="42.94831" lon="1.13747">
        <ele>833.4</ele>
        <time>2022-06-02T09:45:46.000Z</time>
      </trkpt>
      <trkpt lat="42.94841" lon="1.13741">
        <ele>834.4</ele>
        <time>2022-06-02T09:45:50.000Z</time>
      </trkpt>
      <trkpt lat="42.94849" lon="1.13733">
        <ele>835.5</ele>
        <time>2022-06-02T09:45:54.000Z</time>
      </trkpt>
      <trkpt lat="42.94857" lon="1.13725">
        <ele>836</ele>
        <time>2022-06-02T09:45:58.000Z</time>
      </trkpt>
      <trkpt lat="42.94866" lon="1.13715">
        <ele>836.2</ele>
        <time>2022-06-02T09:46:02.000Z</time>
      </trkpt>
      <trkpt lat="42.94876" lon="1.13708">
        <ele>836.5</ele>
        <time>2022-06-02T09:46:05.000Z</time>
      </trkpt>
      <trkpt lat="42.94886" lon="1.13705">
        <ele>836.5</ele>
        <time>2022-06-02T09:46:07.000Z</time>
      </trkpt>
      <trkpt lat="42.94898" lon="1.13705">
        <ele>836.9</ele>
        <time>2022-06-02T09:46:09.000Z</time>
      </trkpt>
      <trkpt lat="42.94912" lon="1.13704">
        <ele>836.7</ele>
        <time>2022-06-02T09:46:11.000Z</time>
      </trkpt>
      <trkpt lat="42.94924" lon="1.13706">
        <ele>837.5</ele>
        <time>2022-06-02T09:46:13.000Z</time>
      </trkpt>
      <trkpt lat="42.94935" lon="1.13715">
        <ele>837.2</ele>
        <time>2022-06-02T09:46:15.000Z</time>
      </trkpt>
      <trkpt lat="42.94942" lon="1.13729">
        <ele>836.9</ele>
        <time>2022-06-02T09:46:17.000Z</time>
      </trkpt>
      <trkpt lat="42.94947" lon="1.13742">
        <ele>836.9</ele>
        <time>2022-06-02T09:46:19.000Z</time>
      </trkpt>
      <trkpt lat="42.94952" lon="1.13757">
        <ele>837.1</ele>
        <time>2022-06-02T09:46:22.000Z</time>
      </trkpt>
      <trkpt lat="42.94958" lon="1.1377">
        <ele>837.9</ele>
        <time>2022-06-02T09:46:25.000Z</time>
      </trkpt>
      <trkpt lat="42.94965" lon="1.13777">
        <ele>837.8</ele>
        <time>2022-06-02T09:46:27.000Z</time>
      </trkpt>
      <trkpt lat="42.94976" lon="1.13775">
        <ele>838.2</ele>
        <time>2022-06-02T09:46:30.000Z</time>
      </trkpt>
      <trkpt lat="42.94979" lon="1.13763">
        <ele>838.2</ele>
        <time>2022-06-02T09:46:32.000Z</time>
      </trkpt>
      <trkpt lat="42.94983" lon="1.13749">
        <ele>838.6</ele>
        <time>2022-06-02T09:46:35.000Z</time>
      </trkpt>
      <trkpt lat="42.94991" lon="1.13742">
        <ele>838.4</ele>
        <time>2022-06-02T09:46:38.000Z</time>
      </trkpt>
      <trkpt lat="42.95001" lon="1.13735">
        <ele>838.3</ele>
        <time>2022-06-02T09:46:41.000Z</time>
      </trkpt>
      <trkpt lat="42.95011" lon="1.13724">
        <ele>838</ele>
        <time>2022-06-02T09:46:44.000Z</time>
      </trkpt>
      <trkpt lat="42.95015" lon="1.13712">
        <ele>837.5</ele>
        <time>2022-06-02T09:46:46.000Z</time>
      </trkpt>
      <trkpt lat="42.95018" lon="1.137">
        <ele>837.6</ele>
        <time>2022-06-02T09:46:48.000Z</time>
      </trkpt>
      <trkpt lat="42.95021" lon="1.13687">
        <ele>837.2</ele>
        <time>2022-06-02T09:46:50.000Z</time>
      </trkpt>
      <trkpt lat="42.95026" lon="1.13675">
        <ele>837.5</ele>
        <time>2022-06-02T09:46:52.000Z</time>
      </trkpt>
      <trkpt lat="42.95034" lon="1.13666">
        <ele>837.2</ele>
        <time>2022-06-02T09:46:55.000Z</time>
      </trkpt>
      <trkpt lat="42.9504" lon="1.13656">
        <ele>836.8</ele>
        <time>2022-06-02T09:46:58.000Z</time>
      </trkpt>
      <trkpt lat="42.95043" lon="1.13644">
        <ele>836.7</ele>
        <time>2022-06-02T09:47:00.000Z</time>
      </trkpt>
      <trkpt lat="42.95049" lon="1.13634">
        <ele>836.7</ele>
        <time>2022-06-02T09:47:02.000Z</time>
      </trkpt>
      <trkpt lat="42.95055" lon="1.13623">
        <ele>835.9</ele>
        <time>2022-06-02T09:47:05.000Z</time>
      </trkpt>
      <trkpt lat="42.95057" lon="1.13611">
        <ele>836.5</ele>
        <time>2022-06-02T09:47:07.000Z</time>
      </trkpt>
      <trkpt lat="42.95059" lon="1.13597">
        <ele>836.1</ele>
        <time>2022-06-02T09:47:09.000Z</time>
      </trkpt>
      <trkpt lat="42.95066" lon="1.13587">
        <ele>835.2</ele>
        <time>2022-06-02T09:47:11.000Z</time>
      </trkpt>
      <trkpt lat="42.95073" lon="1.13577">
        <ele>835.1</ele>
        <time>2022-06-02T09:47:13.000Z</time>
      </trkpt>
      <trkpt lat="42.95082" lon="1.13569">
        <ele>835.1</ele>
        <time>2022-06-02T09:47:16.000Z</time>
      </trkpt>
      <trkpt lat="42.95092" lon="1.13562">
        <ele>834.9</ele>
        <time>2022-06-02T09:47:20.000Z</time>
      </trkpt>
      <trkpt lat="42.95099" lon="1.13553">
        <ele>834.1</ele>
        <time>2022-06-02T09:47:24.000Z</time>
      </trkpt>
      <trkpt lat="42.95108" lon="1.13543">
        <ele>834.2</ele>
        <time>2022-06-02T09:47:27.000Z</time>
      </trkpt>
      <trkpt lat="42.95114" lon="1.13534">
        <ele>833.6</ele>
        <time>2022-06-02T09:47:29.000Z</time>
      </trkpt>
      <trkpt lat="42.95119" lon="1.13518">
        <ele>832.6</ele>
        <time>2022-06-02T09:47:31.000Z</time>
      </trkpt>
      <trkpt lat="42.95125" lon="1.13502">
        <ele>832.9</ele>
        <time>2022-06-02T09:47:33.000Z</time>
      </trkpt>
      <trkpt lat="42.95134" lon="1.13492">
        <ele>833.2</ele>
        <time>2022-06-02T09:47:35.000Z</time>
      </trkpt>
      <trkpt lat="42.95143" lon="1.13482">
        <ele>832.6</ele>
        <time>2022-06-02T09:47:37.000Z</time>
      </trkpt>
      <trkpt lat="42.95151" lon="1.13471">
        <ele>831.4</ele>
        <time>2022-06-02T09:47:39.000Z</time>
      </trkpt>
      <trkpt lat="42.95154" lon="1.13459">
        <ele>832.1</ele>
        <time>2022-06-02T09:47:41.000Z</time>
      </trkpt>
      <trkpt lat="42.95154" lon="1.13444">
        <ele>831.4</ele>
        <time>2022-06-02T09:47:43.000Z</time>
      </trkpt>
      <trkpt lat="42.95155" lon="1.13431">
        <ele>831.4</ele>
        <time>2022-06-02T09:47:45.000Z</time>
      </trkpt>
      <trkpt lat="42.95158" lon="1.13416">
        <ele>830.8</ele>
        <time>2022-06-02T09:47:47.000Z</time>
      </trkpt>
      <trkpt lat="42.95159" lon="1.13403">
        <ele>830.6</ele>
        <time>2022-06-02T09:47:49.000Z</time>
      </trkpt>
      <trkpt lat="42.95158" lon="1.1339">
        <ele>830.4</ele>
        <time>2022-06-02T09:47:51.000Z</time>
      </trkpt>
      <trkpt lat="42.95155" lon="1.13375">
        <ele>829.8</ele>
        <time>2022-06-02T09:47:54.000Z</time>
      </trkpt>
      <trkpt lat="42.95154" lon="1.1336">
        <ele>829.7</ele>
        <time>2022-06-02T09:47:57.000Z</time>
      </trkpt>
      <trkpt lat="42.95154" lon="1.13347">
        <ele>829.2</ele>
        <time>2022-06-02T09:48:00.000Z</time>
      </trkpt>
      <trkpt lat="42.95151" lon="1.13335">
        <ele>829.3</ele>
        <time>2022-06-02T09:48:03.000Z</time>
      </trkpt>
      <trkpt lat="42.95148" lon="1.1332">
        <ele>829.5</ele>
        <time>2022-06-02T09:48:06.000Z</time>
      </trkpt>
      <trkpt lat="42.95148" lon="1.13306">
        <ele>829</ele>
        <time>2022-06-02T09:48:09.000Z</time>
      </trkpt>
      <trkpt lat="42.95153" lon="1.13295">
        <ele>829.4</ele>
        <time>2022-06-02T09:48:12.000Z</time>
      </trkpt>
      <trkpt lat="42.95161" lon="1.13287">
        <ele>829.1</ele>
        <time>2022-06-02T09:48:15.000Z</time>
      </trkpt>
      <trkpt lat="42.95172" lon="1.13282">
        <ele>829.8</ele>
        <time>2022-06-02T09:48:19.000Z</time>
      </trkpt>
      <trkpt lat="42.95182" lon="1.13278">
        <ele>829.5</ele>
        <time>2022-06-02T09:48:22.000Z</time>
      </trkpt>
      <trkpt lat="42.95192" lon="1.1328">
        <ele>830.7</ele>
        <time>2022-06-02T09:48:26.000Z</time>
      </trkpt>
      <trkpt lat="42.95203" lon="1.1328">
        <ele>830.9</ele>
        <time>2022-06-02T09:48:30.000Z</time>
      </trkpt>
      <trkpt lat="42.95214" lon="1.13278">
        <ele>831.5</ele>
        <time>2022-06-02T09:48:34.000Z</time>
      </trkpt>
      <trkpt lat="42.95226" lon="1.13277">
        <ele>831.9</ele>
        <time>2022-06-02T09:48:38.000Z</time>
      </trkpt>
      <trkpt lat="42.95235" lon="1.13278">
        <ele>832.2</ele>
        <time>2022-06-02T09:48:41.000Z</time>
      </trkpt>
      <trkpt lat="42.95245" lon="1.13278">
        <ele>832.7</ele>
        <time>2022-06-02T09:48:45.000Z</time>
      </trkpt>
      <trkpt lat="42.95256" lon="1.1328">
        <ele>833.1</ele>
        <time>2022-06-02T09:48:49.000Z</time>
      </trkpt>
      <trkpt lat="42.95266" lon="1.1328">
        <ele>833.4</ele>
        <time>2022-06-02T09:48:52.000Z</time>
      </trkpt>
      <trkpt lat="42.95276" lon="1.1328">
        <ele>834</ele>
        <time>2022-06-02T09:48:55.000Z</time>
      </trkpt>
      <trkpt lat="42.95286" lon="1.13281">
        <ele>834.4</ele>
        <time>2022-06-02T09:48:59.000Z</time>
      </trkpt>
      <trkpt lat="42.95296" lon="1.13277">
        <ele>834.6</ele>
        <time>2022-06-02T09:49:04.000Z</time>
      </trkpt>
      <trkpt lat="42.95305" lon="1.13271">
        <ele>835</ele>
        <time>2022-06-02T09:49:09.000Z</time>
      </trkpt>
      <trkpt lat="42.95315" lon="1.13263">
        <ele>835.4</ele>
        <time>2022-06-02T09:49:13.000Z</time>
      </trkpt>
      <trkpt lat="42.95324" lon="1.13259">
        <ele>835.4</ele>
        <time>2022-06-02T09:49:16.000Z</time>
      </trkpt>
      <trkpt lat="42.95333" lon="1.13261">
        <ele>836.1</ele>
        <time>2022-06-02T09:49:20.000Z</time>
      </trkpt>
      <trkpt lat="42.95342" lon="1.13271">
        <ele>836.6</ele>
        <time>2022-06-02T09:49:24.000Z</time>
      </trkpt>
      <trkpt lat="42.95351" lon="1.13279">
        <ele>835.8</ele>
        <time>2022-06-02T09:49:27.000Z</time>
      </trkpt>
      <trkpt lat="42.95364" lon="1.13284">
        <ele>835.9</ele>
        <time>2022-06-02T09:49:30.000Z</time>
      </trkpt>
      <trkpt lat="42.95375" lon="1.1329">
        <ele>835.9</ele>
        <time>2022-06-02T09:49:33.000Z</time>
      </trkpt>
      <trkpt lat="42.95385" lon="1.13294">
        <ele>836</ele>
        <time>2022-06-02T09:49:36.000Z</time>
      </trkpt>
      <trkpt lat="42.95394" lon="1.13295">
        <ele>836.1</ele>
        <time>2022-06-02T09:49:39.000Z</time>
      </trkpt>
      <trkpt lat="42.95405" lon="1.13291">
        <ele>836.7</ele>
        <time>2022-06-02T09:49:44.000Z</time>
      </trkpt>
      <trkpt lat="42.95414" lon="1.13285">
        <ele>836.9</ele>
        <time>2022-06-02T09:49:48.000Z</time>
      </trkpt>
      <trkpt lat="42.95424" lon="1.13278">
        <ele>837.4</ele>
        <time>2022-06-02T09:49:53.000Z</time>
      </trkpt>
      <trkpt lat="42.95433" lon="1.13272">
        <ele>837</ele>
        <time>2022-06-02T09:49:58.000Z</time>
      </trkpt>
      <trkpt lat="42.95441" lon="1.13264">
        <ele>836.9</ele>
        <time>2022-06-02T09:50:03.000Z</time>
      </trkpt>
      <trkpt lat="42.95449" lon="1.1326">
        <ele>836.9</ele>
        <time>2022-06-02T09:50:08.000Z</time>
      </trkpt>
      <trkpt lat="42.9545" lon="1.13259">
        <ele>836.9</ele>
        <time>2022-06-02T09:50:10.000Z</time>
      </trkpt>
      <trkpt lat="42.95451" lon="1.13258">
        <ele>836.5</ele>
        <time>2022-06-02T09:50:27.000Z</time>
      </trkpt>
      <trkpt lat="42.95451" lon="1.13259">
        <ele>835.3</ele>
        <time>2022-06-02T09:50:59.000Z</time>
      </trkpt>
      <trkpt lat="42.9545" lon="1.13259">
        <ele>834.8</ele>
        <time>2022-06-02T09:51:37.000Z</time>
      </trkpt>
      <trkpt lat="42.95441" lon="1.13264">
        <ele>834.7</ele>
        <time>2022-06-02T09:51:42.000Z</time>
      </trkpt>
      <trkpt lat="42.95433" lon="1.13272">
        <ele>834.5</ele>
        <time>2022-06-02T09:51:47.000Z</time>
      </trkpt>
      <trkpt lat="42.95423" lon="1.13279">
        <ele>833.9</ele>
        <time>2022-06-02T09:51:53.000Z</time>
      </trkpt>
      <trkpt lat="42.95414" lon="1.13283">
        <ele>833.9</ele>
        <time>2022-06-02T09:51:57.000Z</time>
      </trkpt>
      <trkpt lat="42.95405" lon="1.13286">
        <ele>833.2</ele>
        <time>2022-06-02T09:52:01.000Z</time>
      </trkpt>
      <trkpt lat="42.95393" lon="1.13285">
        <ele>832.6</ele>
        <time>2022-06-02T09:52:05.000Z</time>
      </trkpt>
      <trkpt lat="42.95383" lon="1.13283">
        <ele>832.2</ele>
        <time>2022-06-02T09:52:08.000Z</time>
      </trkpt>
      <trkpt lat="42.95371" lon="1.1328">
        <ele>832.2</ele>
        <time>2022-06-02T09:52:11.000Z</time>
      </trkpt>
      <trkpt lat="42.95359" lon="1.13276">
        <ele>832.3</ele>
        <time>2022-06-02T09:52:14.000Z</time>
      </trkpt>
      <trkpt lat="42.95348" lon="1.1327">
        <ele>832.4</ele>
        <time>2022-06-02T09:52:17.000Z</time>
      </trkpt>
      <trkpt lat="42.9534" lon="1.13262">
        <ele>832.4</ele>
        <time>2022-06-02T09:52:20.000Z</time>
      </trkpt>
      <trkpt lat="42.9533" lon="1.13256">
        <ele>832.9</ele>
        <time>2022-06-02T09:52:24.000Z</time>
      </trkpt>
      <trkpt lat="42.95319" lon="1.13261">
        <ele>832.9</ele>
        <time>2022-06-02T09:52:27.000Z</time>
      </trkpt>
      <trkpt lat="42.95309" lon="1.13267">
        <ele>833.2</ele>
        <time>2022-06-02T09:52:30.000Z</time>
      </trkpt>
      <trkpt lat="42.95299" lon="1.13272">
        <ele>833.8</ele>
        <time>2022-06-02T09:52:33.000Z</time>
      </trkpt>
      <trkpt lat="42.95288" lon="1.13276">
        <ele>832.9</ele>
        <time>2022-06-02T09:52:36.000Z</time>
      </trkpt>
      <trkpt lat="42.95277" lon="1.13275">
        <ele>833.8</ele>
        <time>2022-06-02T09:52:39.000Z</time>
      </trkpt>
      <trkpt lat="42.95266" lon="1.13273">
        <ele>833.7</ele>
        <time>2022-06-02T09:52:41.000Z</time>
      </trkpt>
      <trkpt lat="42.95254" lon="1.13272">
        <ele>832.6</ele>
        <time>2022-06-02T09:52:43.000Z</time>
      </trkpt>
      <trkpt lat="42.95244" lon="1.13272">
        <ele>831.9</ele>
        <time>2022-06-02T09:52:45.000Z</time>
      </trkpt>
      <trkpt lat="42.95232" lon="1.13273">
        <ele>833.7</ele>
        <time>2022-06-02T09:52:47.000Z</time>
      </trkpt>
      <trkpt lat="42.9522" lon="1.13274">
        <ele>832.9</ele>
        <time>2022-06-02T09:52:49.000Z</time>
      </trkpt>
      <trkpt lat="42.95209" lon="1.13274">
        <ele>832.2</ele>
        <time>2022-06-02T09:52:51.000Z</time>
      </trkpt>
      <trkpt lat="42.95198" lon="1.13276">
        <ele>832.4</ele>
        <time>2022-06-02T09:52:53.000Z</time>
      </trkpt>
      <trkpt lat="42.95188" lon="1.13276">
        <ele>832</ele>
        <time>2022-06-02T09:52:55.000Z</time>
      </trkpt>
      <trkpt lat="42.95178" lon="1.13279">
        <ele>831.5</ele>
        <time>2022-06-02T09:52:57.000Z</time>
      </trkpt>
      <trkpt lat="42.95169" lon="1.13282">
        <ele>831.8</ele>
        <time>2022-06-02T09:52:59.000Z</time>
      </trkpt>
      <trkpt lat="42.95159" lon="1.13289">
        <ele>830.7</ele>
        <time>2022-06-02T09:53:02.000Z</time>
      </trkpt>
      <trkpt lat="42.95156" lon="1.13303">
        <ele>830.7</ele>
        <time>2022-06-02T09:53:06.000Z</time>
      </trkpt>
      <trkpt lat="42.95157" lon="1.13315">
        <ele>830</ele>
        <time>2022-06-02T09:53:08.000Z</time>
      </trkpt>
      <trkpt lat="42.9516" lon="1.1333">
        <ele>829.2</ele>
        <time>2022-06-02T09:53:10.000Z</time>
      </trkpt>
      <trkpt lat="42.95159" lon="1.13346">
        <ele>829</ele>
        <time>2022-06-02T09:53:12.000Z</time>
      </trkpt>
      <trkpt lat="42.95159" lon="1.1336">
        <ele>828.5</ele>
        <time>2022-06-02T09:53:14.000Z</time>
      </trkpt>
      <trkpt lat="42.95161" lon="1.13375">
        <ele>828.1</ele>
        <time>2022-06-02T09:53:16.000Z</time>
      </trkpt>
      <trkpt lat="42.95163" lon="1.13391">
        <ele>827.3</ele>
        <time>2022-06-02T09:53:18.000Z</time>
      </trkpt>
      <trkpt lat="42.95161" lon="1.13406">
        <ele>827.1</ele>
        <time>2022-06-02T09:53:20.000Z</time>
      </trkpt>
      <trkpt lat="42.95158" lon="1.13421">
        <ele>826.6</ele>
        <time>2022-06-02T09:53:23.000Z</time>
      </trkpt>
      <trkpt lat="42.95157" lon="1.13437">
        <ele>826.1</ele>
        <time>2022-06-02T09:53:26.000Z</time>
      </trkpt>
      <trkpt lat="42.95157" lon="1.13451">
        <ele>825.4</ele>
        <time>2022-06-02T09:53:29.000Z</time>
      </trkpt>
      <trkpt lat="42.95155" lon="1.13468">
        <ele>825.4</ele>
        <time>2022-06-02T09:53:32.000Z</time>
      </trkpt>
      <trkpt lat="42.95149" lon="1.1348">
        <ele>825.2</ele>
        <time>2022-06-02T09:53:35.000Z</time>
      </trkpt>
      <trkpt lat="42.95142" lon="1.13488">
        <ele>824.7</ele>
        <time>2022-06-02T09:53:38.000Z</time>
      </trkpt>
      <trkpt lat="42.95132" lon="1.13495">
        <ele>824.4</ele>
        <time>2022-06-02T09:53:41.000Z</time>
      </trkpt>
      <trkpt lat="42.95126" lon="1.13503">
        <ele>824.7</ele>
        <time>2022-06-02T09:53:44.000Z</time>
      </trkpt>
      <trkpt lat="42.9512" lon="1.13514">
        <ele>824.7</ele>
        <time>2022-06-02T09:53:47.000Z</time>
      </trkpt>
      <trkpt lat="42.95116" lon="1.13529">
        <ele>824.5</ele>
        <time>2022-06-02T09:53:51.000Z</time>
      </trkpt>
      <trkpt lat="42.9511" lon="1.13541">
        <ele>825.2</ele>
        <time>2022-06-02T09:53:55.000Z</time>
      </trkpt>
      <trkpt lat="42.95103" lon="1.13551">
        <ele>825.4</ele>
        <time>2022-06-02T09:53:59.000Z</time>
      </trkpt>
      <trkpt lat="42.95113" lon="1.13558">
        <ele>824.7</ele>
        <time>2022-06-02T09:54:07.000Z</time>
      </trkpt>
      <trkpt lat="42.95119" lon="1.1356">
        <ele>824.3</ele>
        <time>2022-06-02T09:54:13.000Z</time>
      </trkpt>
      <trkpt lat="42.95119" lon="1.13559">
        <ele>823.9</ele>
        <time>2022-06-02T09:54:22.000Z</time>
      </trkpt>
      <trkpt lat="42.95131" lon="1.1356">
        <ele>823.4</ele>
        <time>2022-06-02T09:54:28.000Z</time>
      </trkpt>
      <trkpt lat="42.95142" lon="1.13561">
        <ele>823.4</ele>
        <time>2022-06-02T09:54:32.000Z</time>
      </trkpt>
      <trkpt lat="42.95151" lon="1.13562">
        <ele>823.3</ele>
        <time>2022-06-02T09:54:35.000Z</time>
      </trkpt>
      <trkpt lat="42.95164" lon="1.13559">
        <ele>822.9</ele>
        <time>2022-06-02T09:54:38.000Z</time>
      </trkpt>
      <trkpt lat="42.95176" lon="1.13561">
        <ele>821.6</ele>
        <time>2022-06-02T09:54:41.000Z</time>
      </trkpt>
      <trkpt lat="42.95185" lon="1.13569">
        <ele>821.8</ele>
        <time>2022-06-02T09:54:44.000Z</time>
      </trkpt>
      <trkpt lat="42.95193" lon="1.13575">
        <ele>821.5</ele>
        <time>2022-06-02T09:54:48.000Z</time>
      </trkpt>
      <trkpt lat="42.95203" lon="1.13579">
        <ele>821.7</ele>
        <time>2022-06-02T09:54:52.000Z</time>
      </trkpt>
      <trkpt lat="42.95213" lon="1.13585">
        <ele>821.7</ele>
        <time>2022-06-02T09:54:56.000Z</time>
      </trkpt>
      <trkpt lat="42.95222" lon="1.13591">
        <ele>821.3</ele>
        <time>2022-06-02T09:54:59.000Z</time>
      </trkpt>
      <trkpt lat="42.95232" lon="1.13596">
        <ele>820.6</ele>
        <time>2022-06-02T09:55:03.000Z</time>
      </trkpt>
      <trkpt lat="42.95241" lon="1.13602">
        <ele>820</ele>
        <time>2022-06-02T09:55:06.000Z</time>
      </trkpt>
      <trkpt lat="42.95249" lon="1.13609">
        <ele>819.2</ele>
        <time>2022-06-02T09:55:08.000Z</time>
      </trkpt>
      <trkpt lat="42.95259" lon="1.13615">
        <ele>818.9</ele>
        <time>2022-06-02T09:55:10.000Z</time>
      </trkpt>
      <trkpt lat="42.95268" lon="1.13617">
        <ele>819.5</ele>
        <time>2022-06-02T09:55:12.000Z</time>
      </trkpt>
      <trkpt lat="42.95279" lon="1.13622">
        <ele>818.7</ele>
        <time>2022-06-02T09:55:14.000Z</time>
      </trkpt>
      <trkpt lat="42.95289" lon="1.13627">
        <ele>819</ele>
        <time>2022-06-02T09:55:16.000Z</time>
      </trkpt>
      <trkpt lat="42.95296" lon="1.13637">
        <ele>817.7</ele>
        <time>2022-06-02T09:55:18.000Z</time>
      </trkpt>
      <trkpt lat="42.95304" lon="1.13644">
        <ele>817.7</ele>
        <time>2022-06-02T09:55:20.000Z</time>
      </trkpt>
      <trkpt lat="42.95312" lon="1.13654">
        <ele>817.1</ele>
        <time>2022-06-02T09:55:22.000Z</time>
      </trkpt>
      <trkpt lat="42.95319" lon="1.13665">
        <ele>815.6</ele>
        <time>2022-06-02T09:55:24.000Z</time>
      </trkpt>
      <trkpt lat="42.95327" lon="1.13674">
        <ele>816.1</ele>
        <time>2022-06-02T09:55:26.000Z</time>
      </trkpt>
      <trkpt lat="42.95337" lon="1.13679">
        <ele>814.9</ele>
        <time>2022-06-02T09:55:28.000Z</time>
      </trkpt>
      <trkpt lat="42.95347" lon="1.13685">
        <ele>812.9</ele>
        <time>2022-06-02T09:55:30.000Z</time>
      </trkpt>
      <trkpt lat="42.95356" lon="1.13688">
        <ele>813</ele>
        <time>2022-06-02T09:55:32.000Z</time>
      </trkpt>
      <trkpt lat="42.95365" lon="1.13696">
        <ele>812.7</ele>
        <time>2022-06-02T09:55:34.000Z</time>
      </trkpt>
      <trkpt lat="42.95375" lon="1.13711">
        <ele>813</ele>
        <time>2022-06-02T09:55:36.000Z</time>
      </trkpt>
      <trkpt lat="42.95386" lon="1.13723">
        <ele>810.5</ele>
        <time>2022-06-02T09:55:38.000Z</time>
      </trkpt>
      <trkpt lat="42.95396" lon="1.13734">
        <ele>810.3</ele>
        <time>2022-06-02T09:55:40.000Z</time>
      </trkpt>
      <trkpt lat="42.95405" lon="1.13743">
        <ele>809.9</ele>
        <time>2022-06-02T09:55:42.000Z</time>
      </trkpt>
      <trkpt lat="42.95414" lon="1.1375">
        <ele>809.1</ele>
        <time>2022-06-02T09:55:44.000Z</time>
      </trkpt>
      <trkpt lat="42.95425" lon="1.13759">
        <ele>807.7</ele>
        <time>2022-06-02T09:55:47.000Z</time>
      </trkpt>
      <trkpt lat="42.95435" lon="1.13763">
        <ele>806.8</ele>
        <time>2022-06-02T09:55:50.000Z</time>
      </trkpt>
      <trkpt lat="42.95447" lon="1.13765">
        <ele>804.8</ele>
        <time>2022-06-02T09:55:53.000Z</time>
      </trkpt>
      <trkpt lat="42.95456" lon="1.13765">
        <ele>803.9</ele>
        <time>2022-06-02T09:55:55.000Z</time>
      </trkpt>
      <trkpt lat="42.95469" lon="1.13764">
        <ele>801.9</ele>
        <time>2022-06-02T09:55:57.000Z</time>
      </trkpt>
      <trkpt lat="42.95481" lon="1.13763">
        <ele>801.3</ele>
        <time>2022-06-02T09:55:59.000Z</time>
      </trkpt>
      <trkpt lat="42.95493" lon="1.13763">
        <ele>800.5</ele>
        <time>2022-06-02T09:56:01.000Z</time>
      </trkpt>
      <trkpt lat="42.95503" lon="1.13764">
        <ele>798.5</ele>
        <time>2022-06-02T09:56:03.000Z</time>
      </trkpt>
      <trkpt lat="42.95514" lon="1.13769">
        <ele>796.8</ele>
        <time>2022-06-02T09:56:05.000Z</time>
      </trkpt>
      <trkpt lat="42.95528" lon="1.13773">
        <ele>796.3</ele>
        <time>2022-06-02T09:56:07.000Z</time>
      </trkpt>
      <trkpt lat="42.95542" lon="1.1378">
        <ele>793.7</ele>
        <time>2022-06-02T09:56:09.000Z</time>
      </trkpt>
      <trkpt lat="42.95553" lon="1.13785">
        <ele>792.6</ele>
        <time>2022-06-02T09:56:11.000Z</time>
      </trkpt>
      <trkpt lat="42.95563" lon="1.13792">
        <ele>790.7</ele>
        <time>2022-06-02T09:56:13.000Z</time>
      </trkpt>
      <trkpt lat="42.95569" lon="1.13803">
        <ele>789.5</ele>
        <time>2022-06-02T09:56:15.000Z</time>
      </trkpt>
      <trkpt lat="42.95572" lon="1.13818">
        <ele>787.9</ele>
        <time>2022-06-02T09:56:17.000Z</time>
      </trkpt>
      <trkpt lat="42.95581" lon="1.13826">
        <ele>785.4</ele>
        <time>2022-06-02T09:56:20.000Z</time>
      </trkpt>
      <trkpt lat="42.95575" lon="1.13838">
        <ele>782.5</ele>
        <time>2022-06-02T09:56:25.000Z</time>
      </trkpt>
      <trkpt lat="42.95566" lon="1.13843">
        <ele>779.9</ele>
        <time>2022-06-02T09:56:28.000Z</time>
      </trkpt>
      <trkpt lat="42.95557" lon="1.1385">
        <ele>778.1</ele>
        <time>2022-06-02T09:56:31.000Z</time>
      </trkpt>
      <trkpt lat="42.95549" lon="1.13857">
        <ele>776.1</ele>
        <time>2022-06-02T09:56:34.000Z</time>
      </trkpt>
      <trkpt lat="42.95539" lon="1.13866">
        <ele>773.8</ele>
        <time>2022-06-02T09:56:38.000Z</time>
      </trkpt>
      <trkpt lat="42.95531" lon="1.13873">
        <ele>771.9</ele>
        <time>2022-06-02T09:56:41.000Z</time>
      </trkpt>
      <trkpt lat="42.95523" lon="1.1388">
        <ele>770.2</ele>
        <time>2022-06-02T09:56:44.000Z</time>
      </trkpt>
      <trkpt lat="42.95515" lon="1.13887">
        <ele>768.5</ele>
        <time>2022-06-02T09:56:47.000Z</time>
      </trkpt>
      <trkpt lat="42.95505" lon="1.13896">
        <ele>766.5</ele>
        <time>2022-06-02T09:56:51.000Z</time>
      </trkpt>
      <trkpt lat="42.95497" lon="1.13903">
        <ele>765.2</ele>
        <time>2022-06-02T09:56:54.000Z</time>
      </trkpt>
      <trkpt lat="42.95489" lon="1.13911">
        <ele>763.7</ele>
        <time>2022-06-02T09:56:57.000Z</time>
      </trkpt>
      <trkpt lat="42.95481" lon="1.13918">
        <ele>762.4</ele>
        <time>2022-06-02T09:57:00.000Z</time>
      </trkpt>
      <trkpt lat="42.95472" lon="1.13926">
        <ele>761.6</ele>
        <time>2022-06-02T09:57:03.000Z</time>
      </trkpt>
      <trkpt lat="42.95465" lon="1.13933">
        <ele>760.4</ele>
        <time>2022-06-02T09:57:06.000Z</time>
      </trkpt>
      <trkpt lat="42.95457" lon="1.1394">
        <ele>759.1</ele>
        <time>2022-06-02T09:57:10.000Z</time>
      </trkpt>
      <trkpt lat="42.95449" lon="1.13948">
        <ele>758.7</ele>
        <time>2022-06-02T09:57:13.000Z</time>
      </trkpt>
      <trkpt lat="42.95442" lon="1.13957">
        <ele>758</ele>
        <time>2022-06-02T09:57:17.000Z</time>
      </trkpt>
      <trkpt lat="42.95435" lon="1.13966">
        <ele>757.5</ele>
        <time>2022-06-02T09:57:22.000Z</time>
      </trkpt>
      <trkpt lat="42.95427" lon="1.13975">
        <ele>756.9</ele>
        <time>2022-06-02T09:57:26.000Z</time>
      </trkpt>
      <trkpt lat="42.95421" lon="1.13984">
        <ele>756.7</ele>
        <time>2022-06-02T09:57:29.000Z</time>
      </trkpt>
      <trkpt lat="42.95413" lon="1.13996">
        <ele>756.7</ele>
        <time>2022-06-02T09:57:32.000Z</time>
      </trkpt>
      <trkpt lat="42.95406" lon="1.14005">
        <ele>756.3</ele>
        <time>2022-06-02T09:57:34.000Z</time>
      </trkpt>
      <trkpt lat="42.95397" lon="1.14016">
        <ele>756.4</ele>
        <time>2022-06-02T09:57:36.000Z</time>
      </trkpt>
      <trkpt lat="42.95386" lon="1.14031">
        <ele>756.5</ele>
        <time>2022-06-02T09:57:38.000Z</time>
      </trkpt>
      <trkpt lat="42.95379" lon="1.14049">
        <ele>755.8</ele>
        <time>2022-06-02T09:57:40.000Z</time>
      </trkpt>
      <trkpt lat="42.9538" lon="1.14071">
        <ele>756.2</ele>
        <time>2022-06-02T09:57:42.000Z</time>
      </trkpt>
      <trkpt lat="42.95382" lon="1.14091">
        <ele>756</ele>
        <time>2022-06-02T09:57:44.000Z</time>
      </trkpt>
      <trkpt lat="42.95384" lon="1.14107">
        <ele>756.3</ele>
        <time>2022-06-02T09:57:46.000Z</time>
      </trkpt>
      <trkpt lat="42.95387" lon="1.14119">
        <ele>756.5</ele>
        <time>2022-06-02T09:57:48.000Z</time>
      </trkpt>
      <trkpt lat="42.95388" lon="1.14133">
        <ele>756.5</ele>
        <time>2022-06-02T09:57:51.000Z</time>
      </trkpt>
      <trkpt lat="42.9539" lon="1.14148">
        <ele>757</ele>
        <time>2022-06-02T09:57:54.000Z</time>
      </trkpt>
      <trkpt lat="42.95392" lon="1.14163">
        <ele>757.3</ele>
        <time>2022-06-02T09:57:57.000Z</time>
      </trkpt>
      <trkpt lat="42.95392" lon="1.14179">
        <ele>757.5</ele>
        <time>2022-06-02T09:58:00.000Z</time>
      </trkpt>
      <trkpt lat="42.9539" lon="1.14194">
        <ele>757.1</ele>
        <time>2022-06-02T09:58:04.000Z</time>
      </trkpt>
      <trkpt lat="42.95384" lon="1.14208">
        <ele>756.8</ele>
        <time>2022-06-02T09:58:08.000Z</time>
      </trkpt>
      <trkpt lat="42.95379" lon="1.1422">
        <ele>756.6</ele>
        <time>2022-06-02T09:58:11.000Z</time>
      </trkpt>
      <trkpt lat="42.95373" lon="1.14232">
        <ele>756.7</ele>
        <time>2022-06-02T09:58:14.000Z</time>
      </trkpt>
      <trkpt lat="42.95368" lon="1.14246">
        <ele>756.6</ele>
        <time>2022-06-02T09:58:17.000Z</time>
      </trkpt>
      <trkpt lat="42.95363" lon="1.1426">
        <ele>756.4</ele>
        <time>2022-06-02T09:58:20.000Z</time>
      </trkpt>
      <trkpt lat="42.95363" lon="1.14277">
        <ele>756.4</ele>
        <time>2022-06-02T09:58:23.000Z</time>
      </trkpt>
      <trkpt lat="42.95362" lon="1.14291">
        <ele>755.7</ele>
        <time>2022-06-02T09:58:25.000Z</time>
      </trkpt>
      <trkpt lat="42.95363" lon="1.14307">
        <ele>754.5</ele>
        <time>2022-06-02T09:58:28.000Z</time>
      </trkpt>
      <trkpt lat="42.9537" lon="1.14316">
        <ele>754.7</ele>
        <time>2022-06-02T09:58:30.000Z</time>
      </trkpt>
      <trkpt lat="42.95377" lon="1.14328">
        <ele>753.8</ele>
        <time>2022-06-02T09:58:32.000Z</time>
      </trkpt>
      <trkpt lat="42.95377" lon="1.14346">
        <ele>753.1</ele>
        <time>2022-06-02T09:58:34.000Z</time>
      </trkpt>
      <trkpt lat="42.95375" lon="1.14367">
        <ele>752.6</ele>
        <time>2022-06-02T09:58:36.000Z</time>
      </trkpt>
      <trkpt lat="42.95375" lon="1.1439">
        <ele>751</ele>
        <time>2022-06-02T09:58:38.000Z</time>
      </trkpt>
      <trkpt lat="42.95376" lon="1.14414">
        <ele>750.4</ele>
        <time>2022-06-02T09:58:40.000Z</time>
      </trkpt>
      <trkpt lat="42.95378" lon="1.14438">
        <ele>749.5</ele>
        <time>2022-06-02T09:58:42.000Z</time>
      </trkpt>
      <trkpt lat="42.9538" lon="1.14461">
        <ele>748.4</ele>
        <time>2022-06-02T09:58:44.000Z</time>
      </trkpt>
      <trkpt lat="42.95384" lon="1.14484">
        <ele>747.7</ele>
        <time>2022-06-02T09:58:46.000Z</time>
      </trkpt>
      <trkpt lat="42.95388" lon="1.14506">
        <ele>746.6</ele>
        <time>2022-06-02T09:58:48.000Z</time>
      </trkpt>
      <trkpt lat="42.95391" lon="1.14527">
        <ele>746</ele>
        <time>2022-06-02T09:58:50.000Z</time>
      </trkpt>
      <trkpt lat="42.95394" lon="1.14547">
        <ele>745.3</ele>
        <time>2022-06-02T09:58:52.000Z</time>
      </trkpt>
      <trkpt lat="42.95397" lon="1.14566">
        <ele>744.5</ele>
        <time>2022-06-02T09:58:54.000Z</time>
      </trkpt>
      <trkpt lat="42.954" lon="1.14584">
        <ele>743.6</ele>
        <time>2022-06-02T09:58:56.000Z</time>
      </trkpt>
      <trkpt lat="42.95403" lon="1.14601">
        <ele>742.7</ele>
        <time>2022-06-02T09:58:58.000Z</time>
      </trkpt>
      <trkpt lat="42.95406" lon="1.14618">
        <ele>742</ele>
        <time>2022-06-02T09:59:00.000Z</time>
      </trkpt>
      <trkpt lat="42.95409" lon="1.14633">
        <ele>741.3</ele>
        <time>2022-06-02T09:59:02.000Z</time>
      </trkpt>
      <trkpt lat="42.95411" lon="1.14648">
        <ele>740.5</ele>
        <time>2022-06-02T09:59:04.000Z</time>
      </trkpt>
      <trkpt lat="42.95413" lon="1.14664">
        <ele>739.4</ele>
        <time>2022-06-02T09:59:06.000Z</time>
      </trkpt>
      <trkpt lat="42.95415" lon="1.14679">
        <ele>738.5</ele>
        <time>2022-06-02T09:59:08.000Z</time>
      </trkpt>
      <trkpt lat="42.95418" lon="1.14694">
        <ele>738.1</ele>
        <time>2022-06-02T09:59:10.000Z</time>
      </trkpt>
      <trkpt lat="42.9542" lon="1.14709">
        <ele>737.2</ele>
        <time>2022-06-02T09:59:12.000Z</time>
      </trkpt>
      <trkpt lat="42.95423" lon="1.14725">
        <ele>736</ele>
        <time>2022-06-02T09:59:14.000Z</time>
      </trkpt>
      <trkpt lat="42.95426" lon="1.14743">
        <ele>735.2</ele>
        <time>2022-06-02T09:59:16.000Z</time>
      </trkpt>
      <trkpt lat="42.95426" lon="1.14761">
        <ele>734.4</ele>
        <time>2022-06-02T09:59:18.000Z</time>
      </trkpt>
      <trkpt lat="42.95427" lon="1.14779">
        <ele>733.6</ele>
        <time>2022-06-02T09:59:20.000Z</time>
      </trkpt>
      <trkpt lat="42.95427" lon="1.14795">
        <ele>733.1</ele>
        <time>2022-06-02T09:59:22.000Z</time>
      </trkpt>
      <trkpt lat="42.95428" lon="1.14809">
        <ele>731.8</ele>
        <time>2022-06-02T09:59:24.000Z</time>
      </trkpt>
      <trkpt lat="42.95429" lon="1.14822">
        <ele>731.1</ele>
        <time>2022-06-02T09:59:26.000Z</time>
      </trkpt>
      <trkpt lat="42.9543" lon="1.14837">
        <ele>730.4</ele>
        <time>2022-06-02T09:59:29.000Z</time>
      </trkpt>
      <trkpt lat="42.95431" lon="1.14851">
        <ele>729.6</ele>
        <time>2022-06-02T09:59:32.000Z</time>
      </trkpt>
      <trkpt lat="42.95433" lon="1.14866">
        <ele>728.8</ele>
        <time>2022-06-02T09:59:36.000Z</time>
      </trkpt>
      <trkpt lat="42.95435" lon="1.14882">
        <ele>727.8</ele>
        <time>2022-06-02T09:59:40.000Z</time>
      </trkpt>
      <trkpt lat="42.95438" lon="1.14897">
        <ele>727.1</ele>
        <time>2022-06-02T09:59:43.000Z</time>
      </trkpt>
      <trkpt lat="42.9544" lon="1.14912">
        <ele>726.3</ele>
        <time>2022-06-02T09:59:46.000Z</time>
      </trkpt>
      <trkpt lat="42.95443" lon="1.14927">
        <ele>726</ele>
        <time>2022-06-02T09:59:49.000Z</time>
      </trkpt>
      <trkpt lat="42.95447" lon="1.14943">
        <ele>725.5</ele>
        <time>2022-06-02T09:59:52.000Z</time>
      </trkpt>
      <trkpt lat="42.95451" lon="1.14958">
        <ele>725.1</ele>
        <time>2022-06-02T09:59:55.000Z</time>
      </trkpt>
      <trkpt lat="42.95456" lon="1.1497">
        <ele>724.5</ele>
        <time>2022-06-02T09:59:58.000Z</time>
      </trkpt>
      <trkpt lat="42.95466" lon="1.14969">
        <ele>724.3</ele>
        <time>2022-06-02T10:00:01.000Z</time>
      </trkpt>
      <trkpt lat="42.95474" lon="1.14962">
        <ele>723.6</ele>
        <time>2022-06-02T10:00:04.000Z</time>
      </trkpt>
      <trkpt lat="42.95481" lon="1.14954">
        <ele>724</ele>
        <time>2022-06-02T10:00:07.000Z</time>
      </trkpt>
      <trkpt lat="42.95487" lon="1.14942">
        <ele>724.1</ele>
        <time>2022-06-02T10:00:11.000Z</time>
      </trkpt>
      <trkpt lat="42.95492" lon="1.1493">
        <ele>724.5</ele>
        <time>2022-06-02T10:00:16.000Z</time>
      </trkpt>
      <trkpt lat="42.95497" lon="1.14917">
        <ele>724.5</ele>
        <time>2022-06-02T10:00:20.000Z</time>
      </trkpt>
      <trkpt lat="42.95504" lon="1.14905">
        <ele>725.6</ele>
        <time>2022-06-02T10:00:25.000Z</time>
      </trkpt>
      <trkpt lat="42.95512" lon="1.14898">
        <ele>726.4</ele>
        <time>2022-06-02T10:00:29.000Z</time>
      </trkpt>
      <trkpt lat="42.95521" lon="1.14897">
        <ele>727.5</ele>
        <time>2022-06-02T10:00:33.000Z</time>
      </trkpt>
      <trkpt lat="42.9553" lon="1.14894">
        <ele>728</ele>
        <time>2022-06-02T10:00:37.000Z</time>
      </trkpt>
      <trkpt lat="42.9554" lon="1.14895">
        <ele>728.9</ele>
        <time>2022-06-02T10:00:43.000Z</time>
      </trkpt>
      <trkpt lat="42.95549" lon="1.14902">
        <ele>728.9</ele>
        <time>2022-06-02T10:00:46.000Z</time>
      </trkpt>
      <trkpt lat="42.95555" lon="1.1491">
        <ele>729.2</ele>
        <time>2022-06-02T10:00:48.000Z</time>
      </trkpt>
      <trkpt lat="42.95562" lon="1.14923">
        <ele>729.5</ele>
        <time>2022-06-02T10:00:51.000Z</time>
      </trkpt>
      <trkpt lat="42.95569" lon="1.14934">
        <ele>730.3</ele>
        <time>2022-06-02T10:00:54.000Z</time>
      </trkpt>
      <trkpt lat="42.95578" lon="1.14941">
        <ele>730.5</ele>
        <time>2022-06-02T10:00:56.000Z</time>
      </trkpt>
      <trkpt lat="42.95587" lon="1.14942">
        <ele>729.4</ele>
        <time>2022-06-02T10:00:58.000Z</time>
      </trkpt>
      <trkpt lat="42.95599" lon="1.14945">
        <ele>729.9</ele>
        <time>2022-06-02T10:01:01.000Z</time>
      </trkpt>
      <trkpt lat="42.9561" lon="1.14951">
        <ele>728.7</ele>
        <time>2022-06-02T10:01:03.000Z</time>
      </trkpt>
      <trkpt lat="42.95622" lon="1.14952">
        <ele>728.6</ele>
        <time>2022-06-02T10:01:05.000Z</time>
      </trkpt>
      <trkpt lat="42.95634" lon="1.14949">
        <ele>728.7</ele>
        <time>2022-06-02T10:01:07.000Z</time>
      </trkpt>
      <trkpt lat="42.95644" lon="1.14946">
        <ele>728.2</ele>
        <time>2022-06-02T10:01:09.000Z</time>
      </trkpt>
      <trkpt lat="42.95652" lon="1.14938">
        <ele>728.2</ele>
        <time>2022-06-02T10:01:11.000Z</time>
      </trkpt>
      <trkpt lat="42.95661" lon="1.14934">
        <ele>727.5</ele>
        <time>2022-06-02T10:01:13.000Z</time>
      </trkpt>
      <trkpt lat="42.95672" lon="1.14936">
        <ele>726.7</ele>
        <time>2022-06-02T10:01:16.000Z</time>
      </trkpt>
      <trkpt lat="42.95677" lon="1.14947">
        <ele>724.2</ele>
        <time>2022-06-02T10:01:26.000Z</time>
      </trkpt>
      <trkpt lat="42.95688" lon="1.1495">
        <ele>723.4</ele>
        <time>2022-06-02T10:01:30.000Z</time>
      </trkpt>
      <trkpt lat="42.95698" lon="1.14953">
        <ele>722.6</ele>
        <time>2022-06-02T10:01:32.000Z</time>
      </trkpt>
      <trkpt lat="42.95709" lon="1.14956">
        <ele>721.5</ele>
        <time>2022-06-02T10:01:34.000Z</time>
      </trkpt>
      <trkpt lat="42.95718" lon="1.14955">
        <ele>721.4</ele>
        <time>2022-06-02T10:01:36.000Z</time>
      </trkpt>
      <trkpt lat="42.95727" lon="1.14953">
        <ele>720.9</ele>
        <time>2022-06-02T10:01:38.000Z</time>
      </trkpt>
      <trkpt lat="42.95739" lon="1.14943">
        <ele>719.8</ele>
        <time>2022-06-02T10:01:41.000Z</time>
      </trkpt>
      <trkpt lat="42.95751" lon="1.14935">
        <ele>718.5</ele>
        <time>2022-06-02T10:01:43.000Z</time>
      </trkpt>
      <trkpt lat="42.95762" lon="1.14934">
        <ele>718</ele>
        <time>2022-06-02T10:01:45.000Z</time>
      </trkpt>
      <trkpt lat="42.95773" lon="1.14936">
        <ele>718.1</ele>
        <time>2022-06-02T10:01:47.000Z</time>
      </trkpt>
      <trkpt lat="42.95785" lon="1.14943">
        <ele>717.4</ele>
        <time>2022-06-02T10:01:49.000Z</time>
      </trkpt>
      <trkpt lat="42.95793" lon="1.1495">
        <ele>716.9</ele>
        <time>2022-06-02T10:01:51.000Z</time>
      </trkpt>
      <trkpt lat="42.95802" lon="1.14959">
        <ele>716.9</ele>
        <time>2022-06-02T10:01:54.000Z</time>
      </trkpt>
      <trkpt lat="42.9581" lon="1.14969">
        <ele>716.3</ele>
        <time>2022-06-02T10:01:57.000Z</time>
      </trkpt>
      <trkpt lat="42.95819" lon="1.14974">
        <ele>715.7</ele>
        <time>2022-06-02T10:02:00.000Z</time>
      </trkpt>
      <trkpt lat="42.95828" lon="1.14973">
        <ele>715.1</ele>
        <time>2022-06-02T10:02:04.000Z</time>
      </trkpt>
      <trkpt lat="42.95838" lon="1.14972">
        <ele>713.7</ele>
        <time>2022-06-02T10:02:09.000Z</time>
      </trkpt>
      <trkpt lat="42.95847" lon="1.14976">
        <ele>711.6</ele>
        <time>2022-06-02T10:02:15.000Z</time>
      </trkpt>
      <trkpt lat="42.95859" lon="1.14981">
        <ele>709.9</ele>
        <time>2022-06-02T10:02:20.000Z</time>
      </trkpt>
      <trkpt lat="42.95872" lon="1.14977">
        <ele>708.2</ele>
        <time>2022-06-02T10:02:23.000Z</time>
      </trkpt>
      <trkpt lat="42.95882" lon="1.14973">
        <ele>707.5</ele>
        <time>2022-06-02T10:02:25.000Z</time>
      </trkpt>
      <trkpt lat="42.95895" lon="1.1497">
        <ele>706.1</ele>
        <time>2022-06-02T10:02:28.000Z</time>
      </trkpt>
      <trkpt lat="42.95905" lon="1.14969">
        <ele>705.6</ele>
        <time>2022-06-02T10:02:30.000Z</time>
      </trkpt>
      <trkpt lat="42.95915" lon="1.1497">
        <ele>704.6</ele>
        <time>2022-06-02T10:02:32.000Z</time>
      </trkpt>
      <trkpt lat="42.95927" lon="1.14974">
        <ele>703.8</ele>
        <time>2022-06-02T10:02:35.000Z</time>
      </trkpt>
      <trkpt lat="42.95939" lon="1.1498">
        <ele>702.4</ele>
        <time>2022-06-02T10:02:38.000Z</time>
      </trkpt>
      <trkpt lat="42.95951" lon="1.14987">
        <ele>701.9</ele>
        <time>2022-06-02T10:02:41.000Z</time>
      </trkpt>
      <trkpt lat="42.9596" lon="1.14993">
        <ele>700.8</ele>
        <time>2022-06-02T10:02:43.000Z</time>
      </trkpt>
      <trkpt lat="42.9597" lon="1.14998">
        <ele>700.1</ele>
        <time>2022-06-02T10:02:45.000Z</time>
      </trkpt>
      <trkpt lat="42.95981" lon="1.15005">
        <ele>699.3</ele>
        <time>2022-06-02T10:02:47.000Z</time>
      </trkpt>
      <trkpt lat="42.95993" lon="1.15014">
        <ele>698.7</ele>
        <time>2022-06-02T10:02:49.000Z</time>
      </trkpt>
      <trkpt lat="42.96003" lon="1.15028">
        <ele>698</ele>
        <time>2022-06-02T10:02:51.000Z</time>
      </trkpt>
      <trkpt lat="42.96016" lon="1.15042">
        <ele>696.2</ele>
        <time>2022-06-02T10:02:53.000Z</time>
      </trkpt>
      <trkpt lat="42.96027" lon="1.15058">
        <ele>695.8</ele>
        <time>2022-06-02T10:02:55.000Z</time>
      </trkpt>
      <trkpt lat="42.96031" lon="1.15079">
        <ele>694.9</ele>
        <time>2022-06-02T10:02:57.000Z</time>
      </trkpt>
      <trkpt lat="42.96026" lon="1.15101">
        <ele>694.3</ele>
        <time>2022-06-02T10:02:59.000Z</time>
      </trkpt>
      <trkpt lat="42.9602" lon="1.15111">
        <ele>693.9</ele>
        <time>2022-06-02T10:03:00.000Z</time>
      </trkpt>
      <trkpt lat="42.96013" lon="1.1512">
        <ele>693</ele>
        <time>2022-06-02T10:03:01.000Z</time>
      </trkpt>
      <trkpt lat="42.96005" lon="1.15129">
        <ele>692.4</ele>
        <time>2022-06-02T10:03:02.000Z</time>
      </trkpt>
      <trkpt lat="42.95998" lon="1.15136">
        <ele>691.8</ele>
        <time>2022-06-02T10:03:03.000Z</time>
      </trkpt>
      <trkpt lat="42.95984" lon="1.15147">
        <ele>691.2</ele>
        <time>2022-06-02T10:03:05.000Z</time>
      </trkpt>
      <trkpt lat="42.95972" lon="1.15155">
        <ele>690</ele>
        <time>2022-06-02T10:03:07.000Z</time>
      </trkpt>
      <trkpt lat="42.95965" lon="1.15167">
        <ele>689.4</ele>
        <time>2022-06-02T10:03:09.000Z</time>
      </trkpt>
      <trkpt lat="42.95967" lon="1.15182">
        <ele>688.6</ele>
        <time>2022-06-02T10:03:12.000Z</time>
      </trkpt>
      <trkpt lat="42.95973" lon="1.15196">
        <ele>687.6</ele>
        <time>2022-06-02T10:03:15.000Z</time>
      </trkpt>
      <trkpt lat="42.95977" lon="1.1521">
        <ele>687.1</ele>
        <time>2022-06-02T10:03:17.000Z</time>
      </trkpt>
      <trkpt lat="42.9598" lon="1.15226">
        <ele>686.3</ele>
        <time>2022-06-02T10:03:19.000Z</time>
      </trkpt>
      <trkpt lat="42.95984" lon="1.15245">
        <ele>685.7</ele>
        <time>2022-06-02T10:03:21.000Z</time>
      </trkpt>
      <trkpt lat="42.95988" lon="1.15266">
        <ele>684.7</ele>
        <time>2022-06-02T10:03:23.000Z</time>
      </trkpt>
      <trkpt lat="42.95991" lon="1.1529">
        <ele>684.2</ele>
        <time>2022-06-02T10:03:25.000Z</time>
      </trkpt>
      <trkpt lat="42.95992" lon="1.15302">
        <ele>683.9</ele>
        <time>2022-06-02T10:03:26.000Z</time>
      </trkpt>
      <trkpt lat="42.95992" lon="1.15323">
        <ele>682.8</ele>
        <time>2022-06-02T10:03:28.000Z</time>
      </trkpt>
      <trkpt lat="42.96002" lon="1.1533">
        <ele>681.9</ele>
        <time>2022-06-02T10:03:31.000Z</time>
      </trkpt>
      <trkpt lat="42.96012" lon="1.15319">
        <ele>681</ele>
        <time>2022-06-02T10:03:33.000Z</time>
      </trkpt>
      <trkpt lat="42.96024" lon="1.15303">
        <ele>680.4</ele>
        <time>2022-06-02T10:03:35.000Z</time>
      </trkpt>
      <trkpt lat="42.96036" lon="1.15287">
        <ele>678.9</ele>
        <time>2022-06-02T10:03:37.000Z</time>
      </trkpt>
      <trkpt lat="42.96045" lon="1.15275">
        <ele>677.1</ele>
        <time>2022-06-02T10:03:39.000Z</time>
      </trkpt>
      <trkpt lat="42.96054" lon="1.15263">
        <ele>675.6</ele>
        <time>2022-06-02T10:03:42.000Z</time>
      </trkpt>
      <trkpt lat="42.96062" lon="1.15253">
        <ele>673.3</ele>
        <time>2022-06-02T10:03:45.000Z</time>
      </trkpt>
      <trkpt lat="42.96071" lon="1.15248">
        <ele>669.8</ele>
        <time>2022-06-02T10:03:53.000Z</time>
      </trkpt>
      <trkpt lat="42.96078" lon="1.15258">
        <ele>668.1</ele>
        <time>2022-06-02T10:03:58.000Z</time>
      </trkpt>
      <trkpt lat="42.9608" lon="1.15272">
        <ele>666.9</ele>
        <time>2022-06-02T10:04:02.000Z</time>
      </trkpt>
      <trkpt lat="42.96084" lon="1.15286">
        <ele>665.4</ele>
        <time>2022-06-02T10:04:06.000Z</time>
      </trkpt>
      <trkpt lat="42.96089" lon="1.153">
        <ele>663.8</ele>
        <time>2022-06-02T10:04:10.000Z</time>
      </trkpt>
      <trkpt lat="42.96091" lon="1.15316">
        <ele>662.3</ele>
        <time>2022-06-02T10:04:14.000Z</time>
      </trkpt>
      <trkpt lat="42.96095" lon="1.15329">
        <ele>661.6</ele>
        <time>2022-06-02T10:04:17.000Z</time>
      </trkpt>
      <trkpt lat="42.96101" lon="1.15341">
        <ele>660.3</ele>
        <time>2022-06-02T10:04:20.000Z</time>
      </trkpt>
      <trkpt lat="42.96109" lon="1.15334">
        <ele>659.3</ele>
        <time>2022-06-02T10:04:24.000Z</time>
      </trkpt>
      <trkpt lat="42.96118" lon="1.15323">
        <ele>657.6</ele>
        <time>2022-06-02T10:04:29.000Z</time>
      </trkpt>
      <trkpt lat="42.96126" lon="1.15313">
        <ele>656.4</ele>
        <time>2022-06-02T10:04:32.000Z</time>
      </trkpt>
      <trkpt lat="42.96134" lon="1.15304">
        <ele>655.7</ele>
        <time>2022-06-02T10:04:35.000Z</time>
      </trkpt>
      <trkpt lat="42.96142" lon="1.15296">
        <ele>654.1</ele>
        <time>2022-06-02T10:04:38.000Z</time>
      </trkpt>
      <trkpt lat="42.96149" lon="1.15288">
        <ele>652.5</ele>
        <time>2022-06-02T10:04:43.000Z</time>
      </trkpt>
      <trkpt lat="42.9615" lon="1.15285">
        <ele>651.6</ele>
        <time>2022-06-02T10:04:47.000Z</time>
      </trkpt>
      <trkpt lat="42.96151" lon="1.15285">
        <ele>649.6</ele>
        <time>2022-06-02T10:04:54.000Z</time>
      </trkpt>
      <trkpt lat="42.96151" lon="1.15284">
        <ele>650.6</ele>
        <time>2022-06-02T10:04:57.000Z</time>
      </trkpt>
      <trkpt lat="42.9615" lon="1.15283">
        <ele>649.7</ele>
        <time>2022-06-02T10:04:58.000Z</time>
      </trkpt>
      <trkpt lat="42.9615" lon="1.15284">
        <ele>647.8</ele>
        <time>2022-06-02T10:05:08.000Z</time>
      </trkpt>
      <trkpt lat="42.96151" lon="1.15283">
        <ele>645.8</ele>
        <time>2022-06-02T10:05:15.000Z</time>
      </trkpt>
      <trkpt lat="42.96159" lon="1.15275">
        <ele>643.9</ele>
        <time>2022-06-02T10:05:20.000Z</time>
      </trkpt>
      <trkpt lat="42.96169" lon="1.15267">
        <ele>642.9</ele>
        <time>2022-06-02T10:05:23.000Z</time>
      </trkpt>
      <trkpt lat="42.96182" lon="1.15271">
        <ele>641.7</ele>
        <time>2022-06-02T10:05:26.000Z</time>
      </trkpt>
      <trkpt lat="42.9619" lon="1.15277">
        <ele>640.8</ele>
        <time>2022-06-02T10:05:30.000Z</time>
      </trkpt>
      <trkpt lat="42.96194" lon="1.15291">
        <ele>640</ele>
        <time>2022-06-02T10:05:33.000Z</time>
      </trkpt>
      <trkpt lat="42.96201" lon="1.15302">
        <ele>638.7</ele>
        <time>2022-06-02T10:05:37.000Z</time>
      </trkpt>
      <trkpt lat="42.96204" lon="1.15316">
        <ele>637.4</ele>
        <time>2022-06-02T10:05:41.000Z</time>
      </trkpt>
      <trkpt lat="42.96209" lon="1.1533">
        <ele>636.6</ele>
        <time>2022-06-02T10:05:44.000Z</time>
      </trkpt>
      <trkpt lat="42.96213" lon="1.15342">
        <ele>635.3</ele>
        <time>2022-06-02T10:05:49.000Z</time>
      </trkpt>
      <trkpt lat="42.96207" lon="1.15353">
        <ele>634.5</ele>
        <time>2022-06-02T10:05:52.000Z</time>
      </trkpt>
      <trkpt lat="42.96202" lon="1.15365">
        <ele>633.3</ele>
        <time>2022-06-02T10:05:55.000Z</time>
      </trkpt>
      <trkpt lat="42.96209" lon="1.15375">
        <ele>630.8</ele>
        <time>2022-06-02T10:06:01.000Z</time>
      </trkpt>
      <trkpt lat="42.96218" lon="1.15371">
        <ele>628.7</ele>
        <time>2022-06-02T10:06:06.000Z</time>
      </trkpt>
      <trkpt lat="42.96228" lon="1.15367">
        <ele>626</ele>
        <time>2022-06-02T10:06:10.000Z</time>
      </trkpt>
      <trkpt lat="42.9624" lon="1.15364">
        <ele>625</ele>
        <time>2022-06-02T10:06:13.000Z</time>
      </trkpt>
      <trkpt lat="42.96249" lon="1.15361">
        <ele>624</ele>
        <time>2022-06-02T10:06:16.000Z</time>
      </trkpt>
      <trkpt lat="42.96261" lon="1.15361">
        <ele>622.1</ele>
        <time>2022-06-02T10:06:20.000Z</time>
      </trkpt>
      <trkpt lat="42.9627" lon="1.15368">
        <ele>620.1</ele>
        <time>2022-06-02T10:06:24.000Z</time>
      </trkpt>
      <trkpt lat="42.96278" lon="1.15378">
        <ele>617.7</ele>
        <time>2022-06-02T10:06:29.000Z</time>
      </trkpt>
      <trkpt lat="42.96272" lon="1.15388">
        <ele>610.8</ele>
        <time>2022-06-02T10:06:42.000Z</time>
      </trkpt>
      <trkpt lat="42.96278" lon="1.154">
        <ele>607.9</ele>
        <time>2022-06-02T10:06:47.000Z</time>
      </trkpt>
      <trkpt lat="42.96285" lon="1.15409">
        <ele>606.8</ele>
        <time>2022-06-02T10:06:50.000Z</time>
      </trkpt>
      <trkpt lat="42.96296" lon="1.15416">
        <ele>604.1</ele>
        <time>2022-06-02T10:06:53.000Z</time>
      </trkpt>
      <trkpt lat="42.96306" lon="1.1542">
        <ele>603.3</ele>
        <time>2022-06-02T10:06:56.000Z</time>
      </trkpt>
      <trkpt lat="42.96317" lon="1.15426">
        <ele>601.1</ele>
        <time>2022-06-02T10:06:59.000Z</time>
      </trkpt>
      <trkpt lat="42.96326" lon="1.15428">
        <ele>599.6</ele>
        <time>2022-06-02T10:07:02.000Z</time>
      </trkpt>
      <trkpt lat="42.96336" lon="1.15431">
        <ele>597.4</ele>
        <time>2022-06-02T10:07:05.000Z</time>
      </trkpt>
      <trkpt lat="42.96345" lon="1.15437">
        <ele>596.2</ele>
        <time>2022-06-02T10:07:07.000Z</time>
      </trkpt>
      <trkpt lat="42.96355" lon="1.15444">
        <ele>594.6</ele>
        <time>2022-06-02T10:07:10.000Z</time>
      </trkpt>
      <trkpt lat="42.96364" lon="1.1545">
        <ele>592.6</ele>
        <time>2022-06-02T10:07:12.000Z</time>
      </trkpt>
      <trkpt lat="42.96371" lon="1.15458">
        <ele>591.1</ele>
        <time>2022-06-02T10:07:14.000Z</time>
      </trkpt>
      <trkpt lat="42.96378" lon="1.15466">
        <ele>589.5</ele>
        <time>2022-06-02T10:07:16.000Z</time>
      </trkpt>
      <trkpt lat="42.96384" lon="1.15476">
        <ele>587.3</ele>
        <time>2022-06-02T10:07:18.000Z</time>
      </trkpt>
      <trkpt lat="42.96387" lon="1.15488">
        <ele>585.3</ele>
        <time>2022-06-02T10:07:21.000Z</time>
      </trkpt>
      <trkpt lat="42.96389" lon="1.15503">
        <ele>582.6</ele>
        <time>2022-06-02T10:07:25.000Z</time>
      </trkpt>
      <trkpt lat="42.96395" lon="1.15512">
        <ele>577.2</ele>
        <time>2022-06-02T10:07:32.000Z</time>
      </trkpt>
      <trkpt lat="42.96398" lon="1.15526">
        <ele>572.1</ele>
        <time>2022-06-02T10:07:38.000Z</time>
      </trkpt>
      <trkpt lat="42.96399" lon="1.15542">
        <ele>570.2</ele>
        <time>2022-06-02T10:07:41.000Z</time>
      </trkpt>
      <trkpt lat="42.964" lon="1.15557">
        <ele>567.8</ele>
        <time>2022-06-02T10:07:44.000Z</time>
      </trkpt>
      <trkpt lat="42.96399" lon="1.1557">
        <ele>566.4</ele>
        <time>2022-06-02T10:07:46.000Z</time>
      </trkpt>
      <trkpt lat="42.96397" lon="1.15587">
        <ele>564.3</ele>
        <time>2022-06-02T10:07:48.000Z</time>
      </trkpt>
      <trkpt lat="42.96403" lon="1.15598">
        <ele>561.9</ele>
        <time>2022-06-02T10:07:52.000Z</time>
      </trkpt>
      <trkpt lat="42.96411" lon="1.15606">
        <ele>559.3</ele>
        <time>2022-06-02T10:07:56.000Z</time>
      </trkpt>
      <trkpt lat="42.9642" lon="1.15609">
        <ele>556.7</ele>
        <time>2022-06-02T10:08:00.000Z</time>
      </trkpt>
      <trkpt lat="42.96431" lon="1.15614">
        <ele>554.7</ele>
        <time>2022-06-02T10:08:04.000Z</time>
      </trkpt>
      <trkpt lat="42.96441" lon="1.15613">
        <ele>552.4</ele>
        <time>2022-06-02T10:08:08.000Z</time>
      </trkpt>
      <trkpt lat="42.96452" lon="1.1561">
        <ele>550.7</ele>
        <time>2022-06-02T10:08:12.000Z</time>
      </trkpt>
      <trkpt lat="42.96461" lon="1.15608">
        <ele>549.3</ele>
        <time>2022-06-02T10:08:16.000Z</time>
      </trkpt>
      <trkpt lat="42.9647" lon="1.15609">
        <ele>547.3</ele>
        <time>2022-06-02T10:08:20.000Z</time>
      </trkpt>
      <trkpt lat="42.96481" lon="1.15611">
        <ele>546.1</ele>
        <time>2022-06-02T10:08:24.000Z</time>
      </trkpt>
      <trkpt lat="42.9649" lon="1.15606">
        <ele>545</ele>
        <time>2022-06-02T10:08:29.000Z</time>
      </trkpt>
      <trkpt lat="42.96495" lon="1.15602">
        <ele>543.8</ele>
        <time>2022-06-02T10:08:34.000Z</time>
      </trkpt>
      <trkpt lat="42.96496" lon="1.15602">
        <ele>540.4</ele>
        <time>2022-06-02T10:09:17.000Z</time>
      </trkpt>
      <trkpt lat="42.96497" lon="1.15602">
        <ele>540.2</ele>
        <time>2022-06-02T10:09:19.000Z</time>
      </trkpt>
      <trkpt lat="42.96497" lon="1.15601">
        <ele>539.9</ele>
        <time>2022-06-02T10:09:27.000Z</time>
      </trkpt>
      <trkpt lat="42.96507" lon="1.15595">
        <ele>539.3</ele>
        <time>2022-06-02T10:09:34.000Z</time>
      </trkpt>
      <trkpt lat="42.96515" lon="1.15588">
        <ele>539.2</ele>
        <time>2022-06-02T10:09:38.000Z</time>
      </trkpt>
      <trkpt lat="42.96523" lon="1.1558">
        <ele>539.3</ele>
        <time>2022-06-02T10:09:42.000Z</time>
      </trkpt>
      <trkpt lat="42.96532" lon="1.15571">
        <ele>540.1</ele>
        <time>2022-06-02T10:09:47.000Z</time>
      </trkpt>
      <trkpt lat="42.9654" lon="1.15562">
        <ele>540.6</ele>
        <time>2022-06-02T10:09:51.000Z</time>
      </trkpt>
      <trkpt lat="42.96547" lon="1.15552">
        <ele>541.6</ele>
        <time>2022-06-02T10:09:55.000Z</time>
      </trkpt>
      <trkpt lat="42.96555" lon="1.15544">
        <ele>542.7</ele>
        <time>2022-06-02T10:09:59.000Z</time>
      </trkpt>
      <trkpt lat="42.96566" lon="1.1554">
        <ele>543.3</ele>
        <time>2022-06-02T10:10:04.000Z</time>
      </trkpt>
      <trkpt lat="42.96577" lon="1.1554">
        <ele>544.3</ele>
        <time>2022-06-02T10:10:08.000Z</time>
      </trkpt>
      <trkpt lat="42.96585" lon="1.15534">
        <ele>545</ele>
        <time>2022-06-02T10:10:12.000Z</time>
      </trkpt>
      <trkpt lat="42.96594" lon="1.15526">
        <ele>546.7</ele>
        <time>2022-06-02T10:10:17.000Z</time>
      </trkpt>
      <trkpt lat="42.96603" lon="1.15518">
        <ele>547.9</ele>
        <time>2022-06-02T10:10:22.000Z</time>
      </trkpt>
      <trkpt lat="42.96611" lon="1.15509">
        <ele>548.5</ele>
        <time>2022-06-02T10:10:26.000Z</time>
      </trkpt>
      <trkpt lat="42.96618" lon="1.15501">
        <ele>549.4</ele>
        <time>2022-06-02T10:10:30.000Z</time>
      </trkpt>
      <trkpt lat="42.96625" lon="1.15491">
        <ele>550.3</ele>
        <time>2022-06-02T10:10:34.000Z</time>
      </trkpt>
      <trkpt lat="42.96632" lon="1.1548">
        <ele>551.2</ele>
        <time>2022-06-02T10:10:38.000Z</time>
      </trkpt>
      <trkpt lat="42.96639" lon="1.15469">
        <ele>551.6</ele>
        <time>2022-06-02T10:10:42.000Z</time>
      </trkpt>
      <trkpt lat="42.96648" lon="1.1546">
        <ele>552.4</ele>
        <time>2022-06-02T10:10:46.000Z</time>
      </trkpt>
      <trkpt lat="42.96653" lon="1.15448">
        <ele>553.4</ele>
        <time>2022-06-02T10:10:50.000Z</time>
      </trkpt>
      <trkpt lat="42.96662" lon="1.15439">
        <ele>553.9</ele>
        <time>2022-06-02T10:10:54.000Z</time>
      </trkpt>
      <trkpt lat="42.9667" lon="1.15428">
        <ele>555.1</ele>
        <time>2022-06-02T10:10:58.000Z</time>
      </trkpt>
      <trkpt lat="42.96677" lon="1.15416">
        <ele>555.3</ele>
        <time>2022-06-02T10:11:02.000Z</time>
      </trkpt>
      <trkpt lat="42.96684" lon="1.15404">
        <ele>556.4</ele>
        <time>2022-06-02T10:11:06.000Z</time>
      </trkpt>
      <trkpt lat="42.96692" lon="1.15394">
        <ele>556.7</ele>
        <time>2022-06-02T10:11:09.000Z</time>
      </trkpt>
      <trkpt lat="42.96697" lon="1.15383">
        <ele>557.1</ele>
        <time>2022-06-02T10:11:12.000Z</time>
      </trkpt>
      <trkpt lat="42.96705" lon="1.15372">
        <ele>557.8</ele>
        <time>2022-06-02T10:11:16.000Z</time>
      </trkpt>
      <trkpt lat="42.96711" lon="1.15364">
        <ele>558.1</ele>
        <time>2022-06-02T10:11:19.000Z</time>
      </trkpt>
      <trkpt lat="42.96718" lon="1.15354">
        <ele>559.1</ele>
        <time>2022-06-02T10:11:23.000Z</time>
      </trkpt>
      <trkpt lat="42.96728" lon="1.15348">
        <ele>559.2</ele>
        <time>2022-06-02T10:11:27.000Z</time>
      </trkpt>
      <trkpt lat="42.96735" lon="1.1534">
        <ele>560.4</ele>
        <time>2022-06-02T10:11:31.000Z</time>
      </trkpt>
      <trkpt lat="42.96742" lon="1.15327">
        <ele>560.4</ele>
        <time>2022-06-02T10:11:35.000Z</time>
      </trkpt>
      <trkpt lat="42.96747" lon="1.15317">
        <ele>561</ele>
        <time>2022-06-02T10:11:39.000Z</time>
      </trkpt>
      <trkpt lat="42.96755" lon="1.1531">
        <ele>561.2</ele>
        <time>2022-06-02T10:11:42.000Z</time>
      </trkpt>
      <trkpt lat="42.96763" lon="1.15303">
        <ele>561.8</ele>
        <time>2022-06-02T10:11:45.000Z</time>
      </trkpt>
      <trkpt lat="42.96772" lon="1.15292">
        <ele>562.3</ele>
        <time>2022-06-02T10:11:49.000Z</time>
      </trkpt>
      <trkpt lat="42.9678" lon="1.15283">
        <ele>562.4</ele>
        <time>2022-06-02T10:11:52.000Z</time>
      </trkpt>
      <trkpt lat="42.96788" lon="1.15272">
        <ele>562.3</ele>
        <time>2022-06-02T10:11:55.000Z</time>
      </trkpt>
      <trkpt lat="42.96797" lon="1.15262">
        <ele>562.4</ele>
        <time>2022-06-02T10:11:58.000Z</time>
      </trkpt>
      <trkpt lat="42.96804" lon="1.15252">
        <ele>562.6</ele>
        <time>2022-06-02T10:12:02.000Z</time>
      </trkpt>
      <trkpt lat="42.96811" lon="1.1524">
        <ele>562.4</ele>
        <time>2022-06-02T10:12:06.000Z</time>
      </trkpt>
      <trkpt lat="42.96817" lon="1.15229">
        <ele>562.7</ele>
        <time>2022-06-02T10:12:09.000Z</time>
      </trkpt>
      <trkpt lat="42.96822" lon="1.15218">
        <ele>562.7</ele>
        <time>2022-06-02T10:12:12.000Z</time>
      </trkpt>
      <trkpt lat="42.96827" lon="1.15204">
        <ele>561.7</ele>
        <time>2022-06-02T10:12:15.000Z</time>
      </trkpt>
      <trkpt lat="42.96831" lon="1.15193">
        <ele>562.2</ele>
        <time>2022-06-02T10:12:17.000Z</time>
      </trkpt>
      <trkpt lat="42.96836" lon="1.15179">
        <ele>561.6</ele>
        <time>2022-06-02T10:12:19.000Z</time>
      </trkpt>
      <trkpt lat="42.96841" lon="1.15166">
        <ele>560.8</ele>
        <time>2022-06-02T10:12:21.000Z</time>
      </trkpt>
      <trkpt lat="42.96845" lon="1.15153">
        <ele>561.3</ele>
        <time>2022-06-02T10:12:23.000Z</time>
      </trkpt>
      <trkpt lat="42.96848" lon="1.15138">
        <ele>560.5</ele>
        <time>2022-06-02T10:12:25.000Z</time>
      </trkpt>
      <trkpt lat="42.96851" lon="1.15125">
        <ele>559.7</ele>
        <time>2022-06-02T10:12:27.000Z</time>
      </trkpt>
      <trkpt lat="42.96853" lon="1.15112">
        <ele>558.6</ele>
        <time>2022-06-02T10:12:30.000Z</time>
      </trkpt>
      <trkpt lat="42.96854" lon="1.15099">
        <ele>558.4</ele>
        <time>2022-06-02T10:12:33.000Z</time>
      </trkpt>
      <trkpt lat="42.96855" lon="1.15082">
        <ele>557.5</ele>
        <time>2022-06-02T10:12:36.000Z</time>
      </trkpt>
      <trkpt lat="42.96857" lon="1.15069">
        <ele>557</ele>
        <time>2022-06-02T10:12:39.000Z</time>
      </trkpt>
      <trkpt lat="42.96858" lon="1.15056">
        <ele>556.3</ele>
        <time>2022-06-02T10:12:42.000Z</time>
      </trkpt>
      <trkpt lat="42.96856" lon="1.1504">
        <ele>556.2</ele>
        <time>2022-06-02T10:12:45.000Z</time>
      </trkpt>
      <trkpt lat="42.96854" lon="1.15022">
        <ele>555</ele>
        <time>2022-06-02T10:12:48.000Z</time>
      </trkpt>
      <trkpt lat="42.96853" lon="1.15009">
        <ele>554.7</ele>
        <time>2022-06-02T10:12:50.000Z</time>
      </trkpt>
      <trkpt lat="42.96851" lon="1.14995">
        <ele>554.6</ele>
        <time>2022-06-02T10:12:52.000Z</time>
      </trkpt>
      <trkpt lat="42.96848" lon="1.14978">
        <ele>553.7</ele>
        <time>2022-06-02T10:12:54.000Z</time>
      </trkpt>
      <trkpt lat="42.96845" lon="1.14965">
        <ele>553.3</ele>
        <time>2022-06-02T10:12:56.000Z</time>
      </trkpt>
      <trkpt lat="42.96845" lon="1.14951">
        <ele>552.3</ele>
        <time>2022-06-02T10:12:59.000Z</time>
      </trkpt>
      <trkpt lat="42.96845" lon="1.14937">
        <ele>551.3</ele>
        <time>2022-06-02T10:13:02.000Z</time>
      </trkpt>
      <trkpt lat="42.96846" lon="1.14925">
        <ele>551.3</ele>
        <time>2022-06-02T10:13:04.000Z</time>
      </trkpt>
      <trkpt lat="42.96846" lon="1.14911">
        <ele>550.5</ele>
        <time>2022-06-02T10:13:06.000Z</time>
      </trkpt>
      <trkpt lat="42.96845" lon="1.14896">
        <ele>549.9</ele>
        <time>2022-06-02T10:13:09.000Z</time>
      </trkpt>
      <trkpt lat="42.96844" lon="1.1488">
        <ele>548.5</ele>
        <time>2022-06-02T10:13:13.000Z</time>
      </trkpt>
      <trkpt lat="42.96842" lon="1.14866">
        <ele>546</ele>
        <time>2022-06-02T10:13:19.000Z</time>
      </trkpt>
      <trkpt lat="42.96841" lon="1.14853">
        <ele>545.1</ele>
        <time>2022-06-02T10:13:23.000Z</time>
      </trkpt>
      <trkpt lat="42.96843" lon="1.1484">
        <ele>543.5</ele>
        <time>2022-06-02T10:13:26.000Z</time>
      </trkpt>
      <trkpt lat="42.96853" lon="1.14842">
        <ele>540</ele>
        <time>2022-06-02T10:13:36.000Z</time>
      </trkpt>
      <trkpt lat="42.96863" lon="1.14847">
        <ele>538.4</ele>
        <time>2022-06-02T10:13:39.000Z</time>
      </trkpt>
      <trkpt lat="42.96873" lon="1.14849">
        <ele>537.5</ele>
        <time>2022-06-02T10:13:41.000Z</time>
      </trkpt>
      <trkpt lat="42.96883" lon="1.14859">
        <ele>536.1</ele>
        <time>2022-06-02T10:13:44.000Z</time>
      </trkpt>
      <trkpt lat="42.9689" lon="1.1487">
        <ele>535.3</ele>
        <time>2022-06-02T10:13:46.000Z</time>
      </trkpt>
      <trkpt lat="42.969" lon="1.14879">
        <ele>534.9</ele>
        <time>2022-06-02T10:13:48.000Z</time>
      </trkpt>
      <trkpt lat="42.9691" lon="1.14885">
        <ele>533.8</ele>
        <time>2022-06-02T10:13:50.000Z</time>
      </trkpt>
      <trkpt lat="42.96919" lon="1.14889">
        <ele>533.1</ele>
        <time>2022-06-02T10:13:52.000Z</time>
      </trkpt>
      <trkpt lat="42.96931" lon="1.1489">
        <ele>532.6</ele>
        <time>2022-06-02T10:13:55.000Z</time>
      </trkpt>
      <trkpt lat="42.96942" lon="1.14893">
        <ele>532.3</ele>
        <time>2022-06-02T10:13:59.000Z</time>
      </trkpt>
      <trkpt lat="42.96952" lon="1.14899">
        <ele>531.8</ele>
        <time>2022-06-02T10:14:02.000Z</time>
      </trkpt>
      <trkpt lat="42.96964" lon="1.14902">
        <ele>530.8</ele>
        <time>2022-06-02T10:14:06.000Z</time>
      </trkpt>
      <trkpt lat="42.96973" lon="1.14907">
        <ele>530.4</ele>
        <time>2022-06-02T10:14:09.000Z</time>
      </trkpt>
      <trkpt lat="42.96983" lon="1.14911">
        <ele>530.3</ele>
        <time>2022-06-02T10:14:12.000Z</time>
      </trkpt>
      <trkpt lat="42.96992" lon="1.1491">
        <ele>529.6</ele>
        <time>2022-06-02T10:14:15.000Z</time>
      </trkpt>
      <trkpt lat="42.97002" lon="1.14906">
        <ele>528.7</ele>
        <time>2022-06-02T10:14:20.000Z</time>
      </trkpt>
      <trkpt lat="42.97012" lon="1.14906">
        <ele>528</ele>
        <time>2022-06-02T10:14:25.000Z</time>
      </trkpt>
      <trkpt lat="42.97021" lon="1.14908">
        <ele>527.3</ele>
        <time>2022-06-02T10:14:29.000Z</time>
      </trkpt>
      <trkpt lat="42.97032" lon="1.1491">
        <ele>526.5</ele>
        <time>2022-06-02T10:14:33.000Z</time>
      </trkpt>
      <trkpt lat="42.97038" lon="1.14908">
        <ele>525.8</ele>
        <time>2022-06-02T10:14:38.000Z</time>
      </trkpt>
      <trkpt lat="42.97038" lon="1.14907">
        <ele>525.6</ele>
        <time>2022-06-02T10:14:39.000Z</time>
      </trkpt>
      <trkpt lat="42.97039" lon="1.14906">
        <ele>524</ele>
        <time>2022-06-02T10:14:46.000Z</time>
      </trkpt>
      <trkpt lat="42.97052" lon="1.14908">
        <ele>521</ele>
        <time>2022-06-02T10:14:55.000Z</time>
      </trkpt>
      <trkpt lat="42.97065" lon="1.14908">
        <ele>521.2</ele>
        <time>2022-06-02T10:14:58.000Z</time>
      </trkpt>
      <trkpt lat="42.97076" lon="1.14907">
        <ele>519.8</ele>
        <time>2022-06-02T10:15:00.000Z</time>
      </trkpt>
      <trkpt lat="42.97087" lon="1.14906">
        <ele>518.5</ele>
        <time>2022-06-02T10:15:02.000Z</time>
      </trkpt>
      <trkpt lat="42.97096" lon="1.14906">
        <ele>518.4</ele>
        <time>2022-06-02T10:15:04.000Z</time>
      </trkpt>
      <trkpt lat="42.9711" lon="1.14906">
        <ele>517.5</ele>
        <time>2022-06-02T10:15:07.000Z</time>
      </trkpt>
      <trkpt lat="42.97119" lon="1.14905">
        <ele>517.8</ele>
        <time>2022-06-02T10:15:09.000Z</time>
      </trkpt>
      <trkpt lat="42.9713" lon="1.14903">
        <ele>517.4</ele>
        <time>2022-06-02T10:15:11.000Z</time>
      </trkpt>
      <trkpt lat="42.97139" lon="1.14896">
        <ele>516.5</ele>
        <time>2022-06-02T10:15:13.000Z</time>
      </trkpt>
      <trkpt lat="42.97149" lon="1.14882">
        <ele>515.7</ele>
        <time>2022-06-02T10:15:15.000Z</time>
      </trkpt>
      <trkpt lat="42.97161" lon="1.1487">
        <ele>515.1</ele>
        <time>2022-06-02T10:15:17.000Z</time>
      </trkpt>
      <trkpt lat="42.97171" lon="1.14861">
        <ele>514</ele>
        <time>2022-06-02T10:15:19.000Z</time>
      </trkpt>
      <trkpt lat="42.9718" lon="1.14851">
        <ele>512.8</ele>
        <time>2022-06-02T10:15:21.000Z</time>
      </trkpt>
      <trkpt lat="42.97187" lon="1.1484">
        <ele>512.3</ele>
        <time>2022-06-02T10:15:23.000Z</time>
      </trkpt>
      <trkpt lat="42.97195" lon="1.14829">
        <ele>512.1</ele>
        <time>2022-06-02T10:15:25.000Z</time>
      </trkpt>
      <trkpt lat="42.97206" lon="1.14819">
        <ele>510.1</ele>
        <time>2022-06-02T10:15:28.000Z</time>
      </trkpt>
      <trkpt lat="42.97214" lon="1.14812">
        <ele>509.7</ele>
        <time>2022-06-02T10:15:30.000Z</time>
      </trkpt>
      <trkpt lat="42.97222" lon="1.14801">
        <ele>508.5</ele>
        <time>2022-06-02T10:15:32.000Z</time>
      </trkpt>
      <trkpt lat="42.97229" lon="1.1479">
        <ele>506.2</ele>
        <time>2022-06-02T10:15:35.000Z</time>
      </trkpt>
      <trkpt lat="42.97236" lon="1.1478">
        <ele>504.7</ele>
        <time>2022-06-02T10:15:38.000Z</time>
      </trkpt>
      <trkpt lat="42.97248" lon="1.14782">
        <ele>503.3</ele>
        <time>2022-06-02T10:15:41.000Z</time>
      </trkpt>
      <trkpt lat="42.97259" lon="1.14781">
        <ele>501.8</ele>
        <time>2022-06-02T10:15:43.000Z</time>
      </trkpt>
      <trkpt lat="42.97266" lon="1.14767">
        <ele>499.6</ele>
        <time>2022-06-02T10:15:47.000Z</time>
      </trkpt>
      <trkpt lat="42.97276" lon="1.14761">
        <ele>498.3</ele>
        <time>2022-06-02T10:15:50.000Z</time>
      </trkpt>
      <trkpt lat="42.97287" lon="1.14761">
        <ele>497.6</ele>
        <time>2022-06-02T10:15:52.000Z</time>
      </trkpt>
      <trkpt lat="42.973" lon="1.14762">
        <ele>496.9</ele>
        <time>2022-06-02T10:15:54.000Z</time>
      </trkpt>
      <trkpt lat="42.97312" lon="1.14766">
        <ele>496.4</ele>
        <time>2022-06-02T10:15:56.000Z</time>
      </trkpt>
      <trkpt lat="42.97324" lon="1.14772">
        <ele>494.6</ele>
        <time>2022-06-02T10:15:58.000Z</time>
      </trkpt>
      <trkpt lat="42.9734" lon="1.14776">
        <ele>493.8</ele>
        <time>2022-06-02T10:16:00.000Z</time>
      </trkpt>
      <trkpt lat="42.97355" lon="1.1478">
        <ele>493.3</ele>
        <time>2022-06-02T10:16:02.000Z</time>
      </trkpt>
      <trkpt lat="42.9737" lon="1.14779">
        <ele>491.8</ele>
        <time>2022-06-02T10:16:04.000Z</time>
      </trkpt>
      <trkpt lat="42.97382" lon="1.14775">
        <ele>491.9</ele>
        <time>2022-06-02T10:16:06.000Z</time>
      </trkpt>
      <trkpt lat="42.97393" lon="1.14772">
        <ele>490.4</ele>
        <time>2022-06-02T10:16:08.000Z</time>
      </trkpt>
      <trkpt lat="42.97405" lon="1.1477">
        <ele>489.1</ele>
        <time>2022-06-02T10:16:10.000Z</time>
      </trkpt>
      <trkpt lat="42.97417" lon="1.14765">
        <ele>488.4</ele>
        <time>2022-06-02T10:16:12.000Z</time>
      </trkpt>
      <trkpt lat="42.97429" lon="1.14762">
        <ele>486.9</ele>
        <time>2022-06-02T10:16:14.000Z</time>
      </trkpt>
      <trkpt lat="42.97439" lon="1.14757">
        <ele>486.5</ele>
        <time>2022-06-02T10:16:16.000Z</time>
      </trkpt>
      <trkpt lat="42.97451" lon="1.14752">
        <ele>484.6</ele>
        <time>2022-06-02T10:16:18.000Z</time>
      </trkpt>
      <trkpt lat="42.97463" lon="1.14745">
        <ele>483.8</ele>
        <time>2022-06-02T10:16:20.000Z</time>
      </trkpt>
      <trkpt lat="42.97475" lon="1.14739">
        <ele>482.9</ele>
        <time>2022-06-02T10:16:22.000Z</time>
      </trkpt>
      <trkpt lat="42.9749" lon="1.14733">
        <ele>481.7</ele>
        <time>2022-06-02T10:16:24.000Z</time>
      </trkpt>
      <trkpt lat="42.97505" lon="1.14726">
        <ele>480.6</ele>
        <time>2022-06-02T10:16:26.000Z</time>
      </trkpt>
      <trkpt lat="42.97518" lon="1.14723">
        <ele>479.4</ele>
        <time>2022-06-02T10:16:28.000Z</time>
      </trkpt>
      <trkpt lat="42.97529" lon="1.1472">
        <ele>478</ele>
        <time>2022-06-02T10:16:30.000Z</time>
      </trkpt>
      <trkpt lat="42.97538" lon="1.14708">
        <ele>476.7</ele>
        <time>2022-06-02T10:16:32.000Z</time>
      </trkpt>
      <trkpt lat="42.97541" lon="1.14694">
        <ele>476.6</ele>
        <time>2022-06-02T10:16:34.000Z</time>
      </trkpt>
      <trkpt lat="42.97545" lon="1.14682">
        <ele>476.4</ele>
        <time>2022-06-02T10:16:36.000Z</time>
      </trkpt>
      <trkpt lat="42.9755" lon="1.14667">
        <ele>473.9</ele>
        <time>2022-06-02T10:16:39.000Z</time>
      </trkpt>
      <trkpt lat="42.97555" lon="1.14654">
        <ele>472.3</ele>
        <time>2022-06-02T10:16:42.000Z</time>
      </trkpt>
      <trkpt lat="42.97559" lon="1.14642">
        <ele>470.8</ele>
        <time>2022-06-02T10:16:45.000Z</time>
      </trkpt>
      <trkpt lat="42.97562" lon="1.1463">
        <ele>468.8</ele>
        <time>2022-06-02T10:16:48.000Z</time>
      </trkpt>
      <trkpt lat="42.97566" lon="1.14615">
        <ele>466.7</ele>
        <time>2022-06-02T10:16:52.000Z</time>
      </trkpt>
      <trkpt lat="42.9757" lon="1.146">
        <ele>465.1</ele>
        <time>2022-06-02T10:16:56.000Z</time>
      </trkpt>
      <trkpt lat="42.97572" lon="1.14587">
        <ele>464.2</ele>
        <time>2022-06-02T10:16:59.000Z</time>
      </trkpt>
      <trkpt lat="42.97572" lon="1.14571">
        <ele>463</ele>
        <time>2022-06-02T10:17:03.000Z</time>
      </trkpt>
      <trkpt lat="42.97575" lon="1.14556">
        <ele>462</ele>
        <time>2022-06-02T10:17:07.000Z</time>
      </trkpt>
      <trkpt lat="42.9758" lon="1.14543">
        <ele>461.1</ele>
        <time>2022-06-02T10:17:12.000Z</time>
      </trkpt>
      <trkpt lat="42.97586" lon="1.14529">
        <ele>461</ele>
        <time>2022-06-02T10:17:15.000Z</time>
      </trkpt>
      <trkpt lat="42.97593" lon="1.14515">
        <ele>459.3</ele>
        <time>2022-06-02T10:17:18.000Z</time>
      </trkpt>
      <trkpt lat="42.97601" lon="1.14501">
        <ele>458.9</ele>
        <time>2022-06-02T10:17:21.000Z</time>
      </trkpt>
      <trkpt lat="42.97608" lon="1.14487">
        <ele>457.9</ele>
        <time>2022-06-02T10:17:24.000Z</time>
      </trkpt>
      <trkpt lat="42.97615" lon="1.14473">
        <ele>456.7</ele>
        <time>2022-06-02T10:17:27.000Z</time>
      </trkpt>
      <trkpt lat="42.9762" lon="1.14461">
        <ele>455.8</ele>
        <time>2022-06-02T10:17:30.000Z</time>
      </trkpt>
      <trkpt lat="42.97625" lon="1.1445">
        <ele>454.5</ele>
        <time>2022-06-02T10:17:34.000Z</time>
      </trkpt>
      <trkpt lat="42.9763" lon="1.14439">
        <ele>453.1</ele>
        <time>2022-06-02T10:17:39.000Z</time>
      </trkpt>
      <trkpt lat="42.97635" lon="1.14428">
        <ele>452.2</ele>
        <time>2022-06-02T10:17:43.000Z</time>
      </trkpt>
      <trkpt lat="42.9764" lon="1.14415">
        <ele>451.7</ele>
        <time>2022-06-02T10:17:47.000Z</time>
      </trkpt>
      <trkpt lat="42.97645" lon="1.14404">
        <ele>450.9</ele>
        <time>2022-06-02T10:17:50.000Z</time>
      </trkpt>
      <trkpt lat="42.97651" lon="1.14392">
        <ele>450.7</ele>
        <time>2022-06-02T10:17:53.000Z</time>
      </trkpt>
      <trkpt lat="42.97656" lon="1.14378">
        <ele>450.4</ele>
        <time>2022-06-02T10:17:56.000Z</time>
      </trkpt>
      <trkpt lat="42.9766" lon="1.14367">
        <ele>449.8</ele>
        <time>2022-06-02T10:17:59.000Z</time>
      </trkpt>
      <trkpt lat="42.97666" lon="1.14357">
        <ele>450.2</ele>
        <time>2022-06-02T10:18:02.000Z</time>
      </trkpt>
      <trkpt lat="42.97674" lon="1.14344">
        <ele>449.7</ele>
        <time>2022-06-02T10:18:05.000Z</time>
      </trkpt>
      <trkpt lat="42.97682" lon="1.1433">
        <ele>449.7</ele>
        <time>2022-06-02T10:18:08.000Z</time>
      </trkpt>
      <trkpt lat="42.9769" lon="1.14316">
        <ele>448.6</ele>
        <time>2022-06-02T10:18:11.000Z</time>
      </trkpt>
      <trkpt lat="42.97698" lon="1.14303">
        <ele>448.8</ele>
        <time>2022-06-02T10:18:14.000Z</time>
      </trkpt>
      <trkpt lat="42.97704" lon="1.14293">
        <ele>448.3</ele>
        <time>2022-06-02T10:18:16.000Z</time>
      </trkpt>
      <trkpt lat="42.97712" lon="1.14279">
        <ele>448.1</ele>
        <time>2022-06-02T10:18:19.000Z</time>
      </trkpt>
      <trkpt lat="42.9772" lon="1.14265">
        <ele>448.3</ele>
        <time>2022-06-02T10:18:22.000Z</time>
      </trkpt>
      <trkpt lat="42.97729" lon="1.14253">
        <ele>448</ele>
        <time>2022-06-02T10:18:25.000Z</time>
      </trkpt>
      <trkpt lat="42.97736" lon="1.14246">
        <ele>447.4</ele>
        <time>2022-06-02T10:18:27.000Z</time>
      </trkpt>
      <trkpt lat="42.97745" lon="1.14234">
        <ele>447.1</ele>
        <time>2022-06-02T10:18:30.000Z</time>
      </trkpt>
      <trkpt lat="42.97752" lon="1.14221">
        <ele>446.5</ele>
        <time>2022-06-02T10:18:33.000Z</time>
      </trkpt>
      <trkpt lat="42.97758" lon="1.14209">
        <ele>446.5</ele>
        <time>2022-06-02T10:18:36.000Z</time>
      </trkpt>
      <trkpt lat="42.97765" lon="1.14197">
        <ele>446.1</ele>
        <time>2022-06-02T10:18:39.000Z</time>
      </trkpt>
      <trkpt lat="42.97772" lon="1.14183">
        <ele>446</ele>
        <time>2022-06-02T10:18:42.000Z</time>
      </trkpt>
      <trkpt lat="42.97778" lon="1.14171">
        <ele>445.8</ele>
        <time>2022-06-02T10:18:45.000Z</time>
      </trkpt>
      <trkpt lat="42.97785" lon="1.14157">
        <ele>445.6</ele>
        <time>2022-06-02T10:18:48.000Z</time>
      </trkpt>
      <trkpt lat="42.97791" lon="1.14143">
        <ele>445.2</ele>
        <time>2022-06-02T10:18:51.000Z</time>
      </trkpt>
      <trkpt lat="42.97798" lon="1.14128">
        <ele>445.2</ele>
        <time>2022-06-02T10:18:54.000Z</time>
      </trkpt>
      <trkpt lat="42.97804" lon="1.14119">
        <ele>445.3</ele>
        <time>2022-06-02T10:18:56.000Z</time>
      </trkpt>
      <trkpt lat="42.97812" lon="1.14111">
        <ele>445.2</ele>
        <time>2022-06-02T10:18:58.000Z</time>
      </trkpt>
      <trkpt lat="42.9782" lon="1.141">
        <ele>445.7</ele>
        <time>2022-06-02T10:19:01.000Z</time>
      </trkpt>
      <trkpt lat="42.97829" lon="1.14093">
        <ele>445.7</ele>
        <time>2022-06-02T10:19:03.000Z</time>
      </trkpt>
      <trkpt lat="42.97837" lon="1.14088">
        <ele>446.2</ele>
        <time>2022-06-02T10:19:05.000Z</time>
      </trkpt>
      <trkpt lat="42.97846" lon="1.14078">
        <ele>446.7</ele>
        <time>2022-06-02T10:19:08.000Z</time>
      </trkpt>
      <trkpt lat="42.97854" lon="1.14072">
        <ele>446.5</ele>
        <time>2022-06-02T10:19:10.000Z</time>
      </trkpt>
      <trkpt lat="42.97865" lon="1.14063">
        <ele>447.6</ele>
        <time>2022-06-02T10:19:13.000Z</time>
      </trkpt>
      <trkpt lat="42.97876" lon="1.14055">
        <ele>448.3</ele>
        <time>2022-06-02T10:19:16.000Z</time>
      </trkpt>
      <trkpt lat="42.97882" lon="1.14044">
        <ele>449.3</ele>
        <time>2022-06-02T10:19:19.000Z</time>
      </trkpt>
      <trkpt lat="42.97881" lon="1.14029">
        <ele>449.7</ele>
        <time>2022-06-02T10:19:22.000Z</time>
      </trkpt>
      <trkpt lat="42.97878" lon="1.14014">
        <ele>449.9</ele>
        <time>2022-06-02T10:19:25.000Z</time>
      </trkpt>
      <trkpt lat="42.97882" lon="1.14001">
        <ele>450.6</ele>
        <time>2022-06-02T10:19:28.000Z</time>
      </trkpt>
      <trkpt lat="42.97889" lon="1.1399">
        <ele>451.1</ele>
        <time>2022-06-02T10:19:32.000Z</time>
      </trkpt>
      <trkpt lat="42.97894" lon="1.13978">
        <ele>451.4</ele>
        <time>2022-06-02T10:19:37.000Z</time>
      </trkpt>
      <trkpt lat="42.979" lon="1.13969">
        <ele>451.7</ele>
        <time>2022-06-02T10:19:40.000Z</time>
      </trkpt>
      <trkpt lat="42.97907" lon="1.13959">
        <ele>451.8</ele>
        <time>2022-06-02T10:19:43.000Z</time>
      </trkpt>
      <trkpt lat="42.97917" lon="1.13949">
        <ele>452.1</ele>
        <time>2022-06-02T10:19:46.000Z</time>
      </trkpt>
      <trkpt lat="42.97926" lon="1.13937">
        <ele>452.5</ele>
        <time>2022-06-02T10:19:49.000Z</time>
      </trkpt>
      <trkpt lat="42.97934" lon="1.13925">
        <ele>452.7</ele>
        <time>2022-06-02T10:19:52.000Z</time>
      </trkpt>
      <trkpt lat="42.97942" lon="1.13914">
        <ele>453.7</ele>
        <time>2022-06-02T10:19:55.000Z</time>
      </trkpt>
      <trkpt lat="42.97949" lon="1.139">
        <ele>454</ele>
        <time>2022-06-02T10:19:58.000Z</time>
      </trkpt>
      <trkpt lat="42.97955" lon="1.13889">
        <ele>454.6</ele>
        <time>2022-06-02T10:20:00.000Z</time>
      </trkpt>
      <trkpt lat="42.97961" lon="1.1388">
        <ele>454.7</ele>
        <time>2022-06-02T10:20:02.000Z</time>
      </trkpt>
      <trkpt lat="42.97968" lon="1.1387">
        <ele>454.2</ele>
        <time>2022-06-02T10:20:04.000Z</time>
      </trkpt>
      <trkpt lat="42.97976" lon="1.13856">
        <ele>455</ele>
        <time>2022-06-02T10:20:07.000Z</time>
      </trkpt>
      <trkpt lat="42.97981" lon="1.13845">
        <ele>454.7</ele>
        <time>2022-06-02T10:20:09.000Z</time>
      </trkpt>
      <trkpt lat="42.97986" lon="1.13833">
        <ele>455</ele>
        <time>2022-06-02T10:20:11.000Z</time>
      </trkpt>
      <trkpt lat="42.97989" lon="1.13819">
        <ele>454.6</ele>
        <time>2022-06-02T10:20:13.000Z</time>
      </trkpt>
      <trkpt lat="42.97992" lon="1.13807">
        <ele>453.6</ele>
        <time>2022-06-02T10:20:15.000Z</time>
      </trkpt>
      <trkpt lat="42.97994" lon="1.1379">
        <ele>454</ele>
        <time>2022-06-02T10:20:18.000Z</time>
      </trkpt>
      <trkpt lat="42.97999" lon="1.13774">
        <ele>453.8</ele>
        <time>2022-06-02T10:20:21.000Z</time>
      </trkpt>
      <trkpt lat="42.98002" lon="1.13761">
        <ele>453.7</ele>
        <time>2022-06-02T10:20:23.000Z</time>
      </trkpt>
      <trkpt lat="42.98005" lon="1.13746">
        <ele>453.8</ele>
        <time>2022-06-02T10:20:25.000Z</time>
      </trkpt>
      <trkpt lat="42.9801" lon="1.13729">
        <ele>453.8</ele>
        <time>2022-06-02T10:20:27.000Z</time>
      </trkpt>
      <trkpt lat="42.98016" lon="1.13711">
        <ele>453.6</ele>
        <time>2022-06-02T10:20:29.000Z</time>
      </trkpt>
      <trkpt lat="42.98021" lon="1.1369">
        <ele>453.4</ele>
        <time>2022-06-02T10:20:31.000Z</time>
      </trkpt>
      <trkpt lat="42.98025" lon="1.13667">
        <ele>453.5</ele>
        <time>2022-06-02T10:20:33.000Z</time>
      </trkpt>
      <trkpt lat="42.9803" lon="1.13646">
        <ele>453.6</ele>
        <time>2022-06-02T10:20:35.000Z</time>
      </trkpt>
      <trkpt lat="42.98039" lon="1.13625">
        <ele>453.5</ele>
        <time>2022-06-02T10:20:37.000Z</time>
      </trkpt>
      <trkpt lat="42.98046" lon="1.13604">
        <ele>452.8</ele>
        <time>2022-06-02T10:20:39.000Z</time>
      </trkpt>
      <trkpt lat="42.98049" lon="1.13582">
        <ele>453.2</ele>
        <time>2022-06-02T10:20:41.000Z</time>
      </trkpt>
      <trkpt lat="42.98052" lon="1.13561">
        <ele>453</ele>
        <time>2022-06-02T10:20:43.000Z</time>
      </trkpt>
      <trkpt lat="42.98055" lon="1.13545">
        <ele>452.4</ele>
        <time>2022-06-02T10:20:45.000Z</time>
      </trkpt>
      <trkpt lat="42.98055" lon="1.13527">
        <ele>452</ele>
        <time>2022-06-02T10:20:48.000Z</time>
      </trkpt>
      <trkpt lat="42.98051" lon="1.13515">
        <ele>451.7</ele>
        <time>2022-06-02T10:20:50.000Z</time>
      </trkpt>
      <trkpt lat="42.98048" lon="1.13502">
        <ele>450.6</ele>
        <time>2022-06-02T10:20:52.000Z</time>
      </trkpt>
      <trkpt lat="42.98046" lon="1.1349">
        <ele>450.5</ele>
        <time>2022-06-02T10:20:54.000Z</time>
      </trkpt>
      <trkpt lat="42.98045" lon="1.13477">
        <ele>449.7</ele>
        <time>2022-06-02T10:20:56.000Z</time>
      </trkpt>
      <trkpt lat="42.98042" lon="1.13459">
        <ele>449.2</ele>
        <time>2022-06-02T10:20:59.000Z</time>
      </trkpt>
      <trkpt lat="42.98042" lon="1.13445">
        <ele>448.9</ele>
        <time>2022-06-02T10:21:02.000Z</time>
      </trkpt>
      <trkpt lat="42.98038" lon="1.1343">
        <ele>448.6</ele>
        <time>2022-06-02T10:21:05.000Z</time>
      </trkpt>
      <trkpt lat="42.98031" lon="1.13419">
        <ele>448.7</ele>
        <time>2022-06-02T10:21:08.000Z</time>
      </trkpt>
      <trkpt lat="42.98027" lon="1.13405">
        <ele>448.6</ele>
        <time>2022-06-02T10:21:13.000Z</time>
      </trkpt>
      <trkpt lat="42.98034" lon="1.13395">
        <ele>448.8</ele>
        <time>2022-06-02T10:21:15.000Z</time>
      </trkpt>
      <trkpt lat="42.98044" lon="1.13383">
        <ele>448.1</ele>
        <time>2022-06-02T10:21:17.000Z</time>
      </trkpt>
      <trkpt lat="42.98054" lon="1.13369">
        <ele>447.8</ele>
        <time>2022-06-02T10:21:19.000Z</time>
      </trkpt>
      <trkpt lat="42.98061" lon="1.13353">
        <ele>448.5</ele>
        <time>2022-06-02T10:21:21.000Z</time>
      </trkpt>
      <trkpt lat="42.98066" lon="1.13333">
        <ele>446.3</ele>
        <time>2022-06-02T10:21:23.000Z</time>
      </trkpt>
      <trkpt lat="42.98067" lon="1.13315">
        <ele>445.4</ele>
        <time>2022-06-02T10:21:25.000Z</time>
      </trkpt>
      <trkpt lat="42.98072" lon="1.13302">
        <ele>444.7</ele>
        <time>2022-06-02T10:21:28.000Z</time>
      </trkpt>
      <trkpt lat="42.98084" lon="1.13305">
        <ele>444.3</ele>
        <time>2022-06-02T10:21:31.000Z</time>
      </trkpt>
      <trkpt lat="42.98093" lon="1.13312">
        <ele>443.4</ele>
        <time>2022-06-02T10:21:33.000Z</time>
      </trkpt>
      <trkpt lat="42.98102" lon="1.13318">
        <ele>442.7</ele>
        <time>2022-06-02T10:21:35.000Z</time>
      </trkpt>
      <trkpt lat="42.98112" lon="1.13325">
        <ele>442.5</ele>
        <time>2022-06-02T10:21:37.000Z</time>
      </trkpt>
      <trkpt lat="42.98122" lon="1.13332">
        <ele>441.7</ele>
        <time>2022-06-02T10:21:39.000Z</time>
      </trkpt>
      <trkpt lat="42.98132" lon="1.13339">
        <ele>441</ele>
        <time>2022-06-02T10:21:41.000Z</time>
      </trkpt>
      <trkpt lat="42.98142" lon="1.13346">
        <ele>439.7</ele>
        <time>2022-06-02T10:21:43.000Z</time>
      </trkpt>
      <trkpt lat="42.98151" lon="1.13352">
        <ele>439.3</ele>
        <time>2022-06-02T10:21:45.000Z</time>
      </trkpt>
      <trkpt lat="42.98161" lon="1.13359">
        <ele>438.2</ele>
        <time>2022-06-02T10:21:47.000Z</time>
      </trkpt>
      <trkpt lat="42.9817" lon="1.13365">
        <ele>437.2</ele>
        <time>2022-06-02T10:21:49.000Z</time>
      </trkpt>
      <trkpt lat="42.98179" lon="1.13371">
        <ele>436.5</ele>
        <time>2022-06-02T10:21:51.000Z</time>
      </trkpt>
      <trkpt lat="42.98188" lon="1.13377">
        <ele>435.3</ele>
        <time>2022-06-02T10:21:53.000Z</time>
      </trkpt>
      <trkpt lat="42.98196" lon="1.13383">
        <ele>434.5</ele>
        <time>2022-06-02T10:21:55.000Z</time>
      </trkpt>
      <trkpt lat="42.98205" lon="1.13389">
        <ele>433.9</ele>
        <time>2022-06-02T10:21:57.000Z</time>
      </trkpt>
      <trkpt lat="42.98212" lon="1.13396">
        <ele>432.8</ele>
        <time>2022-06-02T10:21:59.000Z</time>
      </trkpt>
      <trkpt lat="42.98219" lon="1.13405">
        <ele>432.1</ele>
        <time>2022-06-02T10:22:01.000Z</time>
      </trkpt>
      <trkpt lat="42.98225" lon="1.13415">
        <ele>431</ele>
        <time>2022-06-02T10:22:03.000Z</time>
      </trkpt>
      <trkpt lat="42.98231" lon="1.13424">
        <ele>430.3</ele>
        <time>2022-06-02T10:22:05.000Z</time>
      </trkpt>
      <trkpt lat="42.9824" lon="1.13438">
        <ele>429</ele>
        <time>2022-06-02T10:22:08.000Z</time>
      </trkpt>
      <trkpt lat="42.98248" lon="1.13451">
        <ele>428</ele>
        <time>2022-06-02T10:22:11.000Z</time>
      </trkpt>
      <trkpt lat="42.98258" lon="1.13463">
        <ele>427</ele>
        <time>2022-06-02T10:22:14.000Z</time>
      </trkpt>
      <trkpt lat="42.98267" lon="1.13474">
        <ele>426.1</ele>
        <time>2022-06-02T10:22:17.000Z</time>
      </trkpt>
      <trkpt lat="42.98276" lon="1.13484">
        <ele>424.8</ele>
        <time>2022-06-02T10:22:20.000Z</time>
      </trkpt>
      <trkpt lat="42.98284" lon="1.13494">
        <ele>423.9</ele>
        <time>2022-06-02T10:22:23.000Z</time>
      </trkpt>
      <trkpt lat="42.98294" lon="1.13507">
        <ele>422.9</ele>
        <time>2022-06-02T10:22:26.000Z</time>
      </trkpt>
      <trkpt lat="42.983" lon="1.13517">
        <ele>422.2</ele>
        <time>2022-06-02T10:22:28.000Z</time>
      </trkpt>
      <trkpt lat="42.98306" lon="1.13527">
        <ele>421.4</ele>
        <time>2022-06-02T10:22:30.000Z</time>
      </trkpt>
      <trkpt lat="42.98313" lon="1.13542">
        <ele>420.2</ele>
        <time>2022-06-02T10:22:33.000Z</time>
      </trkpt>
      <trkpt lat="42.98318" lon="1.13553">
        <ele>419.9</ele>
        <time>2022-06-02T10:22:35.000Z</time>
      </trkpt>
      <trkpt lat="42.98323" lon="1.13565">
        <ele>419.2</ele>
        <time>2022-06-02T10:22:37.000Z</time>
      </trkpt>
      <trkpt lat="42.98328" lon="1.13578">
        <ele>418.5</ele>
        <time>2022-06-02T10:22:39.000Z</time>
      </trkpt>
      <trkpt lat="42.98332" lon="1.13591">
        <ele>417.8</ele>
        <time>2022-06-02T10:22:41.000Z</time>
      </trkpt>
      <trkpt lat="42.98336" lon="1.13603">
        <ele>417.8</ele>
        <time>2022-06-02T10:22:43.000Z</time>
      </trkpt>
      <trkpt lat="42.9834" lon="1.13615">
        <ele>417.5</ele>
        <time>2022-06-02T10:22:45.000Z</time>
      </trkpt>
      <trkpt lat="42.98344" lon="1.13627">
        <ele>417.4</ele>
        <time>2022-06-02T10:22:47.000Z</time>
      </trkpt>
      <trkpt lat="42.98349" lon="1.13638">
        <ele>417.3</ele>
        <time>2022-06-02T10:22:49.000Z</time>
      </trkpt>
      <trkpt lat="42.98353" lon="1.1365">
        <ele>417.1</ele>
        <time>2022-06-02T10:22:51.000Z</time>
      </trkpt>
      <trkpt lat="42.98357" lon="1.13661">
        <ele>416.9</ele>
        <time>2022-06-02T10:22:53.000Z</time>
      </trkpt>
      <trkpt lat="42.98364" lon="1.13677">
        <ele>416.8</ele>
        <time>2022-06-02T10:22:56.000Z</time>
      </trkpt>
      <trkpt lat="42.98368" lon="1.13689">
        <ele>417.3</ele>
        <time>2022-06-02T10:22:58.000Z</time>
      </trkpt>
      <trkpt lat="42.98372" lon="1.137">
        <ele>417.6</ele>
        <time>2022-06-02T10:23:00.000Z</time>
      </trkpt>
      <trkpt lat="42.98376" lon="1.13712">
        <ele>417.9</ele>
        <time>2022-06-02T10:23:02.000Z</time>
      </trkpt>
      <trkpt lat="42.98383" lon="1.13727">
        <ele>418.2</ele>
        <time>2022-06-02T10:23:05.000Z</time>
      </trkpt>
      <trkpt lat="42.98389" lon="1.13743">
        <ele>418.7</ele>
        <time>2022-06-02T10:23:08.000Z</time>
      </trkpt>
      <trkpt lat="42.98393" lon="1.13761">
        <ele>418.7</ele>
        <time>2022-06-02T10:23:11.000Z</time>
      </trkpt>
      <trkpt lat="42.98395" lon="1.13777">
        <ele>419.6</ele>
        <time>2022-06-02T10:23:14.000Z</time>
      </trkpt>
      <trkpt lat="42.98396" lon="1.13792">
        <ele>420.2</ele>
        <time>2022-06-02T10:23:17.000Z</time>
      </trkpt>
      <trkpt lat="42.98397" lon="1.13806">
        <ele>420.9</ele>
        <time>2022-06-02T10:23:21.000Z</time>
      </trkpt>
      <trkpt lat="42.98389" lon="1.13813">
        <ele>421.9</ele>
        <time>2022-06-02T10:23:28.000Z</time>
      </trkpt>
      <trkpt lat="42.98387" lon="1.13811">
        <ele>421.9</ele>
        <time>2022-06-02T10:23:31.000Z</time>
      </trkpt>
      <trkpt lat="42.98386" lon="1.13808">
        <ele>422.1</ele>
        <time>2022-06-02T10:23:42.000Z</time>
      </trkpt>
      <trkpt lat="42.98386" lon="1.13809">
        <ele>422</ele>
        <time>2022-06-02T10:25:57.000Z</time>
      </trkpt>
    </trkseg>
  </trk>
</gpx>